<?xml version='1.0' encoding='UTF-8'?><gpx version="1.1" creator="JPX - https://github.com/jenetics/jpx" xmlns="http://www.topografix.com/GPX/1/1"><trk><trkseg><trkpt lat="42.4351767" lon="11.1211579"><ele>7.0</ele><time>2026-04-25T07:53:05.649Z</time></trkpt><trkpt lat="42.4352226" lon="11.1210873"><ele>7.0</ele><time>2026-04-25T07:53:43.876Z</time></trkpt><trkpt lat="42.4352365" lon="11.1209989"><ele>7.0</ele><time>2026-04-25T07:53:53.893Z</time></trkpt><trkpt lat="42.4352318" lon="11.1209018"><ele>7.0</ele><time>2026-04-25T07:58:37.881Z</time></trkpt><trkpt lat="42.4351553" lon="11.120863"><ele>7.0</ele><time>2026-04-25T07:58:40.886Z</time></trkpt><trkpt lat="42.4350909" lon="11.1208299"><ele>7.0</ele><time>2026-04-25T07:58:43.889Z</time></trkpt><trkpt lat="42.4350331" lon="11.1207943"><ele>7.0</ele><time>2026-04-25T08:00:01.881Z</time></trkpt><trkpt lat="42.4349684" lon="11.1207608"><ele>9.2</ele><time>2026-04-25T08:00:03.883Z</time></trkpt><trkpt lat="42.4348835" lon="11.1207182"><ele>11.399999999999999</ele><time>2026-04-25T08:00:05.883Z</time></trkpt><trkpt lat="42.4347918" lon="11.1206652"><ele>13.600000000000001</ele><time>2026-04-25T08:00:08.884Z</time></trkpt><trkpt lat="42.4347169" lon="11.1206353"><ele>15.8</ele><time>2026-04-25T08:00:10.883Z</time></trkpt><trkpt lat="42.4346203" lon="11.1205751"><ele>18.0</ele><time>2026-04-25T08:00:13.888Z</time></trkpt><trkpt lat="42.4345174" lon="11.120522"><ele>18.0</ele><time>2026-04-25T08:00:15.884Z</time></trkpt><trkpt lat="42.4344412" lon="11.1204952"><ele>18.0</ele><time>2026-04-25T08:00:17.878Z</time></trkpt><trkpt lat="42.4343784" lon="11.120526"><ele>18.0</ele><time>2026-04-25T08:00:20.882Z</time></trkpt><trkpt lat="42.4343279" lon="11.1206499"><ele>18.0</ele><time>2026-04-25T08:00:22.875Z</time></trkpt><trkpt lat="42.4342903" lon="11.1207379"><ele>18.0</ele><time>2026-04-25T08:00:24.881Z</time></trkpt><trkpt lat="42.4342616" lon="11.120822"><ele>18.0</ele><time>2026-04-25T08:00:27.878Z</time></trkpt><trkpt lat="42.4342215" lon="11.1209485"><ele>17.0</ele><time>2026-04-25T08:00:30.877Z</time></trkpt><trkpt lat="42.4341838" lon="11.1210596"><ele>16.0</ele><time>2026-04-25T08:00:32.887Z</time></trkpt><trkpt lat="42.4341273" lon="11.1212102"><ele>15.0</ele><time>2026-04-25T08:00:34.889Z</time></trkpt><trkpt lat="42.434104" lon="11.1212974"><ele>14.0</ele><time>2026-04-25T08:00:35.892Z</time></trkpt><trkpt lat="42.4340735" lon="11.1213793"><ele>13.0</ele><time>2026-04-25T08:00:36.885Z</time></trkpt><trkpt lat="42.4340292" lon="11.1214571"><ele>12.0</ele><time>2026-04-25T08:00:37.878Z</time></trkpt><trkpt lat="42.4339946" lon="11.1215348"><ele>12.399999999999999</ele><time>2026-04-25T08:00:38.893Z</time></trkpt><trkpt lat="42.4339279" lon="11.1216619"><ele>12.799999999999999</ele><time>2026-04-25T08:00:40.881Z</time></trkpt><trkpt lat="42.4338685" lon="11.1217985"><ele>13.2</ele><time>2026-04-25T08:00:42.885Z</time></trkpt><trkpt lat="42.4338135" lon="11.1219193"><ele>13.6</ele><time>2026-04-25T08:00:44.887Z</time></trkpt><trkpt lat="42.4337667" lon="11.1220443"><ele>14.0</ele><time>2026-04-25T08:00:46.882Z</time></trkpt><trkpt lat="42.4337366" lon="11.1221406"><ele>13.399999999999999</ele><time>2026-04-25T08:00:47.889Z</time></trkpt><trkpt lat="42.4337" lon="11.1222671"><ele>12.799999999999999</ele><time>2026-04-25T08:00:48.887Z</time></trkpt><trkpt lat="42.4336444" lon="11.1223895"><ele>12.2</ele><time>2026-04-25T08:00:49.885Z</time></trkpt><trkpt lat="42.4335995" lon="11.1224904"><ele>11.600000000000001</ele><time>2026-04-25T08:00:50.882Z</time></trkpt><trkpt lat="42.433568" lon="11.1226001"><ele>11.0</ele><time>2026-04-25T08:00:51.886Z</time></trkpt><trkpt lat="42.4335323" lon="11.1226922"><ele>11.0</ele><time>2026-04-25T08:00:52.887Z</time></trkpt><trkpt lat="42.4335058" lon="11.1227735"><ele>11.0</ele><time>2026-04-25T08:00:53.883Z</time></trkpt><trkpt lat="42.4334824" lon="11.1228533"><ele>11.0</ele><time>2026-04-25T08:00:54.884Z</time></trkpt><trkpt lat="42.4334373" lon="11.1229656"><ele>11.0</ele><time>2026-04-25T08:00:56.895Z</time></trkpt><trkpt lat="42.4333457" lon="11.1230102"><ele>11.0</ele><time>2026-04-25T08:00:59.891Z</time></trkpt><trkpt lat="42.4332886" lon="11.1230704"><ele>11.0</ele><time>2026-04-25T08:01:01.88Z</time></trkpt><trkpt lat="42.4332784" lon="11.1231644"><ele>11.0</ele><time>2026-04-25T08:01:03.889Z</time></trkpt><trkpt lat="42.4333304" lon="11.1232168"><ele>11.0</ele><time>2026-04-25T08:01:05.885Z</time></trkpt><trkpt lat="42.4334425" lon="11.1232413"><ele>11.0</ele><time>2026-04-25T08:01:07.879Z</time></trkpt><trkpt lat="42.4335217" lon="11.1232867"><ele>11.0</ele><time>2026-04-25T08:01:08.877Z</time></trkpt><trkpt lat="42.4335972" lon="11.1233483"><ele>11.0</ele><time>2026-04-25T08:01:09.882Z</time></trkpt><trkpt lat="42.4336759" lon="11.1234147"><ele>11.0</ele><time>2026-04-25T08:01:10.877Z</time></trkpt><trkpt lat="42.4337604" lon="11.1234796"><ele>9.333333333333332</ele><time>2026-04-25T08:01:11.894Z</time></trkpt><trkpt lat="42.4338435" lon="11.1235426"><ele>7.666666666666666</ele><time>2026-04-25T08:01:12.886Z</time></trkpt><trkpt lat="42.4339064" lon="11.123611"><ele>6.0</ele><time>2026-04-25T08:01:13.889Z</time></trkpt><trkpt lat="42.4339596" lon="11.1236751"><ele>4.333333333333333</ele><time>2026-04-25T08:01:14.878Z</time></trkpt><trkpt lat="42.4340261" lon="11.1237956"><ele>2.6666666666666665</ele><time>2026-04-25T08:01:16.878Z</time></trkpt><trkpt lat="42.4341049" lon="11.1238303"><ele>1.0</ele><time>2026-04-25T08:01:18.877Z</time></trkpt><trkpt lat="42.4341808" lon="11.1237613"><ele>0.9999999999999999</ele><time>2026-04-25T08:01:20.881Z</time></trkpt><trkpt lat="42.4342147" lon="11.1236276"><ele>1.0</ele><time>2026-04-25T08:01:22.884Z</time></trkpt><trkpt lat="42.4342341" lon="11.1235361"><ele>1.0</ele><time>2026-04-25T08:01:23.884Z</time></trkpt><trkpt lat="42.4342506" lon="11.123439"><ele>1.0</ele><time>2026-04-25T08:01:24.889Z</time></trkpt><trkpt lat="42.4342582" lon="11.1233385"><ele>0.9999999999999999</ele><time>2026-04-25T08:01:25.886Z</time></trkpt><trkpt lat="42.4342732" lon="11.1232323"><ele>1.0</ele><time>2026-04-25T08:01:26.881Z</time></trkpt><trkpt lat="42.4342864" lon="11.1231397"><ele>1.8333333333333333</ele><time>2026-04-25T08:01:27.888Z</time></trkpt><trkpt lat="42.4343049" lon="11.1230575"><ele>2.6666666666666665</ele><time>2026-04-25T08:01:28.884Z</time></trkpt><trkpt lat="42.4343395" lon="11.1229173"><ele>3.5</ele><time>2026-04-25T08:01:30.884Z</time></trkpt><trkpt lat="42.4343475" lon="11.1228323"><ele>4.333333333333333</ele><time>2026-04-25T08:01:31.889Z</time></trkpt><trkpt lat="42.4343581" lon="11.122729"><ele>5.166666666666667</ele><time>2026-04-25T08:01:32.881Z</time></trkpt><trkpt lat="42.4343916" lon="11.122608"><ele>6.0</ele><time>2026-04-25T08:01:33.883Z</time></trkpt><trkpt lat="42.4344336" lon="11.1224866"><ele>6.0</ele><time>2026-04-25T08:01:34.89Z</time></trkpt><trkpt lat="42.4344944" lon="11.1223994"><ele>6.0</ele><time>2026-04-25T08:01:35.885Z</time></trkpt><trkpt lat="42.4345482" lon="11.1223331"><ele>6.0</ele><time>2026-04-25T08:01:36.886Z</time></trkpt><trkpt lat="42.4346141" lon="11.122257"><ele>6.0</ele><time>2026-04-25T08:01:37.88Z</time></trkpt><trkpt lat="42.4346897" lon="11.1221664"><ele>6.0</ele><time>2026-04-25T08:01:38.888Z</time></trkpt><trkpt lat="42.4347692" lon="11.1220943"><ele>6.0</ele><time>2026-04-25T08:01:39.885Z</time></trkpt><trkpt lat="42.4348269" lon="11.1220306"><ele>5.2</ele><time>2026-04-25T08:01:40.888Z</time></trkpt><trkpt lat="42.434921" lon="11.1219651"><ele>4.3999999999999995</ele><time>2026-04-25T08:01:42.886Z</time></trkpt><trkpt lat="42.4349812" lon="11.1219231"><ele>3.6</ele><time>2026-04-25T08:01:44.883Z</time></trkpt><trkpt lat="42.4350622" lon="11.1218137"><ele>2.8</ele><time>2026-04-25T08:01:46.884Z</time></trkpt><trkpt lat="42.4351474" lon="11.1216745"><ele>2.0</ele><time>2026-04-25T08:01:48.881Z</time></trkpt><trkpt lat="42.4352014" lon="11.1215733"><ele>2.5</ele><time>2026-04-25T08:01:49.882Z</time></trkpt><trkpt lat="42.4352578" lon="11.1214635"><ele>3.0</ele><time>2026-04-25T08:01:50.883Z</time></trkpt><trkpt lat="42.4353291" lon="11.1213291"><ele>3.5</ele><time>2026-04-25T08:01:51.886Z</time></trkpt><trkpt lat="42.4353981" lon="11.1211937"><ele>4.0</ele><time>2026-04-25T08:01:52.885Z</time></trkpt><trkpt lat="42.4354724" lon="11.1210664"><ele>4.0</ele><time>2026-04-25T08:01:53.886Z</time></trkpt><trkpt lat="42.4355566" lon="11.1209676"><ele>4.0</ele><time>2026-04-25T08:01:54.892Z</time></trkpt><trkpt lat="42.4356506" lon="11.1208839"><ele>4.0</ele><time>2026-04-25T08:01:55.88Z</time></trkpt><trkpt lat="42.4357512" lon="11.1208138"><ele>4.0</ele><time>2026-04-25T08:01:56.882Z</time></trkpt><trkpt lat="42.4358578" lon="11.1207657"><ele>4.0</ele><time>2026-04-25T08:01:57.882Z</time></trkpt><trkpt lat="42.435964" lon="11.1207508"><ele>4.0</ele><time>2026-04-25T08:01:58.893Z</time></trkpt><trkpt lat="42.4360732" lon="11.1207331"><ele>4.0</ele><time>2026-04-25T08:01:59.881Z</time></trkpt><trkpt lat="42.4361712" lon="11.1207017"><ele>4.0</ele><time>2026-04-25T08:02:00.882Z</time></trkpt><trkpt lat="42.4362564" lon="11.1206495"><ele>4.0</ele><time>2026-04-25T08:02:01.885Z</time></trkpt><trkpt lat="42.4363396" lon="11.1205866"><ele>4.0</ele><time>2026-04-25T08:02:02.885Z</time></trkpt><trkpt lat="42.4364246" lon="11.1205104"><ele>6.0</ele><time>2026-04-25T08:02:03.883Z</time></trkpt><trkpt lat="42.4365147" lon="11.1204366"><ele>8.0</ele><time>2026-04-25T08:02:04.891Z</time></trkpt><trkpt lat="42.4366003" lon="11.1203535"><ele>9.999999999999998</ele><time>2026-04-25T08:02:05.89Z</time></trkpt><trkpt lat="42.4366776" lon="11.1202599"><ele>12.0</ele><time>2026-04-25T08:02:06.88Z</time></trkpt><trkpt lat="42.4367672" lon="11.1201711"><ele>14.0</ele><time>2026-04-25T08:02:07.881Z</time></trkpt><trkpt lat="42.4368607" lon="11.1200911"><ele>14.0</ele><time>2026-04-25T08:02:08.882Z</time></trkpt><trkpt lat="42.4369475" lon="11.1200347"><ele>13.999999999999998</ele><time>2026-04-25T08:02:09.884Z</time></trkpt><trkpt lat="42.4370235" lon="11.1199906"><ele>13.999999999999998</ele><time>2026-04-25T08:02:10.88Z</time></trkpt><trkpt lat="42.4371055" lon="11.1199974"><ele>14.0</ele><time>2026-04-25T08:02:11.885Z</time></trkpt><trkpt lat="42.4371962" lon="11.1200483"><ele>14.0</ele><time>2026-04-25T08:02:12.885Z</time></trkpt><trkpt lat="42.4372795" lon="11.120101"><ele>13.333333333333334</ele><time>2026-04-25T08:02:13.884Z</time></trkpt><trkpt lat="42.4373711" lon="11.1201509"><ele>12.666666666666668</ele><time>2026-04-25T08:02:14.887Z</time></trkpt><trkpt lat="42.4374452" lon="11.1201916"><ele>12.0</ele><time>2026-04-25T08:02:15.886Z</time></trkpt><trkpt lat="42.4375176" lon="11.1202323"><ele>11.333333333333334</ele><time>2026-04-25T08:02:16.881Z</time></trkpt><trkpt lat="42.4375974" lon="11.1202473"><ele>10.666666666666668</ele><time>2026-04-25T08:02:17.884Z</time></trkpt><trkpt lat="42.4376773" lon="11.1202548"><ele>10.0</ele><time>2026-04-25T08:02:18.874Z</time></trkpt><trkpt lat="42.4377597" lon="11.1202341"><ele>10.0</ele><time>2026-04-25T08:02:19.886Z</time></trkpt><trkpt lat="42.4378577" lon="11.1201925"><ele>10.0</ele><time>2026-04-25T08:02:20.883Z</time></trkpt><trkpt lat="42.4379642" lon="11.1201358"><ele>10.0</ele><time>2026-04-25T08:02:21.879Z</time></trkpt><trkpt lat="42.4380669" lon="11.1200717"><ele>10.0</ele><time>2026-04-25T08:02:22.886Z</time></trkpt><trkpt lat="42.4381671" lon="11.1199963"><ele>10.0</ele><time>2026-04-25T08:02:23.883Z</time></trkpt><trkpt lat="42.4382641" lon="11.1199166"><ele>13.25</ele><time>2026-04-25T08:02:24.886Z</time></trkpt><trkpt lat="42.4383686" lon="11.1198418"><ele>16.5</ele><time>2026-04-25T08:02:25.881Z</time></trkpt><trkpt lat="42.4384748" lon="11.119765"><ele>19.75</ele><time>2026-04-25T08:02:26.886Z</time></trkpt><trkpt lat="42.4385674" lon="11.1196863"><ele>23.0</ele><time>2026-04-25T08:02:27.886Z</time></trkpt><trkpt lat="42.4386633" lon="11.119615"><ele>23.0</ele><time>2026-04-25T08:02:28.887Z</time></trkpt><trkpt lat="42.438759" lon="11.1195274"><ele>23.0</ele><time>2026-04-25T08:02:29.885Z</time></trkpt><trkpt lat="42.4388568" lon="11.1194481"><ele>23.0</ele><time>2026-04-25T08:02:30.882Z</time></trkpt><trkpt lat="42.4389486" lon="11.1193473"><ele>23.0</ele><time>2026-04-25T08:02:31.886Z</time></trkpt><trkpt lat="42.4390302" lon="11.1192208"><ele>21.25</ele><time>2026-04-25T08:02:32.878Z</time></trkpt><trkpt lat="42.4391155" lon="11.1190928"><ele>19.5</ele><time>2026-04-25T08:02:33.886Z</time></trkpt><trkpt lat="42.4391993" lon="11.1189786"><ele>17.75</ele><time>2026-04-25T08:02:34.89Z</time></trkpt><trkpt lat="42.4392863" lon="11.1188536"><ele>16.0</ele><time>2026-04-25T08:02:35.881Z</time></trkpt><trkpt lat="42.4393655" lon="11.1187245"><ele>16.0</ele><time>2026-04-25T08:02:36.88Z</time></trkpt><trkpt lat="42.4394484" lon="11.1186135"><ele>16.0</ele><time>2026-04-25T08:02:37.88Z</time></trkpt><trkpt lat="42.4395302" lon="11.118492"><ele>16.0</ele><time>2026-04-25T08:02:38.885Z</time></trkpt><trkpt lat="42.4396022" lon="11.1183669"><ele>16.0</ele><time>2026-04-25T08:02:39.884Z</time></trkpt><trkpt lat="42.4396683" lon="11.1182372"><ele>13.200000000000001</ele><time>2026-04-25T08:02:40.885Z</time></trkpt><trkpt lat="42.4397215" lon="11.1181118"><ele>10.400000000000002</ele><time>2026-04-25T08:02:41.886Z</time></trkpt><trkpt lat="42.4397688" lon="11.1179845"><ele>7.6000000000000005</ele><time>2026-04-25T08:02:42.888Z</time></trkpt><trkpt lat="42.4398131" lon="11.1178704"><ele>4.800000000000001</ele><time>2026-04-25T08:02:43.886Z</time></trkpt><trkpt lat="42.439843" lon="11.117754"><ele>2.0</ele><time>2026-04-25T08:02:44.892Z</time></trkpt><trkpt lat="42.4398484" lon="11.1176391"><ele>1.9999999999999998</ele><time>2026-04-25T08:02:45.886Z</time></trkpt><trkpt lat="42.4398304" lon="11.1175297"><ele>2.0</ele><time>2026-04-25T08:02:46.892Z</time></trkpt><trkpt lat="42.4397929" lon="11.1174208"><ele>2.0</ele><time>2026-04-25T08:02:47.891Z</time></trkpt><trkpt lat="42.4397381" lon="11.1173322"><ele>2.0</ele><time>2026-04-25T08:02:48.886Z</time></trkpt><trkpt lat="42.4396748" lon="11.1172638"><ele>1.9999999999999998</ele><time>2026-04-25T08:02:49.891Z</time></trkpt><trkpt lat="42.4396042" lon="11.1171975"><ele>2.0</ele><time>2026-04-25T08:02:50.883Z</time></trkpt><trkpt lat="42.4395343" lon="11.1171391"><ele>2.5</ele><time>2026-04-25T08:02:51.883Z</time></trkpt><trkpt lat="42.4394753" lon="11.117082"><ele>3.0</ele><time>2026-04-25T08:02:52.893Z</time></trkpt><trkpt lat="42.4394156" lon="11.1170368"><ele>3.5</ele><time>2026-04-25T08:02:53.884Z</time></trkpt><trkpt lat="42.4392996" lon="11.1169548"><ele>4.0</ele><time>2026-04-25T08:02:55.887Z</time></trkpt><trkpt lat="42.4392409" lon="11.1169106"><ele>4.5</ele><time>2026-04-25T08:02:56.881Z</time></trkpt><trkpt lat="42.4391802" lon="11.1168664"><ele>5.0</ele><time>2026-04-25T08:02:57.882Z</time></trkpt><trkpt lat="42.4391149" lon="11.1168277"><ele>5.0</ele><time>2026-04-25T08:02:58.884Z</time></trkpt><trkpt lat="42.4390609" lon="11.1167751"><ele>5.0</ele><time>2026-04-25T08:02:59.888Z</time></trkpt><trkpt lat="42.4390075" lon="11.1167268"><ele>5.0</ele><time>2026-04-25T08:03:00.888Z</time></trkpt><trkpt lat="42.4389188" lon="11.1166951"><ele>5.0</ele><time>2026-04-25T08:03:02.885Z</time></trkpt><trkpt lat="42.4388572" lon="11.1167674"><ele>5.0</ele><time>2026-04-25T08:03:04.875Z</time></trkpt><trkpt lat="42.4387555" lon="11.1168462"><ele>5.0</ele><time>2026-04-25T08:03:06.891Z</time></trkpt><trkpt lat="42.438671" lon="11.1168404"><ele>10.0</ele><time>2026-04-25T08:03:07.889Z</time></trkpt><trkpt lat="42.4385822" lon="11.1168321"><ele>15.0</ele><time>2026-04-25T08:03:09.886Z</time></trkpt><trkpt lat="42.4385373" lon="11.1167106"><ele>20.0</ele><time>2026-04-25T08:03:12.893Z</time></trkpt><trkpt lat="42.4385418" lon="11.116475"><ele>25.0</ele><time>2026-04-25T08:03:14.889Z</time></trkpt><trkpt lat="42.4385901" lon="11.1162426"><ele>25.75</ele><time>2026-04-25T08:03:15.881Z</time></trkpt><trkpt lat="42.4386402" lon="11.1160203"><ele>26.5</ele><time>2026-04-25T08:03:16.89Z</time></trkpt><trkpt lat="42.4386717" lon="11.1158351"><ele>27.25</ele><time>2026-04-25T08:03:17.887Z</time></trkpt><trkpt lat="42.4386737" lon="11.1156715"><ele>28.0</ele><time>2026-04-25T08:03:18.88Z</time></trkpt><trkpt lat="42.4386291" lon="11.1154871"><ele>28.666666666666668</ele><time>2026-04-25T08:03:19.886Z</time></trkpt><trkpt lat="42.4385328" lon="11.115291"><ele>29.333333333333336</ele><time>2026-04-25T08:03:20.882Z</time></trkpt><trkpt lat="42.4384616" lon="11.1150858"><ele>30.0</ele><time>2026-04-25T08:03:21.886Z</time></trkpt><trkpt lat="42.4384148" lon="11.11491"><ele>31.8</ele><time>2026-04-25T08:03:22.886Z</time></trkpt><trkpt lat="42.4384278" lon="11.1147996"><ele>33.6</ele><time>2026-04-25T08:03:23.882Z</time></trkpt><trkpt lat="42.4384543" lon="11.1146866"><ele>35.4</ele><time>2026-04-25T08:03:24.893Z</time></trkpt><trkpt lat="42.4385238" lon="11.1145794"><ele>37.2</ele><time>2026-04-25T08:03:25.88Z</time></trkpt><trkpt lat="42.4386184" lon="11.114424"><ele>39.0</ele><time>2026-04-25T08:03:26.879Z</time></trkpt><trkpt lat="42.4387197" lon="11.1142683"><ele>41.5</ele><time>2026-04-25T08:03:27.883Z</time></trkpt><trkpt lat="42.4388161" lon="11.1141309"><ele>44.0</ele><time>2026-04-25T08:03:28.884Z</time></trkpt><trkpt lat="42.438903" lon="11.1139947"><ele>46.5</ele><time>2026-04-25T08:03:29.885Z</time></trkpt><trkpt lat="42.4389547" lon="11.1138584"><ele>49.0</ele><time>2026-04-25T08:03:30.892Z</time></trkpt><trkpt lat="42.4389994" lon="11.1137444"><ele>49.0</ele><time>2026-04-25T08:03:31.89Z</time></trkpt><trkpt lat="42.4393771" lon="11.1137403"><ele>49.0</ele><time>2026-04-25T08:03:35.885Z</time></trkpt><trkpt lat="42.4394678" lon="11.1138296"><ele>49.0</ele><time>2026-04-25T08:03:36.89Z</time></trkpt><trkpt lat="42.4395866" lon="11.1138719"><ele>49.0</ele><time>2026-04-25T08:03:37.881Z</time></trkpt><trkpt lat="42.4396767" lon="11.1139757"><ele>49.0</ele><time>2026-04-25T08:03:39.881Z</time></trkpt><trkpt lat="42.4397354" lon="11.1140242"><ele>49.0</ele><time>2026-04-25T08:03:40.882Z</time></trkpt><trkpt lat="42.4397941" lon="11.114156"><ele>49.0</ele><time>2026-04-25T08:03:42.888Z</time></trkpt><trkpt lat="42.4398545" lon="11.114235"><ele>47.0</ele><time>2026-04-25T08:03:44.882Z</time></trkpt><trkpt lat="42.4399589" lon="11.114274"><ele>45.0</ele><time>2026-04-25T08:03:46.884Z</time></trkpt><trkpt lat="42.4400759" lon="11.1142885"><ele>43.0</ele><time>2026-04-25T08:03:48.885Z</time></trkpt><trkpt lat="42.440195" lon="11.1142834"><ele>41.0</ele><time>2026-04-25T08:03:50.881Z</time></trkpt><trkpt lat="42.440268" lon="11.1142838"><ele>39.0</ele><time>2026-04-25T08:03:51.886Z</time></trkpt><trkpt lat="42.4403378" lon="11.114277"><ele>39.0</ele><time>2026-04-25T08:03:52.882Z</time></trkpt><trkpt lat="42.4404039" lon="11.1142749"><ele>39.0</ele><time>2026-04-25T08:03:53.888Z</time></trkpt><trkpt lat="42.4405189" lon="11.1142696"><ele>39.0</ele><time>2026-04-25T08:03:55.882Z</time></trkpt><trkpt lat="42.4405835" lon="11.1142684"><ele>39.0</ele><time>2026-04-25T08:03:56.879Z</time></trkpt><trkpt lat="42.4406587" lon="11.1142739"><ele>39.0</ele><time>2026-04-25T08:03:57.884Z</time></trkpt><trkpt lat="42.4407669" lon="11.1142388"><ele>39.0</ele><time>2026-04-25T08:03:59.885Z</time></trkpt><trkpt lat="42.4408243" lon="11.1141302"><ele>43.0</ele><time>2026-04-25T08:04:01.884Z</time></trkpt><trkpt lat="42.4408368" lon="11.1139869"><ele>47.0</ele><time>2026-04-25T08:04:03.889Z</time></trkpt><trkpt lat="42.4408236" lon="11.1138188"><ele>51.00000000000001</ele><time>2026-04-25T08:04:05.886Z</time></trkpt><trkpt lat="42.4408178" lon="11.113732"><ele>55.0</ele><time>2026-04-25T08:04:06.887Z</time></trkpt><trkpt lat="42.4408089" lon="11.1136207"><ele>59.0</ele><time>2026-04-25T08:04:08.892Z</time></trkpt><trkpt lat="42.4407701" lon="11.1135393"><ele>59.0</ele><time>2026-04-25T08:04:12.891Z</time></trkpt><trkpt lat="42.4407044" lon="11.1135239"><ele>59.00000000000001</ele><time>2026-04-25T08:04:14.885Z</time></trkpt><trkpt lat="42.4405697" lon="11.1134825"><ele>59.00000000000001</ele><time>2026-04-25T08:04:16.883Z</time></trkpt><trkpt lat="42.4404893" lon="11.1134611"><ele>59.0</ele><time>2026-04-25T08:04:17.885Z</time></trkpt><trkpt lat="42.4404058" lon="11.1134444"><ele>59.0</ele><time>2026-04-25T08:04:18.887Z</time></trkpt><trkpt lat="42.4403128" lon="11.1134218"><ele>58.6</ele><time>2026-04-25T08:04:19.883Z</time></trkpt><trkpt lat="42.4402171" lon="11.1133955"><ele>58.2</ele><time>2026-04-25T08:04:20.878Z</time></trkpt><trkpt lat="42.4401132" lon="11.113363"><ele>57.800000000000004</ele><time>2026-04-25T08:04:21.886Z</time></trkpt><trkpt lat="42.4400152" lon="11.1133296"><ele>57.400000000000006</ele><time>2026-04-25T08:04:22.89Z</time></trkpt><trkpt lat="42.4399296" lon="11.1132909"><ele>57.0</ele><time>2026-04-25T08:04:23.896Z</time></trkpt><trkpt lat="42.439869" lon="11.1132653"><ele>57.0</ele><time>2026-04-25T08:04:24.878Z</time></trkpt><trkpt lat="42.4397974" lon="11.1132719"><ele>57.0</ele><time>2026-04-25T08:04:27.886Z</time></trkpt><trkpt lat="42.4397088" lon="11.1132964"><ele>57.0</ele><time>2026-04-25T08:05:09.888Z</time></trkpt><trkpt lat="42.4396436" lon="11.1132439"><ele>57.0</ele><time>2026-04-25T08:05:10.889Z</time></trkpt><trkpt lat="42.4395245" lon="11.1131932"><ele>57.0</ele><time>2026-04-25T08:05:11.881Z</time></trkpt><trkpt lat="42.4393653" lon="11.1131225"><ele>62.5</ele><time>2026-04-25T08:05:12.88Z</time></trkpt><trkpt lat="42.4392169" lon="11.1130669"><ele>68.0</ele><time>2026-04-25T08:05:13.897Z</time></trkpt><trkpt lat="42.4390787" lon="11.1130228"><ele>73.5</ele><time>2026-04-25T08:05:14.882Z</time></trkpt><trkpt lat="42.4389414" lon="11.1129849"><ele>79.0</ele><time>2026-04-25T08:05:15.885Z</time></trkpt><trkpt lat="42.4388195" lon="11.1129649"><ele>79.80000000000001</ele><time>2026-04-25T08:05:16.889Z</time></trkpt><trkpt lat="42.4387258" lon="11.1129809"><ele>80.60000000000001</ele><time>2026-04-25T08:05:17.885Z</time></trkpt><trkpt lat="42.4386385" lon="11.1130435"><ele>81.4</ele><time>2026-04-25T08:05:18.88Z</time></trkpt><trkpt lat="42.4385766" lon="11.1131202"><ele>82.2</ele><time>2026-04-25T08:05:19.892Z</time></trkpt><trkpt lat="42.4385093" lon="11.1132253"><ele>83.0</ele><time>2026-04-25T08:05:20.883Z</time></trkpt><trkpt lat="42.4384341" lon="11.1133299"><ele>74.66666666666667</ele><time>2026-04-25T08:05:21.887Z</time></trkpt><trkpt lat="42.4383203" lon="11.1134888"><ele>66.33333333333333</ele><time>2026-04-25T08:05:22.881Z</time></trkpt><trkpt lat="42.4381966" lon="11.1136681"><ele>58.0</ele><time>2026-04-25T08:05:23.884Z</time></trkpt><trkpt lat="42.438049" lon="11.1138738"><ele>60.666666666666664</ele><time>2026-04-25T08:05:24.89Z</time></trkpt><trkpt lat="42.4379013" lon="11.1140833"><ele>63.33333333333333</ele><time>2026-04-25T08:05:25.885Z</time></trkpt><trkpt lat="42.4377759" lon="11.1142426"><ele>66.0</ele><time>2026-04-25T08:05:26.88Z</time></trkpt><trkpt lat="42.4376733" lon="11.1143647"><ele>66.0</ele><time>2026-04-25T08:05:27.885Z</time></trkpt><trkpt lat="42.4375965" lon="11.114463"><ele>66.0</ele><time>2026-04-25T08:05:28.883Z</time></trkpt><trkpt lat="42.437524" lon="11.1145722"><ele>66.0</ele><time>2026-04-25T08:05:29.879Z</time></trkpt><trkpt lat="42.4374739" lon="11.1147156"><ele>66.0</ele><time>2026-04-25T08:05:30.885Z</time></trkpt><trkpt lat="42.4374263" lon="11.11487"><ele>64.0</ele><time>2026-04-25T08:05:31.878Z</time></trkpt><trkpt lat="42.437366" lon="11.1149914"><ele>61.99999999999999</ele><time>2026-04-25T08:05:32.88Z</time></trkpt><trkpt lat="42.437301" lon="11.1151117"><ele>59.99999999999999</ele><time>2026-04-25T08:05:33.888Z</time></trkpt><trkpt lat="42.4372597" lon="11.1152473"><ele>58.0</ele><time>2026-04-25T08:05:34.895Z</time></trkpt><trkpt lat="42.4372303" lon="11.1153865"><ele>56.0</ele><time>2026-04-25T08:05:35.882Z</time></trkpt><trkpt lat="42.4372352" lon="11.11552"><ele>56.0</ele><time>2026-04-25T08:05:36.885Z</time></trkpt><trkpt lat="42.4372601" lon="11.1156529"><ele>55.99999999999999</ele><time>2026-04-25T08:05:37.88Z</time></trkpt><trkpt lat="42.437301" lon="11.1157725"><ele>55.99999999999999</ele><time>2026-04-25T08:05:38.884Z</time></trkpt><trkpt lat="42.4373209" lon="11.1158768"><ele>56.0</ele><time>2026-04-25T08:05:39.891Z</time></trkpt><trkpt lat="42.4373011" lon="11.1159579"><ele>56.0</ele><time>2026-04-25T08:05:40.888Z</time></trkpt><trkpt lat="42.4371844" lon="11.1160444"><ele>60.8</ele><time>2026-04-25T08:05:42.887Z</time></trkpt><trkpt lat="42.4370798" lon="11.1160543"><ele>65.6</ele><time>2026-04-25T08:05:44.885Z</time></trkpt><trkpt lat="42.4369996" lon="11.1159834"><ele>70.4</ele><time>2026-04-25T08:05:46.885Z</time></trkpt><trkpt lat="42.4369514" lon="11.1159139"><ele>75.2</ele><time>2026-04-25T08:05:47.887Z</time></trkpt><trkpt lat="42.4368892" lon="11.1158257"><ele>80.0</ele><time>2026-04-25T08:05:48.885Z</time></trkpt><trkpt lat="42.4368271" lon="11.1157055"><ele>80.66666666666667</ele><time>2026-04-25T08:05:49.881Z</time></trkpt><trkpt lat="42.4367619" lon="11.115544"><ele>81.33333333333333</ele><time>2026-04-25T08:05:50.886Z</time></trkpt><trkpt lat="42.4366823" lon="11.1153436"><ele>82.0</ele><time>2026-04-25T08:05:51.89Z</time></trkpt><trkpt lat="42.4366056" lon="11.1151365"><ele>82.0</ele><time>2026-04-25T08:05:52.89Z</time></trkpt><trkpt lat="42.4365664" lon="11.1149887"><ele>82.0</ele><time>2026-04-25T08:05:53.888Z</time></trkpt><trkpt lat="42.4365006" lon="11.1148711"><ele>82.0</ele><time>2026-04-25T08:05:55.887Z</time></trkpt><trkpt lat="42.4363909" lon="11.1149166"><ele>82.0</ele><time>2026-04-25T08:05:57.884Z</time></trkpt><trkpt lat="42.4363051" lon="11.1149775"><ele>82.0</ele><time>2026-04-25T08:05:58.882Z</time></trkpt><trkpt lat="42.4361922" lon="11.1150778"><ele>85.8</ele><time>2026-04-25T08:05:59.889Z</time></trkpt><trkpt lat="42.4360792" lon="11.1151921"><ele>89.6</ele><time>2026-04-25T08:06:00.887Z</time></trkpt><trkpt lat="42.4360029" lon="11.1152793"><ele>93.39999999999999</ele><time>2026-04-25T08:06:01.887Z</time></trkpt><trkpt lat="42.435929" lon="11.1153224"><ele>97.19999999999999</ele><time>2026-04-25T08:06:02.882Z</time></trkpt><trkpt lat="42.4358502" lon="11.1153228"><ele>101.0</ele><time>2026-04-25T08:06:03.876Z</time></trkpt><trkpt lat="42.435744" lon="11.1152892"><ele>101.0</ele><time>2026-04-25T08:06:04.883Z</time></trkpt><trkpt lat="42.4356206" lon="11.1152507"><ele>101.0</ele><time>2026-04-25T08:06:05.883Z</time></trkpt><trkpt lat="42.4354844" lon="11.1152108"><ele>101.0</ele><time>2026-04-25T08:06:06.883Z</time></trkpt><trkpt lat="42.4353447" lon="11.1151778"><ele>101.0</ele><time>2026-04-25T08:06:07.884Z</time></trkpt><trkpt lat="42.4352319" lon="11.1151701"><ele>102.83333333333333</ele><time>2026-04-25T08:06:08.888Z</time></trkpt><trkpt lat="42.4351603" lon="11.1150601"><ele>104.66666666666666</ele><time>2026-04-25T08:06:10.881Z</time></trkpt><trkpt lat="42.4351551" lon="11.1149716"><ele>106.5</ele><time>2026-04-25T08:06:11.879Z</time></trkpt><trkpt lat="42.4351656" lon="11.1148742"><ele>108.33333333333334</ele><time>2026-04-25T08:06:12.878Z</time></trkpt><trkpt lat="42.4351696" lon="11.114778"><ele>110.16666666666667</ele><time>2026-04-25T08:06:13.887Z</time></trkpt><trkpt lat="42.4351256" lon="11.1146273"><ele>112.0</ele><time>2026-04-25T08:06:15.885Z</time></trkpt><trkpt lat="42.4351269" lon="11.1144679"><ele>116.0</ele><time>2026-04-25T08:06:17.882Z</time></trkpt><trkpt lat="42.435149" lon="11.1143868"><ele>119.99999999999999</ele><time>2026-04-25T08:06:18.882Z</time></trkpt><trkpt lat="42.43518" lon="11.114309"><ele>123.99999999999999</ele><time>2026-04-25T08:06:19.884Z</time></trkpt><trkpt lat="42.4352321" lon="11.1141554"><ele>128.0</ele><time>2026-04-25T08:06:21.88Z</time></trkpt><trkpt lat="42.4352676" lon="11.1140444"><ele>132.0</ele><time>2026-04-25T08:06:22.882Z</time></trkpt><trkpt lat="42.4353157" lon="11.1139057"><ele>132.0</ele><time>2026-04-25T08:06:23.888Z</time></trkpt><trkpt lat="42.4353758" lon="11.113756"><ele>132.0</ele><time>2026-04-25T08:06:24.889Z</time></trkpt><trkpt lat="42.4354341" lon="11.1135981"><ele>132.0</ele><time>2026-04-25T08:06:25.884Z</time></trkpt><trkpt lat="42.435488" lon="11.1134327"><ele>132.0</ele><time>2026-04-25T08:06:26.891Z</time></trkpt><trkpt lat="42.4355426" lon="11.1132697"><ele>136.75</ele><time>2026-04-25T08:06:27.884Z</time></trkpt><trkpt lat="42.4356115" lon="11.1131197"><ele>141.5</ele><time>2026-04-25T08:06:28.881Z</time></trkpt><trkpt lat="42.4357076" lon="11.1129735"><ele>146.25</ele><time>2026-04-25T08:06:29.885Z</time></trkpt><trkpt lat="42.4358181" lon="11.1128187"><ele>151.0</ele><time>2026-04-25T08:06:30.886Z</time></trkpt><trkpt lat="42.4359285" lon="11.1126772"><ele>151.0</ele><time>2026-04-25T08:06:31.884Z</time></trkpt><trkpt lat="42.4359977" lon="11.112559"><ele>151.0</ele><time>2026-04-25T08:06:32.884Z</time></trkpt><trkpt lat="42.436043" lon="11.1124474"><ele>151.0</ele><time>2026-04-25T08:06:33.884Z</time></trkpt><trkpt lat="42.4360849" lon="11.112302"><ele>151.0</ele><time>2026-04-25T08:06:34.884Z</time></trkpt><trkpt lat="42.4361285" lon="11.1121757"><ele>151.0</ele><time>2026-04-25T08:06:35.884Z</time></trkpt><trkpt lat="42.4361865" lon="11.1120804"><ele>152.25</ele><time>2026-04-25T08:06:36.877Z</time></trkpt><trkpt lat="42.4362654" lon="11.1119957"><ele>153.5</ele><time>2026-04-25T08:06:37.895Z</time></trkpt><trkpt lat="42.4363717" lon="11.1118875"><ele>154.75</ele><time>2026-04-25T08:06:38.887Z</time></trkpt><trkpt lat="42.4365042" lon="11.1117422"><ele>156.0</ele><time>2026-04-25T08:06:39.88Z</time></trkpt><trkpt lat="42.4366473" lon="11.1115859"><ele>164.66666666666666</ele><time>2026-04-25T08:06:40.889Z</time></trkpt><trkpt lat="42.4367973" lon="11.1114332"><ele>173.33333333333331</ele><time>2026-04-25T08:06:41.885Z</time></trkpt><trkpt lat="42.4369345" lon="11.1113"><ele>182.0</ele><time>2026-04-25T08:06:42.883Z</time></trkpt><trkpt lat="42.4370731" lon="11.1111527"><ele>181.66666666666666</ele><time>2026-04-25T08:06:43.899Z</time></trkpt><trkpt lat="42.4372191" lon="11.1109964"><ele>181.33333333333334</ele><time>2026-04-25T08:06:44.877Z</time></trkpt><trkpt lat="42.4373479" lon="11.110842"><ele>181.0</ele><time>2026-04-25T08:06:45.878Z</time></trkpt><trkpt lat="42.4374477" lon="11.1107151"><ele>181.0</ele><time>2026-04-25T08:06:46.885Z</time></trkpt><trkpt lat="42.4375049" lon="11.1106131"><ele>181.0</ele><time>2026-04-25T08:06:47.888Z</time></trkpt><trkpt lat="42.4375446" lon="11.1105038"><ele>181.0</ele><time>2026-04-25T08:06:48.889Z</time></trkpt><trkpt lat="42.4375767" lon="11.1103802"><ele>181.0</ele><time>2026-04-25T08:06:49.884Z</time></trkpt><trkpt lat="42.4376122" lon="11.1102253"><ele>181.0</ele><time>2026-04-25T08:06:50.883Z</time></trkpt><trkpt lat="42.4376253" lon="11.1100464"><ele>181.75</ele><time>2026-04-25T08:06:51.877Z</time></trkpt><trkpt lat="42.4376304" lon="11.1098347"><ele>182.5</ele><time>2026-04-25T08:06:52.895Z</time></trkpt><trkpt lat="42.4376504" lon="11.1096433"><ele>183.25</ele><time>2026-04-25T08:06:53.884Z</time></trkpt><trkpt lat="42.4376815" lon="11.1095162"><ele>184.0</ele><time>2026-04-25T08:06:54.879Z</time></trkpt><trkpt lat="42.4376919" lon="11.1093989"><ele>184.0</ele><time>2026-04-25T08:06:55.883Z</time></trkpt><trkpt lat="42.4376974" lon="11.1092803"><ele>184.0</ele><time>2026-04-25T08:06:56.885Z</time></trkpt><trkpt lat="42.4376833" lon="11.1091814"><ele>184.0</ele><time>2026-04-25T08:06:57.889Z</time></trkpt><trkpt lat="42.4376475" lon="11.1090839"><ele>184.0</ele><time>2026-04-25T08:06:58.889Z</time></trkpt><trkpt lat="42.4376056" lon="11.1089903"><ele>184.0</ele><time>2026-04-25T08:06:59.885Z</time></trkpt><trkpt lat="42.437557" lon="11.1088929"><ele>184.0</ele><time>2026-04-25T08:07:00.892Z</time></trkpt><trkpt lat="42.4374833" lon="11.1087955"><ele>183.6</ele><time>2026-04-25T08:07:01.886Z</time></trkpt><trkpt lat="42.4374137" lon="11.1086933"><ele>183.2</ele><time>2026-04-25T08:07:02.88Z</time></trkpt><trkpt lat="42.437362" lon="11.108589"><ele>182.79999999999998</ele><time>2026-04-25T08:07:03.884Z</time></trkpt><trkpt lat="42.4373302" lon="11.1084705"><ele>182.39999999999998</ele><time>2026-04-25T08:07:04.883Z</time></trkpt><trkpt lat="42.4373155" lon="11.1083334"><ele>182.0</ele><time>2026-04-25T08:07:05.88Z</time></trkpt><trkpt lat="42.4373132" lon="11.1081913"><ele>183.0</ele><time>2026-04-25T08:07:06.88Z</time></trkpt><trkpt lat="42.4373085" lon="11.1080365"><ele>184.0</ele><time>2026-04-25T08:07:07.886Z</time></trkpt><trkpt lat="42.4373033" lon="11.1078866"><ele>185.0</ele><time>2026-04-25T08:07:08.89Z</time></trkpt><trkpt lat="42.4372937" lon="11.1077506"><ele>186.0</ele><time>2026-04-25T08:07:09.89Z</time></trkpt><trkpt lat="42.4372668" lon="11.1076265"><ele>187.0</ele><time>2026-04-25T08:07:10.888Z</time></trkpt><trkpt lat="42.4372318" lon="11.1075281"><ele>187.0</ele><time>2026-04-25T08:07:11.895Z</time></trkpt><trkpt lat="42.43718" lon="11.1074202"><ele>187.0</ele><time>2026-04-25T08:07:13.88Z</time></trkpt><trkpt lat="42.437103" lon="11.1074595"><ele>187.0</ele><time>2026-04-25T08:07:15.883Z</time></trkpt><trkpt lat="42.4370293" lon="11.1075063"><ele>187.0</ele><time>2026-04-25T08:07:17.887Z</time></trkpt><trkpt lat="42.4369103" lon="11.1075704"><ele>187.0</ele><time>2026-04-25T08:07:19.894Z</time></trkpt><trkpt lat="42.4368113" lon="11.1076306"><ele>187.75</ele><time>2026-04-25T08:07:20.888Z</time></trkpt><trkpt lat="42.436708" lon="11.1076958"><ele>188.5</ele><time>2026-04-25T08:07:21.886Z</time></trkpt><trkpt lat="42.4365984" lon="11.107773"><ele>189.25</ele><time>2026-04-25T08:07:22.888Z</time></trkpt><trkpt lat="42.4364802" lon="11.1078676"><ele>190.0</ele><time>2026-04-25T08:07:23.884Z</time></trkpt><trkpt lat="42.4363607" lon="11.1079778"><ele>188.6</ele><time>2026-04-25T08:07:24.898Z</time></trkpt><trkpt lat="42.4362577" lon="11.1080825"><ele>187.2</ele><time>2026-04-25T08:07:25.891Z</time></trkpt><trkpt lat="42.436165" lon="11.1081609"><ele>185.8</ele><time>2026-04-25T08:07:26.887Z</time></trkpt><trkpt lat="42.4360746" lon="11.1082189"><ele>184.4</ele><time>2026-04-25T08:07:27.887Z</time></trkpt><trkpt lat="42.4359742" lon="11.1082724"><ele>183.0</ele><time>2026-04-25T08:07:28.884Z</time></trkpt><trkpt lat="42.4358426" lon="11.1083117"><ele>187.5</ele><time>2026-04-25T08:07:29.891Z</time></trkpt><trkpt lat="42.4356977" lon="11.1083455"><ele>192.0</ele><time>2026-04-25T08:07:30.882Z</time></trkpt><trkpt lat="42.4355665" lon="11.1083781"><ele>196.5</ele><time>2026-04-25T08:07:31.888Z</time></trkpt><trkpt lat="42.4354557" lon="11.108405"><ele>201.0</ele><time>2026-04-25T08:07:32.888Z</time></trkpt><trkpt lat="42.4353899" lon="11.1084186"><ele>201.4</ele><time>2026-04-25T08:07:33.885Z</time></trkpt><trkpt lat="42.4352959" lon="11.1084797"><ele>201.8</ele><time>2026-04-25T08:07:35.883Z</time></trkpt><trkpt lat="42.435225" lon="11.1085782"><ele>202.20000000000002</ele><time>2026-04-25T08:07:37.889Z</time></trkpt><trkpt lat="42.4352137" lon="11.1086981"><ele>202.60000000000002</ele><time>2026-04-25T08:07:39.889Z</time></trkpt><trkpt lat="42.4352299" lon="11.1088294"><ele>203.0</ele><time>2026-04-25T08:07:41.886Z</time></trkpt><trkpt lat="42.4352023" lon="11.1089181"><ele>203.0</ele><time>2026-04-25T08:07:42.885Z</time></trkpt><trkpt lat="42.4351696" lon="11.1090238"><ele>203.0</ele><time>2026-04-25T08:07:43.885Z</time></trkpt><trkpt lat="42.4351159" lon="11.1091436"><ele>203.0</ele><time>2026-04-25T08:07:44.884Z</time></trkpt><trkpt lat="42.4350652" lon="11.1092506"><ele>203.0</ele><time>2026-04-25T08:07:45.881Z</time></trkpt><trkpt lat="42.4350019" lon="11.1093559"><ele>203.0</ele><time>2026-04-25T08:07:46.892Z</time></trkpt><trkpt lat="42.4349347" lon="11.1094558"><ele>203.8</ele><time>2026-04-25T08:07:47.889Z</time></trkpt><trkpt lat="42.434871" lon="11.1095497"><ele>204.60000000000002</ele><time>2026-04-25T08:07:48.89Z</time></trkpt><trkpt lat="42.4348182" lon="11.1096351"><ele>205.39999999999998</ele><time>2026-04-25T08:07:49.891Z</time></trkpt><trkpt lat="42.4347693" lon="11.1097042"><ele>206.2</ele><time>2026-04-25T08:07:50.898Z</time></trkpt><trkpt lat="42.434695" lon="11.1098315"><ele>207.0</ele><time>2026-04-25T08:07:52.894Z</time></trkpt><trkpt lat="42.4346142" lon="11.1099403"><ele>207.0</ele><time>2026-04-25T08:07:54.887Z</time></trkpt><trkpt lat="42.4345618" lon="11.1099956"><ele>207.0</ele><time>2026-04-25T08:07:55.887Z</time></trkpt><trkpt lat="42.4344739" lon="11.1100908"><ele>207.0</ele><time>2026-04-25T08:07:57.884Z</time></trkpt><trkpt lat="42.4343919" lon="11.110165"><ele>207.0</ele><time>2026-04-25T08:07:59.886Z</time></trkpt><trkpt lat="42.4343258" lon="11.1102512"><ele>207.0</ele><time>2026-04-25T08:08:01.887Z</time></trkpt><trkpt lat="42.4343144" lon="11.1103852"><ele>207.0</ele><time>2026-04-25T08:08:03.883Z</time></trkpt><trkpt lat="42.4343464" lon="11.1105202"><ele>207.0</ele><time>2026-04-25T08:08:05.889Z</time></trkpt><trkpt lat="42.4344157" lon="11.1106496"><ele>207.0</ele><time>2026-04-25T08:08:07.887Z</time></trkpt><trkpt lat="42.4344566" lon="11.1107194"><ele>207.0</ele><time>2026-04-25T08:08:08.882Z</time></trkpt><trkpt lat="42.4344973" lon="11.1107863"><ele>207.0</ele><time>2026-04-25T08:08:09.892Z</time></trkpt><trkpt lat="42.434548" lon="11.1109334"><ele>205.83333333333334</ele><time>2026-04-25T08:08:11.881Z</time></trkpt><trkpt lat="42.4345482" lon="11.1110453"><ele>204.66666666666669</ele><time>2026-04-25T08:08:12.881Z</time></trkpt><trkpt lat="42.4345499" lon="11.1111615"><ele>203.5</ele><time>2026-04-25T08:08:13.899Z</time></trkpt><trkpt lat="42.4345477" lon="11.1112536"><ele>202.33333333333334</ele><time>2026-04-25T08:08:14.89Z</time></trkpt><trkpt lat="42.4345142" lon="11.1114041"><ele>201.16666666666669</ele><time>2026-04-25T08:08:16.898Z</time></trkpt><trkpt lat="42.4344721" lon="11.1114779"><ele>200.0</ele><time>2026-04-25T08:08:17.89Z</time></trkpt><trkpt lat="42.4344193" lon="11.1115431"><ele>200.00000000000003</ele><time>2026-04-25T08:08:18.892Z</time></trkpt><trkpt lat="42.4343647" lon="11.1116097"><ele>200.0</ele><time>2026-04-25T08:08:19.888Z</time></trkpt><trkpt lat="42.4343067" lon="11.1116496"><ele>200.0</ele><time>2026-04-25T08:08:20.892Z</time></trkpt><trkpt lat="42.4342365" lon="11.1116605"><ele>200.0</ele><time>2026-04-25T08:08:21.886Z</time></trkpt><trkpt lat="42.4341569" lon="11.111661"><ele>200.00000000000003</ele><time>2026-04-25T08:08:22.891Z</time></trkpt><trkpt lat="42.4340764" lon="11.1116604"><ele>200.0</ele><time>2026-04-25T08:08:24.888Z</time></trkpt><trkpt lat="42.4340744" lon="11.1115459"><ele>200.0</ele><time>2026-04-25T08:08:28.886Z</time></trkpt><trkpt lat="42.4340667" lon="11.1113843"><ele>200.0</ele><time>2026-04-25T08:08:30.881Z</time></trkpt><trkpt lat="42.4340433" lon="11.1112413"><ele>200.0</ele><time>2026-04-25T08:08:32.887Z</time></trkpt><trkpt lat="42.4340199" lon="11.1110947"><ele>200.0</ele><time>2026-04-25T08:08:34.892Z</time></trkpt><trkpt lat="42.4339945" lon="11.1109872"><ele>200.0</ele><time>2026-04-25T08:08:36.889Z</time></trkpt><trkpt lat="42.4339709" lon="11.1108725"><ele>200.00000000000003</ele><time>2026-04-25T08:08:59.887Z</time></trkpt><trkpt lat="42.4339566" lon="11.1107853"><ele>200.0</ele><time>2026-04-25T08:09:00.884Z</time></trkpt><trkpt lat="42.4339245" lon="11.1106867"><ele>200.0</ele><time>2026-04-25T08:09:01.882Z</time></trkpt><trkpt lat="42.4338715" lon="11.1105993"><ele>200.0</ele><time>2026-04-25T08:09:02.887Z</time></trkpt><trkpt lat="42.4338075" lon="11.1105221"><ele>200.00000000000003</ele><time>2026-04-25T08:09:03.886Z</time></trkpt><trkpt lat="42.4337423" lon="11.1104387"><ele>200.0</ele><time>2026-04-25T08:09:04.888Z</time></trkpt><trkpt lat="42.4337004" lon="11.1103301"><ele>201.0</ele><time>2026-04-25T08:09:05.885Z</time></trkpt><trkpt lat="42.4336804" lon="11.1101914"><ele>202.0</ele><time>2026-04-25T08:09:06.882Z</time></trkpt><trkpt lat="42.4336784" lon="11.1100536"><ele>203.0</ele><time>2026-04-25T08:09:07.883Z</time></trkpt><trkpt lat="42.433682" lon="11.1099153"><ele>204.0</ele><time>2026-04-25T08:09:08.884Z</time></trkpt><trkpt lat="42.4336848" lon="11.1097686"><ele>205.0</ele><time>2026-04-25T08:09:09.905Z</time></trkpt><trkpt lat="42.4336877" lon="11.109621"><ele>206.2</ele><time>2026-04-25T08:09:10.884Z</time></trkpt><trkpt lat="42.4336897" lon="11.1094666"><ele>207.4</ele><time>2026-04-25T08:09:11.884Z</time></trkpt><trkpt lat="42.4336874" lon="11.1093344"><ele>208.60000000000002</ele><time>2026-04-25T08:09:12.886Z</time></trkpt><trkpt lat="42.4336747" lon="11.1091969"><ele>209.8</ele><time>2026-04-25T08:09:13.882Z</time></trkpt><trkpt lat="42.4336181" lon="11.1090821"><ele>211.0</ele><time>2026-04-25T08:09:14.885Z</time></trkpt><trkpt lat="42.433535" lon="11.1089609"><ele>211.4</ele><time>2026-04-25T08:09:15.888Z</time></trkpt><trkpt lat="42.4334531" lon="11.1088234"><ele>211.8</ele><time>2026-04-25T08:09:16.882Z</time></trkpt><trkpt lat="42.4333741" lon="11.1087244"><ele>212.20000000000002</ele><time>2026-04-25T08:09:17.888Z</time></trkpt><trkpt lat="42.4332934" lon="11.1086716"><ele>212.60000000000002</ele><time>2026-04-25T08:09:18.879Z</time></trkpt><trkpt lat="42.4331878" lon="11.1086385"><ele>213.0</ele><time>2026-04-25T08:09:19.886Z</time></trkpt><trkpt lat="42.4330527" lon="11.1086019"><ele>214.0</ele><time>2026-04-25T08:09:20.884Z</time></trkpt><trkpt lat="42.4329014" lon="11.1085627"><ele>215.0</ele><time>2026-04-25T08:09:21.892Z</time></trkpt><trkpt lat="42.4327682" lon="11.1085066"><ele>216.0</ele><time>2026-04-25T08:09:22.885Z</time></trkpt><trkpt lat="42.4326581" lon="11.1084306"><ele>217.0</ele><time>2026-04-25T08:09:23.889Z</time></trkpt><trkpt lat="42.4325241" lon="11.1083879"><ele>217.0</ele><time>2026-04-25T08:09:24.895Z</time></trkpt><trkpt lat="42.4323697" lon="11.1083643"><ele>217.0</ele><time>2026-04-25T08:09:25.897Z</time></trkpt><trkpt lat="42.4322237" lon="11.10833"><ele>217.0</ele><time>2026-04-25T08:09:26.881Z</time></trkpt><trkpt lat="42.4320947" lon="11.1082867"><ele>217.0</ele><time>2026-04-25T08:09:27.888Z</time></trkpt><trkpt lat="42.431971" lon="11.1082099"><ele>219.66666666666666</ele><time>2026-04-25T08:09:28.884Z</time></trkpt><trkpt lat="42.431829" lon="11.1081099"><ele>222.33333333333331</ele><time>2026-04-25T08:09:29.89Z</time></trkpt><trkpt lat="42.4316962" lon="11.1080111"><ele>225.0</ele><time>2026-04-25T08:09:30.889Z</time></trkpt><trkpt lat="42.4315604" lon="11.1079009"><ele>225.0</ele><time>2026-04-25T08:09:31.894Z</time></trkpt><trkpt lat="42.4314239" lon="11.1077561"><ele>225.0</ele><time>2026-04-25T08:09:32.883Z</time></trkpt><trkpt lat="42.4313039" lon="11.1076171"><ele>225.0</ele><time>2026-04-25T08:09:33.889Z</time></trkpt><trkpt lat="42.4311988" lon="11.1074987"><ele>225.5</ele><time>2026-04-25T08:09:34.886Z</time></trkpt><trkpt lat="42.4310833" lon="11.1074067"><ele>226.0</ele><time>2026-04-25T08:09:35.877Z</time></trkpt><trkpt lat="42.4309681" lon="11.1073363"><ele>226.5</ele><time>2026-04-25T08:09:36.883Z</time></trkpt><trkpt lat="42.4308352" lon="11.1072845"><ele>227.0</ele><time>2026-04-25T08:09:37.881Z</time></trkpt><trkpt lat="42.4306857" lon="11.107257"><ele>227.0</ele><time>2026-04-25T08:09:38.887Z</time></trkpt><trkpt lat="42.430518" lon="11.1072329"><ele>227.0</ele><time>2026-04-25T08:09:39.889Z</time></trkpt><trkpt lat="42.4303531" lon="11.1072091"><ele>227.0</ele><time>2026-04-25T08:09:40.888Z</time></trkpt><trkpt lat="42.430196" lon="11.1071816"><ele>225.33333333333334</ele><time>2026-04-25T08:09:41.88Z</time></trkpt><trkpt lat="42.4300274" lon="11.1071744"><ele>223.66666666666669</ele><time>2026-04-25T08:09:42.889Z</time></trkpt><trkpt lat="42.4298558" lon="11.1071778"><ele>222.0</ele><time>2026-04-25T08:09:43.879Z</time></trkpt><trkpt lat="42.4297036" lon="11.1071771"><ele>221.5</ele><time>2026-04-25T08:09:44.882Z</time></trkpt><trkpt lat="42.4296105" lon="11.1071707"><ele>221.0</ele><time>2026-04-25T08:09:45.898Z</time></trkpt><trkpt lat="42.4295003" lon="11.1072072"><ele>220.5</ele><time>2026-04-25T08:09:46.881Z</time></trkpt><trkpt lat="42.4293789" lon="11.1072734"><ele>220.0</ele><time>2026-04-25T08:09:47.881Z</time></trkpt><trkpt lat="42.4292512" lon="11.1073454"><ele>220.0</ele><time>2026-04-25T08:09:48.89Z</time></trkpt><trkpt lat="42.4291088" lon="11.1074057"><ele>220.0</ele><time>2026-04-25T08:09:49.88Z</time></trkpt><trkpt lat="42.4289564" lon="11.1074477"><ele>220.0</ele><time>2026-04-25T08:09:50.887Z</time></trkpt><trkpt lat="42.4288068" lon="11.1074961"><ele>218.4</ele><time>2026-04-25T08:09:51.881Z</time></trkpt><trkpt lat="42.4287119" lon="11.107529"><ele>216.8</ele><time>2026-04-25T08:09:52.887Z</time></trkpt><trkpt lat="42.4286401" lon="11.1075754"><ele>215.2</ele><time>2026-04-25T08:09:56.88Z</time></trkpt><trkpt lat="42.4285166" lon="11.1076233"><ele>213.6</ele><time>2026-04-25T08:09:58.887Z</time></trkpt><trkpt lat="42.4284171" lon="11.1076004"><ele>212.0</ele><time>2026-04-25T08:10:00.884Z</time></trkpt><trkpt lat="42.4283663" lon="11.1075408"><ele>212.0</ele><time>2026-04-25T08:10:01.889Z</time></trkpt><trkpt lat="42.4283024" lon="11.1074766"><ele>212.0</ele><time>2026-04-25T08:10:02.885Z</time></trkpt><trkpt lat="42.4282112" lon="11.1074147"><ele>212.0</ele><time>2026-04-25T08:10:03.887Z</time></trkpt><trkpt lat="42.4281131" lon="11.1073628"><ele>212.0</ele><time>2026-04-25T08:10:04.905Z</time></trkpt><trkpt lat="42.4280122" lon="11.1073241"><ele>212.0</ele><time>2026-04-25T08:10:05.881Z</time></trkpt><trkpt lat="42.4279279" lon="11.1072811"><ele>214.00000000000003</ele><time>2026-04-25T08:10:06.882Z</time></trkpt><trkpt lat="42.4278496" lon="11.1072449"><ele>216.0</ele><time>2026-04-25T08:10:07.883Z</time></trkpt><trkpt lat="42.4277685" lon="11.107241"><ele>218.0</ele><time>2026-04-25T08:10:08.893Z</time></trkpt><trkpt lat="42.4276997" lon="11.1072371"><ele>220.0</ele><time>2026-04-25T08:10:09.888Z</time></trkpt><trkpt lat="42.4276091" lon="11.1072491"><ele>222.00000000000003</ele><time>2026-04-25T08:10:11.895Z</time></trkpt><trkpt lat="42.4275313" lon="11.1072693"><ele>224.0</ele><time>2026-04-25T08:10:13.881Z</time></trkpt><trkpt lat="42.4274586" lon="11.1073015"><ele>224.0</ele><time>2026-04-25T08:10:16.887Z</time></trkpt><trkpt lat="42.4273485" lon="11.1073439"><ele>223.99999999999997</ele><time>2026-04-25T08:10:22.89Z</time></trkpt><trkpt lat="42.4272764" lon="11.1074145"><ele>223.99999999999997</ele><time>2026-04-25T08:10:23.883Z</time></trkpt><trkpt lat="42.4271918" lon="11.1074921"><ele>224.0</ele><time>2026-04-25T08:10:24.885Z</time></trkpt><trkpt lat="42.4271148" lon="11.1075511"><ele>224.0</ele><time>2026-04-25T08:10:25.887Z</time></trkpt><trkpt lat="42.4270383" lon="11.1075978"><ele>224.14285714285714</ele><time>2026-04-25T08:10:26.878Z</time></trkpt><trkpt lat="42.4269648" lon="11.1076221"><ele>224.28571428571428</ele><time>2026-04-25T08:10:27.888Z</time></trkpt><trkpt lat="42.426898" lon="11.10764"><ele>224.42857142857144</ele><time>2026-04-25T08:10:28.882Z</time></trkpt><trkpt lat="42.4268302" lon="11.1076389"><ele>224.57142857142858</ele><time>2026-04-25T08:10:29.889Z</time></trkpt><trkpt lat="42.4267625" lon="11.1076159"><ele>224.71428571428572</ele><time>2026-04-25T08:10:30.889Z</time></trkpt><trkpt lat="42.4266957" lon="11.1075567"><ele>224.8571428571429</ele><time>2026-04-25T08:10:31.885Z</time></trkpt><trkpt lat="42.4266367" lon="11.1074828"><ele>225.00000000000003</ele><time>2026-04-25T08:10:32.883Z</time></trkpt><trkpt lat="42.4265777" lon="11.1074088"><ele>225.0</ele><time>2026-04-25T08:10:33.897Z</time></trkpt><trkpt lat="42.4265157" lon="11.1073429"><ele>225.0</ele><time>2026-04-25T08:10:34.89Z</time></trkpt><trkpt lat="42.4264515" lon="11.1072683"><ele>225.0</ele><time>2026-04-25T08:10:35.892Z</time></trkpt><trkpt lat="42.4263759" lon="11.1071945"><ele>225.0</ele><time>2026-04-25T08:10:36.885Z</time></trkpt><trkpt lat="42.4263003" lon="11.1071131"><ele>225.0</ele><time>2026-04-25T08:10:37.892Z</time></trkpt><trkpt lat="42.4262308" lon="11.1070204"><ele>223.66666666666666</ele><time>2026-04-25T08:10:38.891Z</time></trkpt><trkpt lat="42.4261594" lon="11.1069284"><ele>222.33333333333331</ele><time>2026-04-25T08:10:39.882Z</time></trkpt><trkpt lat="42.4260975" lon="11.106844"><ele>221.0</ele><time>2026-04-25T08:10:40.882Z</time></trkpt><trkpt lat="42.4260369" lon="11.1067599"><ele>219.66666666666666</ele><time>2026-04-25T08:10:41.883Z</time></trkpt><trkpt lat="42.4259734" lon="11.1066845"><ele>218.33333333333331</ele><time>2026-04-25T08:10:42.888Z</time></trkpt><trkpt lat="42.4259111" lon="11.1066122"><ele>217.0</ele><time>2026-04-25T08:10:43.887Z</time></trkpt><trkpt lat="42.4258519" lon="11.1065389"><ele>217.0</ele><time>2026-04-25T08:10:44.894Z</time></trkpt><trkpt lat="42.425799" lon="11.1064561"><ele>217.0</ele><time>2026-04-25T08:10:45.884Z</time></trkpt><trkpt lat="42.4257425" lon="11.1063625"><ele>217.0</ele><time>2026-04-25T08:10:46.885Z</time></trkpt><trkpt lat="42.425667" lon="11.1062155"><ele>217.0</ele><time>2026-04-25T08:10:47.896Z</time></trkpt><trkpt lat="42.4255847" lon="11.106051"><ele>217.0</ele><time>2026-04-25T08:10:48.883Z</time></trkpt><trkpt lat="42.4254906" lon="11.1059075"><ele>215.5</ele><time>2026-04-25T08:10:49.888Z</time></trkpt><trkpt lat="42.4254011" lon="11.1057549"><ele>214.0</ele><time>2026-04-25T08:10:50.886Z</time></trkpt><trkpt lat="42.4253179" lon="11.1056051"><ele>212.5</ele><time>2026-04-25T08:10:51.886Z</time></trkpt><trkpt lat="42.4252087" lon="11.10544"><ele>211.0</ele><time>2026-04-25T08:10:52.879Z</time></trkpt><trkpt lat="42.4250748" lon="11.1052682"><ele>211.0</ele><time>2026-04-25T08:10:53.89Z</time></trkpt><trkpt lat="42.4249497" lon="11.1051044"><ele>211.0</ele><time>2026-04-25T08:10:54.888Z</time></trkpt><trkpt lat="42.4248281" lon="11.1049491"><ele>211.0</ele><time>2026-04-25T08:10:55.876Z</time></trkpt><trkpt lat="42.4247082" lon="11.1048067"><ele>214.25</ele><time>2026-04-25T08:10:56.885Z</time></trkpt><trkpt lat="42.4245988" lon="11.104667"><ele>217.5</ele><time>2026-04-25T08:10:57.892Z</time></trkpt><trkpt lat="42.4244942" lon="11.1045471"><ele>220.75</ele><time>2026-04-25T08:10:58.886Z</time></trkpt><trkpt lat="42.4243919" lon="11.1044471"><ele>224.0</ele><time>2026-04-25T08:10:59.887Z</time></trkpt><trkpt lat="42.4242888" lon="11.1043527"><ele>224.0</ele><time>2026-04-25T08:11:00.894Z</time></trkpt><trkpt lat="42.4241895" lon="11.1042866"><ele>224.0</ele><time>2026-04-25T08:11:01.878Z</time></trkpt><trkpt lat="42.4240876" lon="11.1042299"><ele>224.0</ele><time>2026-04-25T08:11:02.89Z</time></trkpt><trkpt lat="42.4239809" lon="11.1041618"><ele>224.0</ele><time>2026-04-25T08:11:03.892Z</time></trkpt><trkpt lat="42.4238807" lon="11.1040954"><ele>224.50000000000003</ele><time>2026-04-25T08:11:04.893Z</time></trkpt><trkpt lat="42.4238027" lon="11.1040367"><ele>225.0</ele><time>2026-04-25T08:11:05.877Z</time></trkpt><trkpt lat="42.4237471" lon="11.1039888"><ele>225.5</ele><time>2026-04-25T08:11:06.886Z</time></trkpt><trkpt lat="42.4236514" lon="11.1039173"><ele>226.0</ele><time>2026-04-25T08:11:08.896Z</time></trkpt><trkpt lat="42.4235825" lon="11.1038843"><ele>226.50000000000003</ele><time>2026-04-25T08:11:09.885Z</time></trkpt><trkpt lat="42.4235172" lon="11.1038261"><ele>227.0</ele><time>2026-04-25T08:11:10.886Z</time></trkpt><trkpt lat="42.4234533" lon="11.1037375"><ele>227.0</ele><time>2026-04-25T08:11:11.884Z</time></trkpt><trkpt lat="42.4233999" lon="11.1036133"><ele>227.0</ele><time>2026-04-25T08:11:12.884Z</time></trkpt><trkpt lat="42.4233651" lon="11.1034955"><ele>227.0</ele><time>2026-04-25T08:11:13.881Z</time></trkpt><trkpt lat="42.4233326" lon="11.1033985"><ele>227.0</ele><time>2026-04-25T08:11:14.885Z</time></trkpt><trkpt lat="42.4232362" lon="11.1033043"><ele>227.0</ele><time>2026-04-25T08:11:16.892Z</time></trkpt><trkpt lat="42.4231707" lon="11.103286"><ele>227.0</ele><time>2026-04-25T08:11:17.885Z</time></trkpt><trkpt lat="42.4230848" lon="11.103263"><ele>227.0</ele><time>2026-04-25T08:11:18.884Z</time></trkpt><trkpt lat="42.4229881" lon="11.1032276"><ele>227.0</ele><time>2026-04-25T08:11:19.892Z</time></trkpt><trkpt lat="42.4228782" lon="11.1031891"><ele>227.0</ele><time>2026-04-25T08:11:20.886Z</time></trkpt><trkpt lat="42.4227821" lon="11.1031411"><ele>227.0</ele><time>2026-04-25T08:11:21.887Z</time></trkpt><trkpt lat="42.4227062" lon="11.1030843"><ele>226.16666666666669</ele><time>2026-04-25T08:11:22.885Z</time></trkpt><trkpt lat="42.4226045" lon="11.1030621"><ele>225.33333333333334</ele><time>2026-04-25T08:11:24.883Z</time></trkpt><trkpt lat="42.4225448" lon="11.1031268"><ele>224.5</ele><time>2026-04-25T08:11:25.889Z</time></trkpt><trkpt lat="42.4224806" lon="11.1032284"><ele>223.66666666666669</ele><time>2026-04-25T08:11:26.887Z</time></trkpt><trkpt lat="42.4224389" lon="11.1033313"><ele>222.83333333333334</ele><time>2026-04-25T08:11:27.88Z</time></trkpt><trkpt lat="42.4223841" lon="11.1033899"><ele>222.0</ele><time>2026-04-25T08:11:28.889Z</time></trkpt><trkpt lat="42.4223082" lon="11.1034414"><ele>222.0</ele><time>2026-04-25T08:11:29.884Z</time></trkpt><trkpt lat="42.4222268" lon="11.1034985"><ele>222.0</ele><time>2026-04-25T08:11:30.887Z</time></trkpt><trkpt lat="42.4221293" lon="11.1035413"><ele>222.0</ele><time>2026-04-25T08:11:31.878Z</time></trkpt><trkpt lat="42.4220402" lon="11.1035767"><ele>222.0</ele><time>2026-04-25T08:11:32.887Z</time></trkpt><trkpt lat="42.4219685" lon="11.1035718"><ele>222.0</ele><time>2026-04-25T08:11:59.887Z</time></trkpt><trkpt lat="42.4219025" lon="11.1035849"><ele>222.0</ele><time>2026-04-25T08:12:04.909Z</time></trkpt><trkpt lat="42.4218335" lon="11.1036141"><ele>224.5</ele><time>2026-04-25T08:12:07.927Z</time></trkpt><trkpt lat="42.4217734" lon="11.103645"><ele>227.0</ele><time>2026-04-25T08:12:10.879Z</time></trkpt><trkpt lat="42.4217306" lon="11.1037299"><ele>229.5</ele><time>2026-04-25T08:12:34.889Z</time></trkpt><trkpt lat="42.4216592" lon="11.10379"><ele>232.0</ele><time>2026-04-25T08:12:35.885Z</time></trkpt><trkpt lat="42.4215869" lon="11.1038468"><ele>234.5</ele><time>2026-04-25T08:12:36.886Z</time></trkpt><trkpt lat="42.4215084" lon="11.1039151"><ele>237.0</ele><time>2026-04-25T08:12:38.885Z</time></trkpt><trkpt lat="42.4214297" lon="11.1039181"><ele>237.0</ele><time>2026-04-25T08:12:40.885Z</time></trkpt><trkpt lat="42.4213543" lon="11.1039083"><ele>237.0</ele><time>2026-04-25T08:12:41.885Z</time></trkpt><trkpt lat="42.4212835" lon="11.1038892"><ele>237.0</ele><time>2026-04-25T08:12:42.884Z</time></trkpt><trkpt lat="42.4212112" lon="11.1038624"><ele>237.0</ele><time>2026-04-25T08:12:43.877Z</time></trkpt><trkpt lat="42.4211425" lon="11.1038406"><ele>237.0</ele><time>2026-04-25T08:12:44.893Z</time></trkpt><trkpt lat="42.4210267" lon="11.103832"><ele>237.0</ele><time>2026-04-25T08:12:46.887Z</time></trkpt><trkpt lat="42.4209609" lon="11.1039153"><ele>238.66666666666666</ele><time>2026-04-25T08:12:48.881Z</time></trkpt><trkpt lat="42.420912" lon="11.1039877"><ele>240.33333333333331</ele><time>2026-04-25T08:12:49.894Z</time></trkpt><trkpt lat="42.4208392" lon="11.1040831"><ele>242.0</ele><time>2026-04-25T08:12:50.892Z</time></trkpt><trkpt lat="42.4207763" lon="11.1041577"><ele>243.66666666666666</ele><time>2026-04-25T08:12:51.887Z</time></trkpt><trkpt lat="42.4207176" lon="11.1042266"><ele>245.33333333333331</ele><time>2026-04-25T08:12:52.885Z</time></trkpt><trkpt lat="42.4206381" lon="11.1042887"><ele>247.0</ele><time>2026-04-25T08:12:53.897Z</time></trkpt><trkpt lat="42.4205327" lon="11.1043293"><ele>246.6</ele><time>2026-04-25T08:12:54.882Z</time></trkpt><trkpt lat="42.4204427" lon="11.1043665"><ele>246.2</ele><time>2026-04-25T08:12:55.894Z</time></trkpt><trkpt lat="42.420354" lon="11.1044057"><ele>245.8</ele><time>2026-04-25T08:12:56.882Z</time></trkpt><trkpt lat="42.4202742" lon="11.1044573"><ele>245.4</ele><time>2026-04-25T08:12:57.888Z</time></trkpt><trkpt lat="42.4202056" lon="11.1045191"><ele>245.0</ele><time>2026-04-25T08:12:58.885Z</time></trkpt><trkpt lat="42.4201269" lon="11.1046052"><ele>245.00000000000003</ele><time>2026-04-25T08:12:59.885Z</time></trkpt><trkpt lat="42.4200545" lon="11.1047012"><ele>245.0</ele><time>2026-04-25T08:13:00.889Z</time></trkpt><trkpt lat="42.4199937" lon="11.104773"><ele>245.0</ele><time>2026-04-25T08:13:01.894Z</time></trkpt><trkpt lat="42.4199405" lon="11.104845"><ele>245.0</ele><time>2026-04-25T08:13:02.881Z</time></trkpt><trkpt lat="42.4199" lon="11.1049145"><ele>245.00000000000003</ele><time>2026-04-25T08:13:03.883Z</time></trkpt><trkpt lat="42.4198756" lon="11.1049961"><ele>245.0</ele><time>2026-04-25T08:13:04.88Z</time></trkpt><trkpt lat="42.4198562" lon="11.105087"><ele>247.33333333333334</ele><time>2026-04-25T08:13:05.893Z</time></trkpt><trkpt lat="42.4198234" lon="11.1051741"><ele>249.66666666666669</ele><time>2026-04-25T08:13:06.879Z</time></trkpt><trkpt lat="42.4197874" lon="11.1052617"><ele>252.0</ele><time>2026-04-25T08:13:07.885Z</time></trkpt><trkpt lat="42.419736" lon="11.1053461"><ele>254.33333333333331</ele><time>2026-04-25T08:13:08.883Z</time></trkpt><trkpt lat="42.4196776" lon="11.1054398"><ele>256.66666666666663</ele><time>2026-04-25T08:13:09.89Z</time></trkpt><trkpt lat="42.4196272" lon="11.1055443"><ele>259.0</ele><time>2026-04-25T08:13:10.888Z</time></trkpt><trkpt lat="42.4195633" lon="11.1056794"><ele>255.79999999999998</ele><time>2026-04-25T08:13:11.882Z</time></trkpt><trkpt lat="42.4194864" lon="11.1058096"><ele>252.59999999999997</ele><time>2026-04-25T08:13:12.883Z</time></trkpt><trkpt lat="42.4194276" lon="11.1059295"><ele>249.4</ele><time>2026-04-25T08:13:13.883Z</time></trkpt><trkpt lat="42.4193984" lon="11.1060499"><ele>246.2</ele><time>2026-04-25T08:13:14.884Z</time></trkpt><trkpt lat="42.4193725" lon="11.1061857"><ele>243.0</ele><time>2026-04-25T08:13:15.888Z</time></trkpt><trkpt lat="42.419336" lon="11.1063271"><ele>243.0</ele><time>2026-04-25T08:13:16.882Z</time></trkpt><trkpt lat="42.4192903" lon="11.1064427"><ele>243.0</ele><time>2026-04-25T08:13:17.879Z</time></trkpt><trkpt lat="42.4192491" lon="11.1065353"><ele>243.0</ele><time>2026-04-25T08:13:18.886Z</time></trkpt><trkpt lat="42.419208" lon="11.1066057"><ele>243.0</ele><time>2026-04-25T08:13:19.885Z</time></trkpt><trkpt lat="42.4191012" lon="11.1066731"><ele>243.0</ele><time>2026-04-25T08:13:21.884Z</time></trkpt><trkpt lat="42.4190264" lon="11.1066894"><ele>243.0</ele><time>2026-04-25T08:13:22.883Z</time></trkpt><trkpt lat="42.4189404" lon="11.1067046"><ele>240.4</ele><time>2026-04-25T08:13:23.881Z</time></trkpt><trkpt lat="42.418865" lon="11.1067251"><ele>237.8</ele><time>2026-04-25T08:13:24.884Z</time></trkpt><trkpt lat="42.4187911" lon="11.1067311"><ele>235.2</ele><time>2026-04-25T08:13:25.881Z</time></trkpt><trkpt lat="42.4186846" lon="11.1067085"><ele>232.6</ele><time>2026-04-25T08:13:26.887Z</time></trkpt><trkpt lat="42.4185714" lon="11.1066817"><ele>230.0</ele><time>2026-04-25T08:13:27.878Z</time></trkpt><trkpt lat="42.4184781" lon="11.1066659"><ele>231.16666666666669</ele><time>2026-04-25T08:13:28.885Z</time></trkpt><trkpt lat="42.4183975" lon="11.1066505"><ele>232.33333333333334</ele><time>2026-04-25T08:13:29.881Z</time></trkpt><trkpt lat="42.4183265" lon="11.1066337"><ele>233.5</ele><time>2026-04-25T08:13:30.877Z</time></trkpt><trkpt lat="42.4182275" lon="11.1065797"><ele>234.66666666666669</ele><time>2026-04-25T08:13:32.889Z</time></trkpt><trkpt lat="42.4181786" lon="11.1065196"><ele>235.83333333333334</ele><time>2026-04-25T08:13:33.881Z</time></trkpt><trkpt lat="42.4181348" lon="11.1064581"><ele>237.0</ele><time>2026-04-25T08:13:34.881Z</time></trkpt><trkpt lat="42.4180422" lon="11.1063445"><ele>237.0</ele><time>2026-04-25T08:13:36.882Z</time></trkpt><trkpt lat="42.4179978" lon="11.1062026"><ele>237.0</ele><time>2026-04-25T08:13:38.88Z</time></trkpt><trkpt lat="42.4179751" lon="11.1060442"><ele>237.0</ele><time>2026-04-25T08:13:40.884Z</time></trkpt><trkpt lat="42.4179589" lon="11.1059587"><ele>237.0</ele><time>2026-04-25T08:13:41.885Z</time></trkpt><trkpt lat="42.4179433" lon="11.1058749"><ele>237.0</ele><time>2026-04-25T08:13:42.877Z</time></trkpt><trkpt lat="42.4179089" lon="11.1057386"><ele>238.0</ele><time>2026-04-25T08:13:44.888Z</time></trkpt><trkpt lat="42.4177976" lon="11.1056407"><ele>239.0</ele><time>2026-04-25T08:13:46.891Z</time></trkpt><trkpt lat="42.4177007" lon="11.1055746"><ele>240.0</ele><time>2026-04-25T08:13:47.892Z</time></trkpt><trkpt lat="42.4176056" lon="11.1055223"><ele>241.0</ele><time>2026-04-25T08:13:48.883Z</time></trkpt><trkpt lat="42.4175262" lon="11.1054594"><ele>242.0</ele><time>2026-04-25T08:13:49.89Z</time></trkpt><trkpt lat="42.4174244" lon="11.1053988"><ele>242.00000000000003</ele><time>2026-04-25T08:13:51.886Z</time></trkpt><trkpt lat="42.4173368" lon="11.1053995"><ele>242.0</ele><time>2026-04-25T08:13:52.894Z</time></trkpt><trkpt lat="42.4172416" lon="11.1054024"><ele>242.0</ele><time>2026-04-25T08:13:53.88Z</time></trkpt><trkpt lat="42.4171657" lon="11.1053991"><ele>242.0</ele><time>2026-04-25T08:13:54.89Z</time></trkpt><trkpt lat="42.4170842" lon="11.1054124"><ele>242.00000000000003</ele><time>2026-04-25T08:13:55.891Z</time></trkpt><trkpt lat="42.4169831" lon="11.1054223"><ele>242.0</ele><time>2026-04-25T08:13:56.892Z</time></trkpt><trkpt lat="42.4168857" lon="11.1054263"><ele>240.66666666666669</ele><time>2026-04-25T08:13:57.884Z</time></trkpt><trkpt lat="42.4167934" lon="11.1054446"><ele>239.33333333333334</ele><time>2026-04-25T08:13:58.881Z</time></trkpt><trkpt lat="42.416715" lon="11.1054724"><ele>238.0</ele><time>2026-04-25T08:13:59.885Z</time></trkpt><trkpt lat="42.416639" lon="11.1054686"><ele>236.66666666666669</ele><time>2026-04-25T08:14:00.89Z</time></trkpt><trkpt lat="42.4165645" lon="11.1054478"><ele>235.33333333333334</ele><time>2026-04-25T08:14:01.879Z</time></trkpt><trkpt lat="42.4164958" lon="11.1054359"><ele>234.0</ele><time>2026-04-25T08:14:02.891Z</time></trkpt><trkpt lat="42.4164273" lon="11.105432"><ele>234.0</ele><time>2026-04-25T08:14:03.881Z</time></trkpt><trkpt lat="42.4163451" lon="11.1054143"><ele>233.99999999999997</ele><time>2026-04-25T08:14:04.895Z</time></trkpt><trkpt lat="42.4162341" lon="11.1053672"><ele>233.99999999999997</ele><time>2026-04-25T08:14:05.883Z</time></trkpt><trkpt lat="42.4161212" lon="11.105327"><ele>234.0</ele><time>2026-04-25T08:14:06.886Z</time></trkpt><trkpt lat="42.4160299" lon="11.1052929"><ele>234.0</ele><time>2026-04-25T08:14:07.891Z</time></trkpt><trkpt lat="42.4159567" lon="11.1052723"><ele>233.79999999999998</ele><time>2026-04-25T08:14:08.879Z</time></trkpt><trkpt lat="42.4158889" lon="11.1052851"><ele>233.59999999999997</ele><time>2026-04-25T08:14:09.885Z</time></trkpt><trkpt lat="42.415808" lon="11.1053227"><ele>233.4</ele><time>2026-04-25T08:14:10.891Z</time></trkpt><trkpt lat="42.4156958" lon="11.1053762"><ele>233.2</ele><time>2026-04-25T08:14:11.882Z</time></trkpt><trkpt lat="42.4155873" lon="11.1054257"><ele>233.0</ele><time>2026-04-25T08:14:12.879Z</time></trkpt><trkpt lat="42.4154958" lon="11.105471"><ele>231.00000000000003</ele><time>2026-04-25T08:14:13.89Z</time></trkpt><trkpt lat="42.4154107" lon="11.1055131"><ele>229.0</ele><time>2026-04-25T08:14:14.883Z</time></trkpt><trkpt lat="42.4153421" lon="11.1055554"><ele>227.0</ele><time>2026-04-25T08:14:15.886Z</time></trkpt><trkpt lat="42.4152703" lon="11.1056075"><ele>225.0</ele><time>2026-04-25T08:14:16.888Z</time></trkpt><trkpt lat="42.4152174" lon="11.1056694"><ele>223.00000000000003</ele><time>2026-04-25T08:14:17.886Z</time></trkpt><trkpt lat="42.4151793" lon="11.105741"><ele>221.0</ele><time>2026-04-25T08:14:18.883Z</time></trkpt><trkpt lat="42.4151543" lon="11.1058308"><ele>221.00000000000003</ele><time>2026-04-25T08:14:19.89Z</time></trkpt><trkpt lat="42.4151323" lon="11.1059302"><ele>221.0</ele><time>2026-04-25T08:14:20.885Z</time></trkpt><trkpt lat="42.4150808" lon="11.1060653"><ele>221.0</ele><time>2026-04-25T08:14:22.885Z</time></trkpt><trkpt lat="42.4150298" lon="11.1061194"><ele>221.0</ele><time>2026-04-25T08:14:23.914Z</time></trkpt><trkpt lat="42.4149739" lon="11.1061738"><ele>221.00000000000003</ele><time>2026-04-25T08:14:25.89Z</time></trkpt><trkpt lat="42.4149139" lon="11.1061427"><ele>221.0</ele><time>2026-04-25T08:14:27.88Z</time></trkpt><trkpt lat="42.4148745" lon="11.1060273"><ele>221.0</ele><time>2026-04-25T08:14:39.888Z</time></trkpt><trkpt lat="42.4148139" lon="11.1059127"><ele>221.00000000000003</ele><time>2026-04-25T08:14:41.884Z</time></trkpt><trkpt lat="42.4147403" lon="11.1058101"><ele>221.00000000000003</ele><time>2026-04-25T08:14:43.889Z</time></trkpt><trkpt lat="42.4146471" lon="11.1056906"><ele>221.0</ele><time>2026-04-25T08:14:45.883Z</time></trkpt><trkpt lat="42.4145906" lon="11.1056362"><ele>221.0</ele><time>2026-04-25T08:14:46.882Z</time></trkpt><trkpt lat="42.4145249" lon="11.1055852"><ele>224.33333333333334</ele><time>2026-04-25T08:14:47.882Z</time></trkpt><trkpt lat="42.4144626" lon="11.1055205"><ele>227.66666666666669</ele><time>2026-04-25T08:14:48.88Z</time></trkpt><trkpt lat="42.4143928" lon="11.1054447"><ele>231.0</ele><time>2026-04-25T08:14:49.883Z</time></trkpt><trkpt lat="42.4143228" lon="11.1053769"><ele>234.33333333333331</ele><time>2026-04-25T08:14:50.885Z</time></trkpt><trkpt lat="42.4142667" lon="11.105311"><ele>237.66666666666666</ele><time>2026-04-25T08:14:51.883Z</time></trkpt><trkpt lat="42.4142133" lon="11.1052532"><ele>241.0</ele><time>2026-04-25T08:14:52.887Z</time></trkpt><trkpt lat="42.4141519" lon="11.1051711"><ele>241.0</ele><time>2026-04-25T08:14:53.897Z</time></trkpt><trkpt lat="42.4140968" lon="11.1050773"><ele>241.00000000000003</ele><time>2026-04-25T08:14:54.879Z</time></trkpt><trkpt lat="42.4140519" lon="11.1049952"><ele>241.00000000000003</ele><time>2026-04-25T08:14:55.883Z</time></trkpt><trkpt lat="42.4139671" lon="11.1049043"><ele>241.0</ele><time>2026-04-25T08:14:57.892Z</time></trkpt><trkpt lat="42.4138446" lon="11.1048736"><ele>241.0</ele><time>2026-04-25T08:14:59.886Z</time></trkpt><trkpt lat="42.4137731" lon="11.1048777"><ele>241.57142857142858</ele><time>2026-04-25T08:15:00.884Z</time></trkpt><trkpt lat="42.4136941" lon="11.104873"><ele>242.14285714285717</ele><time>2026-04-25T08:15:01.878Z</time></trkpt><trkpt lat="42.4136173" lon="11.104872"><ele>242.71428571428572</ele><time>2026-04-25T08:15:02.89Z</time></trkpt><trkpt lat="42.4135471" lon="11.1048785"><ele>243.28571428571428</ele><time>2026-04-25T08:15:03.879Z</time></trkpt><trkpt lat="42.4134783" lon="11.1048855"><ele>243.85714285714286</ele><time>2026-04-25T08:15:04.886Z</time></trkpt><trkpt lat="42.4134034" lon="11.1048777"><ele>244.42857142857144</ele><time>2026-04-25T08:15:05.879Z</time></trkpt><trkpt lat="42.413335" lon="11.1049178"><ele>245.0</ele><time>2026-04-25T08:15:12.887Z</time></trkpt><trkpt lat="42.4132594" lon="11.1049535"><ele>245.0</ele><time>2026-04-25T08:15:14.884Z</time></trkpt><trkpt lat="42.4131655" lon="11.1050098"><ele>245.0</ele><time>2026-04-25T08:15:16.885Z</time></trkpt><trkpt lat="42.413079" lon="11.1050426"><ele>245.0</ele><time>2026-04-25T08:15:17.884Z</time></trkpt><trkpt lat="42.4129655" lon="11.1050469"><ele>245.0</ele><time>2026-04-25T08:15:18.887Z</time></trkpt><trkpt lat="42.4128579" lon="11.1050521"><ele>245.0</ele><time>2026-04-25T08:15:19.882Z</time></trkpt><trkpt lat="42.4127859" lon="11.1050352"><ele>246.2</ele><time>2026-04-25T08:15:20.89Z</time></trkpt><trkpt lat="42.4127216" lon="11.1050065"><ele>247.4</ele><time>2026-04-25T08:15:21.879Z</time></trkpt><trkpt lat="42.4126453" lon="11.1049233"><ele>248.60000000000002</ele><time>2026-04-25T08:15:22.888Z</time></trkpt><trkpt lat="42.4125717" lon="11.1048316"><ele>249.8</ele><time>2026-04-25T08:15:23.882Z</time></trkpt><trkpt lat="42.412512" lon="11.1047403"><ele>251.0</ele><time>2026-04-25T08:15:24.892Z</time></trkpt><trkpt lat="42.4124205" lon="11.1046072"><ele>254.5</ele><time>2026-04-25T08:15:25.884Z</time></trkpt><trkpt lat="42.4123169" lon="11.1044703"><ele>258.0</ele><time>2026-04-25T08:15:26.878Z</time></trkpt><trkpt lat="42.4122242" lon="11.1043592"><ele>261.5</ele><time>2026-04-25T08:15:27.887Z</time></trkpt><trkpt lat="42.4121329" lon="11.1042786"><ele>265.0</ele><time>2026-04-25T08:15:28.884Z</time></trkpt><trkpt lat="42.4120581" lon="11.104213"><ele>265.0</ele><time>2026-04-25T08:15:29.895Z</time></trkpt><trkpt lat="42.4119804" lon="11.1041516"><ele>265.0</ele><time>2026-04-25T08:15:30.887Z</time></trkpt><trkpt lat="42.411897" lon="11.1041142"><ele>265.0</ele><time>2026-04-25T08:15:31.891Z</time></trkpt><trkpt lat="42.411791" lon="11.1040915"><ele>265.0</ele><time>2026-04-25T08:15:32.894Z</time></trkpt><trkpt lat="42.4116907" lon="11.1040934"><ele>265.0</ele><time>2026-04-25T08:15:33.885Z</time></trkpt><trkpt lat="42.4116144" lon="11.1041086"><ele>265.0</ele><time>2026-04-25T08:15:34.887Z</time></trkpt><trkpt lat="42.4115347" lon="11.1041517"><ele>265.0</ele><time>2026-04-25T08:15:35.88Z</time></trkpt><trkpt lat="42.4114513" lon="11.1042229"><ele>265.0</ele><time>2026-04-25T08:15:36.885Z</time></trkpt><trkpt lat="42.4113641" lon="11.1042947"><ele>265.0</ele><time>2026-04-25T08:15:37.886Z</time></trkpt><trkpt lat="42.4112955" lon="11.104344"><ele>265.0</ele><time>2026-04-25T08:15:38.885Z</time></trkpt><trkpt lat="42.411225" lon="11.1043733"><ele>265.0</ele><time>2026-04-25T08:15:39.881Z</time></trkpt><trkpt lat="42.4111456" lon="11.104384"><ele>266.0</ele><time>2026-04-25T08:15:40.878Z</time></trkpt><trkpt lat="42.4110602" lon="11.1044014"><ele>267.0</ele><time>2026-04-25T08:15:41.894Z</time></trkpt><trkpt lat="42.4109649" lon="11.104413"><ele>268.0</ele><time>2026-04-25T08:15:42.882Z</time></trkpt><trkpt lat="42.4108666" lon="11.1044139"><ele>269.0</ele><time>2026-04-25T08:15:43.878Z</time></trkpt><trkpt lat="42.4107756" lon="11.1044241"><ele>270.0</ele><time>2026-04-25T08:15:44.892Z</time></trkpt><trkpt lat="42.4106876" lon="11.1044514"><ele>270.0</ele><time>2026-04-25T08:15:45.88Z</time></trkpt><trkpt lat="42.4106106" lon="11.1044971"><ele>270.0</ele><time>2026-04-25T08:15:46.882Z</time></trkpt><trkpt lat="42.4105419" lon="11.1045415"><ele>270.0</ele><time>2026-04-25T08:15:47.888Z</time></trkpt><trkpt lat="42.410484" lon="11.1046064"><ele>270.0</ele><time>2026-04-25T08:15:48.883Z</time></trkpt><trkpt lat="42.4104252" lon="11.1046974"><ele>270.0</ele><time>2026-04-25T08:15:49.885Z</time></trkpt><trkpt lat="42.4103664" lon="11.1048287"><ele>270.0</ele><time>2026-04-25T08:15:50.884Z</time></trkpt><trkpt lat="42.4103036" lon="11.1049606"><ele>271.0</ele><time>2026-04-25T08:15:51.887Z</time></trkpt><trkpt lat="42.4102524" lon="11.1050833"><ele>272.0</ele><time>2026-04-25T08:15:52.883Z</time></trkpt><trkpt lat="42.4101914" lon="11.1051651"><ele>273.0</ele><time>2026-04-25T08:15:53.883Z</time></trkpt><trkpt lat="42.410121" lon="11.1052425"><ele>274.0</ele><time>2026-04-25T08:15:54.88Z</time></trkpt><trkpt lat="42.4100598" lon="11.1053263"><ele>275.0</ele><time>2026-04-25T08:15:55.885Z</time></trkpt><trkpt lat="42.41" lon="11.1054381"><ele>275.0</ele><time>2026-04-25T08:15:56.882Z</time></trkpt><trkpt lat="42.4099339" lon="11.1055692"><ele>275.0</ele><time>2026-04-25T08:15:57.886Z</time></trkpt><trkpt lat="42.40988" lon="11.1057119"><ele>275.0</ele><time>2026-04-25T08:15:58.886Z</time></trkpt><trkpt lat="42.4098388" lon="11.1058432"><ele>275.0</ele><time>2026-04-25T08:15:59.893Z</time></trkpt><trkpt lat="42.409813" lon="11.1059711"><ele>275.0</ele><time>2026-04-25T08:16:00.881Z</time></trkpt><trkpt lat="42.4097887" lon="11.1061092"><ele>275.8</ele><time>2026-04-25T08:16:01.883Z</time></trkpt><trkpt lat="42.4097611" lon="11.106238"><ele>276.6</ele><time>2026-04-25T08:16:02.887Z</time></trkpt><trkpt lat="42.4097292" lon="11.1063613"><ele>277.4</ele><time>2026-04-25T08:16:03.883Z</time></trkpt><trkpt lat="42.4096856" lon="11.1064794"><ele>278.2</ele><time>2026-04-25T08:16:04.881Z</time></trkpt><trkpt lat="42.4096333" lon="11.1065747"><ele>279.0</ele><time>2026-04-25T08:16:05.879Z</time></trkpt><trkpt lat="42.4095644" lon="11.1066707"><ele>279.0</ele><time>2026-04-25T08:16:06.887Z</time></trkpt><trkpt lat="42.4094875" lon="11.1067738"><ele>279.0</ele><time>2026-04-25T08:16:07.88Z</time></trkpt><trkpt lat="42.4094165" lon="11.1068629"><ele>279.0</ele><time>2026-04-25T08:16:08.884Z</time></trkpt><trkpt lat="42.40933" lon="11.1069537"><ele>279.0</ele><time>2026-04-25T08:16:09.877Z</time></trkpt><trkpt lat="42.4092476" lon="11.107044"><ele>279.0</ele><time>2026-04-25T08:16:10.885Z</time></trkpt><trkpt lat="42.4091784" lon="11.1071412"><ele>279.0</ele><time>2026-04-25T08:16:11.884Z</time></trkpt><trkpt lat="42.4091316" lon="11.1072236"><ele>279.0</ele><time>2026-04-25T08:16:12.891Z</time></trkpt><trkpt lat="42.4090964" lon="11.1073184"><ele>279.0</ele><time>2026-04-25T08:16:13.891Z</time></trkpt><trkpt lat="42.409073" lon="11.107413"><ele>279.0</ele><time>2026-04-25T08:16:14.883Z</time></trkpt><trkpt lat="42.4090635" lon="11.1075245"><ele>279.0</ele><time>2026-04-25T08:16:15.883Z</time></trkpt><trkpt lat="42.4090476" lon="11.1076404"><ele>279.0</ele><time>2026-04-25T08:16:16.889Z</time></trkpt><trkpt lat="42.4090275" lon="11.1077455"><ele>277.8</ele><time>2026-04-25T08:16:17.884Z</time></trkpt><trkpt lat="42.4090081" lon="11.1078321"><ele>276.59999999999997</ele><time>2026-04-25T08:16:18.882Z</time></trkpt><trkpt lat="42.4089965" lon="11.1079385"><ele>275.4</ele><time>2026-04-25T08:16:19.882Z</time></trkpt><trkpt lat="42.4090134" lon="11.1080552"><ele>274.2</ele><time>2026-04-25T08:16:20.884Z</time></trkpt><trkpt lat="42.4090353" lon="11.1082018"><ele>273.0</ele><time>2026-04-25T08:16:21.883Z</time></trkpt><trkpt lat="42.4090592" lon="11.1083565"><ele>272.6</ele><time>2026-04-25T08:16:22.888Z</time></trkpt><trkpt lat="42.4090822" lon="11.1085001"><ele>272.20000000000005</ele><time>2026-04-25T08:16:23.881Z</time></trkpt><trkpt lat="42.4090909" lon="11.1086055"><ele>271.8</ele><time>2026-04-25T08:16:24.888Z</time></trkpt><trkpt lat="42.4090879" lon="11.1087234"><ele>271.40000000000003</ele><time>2026-04-25T08:16:25.89Z</time></trkpt><trkpt lat="42.4090611" lon="11.1088591"><ele>271.0</ele><time>2026-04-25T08:16:26.874Z</time></trkpt><trkpt lat="42.4090337" lon="11.1089785"><ele>270.6</ele><time>2026-04-25T08:16:27.883Z</time></trkpt><trkpt lat="42.4090108" lon="11.1090822"><ele>270.20000000000005</ele><time>2026-04-25T08:16:28.883Z</time></trkpt><trkpt lat="42.4089826" lon="11.1092121"><ele>269.79999999999995</ele><time>2026-04-25T08:16:30.879Z</time></trkpt><trkpt lat="42.408914" lon="11.109247"><ele>269.4</ele><time>2026-04-25T08:16:32.879Z</time></trkpt><trkpt lat="42.4088109" lon="11.1091953"><ele>269.0</ele><time>2026-04-25T08:16:34.887Z</time></trkpt><trkpt lat="42.4087201" lon="11.1091393"><ele>270.0</ele><time>2026-04-25T08:16:36.883Z</time></trkpt><trkpt lat="42.4086519" lon="11.1091141"><ele>271.0</ele><time>2026-04-25T08:17:23.883Z</time></trkpt><trkpt lat="42.4085799" lon="11.1091202"><ele>272.0</ele><time>2026-04-25T08:17:27.886Z</time></trkpt><trkpt lat="42.4085759" lon="11.1092309"><ele>273.0</ele><time>2026-04-25T08:17:29.887Z</time></trkpt><trkpt lat="42.4085794" lon="11.1093222"><ele>274.0</ele><time>2026-04-25T08:17:30.892Z</time></trkpt><trkpt lat="42.4085918" lon="11.1094412"><ele>275.0</ele><time>2026-04-25T08:17:31.88Z</time></trkpt><trkpt lat="42.4086137" lon="11.1095662"><ele>275.0</ele><time>2026-04-25T08:17:32.888Z</time></trkpt><trkpt lat="42.4086338" lon="11.1096978"><ele>275.0</ele><time>2026-04-25T08:17:33.886Z</time></trkpt><trkpt lat="42.4086609" lon="11.1098242"><ele>275.0</ele><time>2026-04-25T08:17:34.888Z</time></trkpt><trkpt lat="42.4086909" lon="11.1099415"><ele>275.0</ele><time>2026-04-25T08:17:35.88Z</time></trkpt><trkpt lat="42.4087315" lon="11.1100536"><ele>275.0</ele><time>2026-04-25T08:17:36.882Z</time></trkpt><trkpt lat="42.4087697" lon="11.1101549"><ele>277.6</ele><time>2026-04-25T08:17:37.882Z</time></trkpt><trkpt lat="42.4087942" lon="11.110243"><ele>280.2</ele><time>2026-04-25T08:17:38.895Z</time></trkpt><trkpt lat="42.4087898" lon="11.110379"><ele>282.8</ele><time>2026-04-25T08:17:40.89Z</time></trkpt><trkpt lat="42.408711" lon="11.1104044"><ele>285.4</ele><time>2026-04-25T08:17:42.882Z</time></trkpt><trkpt lat="42.4086263" lon="11.1102789"><ele>288.0</ele><time>2026-04-25T08:17:44.895Z</time></trkpt><trkpt lat="42.4085641" lon="11.1101905"><ele>288.0</ele><time>2026-04-25T08:17:45.89Z</time></trkpt><trkpt lat="42.4084857" lon="11.1101174"><ele>288.0</ele><time>2026-04-25T08:17:46.878Z</time></trkpt><trkpt lat="42.4083791" lon="11.1100531"><ele>288.0</ele><time>2026-04-25T08:17:47.891Z</time></trkpt><trkpt lat="42.4082534" lon="11.1099991"><ele>288.0</ele><time>2026-04-25T08:17:48.884Z</time></trkpt><trkpt lat="42.4081172" lon="11.109941"><ele>287.75</ele><time>2026-04-25T08:17:49.878Z</time></trkpt><trkpt lat="42.4079812" lon="11.1098829"><ele>287.5</ele><time>2026-04-25T08:17:50.891Z</time></trkpt><trkpt lat="42.4078416" lon="11.1098257"><ele>287.25</ele><time>2026-04-25T08:17:51.882Z</time></trkpt><trkpt lat="42.4077198" lon="11.1097548"><ele>287.0</ele><time>2026-04-25T08:17:52.88Z</time></trkpt><trkpt lat="42.4075999" lon="11.1096807"><ele>287.0</ele><time>2026-04-25T08:17:53.883Z</time></trkpt><trkpt lat="42.4074843" lon="11.1096125"><ele>287.0</ele><time>2026-04-25T08:17:54.883Z</time></trkpt><trkpt lat="42.4073696" lon="11.1095466"><ele>287.0</ele><time>2026-04-25T08:17:55.881Z</time></trkpt><trkpt lat="42.4072486" lon="11.1094895"><ele>287.0</ele><time>2026-04-25T08:17:56.892Z</time></trkpt><trkpt lat="42.4071225" lon="11.1094503"><ele>292.0</ele><time>2026-04-25T08:17:57.888Z</time></trkpt><trkpt lat="42.4069822" lon="11.1094255"><ele>297.0</ele><time>2026-04-25T08:17:58.884Z</time></trkpt><trkpt lat="42.4068325" lon="11.1094115"><ele>302.0</ele><time>2026-04-25T08:17:59.881Z</time></trkpt><trkpt lat="42.4066726" lon="11.1094068"><ele>302.0</ele><time>2026-04-25T08:18:00.881Z</time></trkpt><trkpt lat="42.4065073" lon="11.1093943"><ele>302.0</ele><time>2026-04-25T08:18:01.892Z</time></trkpt><trkpt lat="42.4063478" lon="11.1094046"><ele>302.0</ele><time>2026-04-25T08:18:02.881Z</time></trkpt><trkpt lat="42.4061808" lon="11.1094409"><ele>306.6666666666667</ele><time>2026-04-25T08:18:03.89Z</time></trkpt><trkpt lat="42.406023" lon="11.1094921"><ele>311.3333333333333</ele><time>2026-04-25T08:18:04.884Z</time></trkpt><trkpt lat="42.4058542" lon="11.1095407"><ele>316.0</ele><time>2026-04-25T08:18:05.89Z</time></trkpt><trkpt lat="42.4056714" lon="11.1095672"><ele>318.0</ele><time>2026-04-25T08:18:06.884Z</time></trkpt><trkpt lat="42.4054908" lon="11.1095554"><ele>320.0</ele><time>2026-04-25T08:18:07.884Z</time></trkpt><trkpt lat="42.4053153" lon="11.109538"><ele>322.0</ele><time>2026-04-25T08:18:08.888Z</time></trkpt><trkpt lat="42.4051308" lon="11.1095103"><ele>322.0</ele><time>2026-04-25T08:18:09.887Z</time></trkpt><trkpt lat="42.404966" lon="11.1094908"><ele>322.0</ele><time>2026-04-25T08:18:10.887Z</time></trkpt><trkpt lat="42.4048199" lon="11.1094765"><ele>322.0</ele><time>2026-04-25T08:18:11.886Z</time></trkpt><trkpt lat="42.4046856" lon="11.1094708"><ele>322.0</ele><time>2026-04-25T08:18:12.886Z</time></trkpt><trkpt lat="42.4045686" lon="11.1094902"><ele>324.0</ele><time>2026-04-25T08:18:13.883Z</time></trkpt><trkpt lat="42.4044718" lon="11.1095584"><ele>326.0</ele><time>2026-04-25T08:18:14.881Z</time></trkpt><trkpt lat="42.404369" lon="11.109659"><ele>328.0</ele><time>2026-04-25T08:18:15.878Z</time></trkpt><trkpt lat="42.4042853" lon="11.1097748"><ele>330.0</ele><time>2026-04-25T08:18:16.894Z</time></trkpt><trkpt lat="42.404202" lon="11.1099049"><ele>329.0</ele><time>2026-04-25T08:18:17.884Z</time></trkpt><trkpt lat="42.4041123" lon="11.1100505"><ele>328.0</ele><time>2026-04-25T08:18:18.88Z</time></trkpt><trkpt lat="42.4040207" lon="11.1101888"><ele>327.0</ele><time>2026-04-25T08:18:19.881Z</time></trkpt><trkpt lat="42.4039237" lon="11.1103245"><ele>326.0</ele><time>2026-04-25T08:18:20.879Z</time></trkpt><trkpt lat="42.4038123" lon="11.1104617"><ele>329.6666666666667</ele><time>2026-04-25T08:18:21.882Z</time></trkpt><trkpt lat="42.4036821" lon="11.1105758"><ele>333.3333333333333</ele><time>2026-04-25T08:18:22.882Z</time></trkpt><trkpt lat="42.4035443" lon="11.1106876"><ele>337.0</ele><time>2026-04-25T08:18:23.881Z</time></trkpt><trkpt lat="42.4034025" lon="11.1108141"><ele>337.0</ele><time>2026-04-25T08:18:24.879Z</time></trkpt><trkpt lat="42.4032607" lon="11.1109451"><ele>337.0</ele><time>2026-04-25T08:18:25.878Z</time></trkpt><trkpt lat="42.4031186" lon="11.1110803"><ele>337.0</ele><time>2026-04-25T08:18:26.88Z</time></trkpt><trkpt lat="42.4029865" lon="11.1112005"><ele>337.0</ele><time>2026-04-25T08:18:27.882Z</time></trkpt><trkpt lat="42.4028644" lon="11.1113205"><ele>337.0</ele><time>2026-04-25T08:18:28.891Z</time></trkpt><trkpt lat="42.4027457" lon="11.1114347"><ele>337.0</ele><time>2026-04-25T08:18:29.878Z</time></trkpt><trkpt lat="42.4026159" lon="11.1115338"><ele>337.0</ele><time>2026-04-25T08:18:30.885Z</time></trkpt><trkpt lat="42.4024835" lon="11.1116362"><ele>337.0</ele><time>2026-04-25T08:18:31.889Z</time></trkpt><trkpt lat="42.4023488" lon="11.1117329"><ele>337.0</ele><time>2026-04-25T08:18:32.884Z</time></trkpt><trkpt lat="42.4021931" lon="11.1118191"><ele>337.0</ele><time>2026-04-25T08:18:33.89Z</time></trkpt><trkpt lat="42.4020359" lon="11.111884"><ele>340.75</ele><time>2026-04-25T08:18:34.883Z</time></trkpt><trkpt lat="42.4018898" lon="11.1119575"><ele>344.5</ele><time>2026-04-25T08:18:35.886Z</time></trkpt><trkpt lat="42.4017638" lon="11.1120536"><ele>348.25</ele><time>2026-04-25T08:18:36.881Z</time></trkpt><trkpt lat="42.4016532" lon="11.1121654"><ele>352.0</ele><time>2026-04-25T08:18:37.88Z</time></trkpt><trkpt lat="42.4015603" lon="11.112279"><ele>352.0</ele><time>2026-04-25T08:18:38.883Z</time></trkpt><trkpt lat="42.4014698" lon="11.1123986"><ele>352.0</ele><time>2026-04-25T08:18:39.879Z</time></trkpt><trkpt lat="42.4013755" lon="11.112527"><ele>352.0</ele><time>2026-04-25T08:18:40.884Z</time></trkpt><trkpt lat="42.4012787" lon="11.1126359"><ele>352.0</ele><time>2026-04-25T08:18:41.885Z</time></trkpt><trkpt lat="42.401183" lon="11.1127138"><ele>351.16666666666663</ele><time>2026-04-25T08:18:42.883Z</time></trkpt><trkpt lat="42.4011094" lon="11.1127603"><ele>350.3333333333333</ele><time>2026-04-25T08:18:43.89Z</time></trkpt><trkpt lat="42.4010131" lon="11.11281"><ele>349.5</ele><time>2026-04-25T08:18:45.883Z</time></trkpt><trkpt lat="42.4009774" lon="11.1128924"><ele>348.6666666666667</ele><time>2026-04-25T08:18:47.887Z</time></trkpt><trkpt lat="42.4009391" lon="11.112972"><ele>347.83333333333337</ele><time>2026-04-25T08:18:49.884Z</time></trkpt><trkpt lat="42.4008894" lon="11.1130448"><ele>347.0</ele><time>2026-04-25T08:18:51.883Z</time></trkpt><trkpt lat="42.4008823" lon="11.113138"><ele>346.8</ele><time>2026-04-25T08:18:53.876Z</time></trkpt><trkpt lat="42.40086" lon="11.1133622"><ele>346.6</ele><time>2026-04-25T08:18:55.88Z</time></trkpt><trkpt lat="42.4008623" lon="11.1134873"><ele>346.40000000000003</ele><time>2026-04-25T08:18:56.892Z</time></trkpt><trkpt lat="42.4008577" lon="11.1135735"><ele>346.20000000000005</ele><time>2026-04-25T08:18:57.882Z</time></trkpt><trkpt lat="42.4007993" lon="11.1136612"><ele>346.0</ele><time>2026-04-25T08:18:59.879Z</time></trkpt><trkpt lat="42.4007294" lon="11.1137915"><ele>346.0</ele><time>2026-04-25T08:19:01.881Z</time></trkpt><trkpt lat="42.4006893" lon="11.1139118"><ele>346.0</ele><time>2026-04-25T08:19:02.879Z</time></trkpt><trkpt lat="42.4006456" lon="11.1140646"><ele>346.0</ele><time>2026-04-25T08:19:03.885Z</time></trkpt><trkpt lat="42.4006016" lon="11.1142365"><ele>346.0</ele><time>2026-04-25T08:19:04.893Z</time></trkpt><trkpt lat="42.4005412" lon="11.1144011"><ele>346.4</ele><time>2026-04-25T08:19:05.879Z</time></trkpt><trkpt lat="42.4004876" lon="11.1145162"><ele>346.8</ele><time>2026-04-25T08:19:06.88Z</time></trkpt><trkpt lat="42.400457" lon="11.1146125"><ele>347.2</ele><time>2026-04-25T08:19:07.907Z</time></trkpt><trkpt lat="42.4004286" lon="11.1147897"><ele>347.59999999999997</ele><time>2026-04-25T08:19:09.878Z</time></trkpt><trkpt lat="42.4004323" lon="11.1149195"><ele>348.0</ele><time>2026-04-25T08:19:10.895Z</time></trkpt><trkpt lat="42.4004433" lon="11.1150695"><ele>348.0</ele><time>2026-04-25T08:19:11.879Z</time></trkpt><trkpt lat="42.4004503" lon="11.1152279"><ele>348.0</ele><time>2026-04-25T08:19:12.888Z</time></trkpt><trkpt lat="42.4004572" lon="11.1153739"><ele>348.0</ele><time>2026-04-25T08:19:13.883Z</time></trkpt><trkpt lat="42.4004651" lon="11.11549"><ele>348.0</ele><time>2026-04-25T08:19:14.886Z</time></trkpt><trkpt lat="42.4004497" lon="11.1156005"><ele>348.0</ele><time>2026-04-25T08:19:15.88Z</time></trkpt><trkpt lat="42.400434" lon="11.115689"><ele>350.4</ele><time>2026-04-25T08:19:16.879Z</time></trkpt><trkpt lat="42.4004452" lon="11.1158465"><ele>352.79999999999995</ele><time>2026-04-25T08:19:18.888Z</time></trkpt><trkpt lat="42.4004702" lon="11.1159463"><ele>355.2</ele><time>2026-04-25T08:19:19.879Z</time></trkpt><trkpt lat="42.400491" lon="11.1160336"><ele>357.6</ele><time>2026-04-25T08:19:20.885Z</time></trkpt><trkpt lat="42.400575" lon="11.1161367"><ele>360.0</ele><time>2026-04-25T08:19:22.881Z</time></trkpt><trkpt lat="42.400657" lon="11.1162134"><ele>361.6666666666667</ele><time>2026-04-25T08:19:23.888Z</time></trkpt><trkpt lat="42.4007386" lon="11.1162969"><ele>363.3333333333333</ele><time>2026-04-25T08:19:24.884Z</time></trkpt><trkpt lat="42.4008032" lon="11.1163715"><ele>365.0</ele><time>2026-04-25T08:19:25.885Z</time></trkpt><trkpt lat="42.4008652" lon="11.1164407"><ele>366.66666666666663</ele><time>2026-04-25T08:19:26.894Z</time></trkpt><trkpt lat="42.4009232" lon="11.116498"><ele>368.3333333333333</ele><time>2026-04-25T08:19:27.881Z</time></trkpt><trkpt lat="42.4009953" lon="11.1165909"><ele>370.0</ele><time>2026-04-25T08:19:29.882Z</time></trkpt><trkpt lat="42.4010109" lon="11.1166748"><ele>370.0</ele><time>2026-04-25T08:19:33.892Z</time></trkpt><trkpt lat="42.4010123" lon="11.1167948"><ele>370.0</ele><time>2026-04-25T08:24:30.883Z</time></trkpt><trkpt lat="42.4010109" lon="11.1168896"><ele>370.0</ele><time>2026-04-25T08:24:31.885Z</time></trkpt><trkpt lat="42.4010163" lon="11.1170134"><ele>370.0</ele><time>2026-04-25T08:24:32.881Z</time></trkpt><trkpt lat="42.401021" lon="11.1171312"><ele>370.0</ele><time>2026-04-25T08:24:33.895Z</time></trkpt><trkpt lat="42.4010374" lon="11.1172432"><ele>370.0</ele><time>2026-04-25T08:24:34.883Z</time></trkpt><trkpt lat="42.4010615" lon="11.1173584"><ele>370.2</ele><time>2026-04-25T08:24:35.886Z</time></trkpt><trkpt lat="42.4010973" lon="11.1174989"><ele>370.4</ele><time>2026-04-25T08:24:36.889Z</time></trkpt><trkpt lat="42.4011364" lon="11.1176322"><ele>370.6</ele><time>2026-04-25T08:24:37.891Z</time></trkpt><trkpt lat="42.4011772" lon="11.1177584"><ele>370.8</ele><time>2026-04-25T08:24:38.883Z</time></trkpt><trkpt lat="42.4012406" lon="11.117912"><ele>371.0</ele><time>2026-04-25T08:24:39.887Z</time></trkpt><trkpt lat="42.4013026" lon="11.1180548"><ele>368.6</ele><time>2026-04-25T08:24:40.892Z</time></trkpt><trkpt lat="42.401356" lon="11.1182009"><ele>366.20000000000005</ele><time>2026-04-25T08:24:41.889Z</time></trkpt><trkpt lat="42.4014007" lon="11.1183268"><ele>363.79999999999995</ele><time>2026-04-25T08:24:42.882Z</time></trkpt><trkpt lat="42.401431" lon="11.1184483"><ele>361.4</ele><time>2026-04-25T08:24:43.887Z</time></trkpt><trkpt lat="42.4014536" lon="11.118566"><ele>359.0</ele><time>2026-04-25T08:24:44.889Z</time></trkpt><trkpt lat="42.4014693" lon="11.118684"><ele>359.0</ele><time>2026-04-25T08:24:45.887Z</time></trkpt><trkpt lat="42.4014837" lon="11.1188029"><ele>359.0</ele><time>2026-04-25T08:24:46.875Z</time></trkpt><trkpt lat="42.4014902" lon="11.1189383"><ele>359.0</ele><time>2026-04-25T08:24:47.889Z</time></trkpt><trkpt lat="42.4014921" lon="11.1190907"><ele>359.0</ele><time>2026-04-25T08:24:48.882Z</time></trkpt><trkpt lat="42.4014912" lon="11.1193769"><ele>359.33333333333337</ele><time>2026-04-25T08:24:50.886Z</time></trkpt><trkpt lat="42.4014806" lon="11.1194862"><ele>359.6666666666667</ele><time>2026-04-25T08:24:51.88Z</time></trkpt><trkpt lat="42.4014943" lon="11.1195855"><ele>360.0</ele><time>2026-04-25T08:24:52.886Z</time></trkpt><trkpt lat="42.4015239" lon="11.1196919"><ele>360.3333333333333</ele><time>2026-04-25T08:24:53.884Z</time></trkpt><trkpt lat="42.4015635" lon="11.1198161"><ele>360.66666666666663</ele><time>2026-04-25T08:24:54.888Z</time></trkpt><trkpt lat="42.4016039" lon="11.1199303"><ele>361.0</ele><time>2026-04-25T08:24:55.877Z</time></trkpt><trkpt lat="42.401628" lon="11.1200186"><ele>361.3333333333333</ele><time>2026-04-25T08:24:56.89Z</time></trkpt><trkpt lat="42.4016443" lon="11.1201496"><ele>361.66666666666663</ele><time>2026-04-25T08:24:58.892Z</time></trkpt><trkpt lat="42.4016026" lon="11.1202905"><ele>362.0</ele><time>2026-04-25T08:25:00.883Z</time></trkpt><trkpt lat="42.4015686" lon="11.1203653"><ele>362.3333333333333</ele><time>2026-04-25T08:25:01.892Z</time></trkpt><trkpt lat="42.4015266" lon="11.1204408"><ele>362.6666666666667</ele><time>2026-04-25T08:25:02.881Z</time></trkpt><trkpt lat="42.4014842" lon="11.1205149"><ele>363.0</ele><time>2026-04-25T08:25:03.889Z</time></trkpt><trkpt lat="42.4014093" lon="11.1206154"><ele>363.0</ele><time>2026-04-25T08:25:05.893Z</time></trkpt><trkpt lat="42.4013563" lon="11.1207217"><ele>363.0</ele><time>2026-04-25T08:25:07.886Z</time></trkpt><trkpt lat="42.4013456" lon="11.1208316"><ele>363.0</ele><time>2026-04-25T08:25:08.891Z</time></trkpt><trkpt lat="42.4013319" lon="11.1209732"><ele>363.0</ele><time>2026-04-25T08:25:09.89Z</time></trkpt><trkpt lat="42.4013236" lon="11.1211192"><ele>363.0</ele><time>2026-04-25T08:25:10.888Z</time></trkpt><trkpt lat="42.4013173" lon="11.1212712"><ele>360.2</ele><time>2026-04-25T08:25:11.887Z</time></trkpt><trkpt lat="42.4012938" lon="11.1213979"><ele>357.4</ele><time>2026-04-25T08:25:12.884Z</time></trkpt><trkpt lat="42.4012665" lon="11.121525"><ele>354.59999999999997</ele><time>2026-04-25T08:25:13.891Z</time></trkpt><trkpt lat="42.4012416" lon="11.1216556"><ele>351.79999999999995</ele><time>2026-04-25T08:25:14.882Z</time></trkpt><trkpt lat="42.4012104" lon="11.1218016"><ele>349.0</ele><time>2026-04-25T08:25:15.882Z</time></trkpt><trkpt lat="42.4011809" lon="11.1219539"><ele>348.6</ele><time>2026-04-25T08:25:16.887Z</time></trkpt><trkpt lat="42.4011616" lon="11.1220943"><ele>348.2</ele><time>2026-04-25T08:25:17.887Z</time></trkpt><trkpt lat="42.4011377" lon="11.1222154"><ele>347.8</ele><time>2026-04-25T08:25:18.885Z</time></trkpt><trkpt lat="42.4011257" lon="11.1223245"><ele>347.40000000000003</ele><time>2026-04-25T08:25:19.891Z</time></trkpt><trkpt lat="42.4011346" lon="11.1224441"><ele>347.0</ele><time>2026-04-25T08:25:20.892Z</time></trkpt><trkpt lat="42.4011516" lon="11.1225581"><ele>347.0</ele><time>2026-04-25T08:25:21.894Z</time></trkpt><trkpt lat="42.4011921" lon="11.1226663"><ele>347.0</ele><time>2026-04-25T08:25:22.887Z</time></trkpt><trkpt lat="42.4012561" lon="11.1227997"><ele>347.0</ele><time>2026-04-25T08:25:23.895Z</time></trkpt><trkpt lat="42.4013088" lon="11.1229334"><ele>347.0</ele><time>2026-04-25T08:25:24.887Z</time></trkpt><trkpt lat="42.401335" lon="11.1230529"><ele>347.0</ele><time>2026-04-25T08:25:25.891Z</time></trkpt><trkpt lat="42.4013593" lon="11.1231969"><ele>349.6</ele><time>2026-04-25T08:25:26.883Z</time></trkpt><trkpt lat="42.4013823" lon="11.1233463"><ele>352.20000000000005</ele><time>2026-04-25T08:25:27.887Z</time></trkpt><trkpt lat="42.4014047" lon="11.1234794"><ele>354.8</ele><time>2026-04-25T08:25:28.886Z</time></trkpt><trkpt lat="42.4014308" lon="11.1235947"><ele>357.4</ele><time>2026-04-25T08:25:29.887Z</time></trkpt><trkpt lat="42.4014465" lon="11.1236877"><ele>360.0</ele><time>2026-04-25T08:25:30.888Z</time></trkpt><trkpt lat="42.4014675" lon="11.1238389"><ele>360.0</ele><time>2026-04-25T08:25:32.883Z</time></trkpt><trkpt lat="42.4014573" lon="11.1239744"><ele>360.0</ele><time>2026-04-25T08:25:34.884Z</time></trkpt><trkpt lat="42.4014396" lon="11.1240629"><ele>360.0</ele><time>2026-04-25T08:25:35.882Z</time></trkpt><trkpt lat="42.4014281" lon="11.1241764"><ele>360.0</ele><time>2026-04-25T08:25:36.89Z</time></trkpt><trkpt lat="42.4014405" lon="11.1242866"><ele>360.0</ele><time>2026-04-25T08:25:37.881Z</time></trkpt><trkpt lat="42.4014494" lon="11.1243718"><ele>360.0</ele><time>2026-04-25T08:25:38.889Z</time></trkpt><trkpt lat="42.4014355" lon="11.1245404"><ele>358.1666666666667</ele><time>2026-04-25T08:25:40.891Z</time></trkpt><trkpt lat="42.4014268" lon="11.1246381"><ele>356.3333333333333</ele><time>2026-04-25T08:25:41.892Z</time></trkpt><trkpt lat="42.4014253" lon="11.1247281"><ele>354.5</ele><time>2026-04-25T08:25:42.881Z</time></trkpt><trkpt lat="42.4014204" lon="11.1248164"><ele>352.66666666666663</ele><time>2026-04-25T08:25:43.884Z</time></trkpt><trkpt lat="42.4014009" lon="11.1249444"><ele>350.8333333333333</ele><time>2026-04-25T08:25:45.888Z</time></trkpt><trkpt lat="42.4013215" lon="11.1250272"><ele>349.0</ele><time>2026-04-25T08:25:47.896Z</time></trkpt><trkpt lat="42.4012628" lon="11.1250749"><ele>345.0</ele><time>2026-04-25T08:25:48.891Z</time></trkpt><trkpt lat="42.4011814" lon="11.1251638"><ele>341.0</ele><time>2026-04-25T08:25:49.886Z</time></trkpt><trkpt lat="42.4010827" lon="11.1253152"><ele>337.0</ele><time>2026-04-25T08:25:50.881Z</time></trkpt><trkpt lat="42.4009869" lon="11.1254678"><ele>333.0</ele><time>2026-04-25T08:25:51.885Z</time></trkpt><trkpt lat="42.4008924" lon="11.1256027"><ele>333.0</ele><time>2026-04-25T08:25:52.888Z</time></trkpt><trkpt lat="42.4008098" lon="11.1257124"><ele>333.0</ele><time>2026-04-25T08:25:53.885Z</time></trkpt><trkpt lat="42.4007339" lon="11.1258297"><ele>333.0</ele><time>2026-04-25T08:25:54.889Z</time></trkpt><trkpt lat="42.4006592" lon="11.1259247"><ele>333.0</ele><time>2026-04-25T08:25:55.887Z</time></trkpt><trkpt lat="42.4005969" lon="11.1260137"><ele>333.0</ele><time>2026-04-25T08:25:56.891Z</time></trkpt><trkpt lat="42.4005414" lon="11.1261109"><ele>332.0</ele><time>2026-04-25T08:25:57.887Z</time></trkpt><trkpt lat="42.400497" lon="11.1262326"><ele>331.0</ele><time>2026-04-25T08:25:58.885Z</time></trkpt><trkpt lat="42.4004612" lon="11.1263508"><ele>330.0</ele><time>2026-04-25T08:25:59.888Z</time></trkpt><trkpt lat="42.400422" lon="11.1264602"><ele>329.0</ele><time>2026-04-25T08:26:00.882Z</time></trkpt><trkpt lat="42.4003763" lon="11.1265761"><ele>328.0</ele><time>2026-04-25T08:26:01.882Z</time></trkpt><trkpt lat="42.4003294" lon="11.126688"><ele>328.0</ele><time>2026-04-25T08:26:02.883Z</time></trkpt><trkpt lat="42.4002734" lon="11.1267983"><ele>328.0</ele><time>2026-04-25T08:26:03.886Z</time></trkpt><trkpt lat="42.4002183" lon="11.1268987"><ele>328.0</ele><time>2026-04-25T08:26:04.881Z</time></trkpt><trkpt lat="42.400155" lon="11.1269879"><ele>328.0</ele><time>2026-04-25T08:26:05.884Z</time></trkpt><trkpt lat="42.4000908" lon="11.1270605"><ele>328.0</ele><time>2026-04-25T08:26:06.878Z</time></trkpt><trkpt lat="42.4000315" lon="11.12712"><ele>328.0</ele><time>2026-04-25T08:26:07.882Z</time></trkpt><trkpt lat="42.3999722" lon="11.1271698"><ele>328.0</ele><time>2026-04-25T08:26:08.882Z</time></trkpt><trkpt lat="42.3999147" lon="11.1272257"><ele>328.0</ele><time>2026-04-25T08:26:09.882Z</time></trkpt><trkpt lat="42.3998572" lon="11.1272754"><ele>328.0</ele><time>2026-04-25T08:26:10.885Z</time></trkpt><trkpt lat="42.3998057" lon="11.1273247"><ele>328.0</ele><time>2026-04-25T08:26:11.888Z</time></trkpt><trkpt lat="42.3996992" lon="11.1274173"><ele>328.0</ele><time>2026-04-25T08:26:13.879Z</time></trkpt><trkpt lat="42.3996392" lon="11.1274615"><ele>328.0</ele><time>2026-04-25T08:26:14.889Z</time></trkpt><trkpt lat="42.399585" lon="11.1275194"><ele>324.5</ele><time>2026-04-25T08:26:15.883Z</time></trkpt><trkpt lat="42.399537" lon="11.1275868"><ele>321.0</ele><time>2026-04-25T08:26:16.895Z</time></trkpt><trkpt lat="42.3994888" lon="11.1276584"><ele>317.5</ele><time>2026-04-25T08:26:17.881Z</time></trkpt><trkpt lat="42.3994267" lon="11.1277972"><ele>314.0</ele><time>2026-04-25T08:26:19.887Z</time></trkpt><trkpt lat="42.3993919" lon="11.1278685"><ele>310.5</ele><time>2026-04-25T08:26:20.894Z</time></trkpt><trkpt lat="42.3993513" lon="11.1279341"><ele>307.0</ele><time>2026-04-25T08:26:21.883Z</time></trkpt><trkpt lat="42.3992649" lon="11.1280438"><ele>307.0</ele><time>2026-04-25T08:26:23.889Z</time></trkpt><trkpt lat="42.399186" lon="11.1281648"><ele>307.0</ele><time>2026-04-25T08:26:25.889Z</time></trkpt><trkpt lat="42.3991314" lon="11.1282995"><ele>307.0</ele><time>2026-04-25T08:26:27.893Z</time></trkpt><trkpt lat="42.3990784" lon="11.1284423"><ele>307.0</ele><time>2026-04-25T08:26:29.897Z</time></trkpt><trkpt lat="42.3990156" lon="11.1285561"><ele>307.0</ele><time>2026-04-25T08:26:31.88Z</time></trkpt><trkpt lat="42.3989815" lon="11.128703"><ele>307.0</ele><time>2026-04-25T08:26:33.883Z</time></trkpt><trkpt lat="42.3989788" lon="11.1288581"><ele>307.0</ele><time>2026-04-25T08:26:35.901Z</time></trkpt><trkpt lat="42.3989832" lon="11.1289562"><ele>307.0</ele><time>2026-04-25T08:26:36.887Z</time></trkpt><trkpt lat="42.3990009" lon="11.1291004"><ele>307.0</ele><time>2026-04-25T08:26:38.881Z</time></trkpt><trkpt lat="42.3990456" lon="11.129238"><ele>305.8333333333333</ele><time>2026-04-25T08:26:40.888Z</time></trkpt><trkpt lat="42.399084" lon="11.1293191"><ele>304.66666666666663</ele><time>2026-04-25T08:26:41.886Z</time></trkpt><trkpt lat="42.3991436" lon="11.1294106"><ele>303.5</ele><time>2026-04-25T08:26:43.888Z</time></trkpt><trkpt lat="42.3992215" lon="11.1294832"><ele>302.3333333333333</ele><time>2026-04-25T08:26:45.885Z</time></trkpt><trkpt lat="42.3992824" lon="11.1295479"><ele>301.1666666666667</ele><time>2026-04-25T08:26:46.888Z</time></trkpt><trkpt lat="42.3993747" lon="11.1296303"><ele>300.0</ele><time>2026-04-25T08:26:48.896Z</time></trkpt><trkpt lat="42.3994823" lon="11.1296654"><ele>300.0</ele><time>2026-04-25T08:26:50.889Z</time></trkpt><trkpt lat="42.3995696" lon="11.1296937"><ele>300.0</ele><time>2026-04-25T08:26:52.885Z</time></trkpt><trkpt lat="42.3996684" lon="11.1296918"><ele>300.0</ele><time>2026-04-25T08:26:54.88Z</time></trkpt><trkpt lat="42.3997318" lon="11.129704"><ele>300.0</ele><time>2026-04-25T08:26:56.891Z</time></trkpt><trkpt lat="42.3998182" lon="11.129643"><ele>300.0</ele><time>2026-04-25T08:27:05.895Z</time></trkpt><trkpt lat="42.3999304" lon="11.1295541"><ele>298.75</ele><time>2026-04-25T08:27:07.883Z</time></trkpt><trkpt lat="42.4000196" lon="11.1294864"><ele>297.5</ele><time>2026-04-25T08:27:08.876Z</time></trkpt><trkpt lat="42.4001283" lon="11.1294055"><ele>296.25</ele><time>2026-04-25T08:27:09.885Z</time></trkpt><trkpt lat="42.400233" lon="11.1293227"><ele>295.0</ele><time>2026-04-25T08:27:10.882Z</time></trkpt><trkpt lat="42.400335" lon="11.129235"><ele>295.0</ele><time>2026-04-25T08:27:11.878Z</time></trkpt><trkpt lat="42.4004439" lon="11.1291545"><ele>295.0</ele><time>2026-04-25T08:27:12.881Z</time></trkpt><trkpt lat="42.4005555" lon="11.1290788"><ele>295.0</ele><time>2026-04-25T08:27:13.891Z</time></trkpt><trkpt lat="42.4006758" lon="11.1290211"><ele>295.0</ele><time>2026-04-25T08:27:14.887Z</time></trkpt><trkpt lat="42.4007872" lon="11.1289596"><ele>295.8333333333333</ele><time>2026-04-25T08:27:15.887Z</time></trkpt><trkpt lat="42.4008705" lon="11.128907"><ele>296.66666666666663</ele><time>2026-04-25T08:27:16.878Z</time></trkpt><trkpt lat="42.4009368" lon="11.128849"><ele>297.5</ele><time>2026-04-25T08:27:17.882Z</time></trkpt><trkpt lat="42.4009896" lon="11.1287859"><ele>298.3333333333333</ele><time>2026-04-25T08:27:18.88Z</time></trkpt><trkpt lat="42.401056" lon="11.1286345"><ele>299.1666666666667</ele><time>2026-04-25T08:27:20.883Z</time></trkpt><trkpt lat="42.401086" lon="11.1285382"><ele>300.0</ele><time>2026-04-25T08:27:21.881Z</time></trkpt><trkpt lat="42.4011071" lon="11.1284299"><ele>300.0</ele><time>2026-04-25T08:27:22.885Z</time></trkpt><trkpt lat="42.4011386" lon="11.1283248"><ele>300.0</ele><time>2026-04-25T08:27:23.884Z</time></trkpt><trkpt lat="42.4011861" lon="11.128223"><ele>300.0</ele><time>2026-04-25T08:27:24.889Z</time></trkpt><trkpt lat="42.4012562" lon="11.128132"><ele>300.0</ele><time>2026-04-25T08:27:25.881Z</time></trkpt><trkpt lat="42.4013301" lon="11.1280595"><ele>300.0</ele><time>2026-04-25T08:27:26.887Z</time></trkpt><trkpt lat="42.4013907" lon="11.1279962"><ele>300.0</ele><time>2026-04-25T08:27:27.889Z</time></trkpt><trkpt lat="42.4014572" lon="11.1278823"><ele>301.1666666666667</ele><time>2026-04-25T08:27:29.887Z</time></trkpt><trkpt lat="42.4015046" lon="11.1277436"><ele>302.3333333333333</ele><time>2026-04-25T08:27:31.879Z</time></trkpt><trkpt lat="42.4015313" lon="11.1276621"><ele>303.5</ele><time>2026-04-25T08:27:32.888Z</time></trkpt><trkpt lat="42.4015525" lon="11.1275639"><ele>304.66666666666663</ele><time>2026-04-25T08:27:33.879Z</time></trkpt><trkpt lat="42.4015719" lon="11.127451"><ele>305.8333333333333</ele><time>2026-04-25T08:27:34.88Z</time></trkpt><trkpt lat="42.401589" lon="11.1273171"><ele>307.0</ele><time>2026-04-25T08:27:35.885Z</time></trkpt><trkpt lat="42.4016176" lon="11.1271408"><ele>307.0</ele><time>2026-04-25T08:27:36.883Z</time></trkpt><trkpt lat="42.4016382" lon="11.1269788"><ele>307.0</ele><time>2026-04-25T08:27:37.879Z</time></trkpt><trkpt lat="42.4016594" lon="11.1268673"><ele>307.0</ele><time>2026-04-25T08:27:38.885Z</time></trkpt><trkpt lat="42.4017057" lon="11.1267982"><ele>307.0</ele><time>2026-04-25T08:27:39.889Z</time></trkpt><trkpt lat="42.4018145" lon="11.1267022"><ele>307.0</ele><time>2026-04-25T08:27:41.884Z</time></trkpt><trkpt lat="42.401895" lon="11.126672"><ele>307.0</ele><time>2026-04-25T08:27:42.884Z</time></trkpt><trkpt lat="42.401979" lon="11.1266695"><ele>307.0</ele><time>2026-04-25T08:27:43.882Z</time></trkpt><trkpt lat="42.4020658" lon="11.1266873"><ele>307.0</ele><time>2026-04-25T08:27:44.882Z</time></trkpt><trkpt lat="42.4021422" lon="11.1267009"><ele>307.0</ele><time>2026-04-25T08:27:45.883Z</time></trkpt><trkpt lat="42.4022138" lon="11.1266958"><ele>307.0</ele><time>2026-04-25T08:27:46.887Z</time></trkpt><trkpt lat="42.4022801" lon="11.1266698"><ele>307.0</ele><time>2026-04-25T08:27:47.885Z</time></trkpt><trkpt lat="42.4023755" lon="11.1266102"><ele>307.8</ele><time>2026-04-25T08:27:49.886Z</time></trkpt><trkpt lat="42.4024595" lon="11.1264524"><ele>308.6</ele><time>2026-04-25T08:27:51.881Z</time></trkpt><trkpt lat="42.4025045" lon="11.1263339"><ele>309.40000000000003</ele><time>2026-04-25T08:27:52.889Z</time></trkpt><trkpt lat="42.4025517" lon="11.1262119"><ele>310.2</ele><time>2026-04-25T08:27:53.889Z</time></trkpt><trkpt lat="42.4026051" lon="11.1260932"><ele>311.0</ele><time>2026-04-25T08:27:54.886Z</time></trkpt><trkpt lat="42.402663" lon="11.1259957"><ele>311.0</ele><time>2026-04-25T08:27:55.889Z</time></trkpt><trkpt lat="42.4027118" lon="11.1259265"><ele>311.0</ele><time>2026-04-25T08:27:56.889Z</time></trkpt><trkpt lat="42.4027623" lon="11.1257965"><ele>311.0</ele><time>2026-04-25T08:27:58.886Z</time></trkpt><trkpt lat="42.4027715" lon="11.125694"><ele>311.0</ele><time>2026-04-25T08:27:59.885Z</time></trkpt><trkpt lat="42.4027863" lon="11.1255751"><ele>311.0</ele><time>2026-04-25T08:28:00.888Z</time></trkpt><trkpt lat="42.4027983" lon="11.1254544"><ele>311.0</ele><time>2026-04-25T08:28:01.885Z</time></trkpt><trkpt lat="42.4028174" lon="11.1253441"><ele>310.6</ele><time>2026-04-25T08:28:02.894Z</time></trkpt><trkpt lat="42.4028311" lon="11.1252499"><ele>310.20000000000005</ele><time>2026-04-25T08:28:03.886Z</time></trkpt><trkpt lat="42.4028547" lon="11.1251305"><ele>309.79999999999995</ele><time>2026-04-25T08:28:05.887Z</time></trkpt><trkpt lat="42.4029629" lon="11.1251811"><ele>309.4</ele><time>2026-04-25T08:28:08.88Z</time></trkpt><trkpt lat="42.4030639" lon="11.1252548"><ele>309.0</ele><time>2026-04-25T08:28:09.887Z</time></trkpt><trkpt lat="42.4031703" lon="11.1253215"><ele>309.0</ele><time>2026-04-25T08:28:10.886Z</time></trkpt><trkpt lat="42.403282" lon="11.1253801"><ele>309.0</ele><time>2026-04-25T08:28:11.88Z</time></trkpt><trkpt lat="42.4033802" lon="11.125424"><ele>309.0</ele><time>2026-04-25T08:28:12.88Z</time></trkpt><trkpt lat="42.4034878" lon="11.1254519"><ele>309.0</ele><time>2026-04-25T08:28:13.885Z</time></trkpt><trkpt lat="42.4035907" lon="11.1254639"><ele>309.0</ele><time>2026-04-25T08:28:14.883Z</time></trkpt><trkpt lat="42.4036803" lon="11.1254707"><ele>309.0</ele><time>2026-04-25T08:28:15.888Z</time></trkpt><trkpt lat="42.4037663" lon="11.1254525"><ele>309.0</ele><time>2026-04-25T08:28:16.885Z</time></trkpt><trkpt lat="42.4038583" lon="11.1254033"><ele>309.0</ele><time>2026-04-25T08:28:17.895Z</time></trkpt><trkpt lat="42.4039668" lon="11.1253417"><ele>309.0</ele><time>2026-04-25T08:28:18.888Z</time></trkpt><trkpt lat="42.4040789" lon="11.125293"><ele>309.0</ele><time>2026-04-25T08:28:19.883Z</time></trkpt><trkpt lat="42.4041794" lon="11.1252639"><ele>308.8333333333333</ele><time>2026-04-25T08:28:20.877Z</time></trkpt><trkpt lat="42.4042684" lon="11.1252524"><ele>308.6666666666667</ele><time>2026-04-25T08:28:21.886Z</time></trkpt><trkpt lat="42.404343" lon="11.1252664"><ele>308.5</ele><time>2026-04-25T08:28:22.879Z</time></trkpt><trkpt lat="42.4044196" lon="11.1253412"><ele>308.33333333333337</ele><time>2026-04-25T08:28:24.887Z</time></trkpt><trkpt lat="42.4044998" lon="11.1253316"><ele>308.1666666666667</ele><time>2026-04-25T08:28:26.881Z</time></trkpt><trkpt lat="42.4045973" lon="11.1253442"><ele>308.0</ele><time>2026-04-25T08:28:28.88Z</time></trkpt><trkpt lat="42.4046525" lon="11.1254484"><ele>309.0</ele><time>2026-04-25T08:28:30.876Z</time></trkpt><trkpt lat="42.4046948" lon="11.1255736"><ele>310.0</ele><time>2026-04-25T08:28:32.891Z</time></trkpt><trkpt lat="42.4047713" lon="11.1255986"><ele>311.0</ele><time>2026-04-25T08:28:35.886Z</time></trkpt><trkpt lat="42.4048886" lon="11.1255666"><ele>312.0</ele><time>2026-04-25T08:28:37.885Z</time></trkpt><trkpt lat="42.4049969" lon="11.1255276"><ele>313.0</ele><time>2026-04-25T08:28:38.888Z</time></trkpt><trkpt lat="42.4051112" lon="11.1254846"><ele>313.0</ele><time>2026-04-25T08:28:39.88Z</time></trkpt><trkpt lat="42.4052277" lon="11.1254368"><ele>313.0</ele><time>2026-04-25T08:28:40.879Z</time></trkpt><trkpt lat="42.4053304" lon="11.1254032"><ele>313.0</ele><time>2026-04-25T08:28:41.882Z</time></trkpt><trkpt lat="42.4054047" lon="11.1253752"><ele>313.0</ele><time>2026-04-25T08:28:42.878Z</time></trkpt><trkpt lat="42.4054722" lon="11.1253629"><ele>313.0</ele><time>2026-04-25T08:28:44.889Z</time></trkpt><trkpt lat="42.405498" lon="11.125283"><ele>313.0</ele><time>2026-04-25T08:28:51.884Z</time></trkpt><trkpt lat="42.4055153" lon="11.1251772"><ele>313.0</ele><time>2026-04-25T08:28:53.882Z</time></trkpt><trkpt lat="42.4055356" lon="11.1250958"><ele>313.0</ele><time>2026-04-25T08:28:54.883Z</time></trkpt><trkpt lat="42.4055462" lon="11.1249822"><ele>313.0</ele><time>2026-04-25T08:28:55.881Z</time></trkpt><trkpt lat="42.4055538" lon="11.1248569"><ele>313.0</ele><time>2026-04-25T08:28:56.885Z</time></trkpt><trkpt lat="42.4055632" lon="11.1247449"><ele>313.0</ele><time>2026-04-25T08:28:57.881Z</time></trkpt><trkpt lat="42.4055712" lon="11.1246406"><ele>313.0</ele><time>2026-04-25T08:28:58.892Z</time></trkpt><trkpt lat="42.4055878" lon="11.1245323"><ele>313.0</ele><time>2026-04-25T08:28:59.883Z</time></trkpt><trkpt lat="42.4056107" lon="11.1244471"><ele>313.0</ele><time>2026-04-25T08:29:00.891Z</time></trkpt><trkpt lat="42.4056256" lon="11.1243217"><ele>313.0</ele><time>2026-04-25T08:29:02.882Z</time></trkpt><trkpt lat="42.4056239" lon="11.124213"><ele>313.0</ele><time>2026-04-25T08:29:04.893Z</time></trkpt><trkpt lat="42.4056436" lon="11.1240347"><ele>313.0</ele><time>2026-04-25T08:29:06.885Z</time></trkpt><trkpt lat="42.4056507" lon="11.1239348"><ele>313.0</ele><time>2026-04-25T08:29:07.881Z</time></trkpt><trkpt lat="42.405585" lon="11.1237667"><ele>313.0</ele><time>2026-04-25T08:29:09.883Z</time></trkpt><trkpt lat="42.4055242" lon="11.1236789"><ele>313.0</ele><time>2026-04-25T08:29:10.89Z</time></trkpt><trkpt lat="42.4054615" lon="11.1236221"><ele>313.0</ele><time>2026-04-25T08:29:11.882Z</time></trkpt><trkpt lat="42.4053807" lon="11.1235815"><ele>313.0</ele><time>2026-04-25T08:29:12.887Z</time></trkpt><trkpt lat="42.4052999" lon="11.123526"><ele>313.0</ele><time>2026-04-25T08:29:13.878Z</time></trkpt><trkpt lat="42.4052295" lon="11.1234476"><ele>313.0</ele><time>2026-04-25T08:29:14.898Z</time></trkpt><trkpt lat="42.4051647" lon="11.1233514"><ele>316.4</ele><time>2026-04-25T08:29:15.879Z</time></trkpt><trkpt lat="42.4051123" lon="11.1232586"><ele>319.8</ele><time>2026-04-25T08:29:16.888Z</time></trkpt><trkpt lat="42.4050746" lon="11.1231713"><ele>323.2</ele><time>2026-04-25T08:29:17.883Z</time></trkpt><trkpt lat="42.4050476" lon="11.1230795"><ele>326.6</ele><time>2026-04-25T08:29:18.886Z</time></trkpt><trkpt lat="42.4050403" lon="11.1229352"><ele>330.0</ele><time>2026-04-25T08:29:19.881Z</time></trkpt><trkpt lat="42.4050265" lon="11.1227554"><ele>330.2</ele><time>2026-04-25T08:29:20.875Z</time></trkpt><trkpt lat="42.4050114" lon="11.1225654"><ele>330.4</ele><time>2026-04-25T08:29:21.883Z</time></trkpt><trkpt lat="42.405" lon="11.1224074"><ele>330.6</ele><time>2026-04-25T08:29:22.883Z</time></trkpt><trkpt lat="42.4049963" lon="11.122279"><ele>330.8</ele><time>2026-04-25T08:29:23.879Z</time></trkpt><trkpt lat="42.4049871" lon="11.1221622"><ele>331.0</ele><time>2026-04-25T08:29:24.887Z</time></trkpt><trkpt lat="42.4049793" lon="11.1220737"><ele>331.0</ele><time>2026-04-25T08:29:25.888Z</time></trkpt><trkpt lat="42.4049351" lon="11.1219534"><ele>331.0</ele><time>2026-04-25T08:29:27.886Z</time></trkpt><trkpt lat="42.4048984" lon="11.1218749"><ele>331.0</ele><time>2026-04-25T08:29:28.884Z</time></trkpt><trkpt lat="42.4048334" lon="11.1217744"><ele>331.0</ele><time>2026-04-25T08:29:29.878Z</time></trkpt><trkpt lat="42.4047558" lon="11.1216443"><ele>331.0</ele><time>2026-04-25T08:29:30.884Z</time></trkpt><trkpt lat="42.4046851" lon="11.1215084"><ele>333.20000000000005</ele><time>2026-04-25T08:29:31.88Z</time></trkpt><trkpt lat="42.4046271" lon="11.1213901"><ele>335.40000000000003</ele><time>2026-04-25T08:29:32.884Z</time></trkpt><trkpt lat="42.4045726" lon="11.1212879"><ele>337.6</ele><time>2026-04-25T08:29:33.885Z</time></trkpt><trkpt lat="42.4045206" lon="11.1211937"><ele>339.8</ele><time>2026-04-25T08:29:34.888Z</time></trkpt><trkpt lat="42.4044766" lon="11.1211299"><ele>342.0</ele><time>2026-04-25T08:29:35.882Z</time></trkpt><trkpt lat="42.4043542" lon="11.1210855"><ele>342.0</ele><time>2026-04-25T08:29:37.879Z</time></trkpt><trkpt lat="42.4042732" lon="11.1210676"><ele>342.0</ele><time>2026-04-25T08:29:38.885Z</time></trkpt><trkpt lat="42.4041875" lon="11.1210702"><ele>342.0</ele><time>2026-04-25T08:29:39.882Z</time></trkpt><trkpt lat="42.4041002" lon="11.121067"><ele>342.0</ele><time>2026-04-25T08:29:40.89Z</time></trkpt><trkpt lat="42.4040042" lon="11.1210627"><ele>342.0</ele><time>2026-04-25T08:29:41.881Z</time></trkpt><trkpt lat="42.4039018" lon="11.1210558"><ele>345.8</ele><time>2026-04-25T08:29:42.884Z</time></trkpt><trkpt lat="42.4038003" lon="11.1210525"><ele>349.6</ele><time>2026-04-25T08:29:43.884Z</time></trkpt><trkpt lat="42.403719" lon="11.1210397"><ele>353.40000000000003</ele><time>2026-04-25T08:29:44.887Z</time></trkpt><trkpt lat="42.4036369" lon="11.1210145"><ele>357.20000000000005</ele><time>2026-04-25T08:29:45.885Z</time></trkpt><trkpt lat="42.4035572" lon="11.1209541"><ele>361.0</ele><time>2026-04-25T08:29:46.879Z</time></trkpt><trkpt lat="42.4034609" lon="11.1208525"><ele>361.0</ele><time>2026-04-25T08:29:47.886Z</time></trkpt><trkpt lat="42.4033644" lon="11.120749"><ele>361.0</ele><time>2026-04-25T08:29:48.878Z</time></trkpt><trkpt lat="42.4032697" lon="11.1206676"><ele>361.0</ele><time>2026-04-25T08:29:49.879Z</time></trkpt><trkpt lat="42.4031862" lon="11.1205936"><ele>361.0</ele><time>2026-04-25T08:29:50.885Z</time></trkpt><trkpt lat="42.4031034" lon="11.1205384"><ele>361.0</ele><time>2026-04-25T08:29:51.881Z</time></trkpt><trkpt lat="42.4030204" lon="11.1204795"><ele>359.0</ele><time>2026-04-25T08:29:52.885Z</time></trkpt><trkpt lat="42.4029206" lon="11.1204336"><ele>357.0</ele><time>2026-04-25T08:29:53.889Z</time></trkpt><trkpt lat="42.402815" lon="11.1203915"><ele>355.0</ele><time>2026-04-25T08:29:54.881Z</time></trkpt><trkpt lat="42.4027122" lon="11.120359"><ele>353.0</ele><time>2026-04-25T08:29:55.884Z</time></trkpt><trkpt lat="42.4026118" lon="11.1203516"><ele>351.0</ele><time>2026-04-25T08:29:56.891Z</time></trkpt><trkpt lat="42.4025107" lon="11.1203547"><ele>351.0</ele><time>2026-04-25T08:29:57.883Z</time></trkpt><trkpt lat="42.4024043" lon="11.1203582"><ele>351.0</ele><time>2026-04-25T08:29:58.89Z</time></trkpt><trkpt lat="42.4022931" lon="11.1203578"><ele>351.0</ele><time>2026-04-25T08:29:59.886Z</time></trkpt><trkpt lat="42.4021838" lon="11.1203571"><ele>351.0</ele><time>2026-04-25T08:30:00.884Z</time></trkpt><trkpt lat="42.4020909" lon="11.1203413"><ele>351.0</ele><time>2026-04-25T08:30:01.888Z</time></trkpt><trkpt lat="42.4020053" lon="11.1203086"><ele>353.4</ele><time>2026-04-25T08:30:02.883Z</time></trkpt><trkpt lat="42.4019205" lon="11.1202398"><ele>355.8</ele><time>2026-04-25T08:30:03.885Z</time></trkpt><trkpt lat="42.4018326" lon="11.1201517"><ele>358.2</ele><time>2026-04-25T08:30:04.891Z</time></trkpt><trkpt lat="42.4017649" lon="11.1200693"><ele>360.59999999999997</ele><time>2026-04-25T08:30:05.885Z</time></trkpt><trkpt lat="42.4016757" lon="11.1199885"><ele>363.0</ele><time>2026-04-25T08:30:07.882Z</time></trkpt><trkpt lat="42.4016154" lon="11.1200347"><ele>363.0</ele><time>2026-04-25T08:30:17.88Z</time></trkpt><trkpt lat="42.4016213" lon="11.1202002"><ele>363.0</ele><time>2026-04-25T08:31:04.878Z</time></trkpt><trkpt lat="42.401579" lon="11.120309"><ele>363.0</ele><time>2026-04-25T08:31:05.89Z</time></trkpt><trkpt lat="42.4015319" lon="11.1204175"><ele>363.0</ele><time>2026-04-25T08:31:06.884Z</time></trkpt><trkpt lat="42.4014927" lon="11.1205072"><ele>363.0</ele><time>2026-04-25T08:31:07.89Z</time></trkpt><trkpt lat="42.4014494" lon="11.1205798"><ele>363.0</ele><time>2026-04-25T08:31:08.892Z</time></trkpt><trkpt lat="42.4013759" lon="11.1206819"><ele>363.0</ele><time>2026-04-25T08:31:10.886Z</time></trkpt><trkpt lat="42.4013405" lon="11.1208544"><ele>363.0</ele><time>2026-04-25T08:31:12.882Z</time></trkpt><trkpt lat="42.4013228" lon="11.1210201"><ele>363.0</ele><time>2026-04-25T08:31:13.891Z</time></trkpt><trkpt lat="42.4013054" lon="11.1211971"><ele>360.2</ele><time>2026-04-25T08:31:14.888Z</time></trkpt><trkpt lat="42.4012923" lon="11.121353"><ele>357.4</ele><time>2026-04-25T08:31:15.887Z</time></trkpt><trkpt lat="42.4012687" lon="11.121491"><ele>354.59999999999997</ele><time>2026-04-25T08:31:16.892Z</time></trkpt><trkpt lat="42.4012445" lon="11.1216269"><ele>351.79999999999995</ele><time>2026-04-25T08:31:17.891Z</time></trkpt><trkpt lat="42.4012205" lon="11.1217689"><ele>349.0</ele><time>2026-04-25T08:31:18.894Z</time></trkpt><trkpt lat="42.4011995" lon="11.1219192"><ele>348.66666666666663</ele><time>2026-04-25T08:31:19.89Z</time></trkpt><trkpt lat="42.4011731" lon="11.1220736"><ele>348.3333333333333</ele><time>2026-04-25T08:31:20.89Z</time></trkpt><trkpt lat="42.4011502" lon="11.1222041"><ele>348.0</ele><time>2026-04-25T08:31:21.883Z</time></trkpt><trkpt lat="42.4011348" lon="11.1223023"><ele>347.6666666666667</ele><time>2026-04-25T08:31:22.881Z</time></trkpt><trkpt lat="42.4011305" lon="11.1223877"><ele>347.33333333333337</ele><time>2026-04-25T08:31:23.879Z</time></trkpt><trkpt lat="42.4011372" lon="11.1224894"><ele>347.0</ele><time>2026-04-25T08:31:24.884Z</time></trkpt><trkpt lat="42.4011511" lon="11.1225917"><ele>347.0</ele><time>2026-04-25T08:31:25.884Z</time></trkpt><trkpt lat="42.4011887" lon="11.1227019"><ele>347.0</ele><time>2026-04-25T08:31:26.881Z</time></trkpt><trkpt lat="42.401244" lon="11.1228401"><ele>347.0</ele><time>2026-04-25T08:31:27.881Z</time></trkpt><trkpt lat="42.4013001" lon="11.1229729"><ele>347.0</ele><time>2026-04-25T08:31:28.885Z</time></trkpt><trkpt lat="42.4013442" lon="11.1230952"><ele>347.0</ele><time>2026-04-25T08:31:29.891Z</time></trkpt><trkpt lat="42.401375" lon="11.1232279"><ele>349.6</ele><time>2026-04-25T08:31:30.884Z</time></trkpt><trkpt lat="42.401393" lon="11.1233461"><ele>352.20000000000005</ele><time>2026-04-25T08:31:31.877Z</time></trkpt><trkpt lat="42.4014091" lon="11.1234691"><ele>354.8</ele><time>2026-04-25T08:31:32.891Z</time></trkpt><trkpt lat="42.4014242" lon="11.1235872"><ele>357.4</ele><time>2026-04-25T08:31:33.891Z</time></trkpt><trkpt lat="42.401449" lon="11.1237566"><ele>360.0</ele><time>2026-04-25T08:31:35.899Z</time></trkpt><trkpt lat="42.4014503" lon="11.123845"><ele>360.0</ele><time>2026-04-25T08:31:36.891Z</time></trkpt><trkpt lat="42.4014432" lon="11.1239973"><ele>360.0</ele><time>2026-04-25T08:31:38.889Z</time></trkpt><trkpt lat="42.4014356" lon="11.1240994"><ele>360.0</ele><time>2026-04-25T08:31:39.881Z</time></trkpt><trkpt lat="42.4014353" lon="11.1242285"><ele>360.0</ele><time>2026-04-25T08:31:40.891Z</time></trkpt><trkpt lat="42.4014405" lon="11.1243352"><ele>360.0</ele><time>2026-04-25T08:31:41.894Z</time></trkpt><trkpt lat="42.4014451" lon="11.1244318"><ele>360.0</ele><time>2026-04-25T08:31:42.903Z</time></trkpt><trkpt lat="42.4014409" lon="11.1245254"><ele>357.8</ele><time>2026-04-25T08:31:43.883Z</time></trkpt><trkpt lat="42.4014215" lon="11.1246083"><ele>355.6</ele><time>2026-04-25T08:31:44.883Z</time></trkpt><trkpt lat="42.4014186" lon="11.1247003"><ele>353.4</ele><time>2026-04-25T08:31:45.879Z</time></trkpt><trkpt lat="42.4014093" lon="11.1248484"><ele>351.2</ele><time>2026-04-25T08:31:47.89Z</time></trkpt><trkpt lat="42.4013721" lon="11.1249575"><ele>349.0</ele><time>2026-04-25T08:31:49.885Z</time></trkpt><trkpt lat="42.4012656" lon="11.1250436"><ele>345.79999999999995</ele><time>2026-04-25T08:31:51.882Z</time></trkpt><trkpt lat="42.4012117" lon="11.1250981"><ele>342.59999999999997</ele><time>2026-04-25T08:31:52.888Z</time></trkpt><trkpt lat="42.4011511" lon="11.1251858"><ele>339.4</ele><time>2026-04-25T08:31:53.894Z</time></trkpt><trkpt lat="42.4010797" lon="11.1252889"><ele>336.2</ele><time>2026-04-25T08:31:54.897Z</time></trkpt><trkpt lat="42.4010014" lon="11.1254116"><ele>333.0</ele><time>2026-04-25T08:31:55.881Z</time></trkpt><trkpt lat="42.4009018" lon="11.1255676"><ele>333.0</ele><time>2026-04-25T08:31:56.894Z</time></trkpt><trkpt lat="42.4008054" lon="11.1257008"><ele>333.0</ele><time>2026-04-25T08:31:57.893Z</time></trkpt><trkpt lat="42.4007249" lon="11.1258132"><ele>333.0</ele><time>2026-04-25T08:31:58.888Z</time></trkpt><trkpt lat="42.4006502" lon="11.1259269"><ele>333.0</ele><time>2026-04-25T08:31:59.884Z</time></trkpt><trkpt lat="42.4005936" lon="11.1260076"><ele>333.0</ele><time>2026-04-25T08:32:00.889Z</time></trkpt><trkpt lat="42.4005529" lon="11.1260996"><ele>333.4</ele><time>2026-04-25T08:32:01.89Z</time></trkpt><trkpt lat="42.4005155" lon="11.1262093"><ele>333.79999999999995</ele><time>2026-04-25T08:32:02.886Z</time></trkpt><trkpt lat="42.4004715" lon="11.1263357"><ele>334.2</ele><time>2026-04-25T08:32:03.885Z</time></trkpt><trkpt lat="42.4004278" lon="11.126453"><ele>334.6</ele><time>2026-04-25T08:32:04.891Z</time></trkpt><trkpt lat="42.4003832" lon="11.1265684"><ele>335.0</ele><time>2026-04-25T08:32:05.886Z</time></trkpt><trkpt lat="42.4003395" lon="11.1266806"><ele>333.83333333333337</ele><time>2026-04-25T08:32:06.879Z</time></trkpt><trkpt lat="42.4002947" lon="11.1267822"><ele>332.6666666666667</ele><time>2026-04-25T08:32:07.9Z</time></trkpt><trkpt lat="42.4002472" lon="11.126861"><ele>331.5</ele><time>2026-04-25T08:32:08.882Z</time></trkpt><trkpt lat="42.4001905" lon="11.1269392"><ele>330.3333333333333</ele><time>2026-04-25T08:32:09.882Z</time></trkpt><trkpt lat="42.4001311" lon="11.1270144"><ele>329.16666666666663</ele><time>2026-04-25T08:32:10.883Z</time></trkpt><trkpt lat="42.4000748" lon="11.1270799"><ele>328.0</ele><time>2026-04-25T08:32:11.888Z</time></trkpt><trkpt lat="42.4000221" lon="11.1271417"><ele>328.0</ele><time>2026-04-25T08:32:12.877Z</time></trkpt><trkpt lat="42.3999204" lon="11.1272371"><ele>328.0</ele><time>2026-04-25T08:32:14.887Z</time></trkpt><trkpt lat="42.399818" lon="11.1273072"><ele>328.0</ele><time>2026-04-25T08:32:16.882Z</time></trkpt><trkpt lat="42.3997285" lon="11.1273785"><ele>328.0</ele><time>2026-04-25T08:32:18.887Z</time></trkpt><trkpt lat="42.3996182" lon="11.1274802"><ele>324.5</ele><time>2026-04-25T08:32:20.885Z</time></trkpt><trkpt lat="42.3995556" lon="11.1275669"><ele>321.0</ele><time>2026-04-25T08:32:21.897Z</time></trkpt><trkpt lat="42.3994928" lon="11.1276625"><ele>317.5</ele><time>2026-04-25T08:32:22.886Z</time></trkpt><trkpt lat="42.399446" lon="11.1277418"><ele>314.0</ele><time>2026-04-25T08:32:23.887Z</time></trkpt><trkpt lat="42.3994046" lon="11.1278197"><ele>310.5</ele><time>2026-04-25T08:32:24.896Z</time></trkpt><trkpt lat="42.3993648" lon="11.1278896"><ele>307.0</ele><time>2026-04-25T08:32:25.886Z</time></trkpt><trkpt lat="42.3992827" lon="11.1280115"><ele>307.0</ele><time>2026-04-25T08:32:27.885Z</time></trkpt><trkpt lat="42.3992084" lon="11.1281155"><ele>307.0</ele><time>2026-04-25T08:32:29.889Z</time></trkpt><trkpt lat="42.3991523" lon="11.1282367"><ele>307.0</ele><time>2026-04-25T08:32:31.881Z</time></trkpt><trkpt lat="42.3990917" lon="11.1283653"><ele>307.0</ele><time>2026-04-25T08:32:33.895Z</time></trkpt><trkpt lat="42.3990316" lon="11.1284765"><ele>307.0</ele><time>2026-04-25T08:32:35.894Z</time></trkpt><trkpt lat="42.3989657" lon="11.1286241"><ele>307.0</ele><time>2026-04-25T08:32:37.89Z</time></trkpt><trkpt lat="42.3989513" lon="11.1287194"><ele>307.0</ele><time>2026-04-25T08:32:38.891Z</time></trkpt><trkpt lat="42.3989657" lon="11.1288593"><ele>307.0</ele><time>2026-04-25T08:32:40.893Z</time></trkpt><trkpt lat="42.3989749" lon="11.1289448"><ele>307.0</ele><time>2026-04-25T08:32:41.882Z</time></trkpt><trkpt lat="42.3989938" lon="11.1290832"><ele>307.0</ele><time>2026-04-25T08:32:43.887Z</time></trkpt><trkpt lat="42.3990265" lon="11.1292012"><ele>307.0</ele><time>2026-04-25T08:32:45.889Z</time></trkpt><trkpt lat="42.3990822" lon="11.1293309"><ele>305.6</ele><time>2026-04-25T08:32:47.882Z</time></trkpt><trkpt lat="42.3991431" lon="11.1294205"><ele>304.2</ele><time>2026-04-25T08:32:49.893Z</time></trkpt><trkpt lat="42.3992275" lon="11.129479"><ele>302.8</ele><time>2026-04-25T08:32:51.89Z</time></trkpt><trkpt lat="42.3993258" lon="11.1295574"><ele>301.4</ele><time>2026-04-25T08:32:53.885Z</time></trkpt><trkpt lat="42.3993997" lon="11.1296268"><ele>300.0</ele><time>2026-04-25T08:32:55.888Z</time></trkpt><trkpt lat="42.3994823" lon="11.1296685"><ele>300.0</ele><time>2026-04-25T08:32:57.886Z</time></trkpt><trkpt lat="42.3995692" lon="11.1297019"><ele>300.0</ele><time>2026-04-25T08:32:59.881Z</time></trkpt><trkpt lat="42.3996546" lon="11.1297014"><ele>300.0</ele><time>2026-04-25T08:33:01.893Z</time></trkpt><trkpt lat="42.3997218" lon="11.1297141"><ele>300.0</ele><time>2026-04-25T08:33:03.891Z</time></trkpt><trkpt lat="42.399802" lon="11.1296673"><ele>300.0</ele><time>2026-04-25T08:33:17.896Z</time></trkpt><trkpt lat="42.3998689" lon="11.1296196"><ele>300.0</ele><time>2026-04-25T08:33:18.883Z</time></trkpt><trkpt lat="42.3999273" lon="11.1295674"><ele>299.1666666666667</ele><time>2026-04-25T08:33:19.883Z</time></trkpt><trkpt lat="42.3999926" lon="11.1295134"><ele>298.3333333333333</ele><time>2026-04-25T08:33:20.88Z</time></trkpt><trkpt lat="42.4000668" lon="11.1294565"><ele>297.5</ele><time>2026-04-25T08:33:21.887Z</time></trkpt><trkpt lat="42.4001395" lon="11.1294059"><ele>296.66666666666663</ele><time>2026-04-25T08:33:22.885Z</time></trkpt><trkpt lat="42.4002008" lon="11.1293574"><ele>295.8333333333333</ele><time>2026-04-25T08:33:23.895Z</time></trkpt><trkpt lat="42.4002907" lon="11.1292923"><ele>295.0</ele><time>2026-04-25T08:33:25.891Z</time></trkpt><trkpt lat="42.40035" lon="11.1292359"><ele>295.0</ele><time>2026-04-25T08:33:27.884Z</time></trkpt><trkpt lat="42.4004613" lon="11.129147"><ele>295.0</ele><time>2026-04-25T08:33:29.888Z</time></trkpt><trkpt lat="42.4005311" lon="11.1290995"><ele>295.0</ele><time>2026-04-25T08:33:30.88Z</time></trkpt><trkpt lat="42.4006003" lon="11.1290597"><ele>295.0</ele><time>2026-04-25T08:33:31.886Z</time></trkpt><trkpt lat="42.4006765" lon="11.1290089"><ele>295.0</ele><time>2026-04-25T08:33:32.887Z</time></trkpt><trkpt lat="42.4007399" lon="11.1289647"><ele>295.0</ele><time>2026-04-25T08:33:33.886Z</time></trkpt><trkpt lat="42.4008371" lon="11.1289185"><ele>295.0</ele><time>2026-04-25T08:33:35.884Z</time></trkpt><trkpt lat="42.4007526" lon="11.1289579"><ele>295.0</ele><time>2026-04-25T08:33:46.885Z</time></trkpt><trkpt lat="42.4006964" lon="11.1290034"><ele>295.0</ele><time>2026-04-25T08:33:47.878Z</time></trkpt><trkpt lat="42.4006147" lon="11.1290584"><ele>295.0</ele><time>2026-04-25T08:33:48.884Z</time></trkpt><trkpt lat="42.4005367" lon="11.1291121"><ele>295.0</ele><time>2026-04-25T08:33:49.883Z</time></trkpt><trkpt lat="42.4004761" lon="11.1291541"><ele>295.0</ele><time>2026-04-25T08:33:50.883Z</time></trkpt><trkpt lat="42.4004166" lon="11.1292067"><ele>295.0</ele><time>2026-04-25T08:33:53.886Z</time></trkpt><trkpt lat="42.400315" lon="11.1292723"><ele>295.0</ele><time>2026-04-25T08:34:08.891Z</time></trkpt><trkpt lat="42.4002264" lon="11.1293463"><ele>295.0</ele><time>2026-04-25T08:34:09.886Z</time></trkpt><trkpt lat="42.4001039" lon="11.129432"><ele>295.0</ele><time>2026-04-25T08:34:10.887Z</time></trkpt><trkpt lat="42.399976" lon="11.1295316"><ele>295.0</ele><time>2026-04-25T08:34:11.883Z</time></trkpt><trkpt lat="42.3998508" lon="11.1296376"><ele>295.0</ele><time>2026-04-25T08:34:12.888Z</time></trkpt><trkpt lat="42.3997542" lon="11.1297251"><ele>295.0</ele><time>2026-04-25T08:34:13.892Z</time></trkpt><trkpt lat="42.3996544" lon="11.1298116"><ele>295.0</ele><time>2026-04-25T08:34:14.884Z</time></trkpt><trkpt lat="42.3995497" lon="11.129882"><ele>292.25</ele><time>2026-04-25T08:34:15.887Z</time></trkpt><trkpt lat="42.3994347" lon="11.1299517"><ele>289.5</ele><time>2026-04-25T08:34:16.89Z</time></trkpt><trkpt lat="42.3993156" lon="11.130028"><ele>286.75</ele><time>2026-04-25T08:34:17.881Z</time></trkpt><trkpt lat="42.399195" lon="11.1301106"><ele>284.0</ele><time>2026-04-25T08:34:18.884Z</time></trkpt><trkpt lat="42.399089" lon="11.130172"><ele>284.0</ele><time>2026-04-25T08:34:19.878Z</time></trkpt><trkpt lat="42.3990082" lon="11.1302183"><ele>284.0</ele><time>2026-04-25T08:34:20.886Z</time></trkpt><trkpt lat="42.3989351" lon="11.1302604"><ele>284.0</ele><time>2026-04-25T08:34:21.883Z</time></trkpt><trkpt lat="42.3988675" lon="11.1302798"><ele>284.0</ele><time>2026-04-25T08:34:22.886Z</time></trkpt><trkpt lat="42.3987958" lon="11.1302736"><ele>284.0</ele><time>2026-04-25T08:34:23.883Z</time></trkpt><trkpt lat="42.3987228" lon="11.1302591"><ele>284.0</ele><time>2026-04-25T08:34:24.896Z</time></trkpt><trkpt lat="42.3986476" lon="11.1302572"><ele>282.2</ele><time>2026-04-25T08:34:25.886Z</time></trkpt><trkpt lat="42.3985538" lon="11.1302678"><ele>280.4</ele><time>2026-04-25T08:34:26.894Z</time></trkpt><trkpt lat="42.398438" lon="11.1302944"><ele>278.6</ele><time>2026-04-25T08:34:27.888Z</time></trkpt><trkpt lat="42.3983349" lon="11.1303091"><ele>276.8</ele><time>2026-04-25T08:34:28.884Z</time></trkpt><trkpt lat="42.3982346" lon="11.1303304"><ele>275.0</ele><time>2026-04-25T08:34:29.889Z</time></trkpt><trkpt lat="42.3981407" lon="11.1303366"><ele>275.0</ele><time>2026-04-25T08:34:30.883Z</time></trkpt><trkpt lat="42.3980457" lon="11.1303322"><ele>275.0</ele><time>2026-04-25T08:34:31.879Z</time></trkpt><trkpt lat="42.397933" lon="11.1303164"><ele>275.0</ele><time>2026-04-25T08:34:32.886Z</time></trkpt><trkpt lat="42.3978166" lon="11.1302955"><ele>275.0</ele><time>2026-04-25T08:34:33.886Z</time></trkpt><trkpt lat="42.3977195" lon="11.1302817"><ele>275.0</ele><time>2026-04-25T08:34:34.887Z</time></trkpt><trkpt lat="42.3976262" lon="11.1302733"><ele>273.4</ele><time>2026-04-25T08:34:35.89Z</time></trkpt><trkpt lat="42.3975318" lon="11.130298"><ele>271.8</ele><time>2026-04-25T08:34:36.887Z</time></trkpt><trkpt lat="42.3974298" lon="11.1303607"><ele>270.2</ele><time>2026-04-25T08:34:37.884Z</time></trkpt><trkpt lat="42.3973346" lon="11.13045"><ele>268.6</ele><time>2026-04-25T08:34:38.882Z</time></trkpt><trkpt lat="42.3972469" lon="11.1305442"><ele>267.0</ele><time>2026-04-25T08:34:39.89Z</time></trkpt><trkpt lat="42.3971715" lon="11.1306109"><ele>267.8</ele><time>2026-04-25T08:34:40.885Z</time></trkpt><trkpt lat="42.39709" lon="11.1306637"><ele>268.6</ele><time>2026-04-25T08:34:41.891Z</time></trkpt><trkpt lat="42.3969847" lon="11.1307082"><ele>269.40000000000003</ele><time>2026-04-25T08:34:42.882Z</time></trkpt><trkpt lat="42.3968596" lon="11.1307296"><ele>270.2</ele><time>2026-04-25T08:34:43.884Z</time></trkpt><trkpt lat="42.3967629" lon="11.1307693"><ele>271.0</ele><time>2026-04-25T08:34:44.884Z</time></trkpt><trkpt lat="42.3966802" lon="11.1308343"><ele>270.0</ele><time>2026-04-25T08:34:46.887Z</time></trkpt><trkpt lat="42.396647" lon="11.1309128"><ele>269.0</ele><time>2026-04-25T08:34:48.877Z</time></trkpt><trkpt lat="42.3965581" lon="11.1308988"><ele>268.0</ele><time>2026-04-25T08:34:54.884Z</time></trkpt><trkpt lat="42.3964649" lon="11.1308494"><ele>267.0</ele><time>2026-04-25T08:34:56.888Z</time></trkpt><trkpt lat="42.3963996" lon="11.130824"><ele>266.0</ele><time>2026-04-25T08:34:57.883Z</time></trkpt><trkpt lat="42.396291" lon="11.1308436"><ele>265.0</ele><time>2026-04-25T08:34:59.879Z</time></trkpt><trkpt lat="42.3961745" lon="11.1309058"><ele>265.0</ele><time>2026-04-25T08:35:01.883Z</time></trkpt><trkpt lat="42.3961133" lon="11.1309631"><ele>265.0</ele><time>2026-04-25T08:35:02.898Z</time></trkpt><trkpt lat="42.3960345" lon="11.1310527"><ele>265.0</ele><time>2026-04-25T08:35:03.879Z</time></trkpt><trkpt lat="42.3959511" lon="11.1311657"><ele>265.0</ele><time>2026-04-25T08:35:04.886Z</time></trkpt><trkpt lat="42.3958874" lon="11.1312738"><ele>265.0</ele><time>2026-04-25T08:35:05.895Z</time></trkpt><trkpt lat="42.3958396" lon="11.1313808"><ele>265.0</ele><time>2026-04-25T08:35:06.885Z</time></trkpt><trkpt lat="42.3958032" lon="11.1314842"><ele>265.0</ele><time>2026-04-25T08:35:07.889Z</time></trkpt><trkpt lat="42.3957708" lon="11.1316042"><ele>265.0</ele><time>2026-04-25T08:35:08.885Z</time></trkpt><trkpt lat="42.395732" lon="11.1317492"><ele>265.0</ele><time>2026-04-25T08:35:09.882Z</time></trkpt><trkpt lat="42.3956826" lon="11.1318988"><ele>265.0</ele><time>2026-04-25T08:35:10.881Z</time></trkpt><trkpt lat="42.3956389" lon="11.1320532"><ele>264.5</ele><time>2026-04-25T08:35:11.897Z</time></trkpt><trkpt lat="42.3956031" lon="11.1321969"><ele>264.0</ele><time>2026-04-25T08:35:12.891Z</time></trkpt><trkpt lat="42.3955666" lon="11.1323335"><ele>263.5</ele><time>2026-04-25T08:35:13.878Z</time></trkpt><trkpt lat="42.3955359" lon="11.1324422"><ele>263.0</ele><time>2026-04-25T08:35:14.884Z</time></trkpt><trkpt lat="42.39551" lon="11.1325253"><ele>262.5</ele><time>2026-04-25T08:35:15.881Z</time></trkpt><trkpt lat="42.3954726" lon="11.1326046"><ele>262.0</ele><time>2026-04-25T08:35:16.893Z</time></trkpt><trkpt lat="42.3954259" lon="11.1326912"><ele>264.0</ele><time>2026-04-25T08:35:17.883Z</time></trkpt><trkpt lat="42.395346" lon="11.1327984"><ele>266.0</ele><time>2026-04-25T08:35:19.883Z</time></trkpt><trkpt lat="42.3952495" lon="11.1328154"><ele>268.0</ele><time>2026-04-25T08:35:21.887Z</time></trkpt><trkpt lat="42.3951433" lon="11.1328673"><ele>270.0</ele><time>2026-04-25T08:35:23.891Z</time></trkpt><trkpt lat="42.3950407" lon="11.132958"><ele>272.0</ele><time>2026-04-25T08:35:25.888Z</time></trkpt><trkpt lat="42.3949829" lon="11.1330115"><ele>272.0</ele><time>2026-04-25T08:35:26.893Z</time></trkpt><trkpt lat="42.3949264" lon="11.1330689"><ele>272.0</ele><time>2026-04-25T08:35:27.891Z</time></trkpt><trkpt lat="42.3948767" lon="11.133146"><ele>272.0</ele><time>2026-04-25T08:35:28.893Z</time></trkpt><trkpt lat="42.3948272" lon="11.1332202"><ele>272.0</ele><time>2026-04-25T08:35:29.899Z</time></trkpt><trkpt lat="42.3947314" lon="11.1332717"><ele>272.0</ele><time>2026-04-25T08:35:31.886Z</time></trkpt><trkpt lat="42.3946681" lon="11.1333055"><ele>272.0</ele><time>2026-04-25T08:35:32.887Z</time></trkpt><trkpt lat="42.3946076" lon="11.1333379"><ele>272.0</ele><time>2026-04-25T08:35:33.893Z</time></trkpt><trkpt lat="42.3945237" lon="11.1333724"><ele>272.0</ele><time>2026-04-25T08:35:35.883Z</time></trkpt><trkpt lat="42.3944538" lon="11.133376"><ele>272.0</ele><time>2026-04-25T08:35:38.884Z</time></trkpt><trkpt lat="42.3943926" lon="11.1334093"><ele>272.0</ele><time>2026-04-25T08:35:42.889Z</time></trkpt><trkpt lat="42.3943241" lon="11.1334397"><ele>272.0</ele><time>2026-04-25T08:35:45.894Z</time></trkpt><trkpt lat="42.3942364" lon="11.1334389"><ele>272.0</ele><time>2026-04-25T08:35:48.886Z</time></trkpt><trkpt lat="42.3941681" lon="11.1334806"><ele>272.0</ele><time>2026-04-25T08:35:50.883Z</time></trkpt><trkpt lat="42.394109" lon="11.133547"><ele>272.0</ele><time>2026-04-25T08:35:52.894Z</time></trkpt><trkpt lat="42.3940379" lon="11.1336166"><ele>272.0</ele><time>2026-04-25T08:35:54.888Z</time></trkpt><trkpt lat="42.3939654" lon="11.1336746"><ele>272.0</ele><time>2026-04-25T08:35:56.897Z</time></trkpt><trkpt lat="42.3939133" lon="11.1337441"><ele>272.0</ele><time>2026-04-25T08:35:58.885Z</time></trkpt><trkpt lat="42.393869" lon="11.1338214"><ele>272.0</ele><time>2026-04-25T08:36:01.886Z</time></trkpt><trkpt lat="42.3938009" lon="11.1338883"><ele>272.33333333333337</ele><time>2026-04-25T08:36:27.885Z</time></trkpt><trkpt lat="42.393732" lon="11.1339371"><ele>272.6666666666667</ele><time>2026-04-25T08:36:30.885Z</time></trkpt><trkpt lat="42.3936693" lon="11.1339991"><ele>273.0</ele><time>2026-04-25T08:38:49.882Z</time></trkpt><trkpt lat="42.3936108" lon="11.134066"><ele>273.3333333333333</ele><time>2026-04-25T08:38:53.888Z</time></trkpt><trkpt lat="42.393548" lon="11.1341323"><ele>273.66666666666663</ele><time>2026-04-25T08:38:56.893Z</time></trkpt><trkpt lat="42.3934957" lon="11.1341999"><ele>274.0</ele><time>2026-04-25T08:38:59.883Z</time></trkpt><trkpt lat="42.3934531" lon="11.1342901"><ele>274.0</ele><time>2026-04-25T08:39:01.882Z</time></trkpt><trkpt lat="42.3934072" lon="11.13439"><ele>274.0</ele><time>2026-04-25T08:39:03.892Z</time></trkpt><trkpt lat="42.3933551" lon="11.1344703"><ele>274.0</ele><time>2026-04-25T08:39:05.888Z</time></trkpt><trkpt lat="42.3932924" lon="11.134558"><ele>274.0</ele><time>2026-04-25T08:39:07.896Z</time></trkpt><trkpt lat="42.3932263" lon="11.1346524"><ele>274.0</ele><time>2026-04-25T08:39:09.888Z</time></trkpt><trkpt lat="42.393172" lon="11.1347268"><ele>274.0</ele><time>2026-04-25T08:39:12.891Z</time></trkpt><trkpt lat="42.3931093" lon="11.1348086"><ele>274.0</ele><time>2026-04-25T08:39:15.887Z</time></trkpt><trkpt lat="42.393051" lon="11.1348738"><ele>274.0</ele><time>2026-04-25T08:39:18.895Z</time></trkpt><trkpt lat="42.3930019" lon="11.1349416"><ele>274.0</ele><time>2026-04-25T08:39:21.882Z</time></trkpt><trkpt lat="42.3929354" lon="11.1350336"><ele>274.0</ele><time>2026-04-25T08:39:24.883Z</time></trkpt><trkpt lat="42.3928569" lon="11.1350963"><ele>274.0</ele><time>2026-04-25T08:39:27.884Z</time></trkpt><trkpt lat="42.3927942" lon="11.135141"><ele>274.0</ele><time>2026-04-25T08:39:29.891Z</time></trkpt><trkpt lat="42.392729" lon="11.1351901"><ele>272.3333333333333</ele><time>2026-04-25T08:39:31.886Z</time></trkpt><trkpt lat="42.3926633" lon="11.1352574"><ele>270.66666666666663</ele><time>2026-04-25T08:39:33.888Z</time></trkpt><trkpt lat="42.3926229" lon="11.1353281"><ele>269.0</ele><time>2026-04-25T08:39:36.801Z</time></trkpt><trkpt lat="42.3925711" lon="11.1354303"><ele>267.3333333333333</ele><time>2026-04-25T08:39:38.655Z</time></trkpt><trkpt lat="42.3924967" lon="11.1354639"><ele>265.6666666666667</ele><time>2026-04-25T08:39:40.888Z</time></trkpt><trkpt lat="42.3924355" lon="11.1355068"><ele>264.0</ele><time>2026-04-25T08:39:42.885Z</time></trkpt><trkpt lat="42.3923584" lon="11.1355677"><ele>264.0</ele><time>2026-04-25T08:39:45.887Z</time></trkpt><trkpt lat="42.3923017" lon="11.1356274"><ele>264.0</ele><time>2026-04-25T08:39:47.877Z</time></trkpt><trkpt lat="42.39225" lon="11.1357016"><ele>264.0</ele><time>2026-04-25T08:39:49.822Z</time></trkpt><trkpt lat="42.3921877" lon="11.1357691"><ele>264.0</ele><time>2026-04-25T08:39:52.881Z</time></trkpt><trkpt lat="42.3921283" lon="11.1358168"><ele>264.0</ele><time>2026-04-25T08:39:55.742Z</time></trkpt><trkpt lat="42.3920561" lon="11.1358817"><ele>264.0</ele><time>2026-04-25T08:39:58.889Z</time></trkpt><trkpt lat="42.3919928" lon="11.1358918"><ele>264.0</ele><time>2026-04-25T08:40:01.888Z</time></trkpt><trkpt lat="42.3919442" lon="11.135949"><ele>260.5</ele><time>2026-04-25T08:40:05.889Z</time></trkpt><trkpt lat="42.3918802" lon="11.1359954"><ele>257.0</ele><time>2026-04-25T08:40:08.887Z</time></trkpt><trkpt lat="42.3918081" lon="11.1360134"><ele>253.5</ele><time>2026-04-25T08:40:12.889Z</time></trkpt><trkpt lat="42.3917243" lon="11.136044"><ele>250.0</ele><time>2026-04-25T08:40:16.889Z</time></trkpt><trkpt lat="42.3916571" lon="11.1360568"><ele>246.5</ele><time>2026-04-25T08:40:18.875Z</time></trkpt><trkpt lat="42.3915866" lon="11.1360644"><ele>243.0</ele><time>2026-04-25T08:40:21.888Z</time></trkpt><trkpt lat="42.391502" lon="11.136077"><ele>243.0</ele><time>2026-04-25T08:40:24.803Z</time></trkpt><trkpt lat="42.3914157" lon="11.1360823"><ele>243.0</ele><time>2026-04-25T08:40:27.899Z</time></trkpt><trkpt lat="42.391354" lon="11.1361019"><ele>243.0</ele><time>2026-04-25T08:40:30.878Z</time></trkpt><trkpt lat="42.3912698" lon="11.1361181"><ele>243.0</ele><time>2026-04-25T08:40:33.891Z</time></trkpt><trkpt lat="42.3911967" lon="11.1361341"><ele>243.0</ele><time>2026-04-25T08:40:35.884Z</time></trkpt><trkpt lat="42.3911261" lon="11.1361295"><ele>243.0</ele><time>2026-04-25T08:40:37.891Z</time></trkpt><trkpt lat="42.3910297" lon="11.1361743"><ele>241.14285714285714</ele><time>2026-04-25T08:40:40.887Z</time></trkpt><trkpt lat="42.3909485" lon="11.1361994"><ele>239.28571428571428</ele><time>2026-04-25T08:40:43.857Z</time></trkpt><trkpt lat="42.3908915" lon="11.1362493"><ele>237.42857142857142</ele><time>2026-04-25T08:40:46.887Z</time></trkpt><trkpt lat="42.3908213" lon="11.1362527"><ele>235.57142857142856</ele><time>2026-04-25T08:40:49.892Z</time></trkpt><trkpt lat="42.3907535" lon="11.1363032"><ele>233.71428571428572</ele><time>2026-04-25T08:40:54.878Z</time></trkpt><trkpt lat="42.3906959" lon="11.1363533"><ele>231.85714285714283</ele><time>2026-04-25T08:40:57.885Z</time></trkpt><trkpt lat="42.3906509" lon="11.1364382"><ele>229.99999999999997</ele><time>2026-04-25T08:41:00.882Z</time></trkpt><trkpt lat="42.3905873" lon="11.1365323"><ele>229.16666666666669</ele><time>2026-04-25T08:41:03.888Z</time></trkpt><trkpt lat="42.3905286" lon="11.1366012"><ele>228.33333333333334</ele><time>2026-04-25T08:41:05.889Z</time></trkpt><trkpt lat="42.3904777" lon="11.1366732"><ele>227.5</ele><time>2026-04-25T08:41:07.889Z</time></trkpt><trkpt lat="42.3904191" lon="11.1367516"><ele>226.66666666666669</ele><time>2026-04-25T08:41:10.885Z</time></trkpt><trkpt lat="42.3903485" lon="11.1368236"><ele>225.83333333333334</ele><time>2026-04-25T08:41:13.882Z</time></trkpt><trkpt lat="42.3902688" lon="11.1368566"><ele>225.0</ele><time>2026-04-25T08:41:16.888Z</time></trkpt><trkpt lat="42.3901945" lon="11.1368923"><ele>220.66666666666666</ele><time>2026-04-25T08:41:19.887Z</time></trkpt><trkpt lat="42.3901885" lon="11.1369863"><ele>216.33333333333331</ele><time>2026-04-25T08:41:22.888Z</time></trkpt><trkpt lat="42.3902104" lon="11.1370844"><ele>212.0</ele><time>2026-04-25T08:41:25.884Z</time></trkpt><trkpt lat="42.3901414" lon="11.1371216"><ele>207.66666666666666</ele><time>2026-04-25T08:42:37.893Z</time></trkpt><trkpt lat="42.3900819" lon="11.1371789"><ele>203.33333333333331</ele><time>2026-04-25T08:42:41.89Z</time></trkpt><trkpt lat="42.3900149" lon="11.1371676"><ele>199.0</ele><time>2026-04-25T08:42:44.891Z</time></trkpt><trkpt lat="42.389951" lon="11.1370679"><ele>198.99999999999997</ele><time>2026-04-25T08:42:46.89Z</time></trkpt><trkpt lat="42.3898868" lon="11.137074"><ele>199.0</ele><time>2026-04-25T08:42:48.889Z</time></trkpt><trkpt lat="42.3898248" lon="11.1371125"><ele>199.0</ele><time>2026-04-25T08:42:51.8Z</time></trkpt><trkpt lat="42.3897412" lon="11.1371436"><ele>199.0</ele><time>2026-04-25T08:42:55.896Z</time></trkpt><trkpt lat="42.3897029" lon="11.1372235"><ele>199.0</ele><time>2026-04-25T08:42:59.89Z</time></trkpt><trkpt lat="42.3896223" lon="11.1372609"><ele>198.99999999999997</ele><time>2026-04-25T08:43:03.84Z</time></trkpt><trkpt lat="42.3895519" lon="11.137259"><ele>199.0</ele><time>2026-04-25T08:43:06.89Z</time></trkpt><trkpt lat="42.3894866" lon="11.1373282"><ele>195.42857142857142</ele><time>2026-04-25T08:43:09.881Z</time></trkpt><trkpt lat="42.389419" lon="11.1373664"><ele>191.85714285714286</ele><time>2026-04-25T08:43:14.886Z</time></trkpt><trkpt lat="42.3893806" lon="11.1374351"><ele>188.28571428571428</ele><time>2026-04-25T08:43:17.885Z</time></trkpt><trkpt lat="42.3893182" lon="11.1374978"><ele>184.71428571428572</ele><time>2026-04-25T08:46:51.744Z</time></trkpt><trkpt lat="42.3892554" lon="11.1375398"><ele>181.14285714285714</ele><time>2026-04-25T08:46:53.888Z</time></trkpt><trkpt lat="42.3891909" lon="11.137596"><ele>177.57142857142856</ele><time>2026-04-25T08:46:55.901Z</time></trkpt><trkpt lat="42.3891384" lon="11.1376786"><ele>174.0</ele><time>2026-04-25T08:46:58.884Z</time></trkpt><trkpt lat="42.389125" lon="11.1377777"><ele>174.0</ele><time>2026-04-25T08:47:02.736Z</time></trkpt><trkpt lat="42.3890998" lon="11.1378865"><ele>174.0</ele><time>2026-04-25T08:47:06.88Z</time></trkpt><trkpt lat="42.3890722" lon="11.1379633"><ele>174.0</ele><time>2026-04-25T08:47:10.888Z</time></trkpt><trkpt lat="42.3890415" lon="11.1380501"><ele>174.0</ele><time>2026-04-25T08:47:14.887Z</time></trkpt><trkpt lat="42.3890211" lon="11.1381462"><ele>174.0</ele><time>2026-04-25T08:47:18.884Z</time></trkpt><trkpt lat="42.3889859" lon="11.1382235"><ele>174.0</ele><time>2026-04-25T08:47:21.891Z</time></trkpt><trkpt lat="42.3889412" lon="11.1382847"><ele>174.0</ele><time>2026-04-25T08:47:24.889Z</time></trkpt><trkpt lat="42.388887" lon="11.1383476"><ele>169.66666666666666</ele><time>2026-04-25T08:47:27.884Z</time></trkpt><trkpt lat="42.3888355" lon="11.1384271"><ele>165.33333333333334</ele><time>2026-04-25T08:47:30.889Z</time></trkpt><trkpt lat="42.3887675" lon="11.1384732"><ele>161.0</ele><time>2026-04-25T08:47:33.884Z</time></trkpt><trkpt lat="42.3886798" lon="11.138516"><ele>156.66666666666669</ele><time>2026-04-25T08:47:36.883Z</time></trkpt><trkpt lat="42.3886008" lon="11.1385395"><ele>152.33333333333334</ele><time>2026-04-25T08:47:40.88Z</time></trkpt><trkpt lat="42.3885316" lon="11.1385714"><ele>148.0</ele><time>2026-04-25T08:47:43.891Z</time></trkpt><trkpt lat="42.3884606" lon="11.1385464"><ele>148.0</ele><time>2026-04-25T08:47:46.887Z</time></trkpt><trkpt lat="42.3883897" lon="11.1385737"><ele>148.0</ele><time>2026-04-25T08:47:49.882Z</time></trkpt><trkpt lat="42.3883224" lon="11.1385792"><ele>148.0</ele><time>2026-04-25T08:47:52.89Z</time></trkpt><trkpt lat="42.388259" lon="11.1386186"><ele>148.0</ele><time>2026-04-25T08:47:56.885Z</time></trkpt><trkpt lat="42.3881858" lon="11.1386351"><ele>148.0</ele><time>2026-04-25T08:48:00.881Z</time></trkpt><trkpt lat="42.3881348" lon="11.13856"><ele>148.0</ele><time>2026-04-25T08:48:05.885Z</time></trkpt><trkpt lat="42.3880579" lon="11.1385121"><ele>148.0</ele><time>2026-04-25T08:48:08.883Z</time></trkpt><trkpt lat="42.3879704" lon="11.138504"><ele>144.66666666666669</ele><time>2026-04-25T08:48:11.883Z</time></trkpt><trkpt lat="42.3878863" lon="11.1385311"><ele>141.33333333333334</ele><time>2026-04-25T08:48:14.893Z</time></trkpt><trkpt lat="42.3878218" lon="11.138567"><ele>138.0</ele><time>2026-04-25T08:48:16.886Z</time></trkpt><trkpt lat="42.3877571" lon="11.138573"><ele>134.66666666666666</ele><time>2026-04-25T08:48:58.884Z</time></trkpt><trkpt lat="42.3876756" lon="11.1385732"><ele>131.33333333333331</ele><time>2026-04-25T08:49:00.882Z</time></trkpt><trkpt lat="42.3875721" lon="11.1386089"><ele>128.0</ele><time>2026-04-25T08:49:02.881Z</time></trkpt><trkpt lat="42.3874604" lon="11.1386316"><ele>127.99999999999999</ele><time>2026-04-25T08:49:04.889Z</time></trkpt><trkpt lat="42.3873834" lon="11.1386616"><ele>128.0</ele><time>2026-04-25T08:49:05.882Z</time></trkpt><trkpt lat="42.3872993" lon="11.1387043"><ele>128.0</ele><time>2026-04-25T08:49:06.892Z</time></trkpt><trkpt lat="42.3872241" lon="11.138743"><ele>128.0</ele><time>2026-04-25T08:49:07.891Z</time></trkpt><trkpt lat="42.3871529" lon="11.1387938"><ele>127.99999999999999</ele><time>2026-04-25T08:49:08.879Z</time></trkpt><trkpt lat="42.3870717" lon="11.1388254"><ele>128.0</ele><time>2026-04-25T08:49:09.885Z</time></trkpt><trkpt lat="42.3869735" lon="11.1388514"><ele>125.49999999999999</ele><time>2026-04-25T08:49:10.885Z</time></trkpt><trkpt lat="42.3868689" lon="11.1388597"><ele>123.0</ele><time>2026-04-25T08:49:11.888Z</time></trkpt><trkpt lat="42.3867668" lon="11.1388712"><ele>120.5</ele><time>2026-04-25T08:49:12.887Z</time></trkpt><trkpt lat="42.3866865" lon="11.138884"><ele>118.0</ele><time>2026-04-25T08:49:13.891Z</time></trkpt><trkpt lat="42.3866057" lon="11.1389004"><ele>115.49999999999999</ele><time>2026-04-25T08:49:14.89Z</time></trkpt><trkpt lat="42.3865305" lon="11.1389114"><ele>113.0</ele><time>2026-04-25T08:49:15.892Z</time></trkpt><trkpt lat="42.3864461" lon="11.1389387"><ele>113.0</ele><time>2026-04-25T08:49:16.888Z</time></trkpt><trkpt lat="42.3863476" lon="11.1389771"><ele>113.0</ele><time>2026-04-25T08:49:17.894Z</time></trkpt><trkpt lat="42.3862518" lon="11.1390161"><ele>113.0</ele><time>2026-04-25T08:49:18.888Z</time></trkpt><trkpt lat="42.3861306" lon="11.139028"><ele>113.0</ele><time>2026-04-25T08:49:19.889Z</time></trkpt><trkpt lat="42.3859999" lon="11.1390368"><ele>111.60000000000001</ele><time>2026-04-25T08:49:20.893Z</time></trkpt><trkpt lat="42.3858883" lon="11.1390422"><ele>110.20000000000002</ele><time>2026-04-25T08:49:21.885Z</time></trkpt><trkpt lat="42.3857895" lon="11.1390343"><ele>108.8</ele><time>2026-04-25T08:49:22.885Z</time></trkpt><trkpt lat="42.3856872" lon="11.1390107"><ele>107.4</ele><time>2026-04-25T08:49:23.885Z</time></trkpt><trkpt lat="42.3855938" lon="11.1389857"><ele>106.0</ele><time>2026-04-25T08:49:24.887Z</time></trkpt><trkpt lat="42.3855127" lon="11.1389653"><ele>105.19999999999999</ele><time>2026-04-25T08:49:25.893Z</time></trkpt><trkpt lat="42.385439" lon="11.1389478"><ele>104.39999999999999</ele><time>2026-04-25T08:49:26.891Z</time></trkpt><trkpt lat="42.3853257" lon="11.1389332"><ele>103.6</ele><time>2026-04-25T08:49:28.884Z</time></trkpt><trkpt lat="42.3852081" lon="11.1389475"><ele>102.8</ele><time>2026-04-25T08:49:30.891Z</time></trkpt><trkpt lat="42.3851241" lon="11.1389874"><ele>102.0</ele><time>2026-04-25T08:49:31.889Z</time></trkpt><trkpt lat="42.3850283" lon="11.1390385"><ele>104.75</ele><time>2026-04-25T08:49:32.885Z</time></trkpt><trkpt lat="42.3849249" lon="11.1390892"><ele>107.5</ele><time>2026-04-25T08:49:33.891Z</time></trkpt><trkpt lat="42.3848165" lon="11.1391384"><ele>110.25</ele><time>2026-04-25T08:49:34.885Z</time></trkpt><trkpt lat="42.3847057" lon="11.1391986"><ele>113.0</ele><time>2026-04-25T08:49:35.89Z</time></trkpt><trkpt lat="42.3845978" lon="11.1392498"><ele>113.0</ele><time>2026-04-25T08:49:36.884Z</time></trkpt><trkpt lat="42.3844899" lon="11.1393008"><ele>113.00000000000001</ele><time>2026-04-25T08:49:37.891Z</time></trkpt><trkpt lat="42.3843845" lon="11.1393471"><ele>113.00000000000001</ele><time>2026-04-25T08:49:38.885Z</time></trkpt><trkpt lat="42.3842892" lon="11.1393747"><ele>113.0</ele><time>2026-04-25T08:49:39.886Z</time></trkpt><trkpt lat="42.384188" lon="11.1393885"><ele>113.0</ele><time>2026-04-25T08:49:40.883Z</time></trkpt><trkpt lat="42.384076" lon="11.1393894"><ele>113.0</ele><time>2026-04-25T08:49:41.89Z</time></trkpt><trkpt lat="42.3839667" lon="11.1393954"><ele>113.0</ele><time>2026-04-25T08:49:42.884Z</time></trkpt><trkpt lat="42.3838561" lon="11.1393941"><ele>113.0</ele><time>2026-04-25T08:49:43.887Z</time></trkpt><trkpt lat="42.3837376" lon="11.1393911"><ele>113.0</ele><time>2026-04-25T08:49:44.885Z</time></trkpt><trkpt lat="42.3836228" lon="11.1393981"><ele>110.80000000000001</ele><time>2026-04-25T08:49:45.878Z</time></trkpt><trkpt lat="42.383501" lon="11.1394108"><ele>108.60000000000001</ele><time>2026-04-25T08:49:46.88Z</time></trkpt><trkpt lat="42.3833889" lon="11.1394226"><ele>106.4</ele><time>2026-04-25T08:49:47.889Z</time></trkpt><trkpt lat="42.3832897" lon="11.1394292"><ele>104.19999999999999</ele><time>2026-04-25T08:49:48.881Z</time></trkpt><trkpt lat="42.3831968" lon="11.1394178"><ele>102.0</ele><time>2026-04-25T08:49:49.883Z</time></trkpt><trkpt lat="42.3831" lon="11.1394002"><ele>100.0</ele><time>2026-04-25T08:49:50.881Z</time></trkpt><trkpt lat="42.3829917" lon="11.1393988"><ele>98.0</ele><time>2026-04-25T08:49:51.881Z</time></trkpt><trkpt lat="42.3828934" lon="11.1393884"><ele>96.0</ele><time>2026-04-25T08:49:52.884Z</time></trkpt><trkpt lat="42.3827969" lon="11.1393674"><ele>94.0</ele><time>2026-04-25T08:49:53.892Z</time></trkpt><trkpt lat="42.382697" lon="11.1393416"><ele>92.0</ele><time>2026-04-25T08:49:54.881Z</time></trkpt><trkpt lat="42.3826148" lon="11.1393182"><ele>92.0</ele><time>2026-04-25T08:49:55.883Z</time></trkpt><trkpt lat="42.3825365" lon="11.1393072"><ele>92.0</ele><time>2026-04-25T08:49:56.888Z</time></trkpt><trkpt lat="42.3824515" lon="11.1393068"><ele>92.0</ele><time>2026-04-25T08:49:57.878Z</time></trkpt><trkpt lat="42.382367" lon="11.1393372"><ele>92.0</ele><time>2026-04-25T08:49:58.885Z</time></trkpt><trkpt lat="42.3822896" lon="11.1393735"><ele>92.0</ele><time>2026-04-25T08:49:59.878Z</time></trkpt><trkpt lat="42.3822263" lon="11.139375"><ele>92.0</ele><time>2026-04-25T08:50:00.883Z</time></trkpt><trkpt lat="42.3821413" lon="11.1393523"><ele>89.39999999999999</ele><time>2026-04-25T08:50:01.884Z</time></trkpt><trkpt lat="42.3820378" lon="11.13931"><ele>86.8</ele><time>2026-04-25T08:50:02.884Z</time></trkpt><trkpt lat="42.3819218" lon="11.1392702"><ele>84.2</ele><time>2026-04-25T08:50:03.884Z</time></trkpt><trkpt lat="42.381828" lon="11.1392281"><ele>81.6</ele><time>2026-04-25T08:50:04.883Z</time></trkpt><trkpt lat="42.3817528" lon="11.1391964"><ele>79.0</ele><time>2026-04-25T08:50:05.886Z</time></trkpt><trkpt lat="42.3816894" lon="11.1391791"><ele>79.0</ele><time>2026-04-25T08:50:06.882Z</time></trkpt><trkpt lat="42.3816154" lon="11.1391899"><ele>79.0</ele><time>2026-04-25T08:50:07.892Z</time></trkpt><trkpt lat="42.3815151" lon="11.139234"><ele>79.0</ele><time>2026-04-25T08:50:08.889Z</time></trkpt><trkpt lat="42.38141" lon="11.1392885"><ele>79.0</ele><time>2026-04-25T08:50:09.891Z</time></trkpt><trkpt lat="42.3813254" lon="11.1393417"><ele>79.0</ele><time>2026-04-25T08:50:10.889Z</time></trkpt><trkpt lat="42.381268" lon="11.1394001"><ele>77.33333333333333</ele><time>2026-04-25T08:50:11.892Z</time></trkpt><trkpt lat="42.3812233" lon="11.1394631"><ele>75.66666666666666</ele><time>2026-04-25T08:50:12.899Z</time></trkpt><trkpt lat="42.3811878" lon="11.1395497"><ele>74.0</ele><time>2026-04-25T08:50:13.888Z</time></trkpt><trkpt lat="42.3811603" lon="11.139672"><ele>72.33333333333333</ele><time>2026-04-25T08:50:14.893Z</time></trkpt><trkpt lat="42.3811247" lon="11.139789"><ele>70.66666666666667</ele><time>2026-04-25T08:50:15.885Z</time></trkpt><trkpt lat="42.3810903" lon="11.1399181"><ele>69.0</ele><time>2026-04-25T08:50:16.884Z</time></trkpt><trkpt lat="42.3810424" lon="11.1400544"><ele>68.33333333333333</ele><time>2026-04-25T08:50:17.883Z</time></trkpt><trkpt lat="42.3809801" lon="11.1401836"><ele>67.66666666666667</ele><time>2026-04-25T08:50:18.886Z</time></trkpt><trkpt lat="42.3809216" lon="11.1402849"><ele>67.0</ele><time>2026-04-25T08:50:19.882Z</time></trkpt><trkpt lat="42.38086" lon="11.1403747"><ele>66.33333333333334</ele><time>2026-04-25T08:50:20.883Z</time></trkpt><trkpt lat="42.3807965" lon="11.1404388"><ele>65.66666666666667</ele><time>2026-04-25T08:50:21.887Z</time></trkpt><trkpt lat="42.3807418" lon="11.1404997"><ele>65.0</ele><time>2026-04-25T08:50:22.89Z</time></trkpt><trkpt lat="42.3806688" lon="11.1405921"><ele>65.0</ele><time>2026-04-25T08:50:24.891Z</time></trkpt><trkpt lat="42.3807022" lon="11.140667"><ele>65.0</ele><time>2026-04-25T08:50:26.89Z</time></trkpt><trkpt lat="42.3808086" lon="11.1406924"><ele>65.0</ele><time>2026-04-25T08:50:28.893Z</time></trkpt><trkpt lat="42.3809002" lon="11.1407304"><ele>65.0</ele><time>2026-04-25T08:50:30.898Z</time></trkpt><trkpt lat="42.3809198" lon="11.1408426"><ele>65.0</ele><time>2026-04-25T08:50:33.89Z</time></trkpt><trkpt lat="42.3809875" lon="11.1409182"><ele>65.0</ele><time>2026-04-25T08:50:35.888Z</time></trkpt><trkpt lat="42.3810646" lon="11.140977"><ele>63.4</ele><time>2026-04-25T08:50:36.891Z</time></trkpt><trkpt lat="42.3811571" lon="11.141044"><ele>61.8</ele><time>2026-04-25T08:50:37.891Z</time></trkpt><trkpt lat="42.3812587" lon="11.1410993"><ele>60.2</ele><time>2026-04-25T08:50:38.885Z</time></trkpt><trkpt lat="42.3813569" lon="11.1411329"><ele>58.6</ele><time>2026-04-25T08:50:39.888Z</time></trkpt><trkpt lat="42.3814608" lon="11.1411526"><ele>57.0</ele><time>2026-04-25T08:50:40.881Z</time></trkpt><trkpt lat="42.3815624" lon="11.1411696"><ele>57.0</ele><time>2026-04-25T08:50:41.891Z</time></trkpt><trkpt lat="42.3816551" lon="11.1411879"><ele>57.0</ele><time>2026-04-25T08:50:42.889Z</time></trkpt><trkpt lat="42.3817506" lon="11.1412059"><ele>57.0</ele><time>2026-04-25T08:50:43.887Z</time></trkpt><trkpt lat="42.3818524" lon="11.1412328"><ele>57.0</ele><time>2026-04-25T08:50:44.896Z</time></trkpt><trkpt lat="42.3819586" lon="11.141302"><ele>57.0</ele><time>2026-04-25T08:50:45.891Z</time></trkpt><trkpt lat="42.3820568" lon="11.1414203"><ele>58.0</ele><time>2026-04-25T08:50:46.889Z</time></trkpt><trkpt lat="42.3821716" lon="11.1415502"><ele>59.0</ele><time>2026-04-25T08:50:47.884Z</time></trkpt><trkpt lat="42.3822718" lon="11.1416869"><ele>60.0</ele><time>2026-04-25T08:50:48.883Z</time></trkpt><trkpt lat="42.382374" lon="11.1418195"><ele>61.0</ele><time>2026-04-25T08:50:49.886Z</time></trkpt><trkpt lat="42.3824544" lon="11.1419475"><ele>61.0</ele><time>2026-04-25T08:50:50.887Z</time></trkpt><trkpt lat="42.3825205" lon="11.1420642"><ele>60.99999999999999</ele><time>2026-04-25T08:50:51.887Z</time></trkpt><trkpt lat="42.3825852" lon="11.1421713"><ele>60.99999999999999</ele><time>2026-04-25T08:50:52.881Z</time></trkpt><trkpt lat="42.3826667" lon="11.1422548"><ele>61.0</ele><time>2026-04-25T08:50:53.886Z</time></trkpt><trkpt lat="42.3827622" lon="11.1423118"><ele>61.0</ele><time>2026-04-25T08:50:54.89Z</time></trkpt><trkpt lat="42.3828643" lon="11.1423331"><ele>61.0</ele><time>2026-04-25T08:50:55.882Z</time></trkpt><trkpt lat="42.3829627" lon="11.1423442"><ele>61.0</ele><time>2026-04-25T08:50:56.881Z</time></trkpt><trkpt lat="42.3830799" lon="11.1423262"><ele>61.0</ele><time>2026-04-25T08:50:57.885Z</time></trkpt><trkpt lat="42.3832088" lon="11.1422634"><ele>61.0</ele><time>2026-04-25T08:50:58.891Z</time></trkpt><trkpt lat="42.3833358" lon="11.1421964"><ele>61.75</ele><time>2026-04-25T08:50:59.88Z</time></trkpt><trkpt lat="42.3834646" lon="11.1421274"><ele>62.5</ele><time>2026-04-25T08:51:00.889Z</time></trkpt><trkpt lat="42.3835909" lon="11.1420535"><ele>63.25</ele><time>2026-04-25T08:51:01.879Z</time></trkpt><trkpt lat="42.3837331" lon="11.1419836"><ele>64.0</ele><time>2026-04-25T08:51:02.884Z</time></trkpt><trkpt lat="42.3838737" lon="11.141949"><ele>64.0</ele><time>2026-04-25T08:51:03.883Z</time></trkpt><trkpt lat="42.3840126" lon="11.1419325"><ele>64.0</ele><time>2026-04-25T08:51:04.883Z</time></trkpt><trkpt lat="42.3841385" lon="11.1419395"><ele>64.0</ele><time>2026-04-25T08:51:05.883Z</time></trkpt><trkpt lat="42.3842678" lon="11.1419104"><ele>64.0</ele><time>2026-04-25T08:51:06.884Z</time></trkpt><trkpt lat="42.3844071" lon="11.1418518"><ele>64.0</ele><time>2026-04-25T08:51:07.888Z</time></trkpt><trkpt lat="42.3845629" lon="11.1417906"><ele>64.0</ele><time>2026-04-25T08:51:08.887Z</time></trkpt><trkpt lat="42.384703" lon="11.1417373"><ele>64.0</ele><time>2026-04-25T08:51:09.891Z</time></trkpt><trkpt lat="42.3848293" lon="11.1417191"><ele>64.0</ele><time>2026-04-25T08:51:10.891Z</time></trkpt><trkpt lat="42.384951" lon="11.1417092"><ele>63.75</ele><time>2026-04-25T08:51:11.891Z</time></trkpt><trkpt lat="42.3850757" lon="11.1417239"><ele>63.5</ele><time>2026-04-25T08:51:12.884Z</time></trkpt><trkpt lat="42.3852106" lon="11.1417651"><ele>63.25</ele><time>2026-04-25T08:51:13.895Z</time></trkpt><trkpt lat="42.3853557" lon="11.1418263"><ele>63.0</ele><time>2026-04-25T08:51:14.892Z</time></trkpt><trkpt lat="42.3855002" lon="11.1418993"><ele>65.8</ele><time>2026-04-25T08:51:15.887Z</time></trkpt><trkpt lat="42.3856189" lon="11.1419586"><ele>68.6</ele><time>2026-04-25T08:51:16.879Z</time></trkpt><trkpt lat="42.3857093" lon="11.1420125"><ele>71.4</ele><time>2026-04-25T08:51:17.883Z</time></trkpt><trkpt lat="42.3857809" lon="11.1420632"><ele>74.2</ele><time>2026-04-25T08:51:18.88Z</time></trkpt><trkpt lat="42.3858385" lon="11.1421338"><ele>77.0</ele><time>2026-04-25T08:51:19.889Z</time></trkpt><trkpt lat="42.3858782" lon="11.1422221"><ele>77.0</ele><time>2026-04-25T08:51:20.88Z</time></trkpt><trkpt lat="42.3858932" lon="11.1423302"><ele>77.0</ele><time>2026-04-25T08:51:21.886Z</time></trkpt><trkpt lat="42.3858862" lon="11.1424726"><ele>77.0</ele><time>2026-04-25T08:51:22.888Z</time></trkpt><trkpt lat="42.3858704" lon="11.1426445"><ele>77.0</ele><time>2026-04-25T08:51:23.89Z</time></trkpt><trkpt lat="42.3858587" lon="11.1428151"><ele>77.0</ele><time>2026-04-25T08:51:24.886Z</time></trkpt><trkpt lat="42.3858555" lon="11.1429749"><ele>75.75</ele><time>2026-04-25T08:51:25.888Z</time></trkpt><trkpt lat="42.3858762" lon="11.1431182"><ele>74.5</ele><time>2026-04-25T08:51:26.882Z</time></trkpt><trkpt lat="42.3859141" lon="11.1432806"><ele>73.25</ele><time>2026-04-25T08:51:27.893Z</time></trkpt><trkpt lat="42.385968" lon="11.1434436"><ele>72.0</ele><time>2026-04-25T08:51:28.889Z</time></trkpt><trkpt lat="42.3860386" lon="11.1436212"><ele>72.0</ele><time>2026-04-25T08:51:29.886Z</time></trkpt><trkpt lat="42.3861208" lon="11.1438201"><ele>72.0</ele><time>2026-04-25T08:51:30.884Z</time></trkpt><trkpt lat="42.3862051" lon="11.1440046"><ele>72.0</ele><time>2026-04-25T08:51:31.881Z</time></trkpt><trkpt lat="42.3862871" lon="11.1441721"><ele>73.4</ele><time>2026-04-25T08:51:32.888Z</time></trkpt><trkpt lat="42.3863513" lon="11.1443261"><ele>74.80000000000001</ele><time>2026-04-25T08:51:33.888Z</time></trkpt><trkpt lat="42.3864004" lon="11.1444454"><ele>76.2</ele><time>2026-04-25T08:51:34.883Z</time></trkpt><trkpt lat="42.3864262" lon="11.1445609"><ele>77.60000000000001</ele><time>2026-04-25T08:51:35.894Z</time></trkpt><trkpt lat="42.3864219" lon="11.1446868"><ele>79.0</ele><time>2026-04-25T08:51:36.886Z</time></trkpt><trkpt lat="42.3863906" lon="11.1448199"><ele>80.0</ele><time>2026-04-25T08:51:37.883Z</time></trkpt><trkpt lat="42.3863573" lon="11.1449522"><ele>81.0</ele><time>2026-04-25T08:51:38.881Z</time></trkpt><trkpt lat="42.3863323" lon="11.1450499"><ele>82.0</ele><time>2026-04-25T08:51:39.888Z</time></trkpt><trkpt lat="42.3863173" lon="11.14518"><ele>83.0</ele><time>2026-04-25T08:51:41.884Z</time></trkpt><trkpt lat="42.386362" lon="11.1452552"><ele>84.0</ele><time>2026-04-25T08:51:43.886Z</time></trkpt><trkpt lat="42.3864187" lon="11.1453217"><ele>85.0</ele><time>2026-04-25T08:51:44.883Z</time></trkpt><trkpt lat="42.3864853" lon="11.1454006"><ele>85.0</ele><time>2026-04-25T08:51:45.879Z</time></trkpt><trkpt lat="42.3865552" lon="11.1454914"><ele>85.0</ele><time>2026-04-25T08:51:46.884Z</time></trkpt><trkpt lat="42.3866279" lon="11.1455857"><ele>85.0</ele><time>2026-04-25T08:51:47.889Z</time></trkpt><trkpt lat="42.3866847" lon="11.1456766"><ele>85.0</ele><time>2026-04-25T08:51:48.887Z</time></trkpt><trkpt lat="42.3867321" lon="11.1457591"><ele>85.0</ele><time>2026-04-25T08:51:49.891Z</time></trkpt><trkpt lat="42.3867695" lon="11.1458806"><ele>87.8</ele><time>2026-04-25T08:51:50.885Z</time></trkpt><trkpt lat="42.3868185" lon="11.1460083"><ele>90.6</ele><time>2026-04-25T08:51:51.888Z</time></trkpt><trkpt lat="42.3868526" lon="11.146097"><ele>93.4</ele><time>2026-04-25T08:51:52.894Z</time></trkpt><trkpt lat="42.3868783" lon="11.1462754"><ele>96.2</ele><time>2026-04-25T08:51:54.886Z</time></trkpt><trkpt lat="42.3868839" lon="11.1464066"><ele>99.0</ele><time>2026-04-25T08:51:55.883Z</time></trkpt><trkpt lat="42.3868809" lon="11.1465215"><ele>103.25</ele><time>2026-04-25T08:51:56.891Z</time></trkpt><trkpt lat="42.386883" lon="11.1466246"><ele>107.5</ele><time>2026-04-25T08:51:57.888Z</time></trkpt><trkpt lat="42.3869068" lon="11.1467782"><ele>111.75</ele><time>2026-04-25T08:51:58.886Z</time></trkpt><trkpt lat="42.3869376" lon="11.1469596"><ele>116.0</ele><time>2026-04-25T08:51:59.883Z</time></trkpt><trkpt lat="42.3869792" lon="11.1471184"><ele>116.0</ele><time>2026-04-25T08:52:00.887Z</time></trkpt><trkpt lat="42.3870225" lon="11.1472511"><ele>116.0</ele><time>2026-04-25T08:52:01.881Z</time></trkpt><trkpt lat="42.3870652" lon="11.1473786"><ele>116.0</ele><time>2026-04-25T08:52:02.885Z</time></trkpt><trkpt lat="42.3871053" lon="11.1474861"><ele>116.0</ele><time>2026-04-25T08:52:03.888Z</time></trkpt><trkpt lat="42.3871311" lon="11.1475764"><ele>116.0</ele><time>2026-04-25T08:52:04.889Z</time></trkpt><trkpt lat="42.3871486" lon="11.1476816"><ele>115.5</ele><time>2026-04-25T08:52:05.888Z</time></trkpt><trkpt lat="42.3871679" lon="11.147809"><ele>115.0</ele><time>2026-04-25T08:52:06.887Z</time></trkpt><trkpt lat="42.3871783" lon="11.1479834"><ele>114.5</ele><time>2026-04-25T08:52:07.883Z</time></trkpt><trkpt lat="42.3871779" lon="11.148161"><ele>114.0</ele><time>2026-04-25T08:52:08.888Z</time></trkpt><trkpt lat="42.3871837" lon="11.1483139"><ele>114.0</ele><time>2026-04-25T08:52:09.892Z</time></trkpt><trkpt lat="42.3872001" lon="11.1484476"><ele>114.0</ele><time>2026-04-25T08:52:10.887Z</time></trkpt><trkpt lat="42.3872205" lon="11.1485501"><ele>114.0</ele><time>2026-04-25T08:52:11.884Z</time></trkpt><trkpt lat="42.3872601" lon="11.148694"><ele>114.0</ele><time>2026-04-25T08:52:13.895Z</time></trkpt><trkpt lat="42.387309" lon="11.1487969"><ele>114.0</ele><time>2026-04-25T08:52:15.891Z</time></trkpt><trkpt lat="42.3873525" lon="11.1488749"><ele>114.0</ele><time>2026-04-25T08:52:17.903Z</time></trkpt><trkpt lat="42.3873013" lon="11.1487893"><ele>114.0</ele><time>2026-04-25T08:52:38.881Z</time></trkpt><trkpt lat="42.3872679" lon="11.1487092"><ele>114.0</ele><time>2026-04-25T08:52:40.888Z</time></trkpt><trkpt lat="42.3872362" lon="11.1485386"><ele>114.0</ele><time>2026-04-25T08:52:42.889Z</time></trkpt><trkpt lat="42.3872284" lon="11.1484301"><ele>114.0</ele><time>2026-04-25T08:52:43.88Z</time></trkpt><trkpt lat="42.3872134" lon="11.1483111"><ele>114.0</ele><time>2026-04-25T08:52:44.89Z</time></trkpt><trkpt lat="42.3872051" lon="11.1482015"><ele>114.83333333333333</ele><time>2026-04-25T08:52:45.881Z</time></trkpt><trkpt lat="42.3872112" lon="11.148097"><ele>115.66666666666666</ele><time>2026-04-25T08:52:46.881Z</time></trkpt><trkpt lat="42.38722" lon="11.1479924"><ele>116.5</ele><time>2026-04-25T08:52:47.89Z</time></trkpt><trkpt lat="42.3872166" lon="11.1478698"><ele>117.33333333333333</ele><time>2026-04-25T08:52:48.886Z</time></trkpt><trkpt lat="42.3871993" lon="11.1477286"><ele>118.16666666666666</ele><time>2026-04-25T08:52:49.893Z</time></trkpt><trkpt lat="42.3871778" lon="11.1476242"><ele>119.0</ele><time>2026-04-25T08:52:50.878Z</time></trkpt><trkpt lat="42.3871486" lon="11.1475415"><ele>120.2</ele><time>2026-04-25T08:52:52.89Z</time></trkpt><trkpt lat="42.3870633" lon="11.1475818"><ele>121.4</ele><time>2026-04-25T08:53:13.891Z</time></trkpt><trkpt lat="42.3869755" lon="11.147593"><ele>122.6</ele><time>2026-04-25T08:53:15.886Z</time></trkpt><trkpt lat="42.3868746" lon="11.1475949"><ele>123.8</ele><time>2026-04-25T08:53:17.888Z</time></trkpt><trkpt lat="42.3867765" lon="11.1475986"><ele>125.0</ele><time>2026-04-25T08:53:19.886Z</time></trkpt><trkpt lat="42.3866543" lon="11.147622"><ele>125.0</ele><time>2026-04-25T08:53:21.882Z</time></trkpt><trkpt lat="42.3865913" lon="11.1476428"><ele>125.0</ele><time>2026-04-25T08:53:22.884Z</time></trkpt><trkpt lat="42.3865264" lon="11.1476604"><ele>125.0</ele><time>2026-04-25T08:53:23.889Z</time></trkpt><trkpt lat="42.3864407" lon="11.1476673"><ele>125.0</ele><time>2026-04-25T08:53:25.889Z</time></trkpt><trkpt lat="42.3863687" lon="11.1477013"><ele>125.0</ele><time>2026-04-25T08:53:27.883Z</time></trkpt><trkpt lat="42.3863177" lon="11.1477648"><ele>125.0</ele><time>2026-04-25T08:53:29.886Z</time></trkpt><trkpt lat="42.3862767" lon="11.1478357"><ele>125.0</ele><time>2026-04-25T08:53:32.893Z</time></trkpt><trkpt lat="42.3862369" lon="11.1479211"><ele>130.0</ele><time>2026-04-25T08:53:34.886Z</time></trkpt><trkpt lat="42.3861947" lon="11.1480364"><ele>135.0</ele><time>2026-04-25T08:53:36.884Z</time></trkpt><trkpt lat="42.3861724" lon="11.1481424"><ele>140.0</ele><time>2026-04-25T08:53:38.887Z</time></trkpt><trkpt lat="42.386152" lon="11.1482566"><ele>145.0</ele><time>2026-04-25T08:53:40.882Z</time></trkpt><trkpt lat="42.3861353" lon="11.1483495"><ele>150.0</ele><time>2026-04-25T08:53:42.879Z</time></trkpt><trkpt lat="42.3861393" lon="11.1484412"><ele>155.0</ele><time>2026-04-25T08:53:44.888Z</time></trkpt><trkpt lat="42.3861658" lon="11.148577"><ele>156.8</ele><time>2026-04-25T08:53:46.885Z</time></trkpt><trkpt lat="42.3862007" lon="11.1487093"><ele>158.6</ele><time>2026-04-25T08:53:48.891Z</time></trkpt><trkpt lat="42.3861229" lon="11.1486837"><ele>160.39999999999998</ele><time>2026-04-25T08:53:52.903Z</time></trkpt><trkpt lat="42.386169" lon="11.1488007"><ele>162.2</ele><time>2026-04-25T08:53:54.886Z</time></trkpt><trkpt lat="42.3861105" lon="11.1486854"><ele>164.0</ele><time>2026-04-25T08:54:14.892Z</time></trkpt><trkpt lat="42.3860388" lon="11.1486145"><ele>164.0</ele><time>2026-04-25T08:54:15.887Z</time></trkpt><trkpt lat="42.3858972" lon="11.1483602"><ele>164.0</ele><time>2026-04-25T08:54:18.891Z</time></trkpt><trkpt lat="42.3858357" lon="11.1482674"><ele>164.0</ele><time>2026-04-25T08:54:19.879Z</time></trkpt><trkpt lat="42.3857822" lon="11.1482088"><ele>164.0</ele><time>2026-04-25T08:54:20.885Z</time></trkpt><trkpt lat="42.3857342" lon="11.1481469"><ele>162.2</ele><time>2026-04-25T08:54:21.891Z</time></trkpt><trkpt lat="42.3856645" lon="11.1480113"><ele>160.39999999999998</ele><time>2026-04-25T08:54:23.882Z</time></trkpt><trkpt lat="42.3856092" lon="11.1479101"><ele>158.6</ele><time>2026-04-25T08:54:25.878Z</time></trkpt><trkpt lat="42.3855614" lon="11.1478473"><ele>156.8</ele><time>2026-04-25T08:54:27.887Z</time></trkpt><trkpt lat="42.3854904" lon="11.1478204"><ele>155.0</ele><time>2026-04-25T08:54:29.89Z</time></trkpt><trkpt lat="42.3853918" lon="11.1478309"><ele>160.33333333333331</ele><time>2026-04-25T08:54:31.883Z</time></trkpt><trkpt lat="42.3853013" lon="11.1478411"><ele>165.66666666666666</ele><time>2026-04-25T08:54:33.884Z</time></trkpt><trkpt lat="42.385293" lon="11.1479439"><ele>171.0</ele><time>2026-04-25T08:54:36.888Z</time></trkpt><trkpt lat="42.3852934" lon="11.1480296"><ele>176.33333333333334</ele><time>2026-04-25T08:55:30.888Z</time></trkpt><trkpt lat="42.3852731" lon="11.1481258"><ele>181.66666666666669</ele><time>2026-04-25T08:55:32.883Z</time></trkpt><trkpt lat="42.3852765" lon="11.1482436"><ele>187.0</ele><time>2026-04-25T08:55:34.887Z</time></trkpt><trkpt lat="42.3852865" lon="11.1483864"><ele>188.0</ele><time>2026-04-25T08:55:36.879Z</time></trkpt><trkpt lat="42.3852966" lon="11.1485537"><ele>189.0</ele><time>2026-04-25T08:55:38.891Z</time></trkpt><trkpt lat="42.3852992" lon="11.1486451"><ele>190.0</ele><time>2026-04-25T08:55:39.88Z</time></trkpt><trkpt lat="42.3853092" lon="11.1487296"><ele>191.0</ele><time>2026-04-25T08:55:40.886Z</time></trkpt><trkpt lat="42.3853025" lon="11.1488884"><ele>192.0</ele><time>2026-04-25T08:55:42.898Z</time></trkpt><trkpt lat="42.3852725" lon="11.1490512"><ele>193.8</ele><time>2026-04-25T08:55:44.882Z</time></trkpt><trkpt lat="42.3852564" lon="11.1491344"><ele>195.6</ele><time>2026-04-25T08:55:45.885Z</time></trkpt><trkpt lat="42.3852368" lon="11.1492639"><ele>197.4</ele><time>2026-04-25T08:55:47.888Z</time></trkpt><trkpt lat="42.3852268" lon="11.1494117"><ele>199.20000000000002</ele><time>2026-04-25T08:55:49.885Z</time></trkpt><trkpt lat="42.3852115" lon="11.1495476"><ele>201.0</ele><time>2026-04-25T08:55:51.881Z</time></trkpt><trkpt lat="42.385198" lon="11.1496794"><ele>201.0</ele><time>2026-04-25T08:55:53.889Z</time></trkpt><trkpt lat="42.3851932" lon="11.1498387"><ele>201.0</ele><time>2026-04-25T08:55:55.884Z</time></trkpt><trkpt lat="42.3852238" lon="11.1499875"><ele>201.0</ele><time>2026-04-25T08:55:57.883Z</time></trkpt><trkpt lat="42.3852588" lon="11.1500631"><ele>201.0</ele><time>2026-04-25T08:55:58.881Z</time></trkpt><trkpt lat="42.3853212" lon="11.1501979"><ele>201.0</ele><time>2026-04-25T08:56:00.877Z</time></trkpt><trkpt lat="42.385359" lon="11.1503246"><ele>200.8</ele><time>2026-04-25T08:56:02.887Z</time></trkpt><trkpt lat="42.3853281" lon="11.1504426"><ele>200.60000000000002</ele><time>2026-04-25T08:56:05.879Z</time></trkpt><trkpt lat="42.3852502" lon="11.1505328"><ele>200.4</ele><time>2026-04-25T08:56:07.896Z</time></trkpt><trkpt lat="42.3851815" lon="11.1505987"><ele>200.2</ele><time>2026-04-25T08:56:09.889Z</time></trkpt><trkpt lat="42.3851009" lon="11.1506962"><ele>200.0</ele><time>2026-04-25T08:56:11.882Z</time></trkpt><trkpt lat="42.3850503" lon="11.1508254"><ele>200.0</ele><time>2026-04-25T08:56:13.895Z</time></trkpt><trkpt lat="42.3849706" lon="11.1509315"><ele>200.0</ele><time>2026-04-25T08:56:15.888Z</time></trkpt><trkpt lat="42.3848903" lon="11.151051"><ele>200.0</ele><time>2026-04-25T08:56:17.882Z</time></trkpt><trkpt lat="42.3848245" lon="11.1511357"><ele>200.0</ele><time>2026-04-25T08:56:19.883Z</time></trkpt><trkpt lat="42.3847377" lon="11.1512163"><ele>200.0</ele><time>2026-04-25T08:56:21.884Z</time></trkpt><trkpt lat="42.3846474" lon="11.151317"><ele>203.2</ele><time>2026-04-25T08:56:23.894Z</time></trkpt><trkpt lat="42.3845528" lon="11.1513867"><ele>206.4</ele><time>2026-04-25T08:56:25.902Z</time></trkpt><trkpt lat="42.3844422" lon="11.1514292"><ele>209.60000000000002</ele><time>2026-04-25T08:56:27.891Z</time></trkpt><trkpt lat="42.3843065" lon="11.1514387"><ele>212.8</ele><time>2026-04-25T08:56:29.885Z</time></trkpt><trkpt lat="42.3842393" lon="11.1514514"><ele>216.0</ele><time>2026-04-25T08:56:30.887Z</time></trkpt><trkpt lat="42.384133" lon="11.1515006"><ele>212.8</ele><time>2026-04-25T08:56:32.891Z</time></trkpt><trkpt lat="42.3840381" lon="11.1516172"><ele>209.60000000000002</ele><time>2026-04-25T08:56:34.893Z</time></trkpt><trkpt lat="42.3839799" lon="11.1517576"><ele>206.4</ele><time>2026-04-25T08:56:36.881Z</time></trkpt><trkpt lat="42.3839622" lon="11.1518503"><ele>203.2</ele><time>2026-04-25T08:56:37.886Z</time></trkpt><trkpt lat="42.3839399" lon="11.1519349"><ele>200.0</ele><time>2026-04-25T08:56:38.886Z</time></trkpt><trkpt lat="42.383871" lon="11.1520776"><ele>199.83333333333334</ele><time>2026-04-25T08:56:40.889Z</time></trkpt><trkpt lat="42.3838416" lon="11.1521549"><ele>199.66666666666669</ele><time>2026-04-25T08:56:41.887Z</time></trkpt><trkpt lat="42.3837998" lon="11.1522737"><ele>199.5</ele><time>2026-04-25T08:56:43.894Z</time></trkpt><trkpt lat="42.3837647" lon="11.15238"><ele>199.33333333333331</ele><time>2026-04-25T08:56:45.89Z</time></trkpt><trkpt lat="42.383707" lon="11.1524297"><ele>199.16666666666666</ele><time>2026-04-25T08:57:01.885Z</time></trkpt><trkpt lat="42.3836465" lon="11.1525426"><ele>199.0</ele><time>2026-04-25T08:57:03.887Z</time></trkpt><trkpt lat="42.3836132" lon="11.1526268"><ele>199.0</ele><time>2026-04-25T08:57:04.888Z</time></trkpt><trkpt lat="42.3835805" lon="11.1527173"><ele>199.0</ele><time>2026-04-25T08:57:05.88Z</time></trkpt><trkpt lat="42.3835577" lon="11.1528005"><ele>199.0</ele><time>2026-04-25T08:57:06.887Z</time></trkpt><trkpt lat="42.383525" lon="11.1529316"><ele>199.0</ele><time>2026-04-25T08:57:08.891Z</time></trkpt><trkpt lat="42.3835527" lon="11.1530594"><ele>199.0</ele><time>2026-04-25T08:57:10.882Z</time></trkpt><trkpt lat="42.3836154" lon="11.1532316"><ele>199.6</ele><time>2026-04-25T08:57:12.888Z</time></trkpt><trkpt lat="42.3836732" lon="11.1533404"><ele>200.2</ele><time>2026-04-25T08:57:13.883Z</time></trkpt><trkpt lat="42.3837153" lon="11.1534475"><ele>200.79999999999998</ele><time>2026-04-25T08:57:14.889Z</time></trkpt><trkpt lat="42.383731" lon="11.1535699"><ele>201.39999999999998</ele><time>2026-04-25T08:57:15.894Z</time></trkpt><trkpt lat="42.3837332" lon="11.1536907"><ele>202.0</ele><time>2026-04-25T08:57:16.886Z</time></trkpt><trkpt lat="42.3836996" lon="11.1538472"><ele>201.99999999999997</ele><time>2026-04-25T08:57:18.889Z</time></trkpt><trkpt lat="42.3836427" lon="11.1539294"><ele>202.0</ele><time>2026-04-25T08:57:19.885Z</time></trkpt><trkpt lat="42.3835899" lon="11.1539925"><ele>202.0</ele><time>2026-04-25T08:57:20.892Z</time></trkpt><trkpt lat="42.3835701" lon="11.1541287"><ele>202.0</ele><time>2026-04-25T08:57:22.882Z</time></trkpt><trkpt lat="42.3835914" lon="11.1542299"><ele>201.99999999999997</ele><time>2026-04-25T08:57:23.898Z</time></trkpt><trkpt lat="42.3836365" lon="11.1543536"><ele>202.0</ele><time>2026-04-25T08:57:24.888Z</time></trkpt><trkpt lat="42.3836934" lon="11.1544806"><ele>202.8</ele><time>2026-04-25T08:57:25.887Z</time></trkpt><trkpt lat="42.3837382" lon="11.154603"><ele>203.6</ele><time>2026-04-25T08:57:26.887Z</time></trkpt><trkpt lat="42.3837865" lon="11.1547098"><ele>204.4</ele><time>2026-04-25T08:57:27.9Z</time></trkpt><trkpt lat="42.3838341" lon="11.1548155"><ele>205.20000000000002</ele><time>2026-04-25T08:57:28.883Z</time></trkpt><trkpt lat="42.3838905" lon="11.1549347"><ele>206.0</ele><time>2026-04-25T08:57:29.891Z</time></trkpt><trkpt lat="42.3839457" lon="11.1550463"><ele>210.00000000000003</ele><time>2026-04-25T08:57:30.886Z</time></trkpt><trkpt lat="42.3839942" lon="11.1551428"><ele>214.0</ele><time>2026-04-25T08:57:31.88Z</time></trkpt><trkpt lat="42.3840395" lon="11.1552129"><ele>218.0</ele><time>2026-04-25T08:57:32.882Z</time></trkpt><trkpt lat="42.3840723" lon="11.1552883"><ele>222.0</ele><time>2026-04-25T08:57:33.883Z</time></trkpt><trkpt lat="42.3840882" lon="11.1554033"><ele>226.00000000000003</ele><time>2026-04-25T08:57:34.883Z</time></trkpt><trkpt lat="42.3840954" lon="11.1555443"><ele>230.0</ele><time>2026-04-25T08:57:35.899Z</time></trkpt><trkpt lat="42.3840867" lon="11.1556526"><ele>228.50000000000003</ele><time>2026-04-25T08:57:36.89Z</time></trkpt><trkpt lat="42.3840857" lon="11.1557514"><ele>227.0</ele><time>2026-04-25T08:57:37.903Z</time></trkpt><trkpt lat="42.3841133" lon="11.1558619"><ele>225.5</ele><time>2026-04-25T08:57:38.882Z</time></trkpt><trkpt lat="42.3841547" lon="11.1559712"><ele>224.0</ele><time>2026-04-25T08:57:39.891Z</time></trkpt><trkpt lat="42.384184" lon="11.1560713"><ele>222.50000000000003</ele><time>2026-04-25T08:57:40.88Z</time></trkpt><trkpt lat="42.3841749" lon="11.1562047"><ele>221.0</ele><time>2026-04-25T08:57:42.887Z</time></trkpt><trkpt lat="42.3841282" lon="11.1562642"><ele>221.0</ele><time>2026-04-25T08:57:43.888Z</time></trkpt><trkpt lat="42.3840508" lon="11.1563311"><ele>221.00000000000003</ele><time>2026-04-25T08:57:44.885Z</time></trkpt><trkpt lat="42.3839511" lon="11.1563897"><ele>221.00000000000003</ele><time>2026-04-25T08:57:45.884Z</time></trkpt><trkpt lat="42.3838552" lon="11.1564518"><ele>221.0</ele><time>2026-04-25T08:57:46.884Z</time></trkpt><trkpt lat="42.3837635" lon="11.1565119"><ele>221.0</ele><time>2026-04-25T08:57:47.895Z</time></trkpt><trkpt lat="42.3836792" lon="11.156561"><ele>220.0</ele><time>2026-04-25T08:57:48.894Z</time></trkpt><trkpt lat="42.383591" lon="11.1566069"><ele>219.00000000000003</ele><time>2026-04-25T08:57:49.894Z</time></trkpt><trkpt lat="42.3834836" lon="11.1566528"><ele>218.00000000000003</ele><time>2026-04-25T08:57:50.884Z</time></trkpt><trkpt lat="42.3833724" lon="11.1566908"><ele>217.0</ele><time>2026-04-25T08:57:51.886Z</time></trkpt><trkpt lat="42.3832656" lon="11.1567279"><ele>216.0</ele><time>2026-04-25T08:57:52.891Z</time></trkpt><trkpt lat="42.3831591" lon="11.1567619"><ele>216.0</ele><time>2026-04-25T08:57:53.882Z</time></trkpt><trkpt lat="42.383063" lon="11.1567828"><ele>216.0</ele><time>2026-04-25T08:57:54.884Z</time></trkpt><trkpt lat="42.3829893" lon="11.1568078"><ele>216.0</ele><time>2026-04-25T08:57:55.883Z</time></trkpt><trkpt lat="42.3828907" lon="11.1568501"><ele>216.0</ele><time>2026-04-25T08:57:57.891Z</time></trkpt><trkpt lat="42.3828225" lon="11.1569119"><ele>216.0</ele><time>2026-04-25T08:58:00.888Z</time></trkpt><trkpt lat="42.3828333" lon="11.1570117"><ele>216.0</ele><time>2026-04-25T08:58:19.886Z</time></trkpt><trkpt lat="42.3829382" lon="11.1571024"><ele>216.0</ele><time>2026-04-25T08:58:21.879Z</time></trkpt><trkpt lat="42.3830024" lon="11.1571342"><ele>216.0</ele><time>2026-04-25T08:58:22.886Z</time></trkpt><trkpt lat="42.3830737" lon="11.1571618"><ele>216.0</ele><time>2026-04-25T08:58:23.884Z</time></trkpt><trkpt lat="42.3831395" lon="11.1572242"><ele>216.0</ele><time>2026-04-25T08:58:24.883Z</time></trkpt><trkpt lat="42.3832016" lon="11.1573237"><ele>216.0</ele><time>2026-04-25T08:58:25.884Z</time></trkpt><trkpt lat="42.3832491" lon="11.1574248"><ele>216.0</ele><time>2026-04-25T08:58:26.892Z</time></trkpt><trkpt lat="42.383285" lon="11.1575244"><ele>216.33333333333334</ele><time>2026-04-25T08:58:27.883Z</time></trkpt><trkpt lat="42.3833019" lon="11.1576459"><ele>216.66666666666669</ele><time>2026-04-25T08:58:28.888Z</time></trkpt><trkpt lat="42.3833249" lon="11.1577471"><ele>217.0</ele><time>2026-04-25T08:58:29.89Z</time></trkpt><trkpt lat="42.3833436" lon="11.1578509"><ele>217.33333333333334</ele><time>2026-04-25T08:58:30.89Z</time></trkpt><trkpt lat="42.3833627" lon="11.1579559"><ele>217.66666666666669</ele><time>2026-04-25T08:58:31.884Z</time></trkpt><trkpt lat="42.3833847" lon="11.1580572"><ele>218.0</ele><time>2026-04-25T08:58:32.879Z</time></trkpt><trkpt lat="42.3834259" lon="11.1581638"><ele>215.2</ele><time>2026-04-25T08:58:33.881Z</time></trkpt><trkpt lat="42.3834798" lon="11.1582728"><ele>212.4</ele><time>2026-04-25T08:58:34.881Z</time></trkpt><trkpt lat="42.3835281" lon="11.1583788"><ele>209.6</ele><time>2026-04-25T08:58:35.881Z</time></trkpt><trkpt lat="42.3835692" lon="11.158502"><ele>206.79999999999998</ele><time>2026-04-25T08:58:36.891Z</time></trkpt><trkpt lat="42.3836058" lon="11.1586388"><ele>204.0</ele><time>2026-04-25T08:58:37.884Z</time></trkpt><trkpt lat="42.3836272" lon="11.1587459"><ele>204.0</ele><time>2026-04-25T08:58:38.887Z</time></trkpt><trkpt lat="42.383637" lon="11.1588336"><ele>204.0</ele><time>2026-04-25T08:58:39.887Z</time></trkpt><trkpt lat="42.3836514" lon="11.1589598"><ele>204.0</ele><time>2026-04-25T08:58:41.876Z</time></trkpt><trkpt lat="42.3835985" lon="11.1590099"><ele>204.0</ele><time>2026-04-25T08:58:43.876Z</time></trkpt><trkpt lat="42.3835007" lon="11.1590226"><ele>204.0</ele><time>2026-04-25T08:58:45.884Z</time></trkpt><trkpt lat="42.3833894" lon="11.1589441"><ele>204.0</ele><time>2026-04-25T08:58:47.895Z</time></trkpt><trkpt lat="42.383327" lon="11.1589043"><ele>204.0</ele><time>2026-04-25T08:58:48.885Z</time></trkpt><trkpt lat="42.3832602" lon="11.1588631"><ele>204.0</ele><time>2026-04-25T08:58:49.893Z</time></trkpt><trkpt lat="42.3831891" lon="11.1588206"><ele>204.0</ele><time>2026-04-25T08:58:50.892Z</time></trkpt><trkpt lat="42.3831008" lon="11.1587906"><ele>204.0</ele><time>2026-04-25T08:58:51.892Z</time></trkpt><trkpt lat="42.3830142" lon="11.1587533"><ele>204.0</ele><time>2026-04-25T08:58:52.888Z</time></trkpt><trkpt lat="42.3829238" lon="11.1587295"><ele>204.0</ele><time>2026-04-25T08:58:53.884Z</time></trkpt><trkpt lat="42.3828315" lon="11.1587171"><ele>201.5</ele><time>2026-04-25T08:58:54.883Z</time></trkpt><trkpt lat="42.3827354" lon="11.1587216"><ele>199.0</ele><time>2026-04-25T08:58:55.883Z</time></trkpt><trkpt lat="42.3826502" lon="11.1587371"><ele>196.5</ele><time>2026-04-25T08:58:56.882Z</time></trkpt><trkpt lat="42.3825745" lon="11.1587586"><ele>194.0</ele><time>2026-04-25T08:58:57.894Z</time></trkpt><trkpt lat="42.3825095" lon="11.1587873"><ele>191.5</ele><time>2026-04-25T08:58:58.888Z</time></trkpt><trkpt lat="42.3824551" lon="11.1588367"><ele>189.0</ele><time>2026-04-25T08:58:59.883Z</time></trkpt><trkpt lat="42.3823695" lon="11.1589281"><ele>189.0</ele><time>2026-04-25T08:59:01.886Z</time></trkpt><trkpt lat="42.3822791" lon="11.1588448"><ele>189.0</ele><time>2026-04-25T08:59:03.88Z</time></trkpt><trkpt lat="42.38219" lon="11.1587414"><ele>189.0</ele><time>2026-04-25T08:59:05.886Z</time></trkpt><trkpt lat="42.3820914" lon="11.1587547"><ele>189.0</ele><time>2026-04-25T08:59:07.883Z</time></trkpt><trkpt lat="42.3820163" lon="11.1587803"><ele>189.0</ele><time>2026-04-25T08:59:08.883Z</time></trkpt><trkpt lat="42.3819048" lon="11.1587953"><ele>187.5</ele><time>2026-04-25T08:59:09.878Z</time></trkpt><trkpt lat="42.3818014" lon="11.1588116"><ele>186.0</ele><time>2026-04-25T08:59:10.885Z</time></trkpt><trkpt lat="42.3817042" lon="11.1587956"><ele>184.5</ele><time>2026-04-25T08:59:11.882Z</time></trkpt><trkpt lat="42.3815911" lon="11.1587351"><ele>183.0</ele><time>2026-04-25T08:59:12.886Z</time></trkpt><trkpt lat="42.3814764" lon="11.1586641"><ele>183.0</ele><time>2026-04-25T08:59:13.887Z</time></trkpt><trkpt lat="42.3813623" lon="11.1586026"><ele>183.0</ele><time>2026-04-25T08:59:14.879Z</time></trkpt><trkpt lat="42.3812396" lon="11.1585329"><ele>183.0</ele><time>2026-04-25T08:59:15.876Z</time></trkpt><trkpt lat="42.3811075" lon="11.1584373"><ele>183.0</ele><time>2026-04-25T08:59:16.89Z</time></trkpt><trkpt lat="42.3809945" lon="11.1583399"><ele>182.5</ele><time>2026-04-25T08:59:17.881Z</time></trkpt><trkpt lat="42.3809034" lon="11.1582365"><ele>182.0</ele><time>2026-04-25T08:59:18.882Z</time></trkpt><trkpt lat="42.3808305" lon="11.1581467"><ele>181.5</ele><time>2026-04-25T08:59:19.882Z</time></trkpt><trkpt lat="42.3807721" lon="11.1580849"><ele>181.0</ele><time>2026-04-25T08:59:20.882Z</time></trkpt><trkpt lat="42.3807142" lon="11.1580346"><ele>180.5</ele><time>2026-04-25T08:59:21.888Z</time></trkpt><trkpt lat="42.3806518" lon="11.1580056"><ele>180.0</ele><time>2026-04-25T08:59:22.884Z</time></trkpt><trkpt lat="42.3805671" lon="11.1579857"><ele>181.33333333333334</ele><time>2026-04-25T08:59:23.88Z</time></trkpt><trkpt lat="42.3804809" lon="11.157961"><ele>182.66666666666666</ele><time>2026-04-25T08:59:24.884Z</time></trkpt><trkpt lat="42.3803988" lon="11.1579406"><ele>184.0</ele><time>2026-04-25T08:59:25.882Z</time></trkpt><trkpt lat="42.3803287" lon="11.1579344"><ele>185.33333333333331</ele><time>2026-04-25T08:59:26.887Z</time></trkpt><trkpt lat="42.3802571" lon="11.1579475"><ele>186.66666666666666</ele><time>2026-04-25T08:59:27.895Z</time></trkpt><trkpt lat="42.3801768" lon="11.1579694"><ele>188.0</ele><time>2026-04-25T08:59:28.883Z</time></trkpt><trkpt lat="42.3800919" lon="11.1579912"><ele>188.0</ele><time>2026-04-25T08:59:29.883Z</time></trkpt><trkpt lat="42.3800068" lon="11.157999"><ele>188.0</ele><time>2026-04-25T08:59:30.886Z</time></trkpt><trkpt lat="42.379923" lon="11.1579916"><ele>188.0</ele><time>2026-04-25T08:59:31.884Z</time></trkpt><trkpt lat="42.3798509" lon="11.1579975"><ele>188.0</ele><time>2026-04-25T08:59:32.883Z</time></trkpt><trkpt lat="42.3797768" lon="11.1580286"><ele>188.0</ele><time>2026-04-25T08:59:33.898Z</time></trkpt><trkpt lat="42.3796872" lon="11.1580592"><ele>188.0</ele><time>2026-04-25T08:59:34.88Z</time></trkpt><trkpt lat="42.3795886" lon="11.1580823"><ele>189.83333333333331</ele><time>2026-04-25T08:59:35.878Z</time></trkpt><trkpt lat="42.379504" lon="11.1580832"><ele>191.66666666666666</ele><time>2026-04-25T08:59:36.881Z</time></trkpt><trkpt lat="42.3794171" lon="11.1580732"><ele>193.5</ele><time>2026-04-25T08:59:37.884Z</time></trkpt><trkpt lat="42.3793302" lon="11.1580616"><ele>195.33333333333331</ele><time>2026-04-25T08:59:38.882Z</time></trkpt><trkpt lat="42.3792556" lon="11.1580273"><ele>197.16666666666666</ele><time>2026-04-25T08:59:39.882Z</time></trkpt><trkpt lat="42.3791849" lon="11.1579733"><ele>199.0</ele><time>2026-04-25T08:59:40.881Z</time></trkpt><trkpt lat="42.3791262" lon="11.1579062"><ele>198.99999999999997</ele><time>2026-04-25T08:59:41.883Z</time></trkpt><trkpt lat="42.37908" lon="11.1578316"><ele>199.0</ele><time>2026-04-25T08:59:42.881Z</time></trkpt><trkpt lat="42.3790463" lon="11.1577576"><ele>199.0</ele><time>2026-04-25T08:59:43.879Z</time></trkpt><trkpt lat="42.3790294" lon="11.1576558"><ele>199.0</ele><time>2026-04-25T08:59:44.883Z</time></trkpt><trkpt lat="42.3790093" lon="11.1575464"><ele>198.99999999999997</ele><time>2026-04-25T08:59:45.887Z</time></trkpt><trkpt lat="42.3789766" lon="11.1574314"><ele>199.0</ele><time>2026-04-25T08:59:46.881Z</time></trkpt><trkpt lat="42.3789492" lon="11.1573474"><ele>197.2</ele><time>2026-04-25T08:59:47.894Z</time></trkpt><trkpt lat="42.3788531" lon="11.1572241"><ele>195.39999999999998</ele><time>2026-04-25T08:59:49.888Z</time></trkpt><trkpt lat="42.3787795" lon="11.1571317"><ele>193.6</ele><time>2026-04-25T08:59:50.885Z</time></trkpt><trkpt lat="42.3787008" lon="11.1570501"><ele>191.8</ele><time>2026-04-25T08:59:51.889Z</time></trkpt><trkpt lat="42.3786369" lon="11.1569843"><ele>190.0</ele><time>2026-04-25T08:59:52.884Z</time></trkpt><trkpt lat="42.3785229" lon="11.1569072"><ele>193.0</ele><time>2026-04-25T08:59:54.878Z</time></trkpt><trkpt lat="42.3784599" lon="11.1568673"><ele>196.0</ele><time>2026-04-25T08:59:55.881Z</time></trkpt><trkpt lat="42.3783441" lon="11.1567751"><ele>199.0</ele><time>2026-04-25T08:59:57.884Z</time></trkpt><trkpt lat="42.3782621" lon="11.1566538"><ele>202.0</ele><time>2026-04-25T08:59:59.886Z</time></trkpt><trkpt lat="42.3782222" lon="11.1565743"><ele>205.0</ele><time>2026-04-25T09:00:00.88Z</time></trkpt><trkpt lat="42.3781929" lon="11.1564831"><ele>204.99999999999997</ele><time>2026-04-25T09:00:01.881Z</time></trkpt><trkpt lat="42.3781639" lon="11.156389"><ele>205.0</ele><time>2026-04-25T09:00:02.885Z</time></trkpt><trkpt lat="42.3781521" lon="11.1563008"><ele>205.0</ele><time>2026-04-25T09:00:03.881Z</time></trkpt><trkpt lat="42.3781518" lon="11.1561398"><ele>205.0</ele><time>2026-04-25T09:00:05.885Z</time></trkpt><trkpt lat="42.3781078" lon="11.1559952"><ele>204.99999999999997</ele><time>2026-04-25T09:00:07.879Z</time></trkpt><trkpt lat="42.3780738" lon="11.1559223"><ele>205.0</ele><time>2026-04-25T09:00:08.88Z</time></trkpt><trkpt lat="42.3780305" lon="11.1558523"><ele>204.49999999999997</ele><time>2026-04-25T09:00:09.888Z</time></trkpt><trkpt lat="42.3779824" lon="11.1557836"><ele>204.0</ele><time>2026-04-25T09:00:10.887Z</time></trkpt><trkpt lat="42.3779269" lon="11.1557155"><ele>203.5</ele><time>2026-04-25T09:00:11.888Z</time></trkpt><trkpt lat="42.3778765" lon="11.1556535"><ele>203.0</ele><time>2026-04-25T09:00:12.882Z</time></trkpt><trkpt lat="42.3778166" lon="11.1555843"><ele>202.49999999999997</ele><time>2026-04-25T09:00:13.879Z</time></trkpt><trkpt lat="42.377754" lon="11.1555302"><ele>202.0</ele><time>2026-04-25T09:00:14.894Z</time></trkpt><trkpt lat="42.3776719" lon="11.155493"><ele>202.0</ele><time>2026-04-25T09:00:15.883Z</time></trkpt><trkpt lat="42.3775752" lon="11.1554717"><ele>202.0</ele><time>2026-04-25T09:00:16.881Z</time></trkpt><trkpt lat="42.3774619" lon="11.1554782"><ele>202.0</ele><time>2026-04-25T09:00:17.883Z</time></trkpt><trkpt lat="42.3773521" lon="11.1555065"><ele>202.0</ele><time>2026-04-25T09:00:18.882Z</time></trkpt><trkpt lat="42.3772478" lon="11.1555363"><ele>202.0</ele><time>2026-04-25T09:00:19.881Z</time></trkpt><trkpt lat="42.3771379" lon="11.1555746"><ele>201.8</ele><time>2026-04-25T09:00:20.883Z</time></trkpt><trkpt lat="42.3770266" lon="11.1556217"><ele>201.6</ele><time>2026-04-25T09:00:21.878Z</time></trkpt><trkpt lat="42.3769174" lon="11.1556862"><ele>201.4</ele><time>2026-04-25T09:00:22.883Z</time></trkpt><trkpt lat="42.3768444" lon="11.1557359"><ele>201.20000000000002</ele><time>2026-04-25T09:00:23.883Z</time></trkpt><trkpt lat="42.3767758" lon="11.1557675"><ele>201.0</ele><time>2026-04-25T09:00:24.882Z</time></trkpt><trkpt lat="42.3766422" lon="11.1557437"><ele>205.4</ele><time>2026-04-25T09:00:26.879Z</time></trkpt><trkpt lat="42.3765714" lon="11.1557214"><ele>209.8</ele><time>2026-04-25T09:00:27.888Z</time></trkpt><trkpt lat="42.3764635" lon="11.1557327"><ele>214.20000000000002</ele><time>2026-04-25T09:00:29.893Z</time></trkpt><trkpt lat="42.3763759" lon="11.1558491"><ele>218.60000000000002</ele><time>2026-04-25T09:00:31.886Z</time></trkpt><trkpt lat="42.3762945" lon="11.1559344"><ele>223.0</ele><time>2026-04-25T09:00:33.883Z</time></trkpt><trkpt lat="42.3762349" lon="11.1559649"><ele>223.0</ele><time>2026-04-25T09:00:36.889Z</time></trkpt><trkpt lat="42.3761374" lon="11.155963"><ele>223.0</ele><time>2026-04-25T09:00:42.884Z</time></trkpt><trkpt lat="42.3760323" lon="11.1559577"><ele>223.0</ele><time>2026-04-25T09:00:44.885Z</time></trkpt><trkpt lat="42.3758917" lon="11.1560767"><ele>223.0</ele><time>2026-04-25T09:00:46.882Z</time></trkpt><trkpt lat="42.3757912" lon="11.1561819"><ele>222.99999999999997</ele><time>2026-04-25T09:00:47.882Z</time></trkpt><trkpt lat="42.3757064" lon="11.1562727"><ele>223.0</ele><time>2026-04-25T09:00:48.892Z</time></trkpt><trkpt lat="42.3756521" lon="11.1563252"><ele>223.0</ele><time>2026-04-25T09:00:49.888Z</time></trkpt><trkpt lat="42.375586" lon="11.1563545"><ele>223.0</ele><time>2026-04-25T09:00:50.887Z</time></trkpt><trkpt lat="42.3754953" lon="11.1563648"><ele>222.99999999999997</ele><time>2026-04-25T09:00:51.88Z</time></trkpt><trkpt lat="42.375392" lon="11.1563827"><ele>223.0</ele><time>2026-04-25T09:00:52.891Z</time></trkpt><trkpt lat="42.3752956" lon="11.1564021"><ele>224.4</ele><time>2026-04-25T09:00:53.891Z</time></trkpt><trkpt lat="42.375185" lon="11.1563788"><ele>225.8</ele><time>2026-04-25T09:00:55.883Z</time></trkpt><trkpt lat="42.3751205" lon="11.1563302"><ele>227.2</ele><time>2026-04-25T09:00:56.883Z</time></trkpt><trkpt lat="42.3750528" lon="11.1562503"><ele>228.6</ele><time>2026-04-25T09:00:57.882Z</time></trkpt><trkpt lat="42.3749821" lon="11.1561524"><ele>230.0</ele><time>2026-04-25T09:00:58.885Z</time></trkpt><trkpt lat="42.3748998" lon="11.1560527"><ele>230.00000000000003</ele><time>2026-04-25T09:00:59.879Z</time></trkpt><trkpt lat="42.3748061" lon="11.1559714"><ele>230.0</ele><time>2026-04-25T09:01:00.888Z</time></trkpt><trkpt lat="42.3747259" lon="11.155923"><ele>230.0</ele><time>2026-04-25T09:01:01.885Z</time></trkpt><trkpt lat="42.374647" lon="11.1558842"><ele>230.0</ele><time>2026-04-25T09:01:02.881Z</time></trkpt><trkpt lat="42.3745684" lon="11.1558811"><ele>230.00000000000003</ele><time>2026-04-25T09:01:03.886Z</time></trkpt><trkpt lat="42.3745032" lon="11.1559092"><ele>230.0</ele><time>2026-04-25T09:01:04.887Z</time></trkpt><trkpt lat="42.3744306" lon="11.1559734"><ele>230.2</ele><time>2026-04-25T09:01:05.887Z</time></trkpt><trkpt lat="42.3743463" lon="11.1560613"><ele>230.4</ele><time>2026-04-25T09:01:06.884Z</time></trkpt><trkpt lat="42.3742636" lon="11.1561453"><ele>230.60000000000002</ele><time>2026-04-25T09:01:07.889Z</time></trkpt><trkpt lat="42.3741735" lon="11.1562261"><ele>230.8</ele><time>2026-04-25T09:01:08.888Z</time></trkpt><trkpt lat="42.3740665" lon="11.156306"><ele>231.0</ele><time>2026-04-25T09:01:09.883Z</time></trkpt><trkpt lat="42.3739541" lon="11.1563868"><ele>228.25</ele><time>2026-04-25T09:01:10.887Z</time></trkpt><trkpt lat="42.3738398" lon="11.1565006"><ele>225.5</ele><time>2026-04-25T09:01:11.9Z</time></trkpt><trkpt lat="42.3737222" lon="11.1566295"><ele>222.75</ele><time>2026-04-25T09:01:12.884Z</time></trkpt><trkpt lat="42.3736266" lon="11.1567229"><ele>220.0</ele><time>2026-04-25T09:01:13.886Z</time></trkpt><trkpt lat="42.3735452" lon="11.156789"><ele>220.0</ele><time>2026-04-25T09:01:14.884Z</time></trkpt><trkpt lat="42.3734793" lon="11.1568641"><ele>220.0</ele><time>2026-04-25T09:01:15.889Z</time></trkpt><trkpt lat="42.3734239" lon="11.1569627"><ele>220.0</ele><time>2026-04-25T09:01:16.889Z</time></trkpt><trkpt lat="42.3733876" lon="11.1570934"><ele>220.0</ele><time>2026-04-25T09:01:17.889Z</time></trkpt><trkpt lat="42.3733426" lon="11.1572375"><ele>220.0</ele><time>2026-04-25T09:01:18.891Z</time></trkpt><trkpt lat="42.3732909" lon="11.1573708"><ele>219.8</ele><time>2026-04-25T09:01:19.889Z</time></trkpt><trkpt lat="42.3732459" lon="11.1574584"><ele>219.6</ele><time>2026-04-25T09:01:20.884Z</time></trkpt><trkpt lat="42.3731855" lon="11.1575071"><ele>219.39999999999998</ele><time>2026-04-25T09:01:21.885Z</time></trkpt><trkpt lat="42.3730991" lon="11.1575739"><ele>219.2</ele><time>2026-04-25T09:01:22.893Z</time></trkpt><trkpt lat="42.3729815" lon="11.1576556"><ele>219.0</ele><time>2026-04-25T09:01:23.892Z</time></trkpt><trkpt lat="42.3728701" lon="11.1577458"><ele>219.0</ele><time>2026-04-25T09:01:24.887Z</time></trkpt><trkpt lat="42.3727712" lon="11.157797"><ele>219.0</ele><time>2026-04-25T09:01:25.887Z</time></trkpt><trkpt lat="42.3726748" lon="11.1578345"><ele>219.0</ele><time>2026-04-25T09:01:26.884Z</time></trkpt><trkpt lat="42.3726021" lon="11.1578629"><ele>219.0</ele><time>2026-04-25T09:01:27.884Z</time></trkpt><trkpt lat="42.3725473" lon="11.1579254"><ele>219.0</ele><time>2026-04-25T09:01:28.887Z</time></trkpt><trkpt lat="42.3724919" lon="11.1580303"><ele>219.0</ele><time>2026-04-25T09:01:29.882Z</time></trkpt><trkpt lat="42.3724384" lon="11.1581418"><ele>220.83333333333334</ele><time>2026-04-25T09:01:30.888Z</time></trkpt><trkpt lat="42.3723722" lon="11.1582125"><ele>222.66666666666669</ele><time>2026-04-25T09:01:31.886Z</time></trkpt><trkpt lat="42.3722859" lon="11.1582685"><ele>224.5</ele><time>2026-04-25T09:01:32.883Z</time></trkpt><trkpt lat="42.3721897" lon="11.1583274"><ele>226.33333333333334</ele><time>2026-04-25T09:01:33.886Z</time></trkpt><trkpt lat="42.3721236" lon="11.1583625"><ele>228.16666666666669</ele><time>2026-04-25T09:01:34.889Z</time></trkpt><trkpt lat="42.3720389" lon="11.1583726"><ele>230.0</ele><time>2026-04-25T09:01:35.888Z</time></trkpt><trkpt lat="42.3719413" lon="11.158371"><ele>230.00000000000003</ele><time>2026-04-25T09:01:36.889Z</time></trkpt><trkpt lat="42.3718536" lon="11.1583729"><ele>230.0</ele><time>2026-04-25T09:01:37.89Z</time></trkpt><trkpt lat="42.3717839" lon="11.1583744"><ele>230.0</ele><time>2026-04-25T09:01:38.883Z</time></trkpt><trkpt lat="42.371713" lon="11.1583852"><ele>230.0</ele><time>2026-04-25T09:01:39.888Z</time></trkpt><trkpt lat="42.3716318" lon="11.1584073"><ele>230.00000000000003</ele><time>2026-04-25T09:01:40.883Z</time></trkpt><trkpt lat="42.371553" lon="11.158443"><ele>230.0</ele><time>2026-04-25T09:01:41.883Z</time></trkpt><trkpt lat="42.3714727" lon="11.1584726"><ele>230.00000000000003</ele><time>2026-04-25T09:01:42.881Z</time></trkpt><trkpt lat="42.3714034" lon="11.1585166"><ele>230.0</ele><time>2026-04-25T09:01:43.887Z</time></trkpt><trkpt lat="42.3713394" lon="11.158568"><ele>230.0</ele><time>2026-04-25T09:01:44.892Z</time></trkpt><trkpt lat="42.3712764" lon="11.1586313"><ele>230.0</ele><time>2026-04-25T09:01:45.886Z</time></trkpt><trkpt lat="42.3712187" lon="11.1586994"><ele>230.00000000000003</ele><time>2026-04-25T09:01:46.886Z</time></trkpt><trkpt lat="42.3711643" lon="11.1587582"><ele>230.0</ele><time>2026-04-25T09:01:47.887Z</time></trkpt><trkpt lat="42.3711024" lon="11.1588526"><ele>229.2</ele><time>2026-04-25T09:01:48.887Z</time></trkpt><trkpt lat="42.3710266" lon="11.1589725"><ele>228.4</ele><time>2026-04-25T09:01:49.883Z</time></trkpt><trkpt lat="42.3709515" lon="11.1590881"><ele>227.60000000000002</ele><time>2026-04-25T09:01:50.886Z</time></trkpt><trkpt lat="42.3708832" lon="11.1591787"><ele>226.8</ele><time>2026-04-25T09:01:51.884Z</time></trkpt><trkpt lat="42.3708165" lon="11.1592636"><ele>226.0</ele><time>2026-04-25T09:01:52.881Z</time></trkpt><trkpt lat="42.3707306" lon="11.1593309"><ele>226.0</ele><time>2026-04-25T09:01:53.881Z</time></trkpt><trkpt lat="42.3706313" lon="11.1594115"><ele>226.00000000000003</ele><time>2026-04-25T09:01:54.894Z</time></trkpt><trkpt lat="42.3705426" lon="11.1594972"><ele>226.00000000000003</ele><time>2026-04-25T09:01:55.884Z</time></trkpt><trkpt lat="42.3704772" lon="11.1595676"><ele>226.0</ele><time>2026-04-25T09:01:56.884Z</time></trkpt><trkpt lat="42.3704268" lon="11.1596302"><ele>226.0</ele><time>2026-04-25T09:01:57.882Z</time></trkpt><trkpt lat="42.3703586" lon="11.1597318"><ele>221.99999999999997</ele><time>2026-04-25T09:01:59.88Z</time></trkpt><trkpt lat="42.3703032" lon="11.1598421"><ele>218.0</ele><time>2026-04-25T09:02:02.881Z</time></trkpt><trkpt lat="42.3703093" lon="11.1597512"><ele>214.0</ele><time>2026-04-25T09:03:28.894Z</time></trkpt><trkpt lat="42.3703197" lon="11.1596251"><ele>210.0</ele><time>2026-04-25T09:03:31.904Z</time></trkpt><trkpt lat="42.3703456" lon="11.159513"><ele>205.99999999999997</ele><time>2026-04-25T09:03:33.888Z</time></trkpt><trkpt lat="42.3704102" lon="11.1594164"><ele>202.0</ele><time>2026-04-25T09:03:35.889Z</time></trkpt><trkpt lat="42.3704899" lon="11.1593178"><ele>204.5</ele><time>2026-04-25T09:03:37.893Z</time></trkpt><trkpt lat="42.3705851" lon="11.1592361"><ele>207.0</ele><time>2026-04-25T09:03:39.891Z</time></trkpt><trkpt lat="42.3706657" lon="11.15913"><ele>209.5</ele><time>2026-04-25T09:03:41.892Z</time></trkpt><trkpt lat="42.3707331" lon="11.1589973"><ele>212.0</ele><time>2026-04-25T09:03:43.886Z</time></trkpt><trkpt lat="42.3707919" lon="11.158872"><ele>212.00000000000003</ele><time>2026-04-25T09:03:45.883Z</time></trkpt><trkpt lat="42.370822" lon="11.1587502"><ele>212.0</ele><time>2026-04-25T09:03:47.887Z</time></trkpt><trkpt lat="42.3708461" lon="11.1586405"><ele>212.0</ele><time>2026-04-25T09:03:49.892Z</time></trkpt><trkpt lat="42.3708558" lon="11.1585299"><ele>212.0</ele><time>2026-04-25T09:03:51.885Z</time></trkpt><trkpt lat="42.3708184" lon="11.1584499"><ele>212.00000000000003</ele><time>2026-04-25T09:03:54.886Z</time></trkpt><trkpt lat="42.3707847" lon="11.1585625"><ele>212.0</ele><time>2026-04-25T09:04:12.882Z</time></trkpt><trkpt lat="42.3707455" lon="11.1587153"><ele>212.00000000000003</ele><time>2026-04-25T09:04:14.893Z</time></trkpt><trkpt lat="42.3707105" lon="11.158805"><ele>212.0</ele><time>2026-04-25T09:04:15.891Z</time></trkpt><trkpt lat="42.3706675" lon="11.158889"><ele>212.0</ele><time>2026-04-25T09:04:16.88Z</time></trkpt><trkpt lat="42.3706233" lon="11.1589609"><ele>212.0</ele><time>2026-04-25T09:04:17.887Z</time></trkpt><trkpt lat="42.3705476" lon="11.1590571"><ele>212.00000000000003</ele><time>2026-04-25T09:04:19.885Z</time></trkpt><trkpt lat="42.3704684" lon="11.1591193"><ele>212.0</ele><time>2026-04-25T09:04:21.882Z</time></trkpt><trkpt lat="42.3703748" lon="11.1591767"><ele>210.0</ele><time>2026-04-25T09:04:23.896Z</time></trkpt><trkpt lat="42.3702737" lon="11.1592227"><ele>208.0</ele><time>2026-04-25T09:04:25.883Z</time></trkpt><trkpt lat="42.3701771" lon="11.159283"><ele>206.0</ele><time>2026-04-25T09:04:27.884Z</time></trkpt><trkpt lat="42.370077" lon="11.1593649"><ele>204.0</ele><time>2026-04-25T09:04:29.887Z</time></trkpt><trkpt lat="42.3699998" lon="11.1594698"><ele>202.0</ele><time>2026-04-25T09:04:31.887Z</time></trkpt><trkpt lat="42.3699344" lon="11.1595996"><ele>202.0</ele><time>2026-04-25T09:04:33.884Z</time></trkpt><trkpt lat="42.3698776" lon="11.1597362"><ele>202.0</ele><time>2026-04-25T09:04:35.882Z</time></trkpt><trkpt lat="42.3698396" lon="11.1598048"><ele>202.0</ele><time>2026-04-25T09:04:36.887Z</time></trkpt><trkpt lat="42.3697881" lon="11.1599277"><ele>202.0</ele><time>2026-04-25T09:04:38.887Z</time></trkpt><trkpt lat="42.3697232" lon="11.1600009"><ele>202.0</ele><time>2026-04-25T09:04:40.89Z</time></trkpt><trkpt lat="42.3696273" lon="11.1600143"><ele>203.6</ele><time>2026-04-25T09:04:42.895Z</time></trkpt><trkpt lat="42.369542" lon="11.1599484"><ele>205.2</ele><time>2026-04-25T09:04:44.889Z</time></trkpt><trkpt lat="42.3694541" lon="11.1598448"><ele>206.8</ele><time>2026-04-25T09:04:46.89Z</time></trkpt><trkpt lat="42.3693557" lon="11.1597498"><ele>208.4</ele><time>2026-04-25T09:04:48.893Z</time></trkpt><trkpt lat="42.3693001" lon="11.1597044"><ele>210.0</ele><time>2026-04-25T09:04:49.892Z</time></trkpt><trkpt lat="42.369185" lon="11.1596304"><ele>208.42857142857142</ele><time>2026-04-25T09:04:51.89Z</time></trkpt><trkpt lat="42.3691194" lon="11.1596067"><ele>206.85714285714286</ele><time>2026-04-25T09:04:52.888Z</time></trkpt><trkpt lat="42.3690546" lon="11.1595759"><ele>205.28571428571428</ele><time>2026-04-25T09:04:53.896Z</time></trkpt><trkpt lat="42.3689919" lon="11.1595395"><ele>203.71428571428572</ele><time>2026-04-25T09:04:54.883Z</time></trkpt><trkpt lat="42.368926" lon="11.1595052"><ele>202.14285714285714</ele><time>2026-04-25T09:04:55.893Z</time></trkpt><trkpt lat="42.3688635" lon="11.159477"><ele>200.57142857142856</ele><time>2026-04-25T09:04:56.886Z</time></trkpt><trkpt lat="42.3687933" lon="11.1594609"><ele>199.0</ele><time>2026-04-25T09:04:57.884Z</time></trkpt><trkpt lat="42.368722" lon="11.1594487"><ele>198.99999999999997</ele><time>2026-04-25T09:04:58.886Z</time></trkpt><trkpt lat="42.3686513" lon="11.1594363"><ele>199.0</ele><time>2026-04-25T09:04:59.886Z</time></trkpt><trkpt lat="42.368579" lon="11.1594214"><ele>199.0</ele><time>2026-04-25T09:05:00.888Z</time></trkpt><trkpt lat="42.3685134" lon="11.159407"><ele>199.0</ele><time>2026-04-25T09:05:01.885Z</time></trkpt><trkpt lat="42.3684461" lon="11.1593907"><ele>199.0</ele><time>2026-04-25T09:05:02.892Z</time></trkpt><trkpt lat="42.3683761" lon="11.1593714"><ele>198.99999999999997</ele><time>2026-04-25T09:05:03.881Z</time></trkpt><trkpt lat="42.368306" lon="11.1593651"><ele>199.0</ele><time>2026-04-25T09:05:04.88Z</time></trkpt><trkpt lat="42.3682342" lon="11.1593568"><ele>198.99999999999997</ele><time>2026-04-25T09:05:05.888Z</time></trkpt><trkpt lat="42.3681672" lon="11.1593469"><ele>199.0</ele><time>2026-04-25T09:05:06.889Z</time></trkpt><trkpt lat="42.368098" lon="11.159335"><ele>199.0</ele><time>2026-04-25T09:05:07.895Z</time></trkpt><trkpt lat="42.3680292" lon="11.1593162"><ele>199.0</ele><time>2026-04-25T09:05:08.895Z</time></trkpt><trkpt lat="42.3679637" lon="11.1592971"><ele>198.99999999999997</ele><time>2026-04-25T09:05:09.882Z</time></trkpt><trkpt lat="42.3678519" lon="11.1592383"><ele>199.0</ele><time>2026-04-25T09:05:11.879Z</time></trkpt><trkpt lat="42.3677889" lon="11.1591991"><ele>199.57142857142856</ele><time>2026-04-25T09:05:12.88Z</time></trkpt><trkpt lat="42.3677278" lon="11.1591612"><ele>200.14285714285714</ele><time>2026-04-25T09:05:13.892Z</time></trkpt><trkpt lat="42.3676659" lon="11.1591263"><ele>200.71428571428572</ele><time>2026-04-25T09:05:14.88Z</time></trkpt><trkpt lat="42.3676007" lon="11.1590848"><ele>201.28571428571428</ele><time>2026-04-25T09:05:15.886Z</time></trkpt><trkpt lat="42.3675435" lon="11.1590414"><ele>201.85714285714286</ele><time>2026-04-25T09:05:16.88Z</time></trkpt><trkpt lat="42.3674859" lon="11.1589974"><ele>202.42857142857142</ele><time>2026-04-25T09:05:17.886Z</time></trkpt><trkpt lat="42.3674297" lon="11.1589515"><ele>203.0</ele><time>2026-04-25T09:05:18.887Z</time></trkpt><trkpt lat="42.3673734" lon="11.1589051"><ele>201.2</ele><time>2026-04-25T09:05:19.883Z</time></trkpt><trkpt lat="42.3673231" lon="11.1588501"><ele>199.4</ele><time>2026-04-25T09:05:20.893Z</time></trkpt><trkpt lat="42.3672365" lon="11.1587444"><ele>197.6</ele><time>2026-04-25T09:05:22.882Z</time></trkpt><trkpt lat="42.3671405" lon="11.1586612"><ele>195.79999999999998</ele><time>2026-04-25T09:05:24.885Z</time></trkpt><trkpt lat="42.3670317" lon="11.1585906"><ele>194.0</ele><time>2026-04-25T09:05:26.885Z</time></trkpt><trkpt lat="42.3669173" lon="11.1585166"><ele>194.00000000000003</ele><time>2026-04-25T09:05:28.886Z</time></trkpt><trkpt lat="42.3668534" lon="11.1584763"><ele>194.0</ele><time>2026-04-25T09:05:29.886Z</time></trkpt><trkpt lat="42.3668035" lon="11.15842"><ele>194.0</ele><time>2026-04-25T09:05:30.89Z</time></trkpt><trkpt lat="42.3667571" lon="11.1583574"><ele>194.0</ele><time>2026-04-25T09:05:31.886Z</time></trkpt><trkpt lat="42.3666595" lon="11.1582629"><ele>194.00000000000003</ele><time>2026-04-25T09:05:33.882Z</time></trkpt><trkpt lat="42.3665579" lon="11.1581712"><ele>194.0</ele><time>2026-04-25T09:05:35.878Z</time></trkpt><trkpt lat="42.3664659" lon="11.1580923"><ele>191.6</ele><time>2026-04-25T09:05:37.884Z</time></trkpt><trkpt lat="42.3663664" lon="11.1580097"><ele>189.2</ele><time>2026-04-25T09:05:39.884Z</time></trkpt><trkpt lat="42.3662678" lon="11.1579385"><ele>186.79999999999998</ele><time>2026-04-25T09:05:41.891Z</time></trkpt><trkpt lat="42.3661699" lon="11.1578752"><ele>184.39999999999998</ele><time>2026-04-25T09:05:43.886Z</time></trkpt><trkpt lat="42.3661118" lon="11.1578297"><ele>182.0</ele><time>2026-04-25T09:05:44.896Z</time></trkpt><trkpt lat="42.3660267" lon="11.1577286"><ele>182.0</ele><time>2026-04-25T09:05:46.888Z</time></trkpt><trkpt lat="42.3659439" lon="11.1576399"><ele>182.0</ele><time>2026-04-25T09:05:48.888Z</time></trkpt><trkpt lat="42.3658641" lon="11.1575723"><ele>182.0</ele><time>2026-04-25T09:05:50.887Z</time></trkpt><trkpt lat="42.3657841" lon="11.1575277"><ele>182.0</ele><time>2026-04-25T09:05:52.896Z</time></trkpt><trkpt lat="42.36571" lon="11.1574609"><ele>182.0</ele><time>2026-04-25T09:05:54.892Z</time></trkpt><trkpt lat="42.3656392" lon="11.1573884"><ele>179.5</ele><time>2026-04-25T09:05:56.886Z</time></trkpt><trkpt lat="42.3655636" lon="11.1573191"><ele>177.0</ele><time>2026-04-25T09:05:58.894Z</time></trkpt><trkpt lat="42.365494" lon="11.1572604"><ele>174.5</ele><time>2026-04-25T09:06:00.887Z</time></trkpt><trkpt lat="42.36542" lon="11.1572124"><ele>172.0</ele><time>2026-04-25T09:06:02.889Z</time></trkpt><trkpt lat="42.3653373" lon="11.1571508"><ele>169.5</ele><time>2026-04-25T09:06:04.892Z</time></trkpt><trkpt lat="42.3652511" lon="11.1570894"><ele>167.0</ele><time>2026-04-25T09:06:06.888Z</time></trkpt><trkpt lat="42.3651567" lon="11.1570316"><ele>167.0</ele><time>2026-04-25T09:06:08.892Z</time></trkpt><trkpt lat="42.3650525" lon="11.1570207"><ele>167.0</ele><time>2026-04-25T09:06:10.884Z</time></trkpt><trkpt lat="42.3649578" lon="11.1570348"><ele>167.0</ele><time>2026-04-25T09:06:12.893Z</time></trkpt><trkpt lat="42.3648876" lon="11.1570456"><ele>167.0</ele><time>2026-04-25T09:06:14.886Z</time></trkpt><trkpt lat="42.3648537" lon="11.156972"><ele>167.0</ele><time>2026-04-25T09:06:16.883Z</time></trkpt><trkpt lat="42.3648402" lon="11.1568751"><ele>167.0</ele><time>2026-04-25T09:06:18.884Z</time></trkpt><trkpt lat="42.364827" lon="11.1567776"><ele>167.0</ele><time>2026-04-25T09:06:20.883Z</time></trkpt><trkpt lat="42.3648123" lon="11.1566766"><ele>167.0</ele><time>2026-04-25T09:06:22.886Z</time></trkpt><trkpt lat="42.3648533" lon="11.156587"><ele>167.0</ele><time>2026-04-25T09:06:24.886Z</time></trkpt><trkpt lat="42.3649209" lon="11.1564916"><ele>167.0</ele><time>2026-04-25T09:06:26.883Z</time></trkpt><trkpt lat="42.3649994" lon="11.1564109"><ele>167.0</ele><time>2026-04-25T09:06:28.885Z</time></trkpt><trkpt lat="42.3650871" lon="11.1563457"><ele>164.66666666666666</ele><time>2026-04-25T09:06:30.9Z</time></trkpt><trkpt lat="42.3651788" lon="11.1562878"><ele>162.33333333333331</ele><time>2026-04-25T09:06:32.883Z</time></trkpt><trkpt lat="42.3652658" lon="11.15626"><ele>160.0</ele><time>2026-04-25T09:06:34.892Z</time></trkpt><trkpt lat="42.3653537" lon="11.1562699"><ele>157.66666666666666</ele><time>2026-04-25T09:06:36.885Z</time></trkpt><trkpt lat="42.3653922" lon="11.156184"><ele>155.33333333333334</ele><time>2026-04-25T09:06:43.884Z</time></trkpt><trkpt lat="42.3653461" lon="11.1560802"><ele>153.0</ele><time>2026-04-25T09:06:46.889Z</time></trkpt><trkpt lat="42.3653024" lon="11.1560082"><ele>153.0</ele><time>2026-04-25T09:06:48.892Z</time></trkpt><trkpt lat="42.365282" lon="11.1559269"><ele>153.0</ele><time>2026-04-25T09:06:50.893Z</time></trkpt><trkpt lat="42.3652657" lon="11.1558258"><ele>153.0</ele><time>2026-04-25T09:06:53.884Z</time></trkpt><trkpt lat="42.3652396" lon="11.1557469"><ele>153.0</ele><time>2026-04-25T09:06:56.887Z</time></trkpt><trkpt lat="42.3652012" lon="11.1556336"><ele>153.0</ele><time>2026-04-25T09:06:59.882Z</time></trkpt><trkpt lat="42.3651494" lon="11.155572"><ele>153.0</ele><time>2026-04-25T09:07:01.884Z</time></trkpt><trkpt lat="42.3650844" lon="11.1555585"><ele>153.0</ele><time>2026-04-25T09:07:03.88Z</time></trkpt><trkpt lat="42.3649958" lon="11.1555826"><ele>150.16666666666666</ele><time>2026-04-25T09:07:05.889Z</time></trkpt><trkpt lat="42.3649168" lon="11.1555934"><ele>147.33333333333334</ele><time>2026-04-25T09:07:07.883Z</time></trkpt><trkpt lat="42.3648503" lon="11.1556126"><ele>144.5</ele><time>2026-04-25T09:07:09.894Z</time></trkpt><trkpt lat="42.3647903" lon="11.1556432"><ele>141.66666666666669</ele><time>2026-04-25T09:07:11.885Z</time></trkpt><trkpt lat="42.3647049" lon="11.1556528"><ele>138.83333333333334</ele><time>2026-04-25T09:07:13.881Z</time></trkpt><trkpt lat="42.3646155" lon="11.1556622"><ele>136.0</ele><time>2026-04-25T09:07:15.881Z</time></trkpt><trkpt lat="42.3645149" lon="11.1556724"><ele>133.6</ele><time>2026-04-25T09:07:17.881Z</time></trkpt><trkpt lat="42.3644188" lon="11.1556609"><ele>131.2</ele><time>2026-04-25T09:07:19.887Z</time></trkpt><trkpt lat="42.3643348" lon="11.155603"><ele>128.8</ele><time>2026-04-25T09:07:21.891Z</time></trkpt><trkpt lat="42.3642419" lon="11.1555779"><ele>126.4</ele><time>2026-04-25T09:07:23.881Z</time></trkpt><trkpt lat="42.3641354" lon="11.1555467"><ele>124.0</ele><time>2026-04-25T09:07:25.886Z</time></trkpt><trkpt lat="42.3640255" lon="11.1555193"><ele>124.00000000000001</ele><time>2026-04-25T09:07:27.887Z</time></trkpt><trkpt lat="42.3639163" lon="11.1554645"><ele>124.0</ele><time>2026-04-25T09:07:29.893Z</time></trkpt><trkpt lat="42.3638537" lon="11.1554367"><ele>124.0</ele><time>2026-04-25T09:07:30.883Z</time></trkpt><trkpt lat="42.3637878" lon="11.1554048"><ele>124.0</ele><time>2026-04-25T09:07:31.898Z</time></trkpt><trkpt lat="42.3637268" lon="11.1553671"><ele>124.00000000000001</ele><time>2026-04-25T09:07:32.891Z</time></trkpt><trkpt lat="42.3636632" lon="11.1553341"><ele>124.0</ele><time>2026-04-25T09:07:33.884Z</time></trkpt><trkpt lat="42.3635625" lon="11.1552631"><ele>116.0</ele><time>2026-04-25T09:07:35.881Z</time></trkpt><trkpt lat="42.3634909" lon="11.155221"><ele>116.0</ele><time>2026-04-25T09:07:37.888Z</time></trkpt></trkseg><trkseg><trkpt lat="42.3635251" lon="11.1552304"><ele>116.0</ele><time>2026-04-25T09:56:00.327Z</time></trkpt><trkpt lat="42.3635869" lon="11.1552563"><ele>116.0</ele><time>2026-04-25T09:56:02.328Z</time></trkpt><trkpt lat="42.3637095" lon="11.1553449"><ele>116.0</ele><time>2026-04-25T09:56:04.34Z</time></trkpt><trkpt lat="42.363787" lon="11.1553886"><ele>116.0</ele><time>2026-04-25T09:56:05.343Z</time></trkpt><trkpt lat="42.3638752" lon="11.1554402"><ele>116.0</ele><time>2026-04-25T09:56:06.339Z</time></trkpt><trkpt lat="42.3639588" lon="11.1554837"><ele>117.33333333333333</ele><time>2026-04-25T09:56:07.344Z</time></trkpt><trkpt lat="42.3640282" lon="11.1555213"><ele>118.66666666666666</ele><time>2026-04-25T09:56:08.339Z</time></trkpt><trkpt lat="42.3641099" lon="11.1555396"><ele>120.0</ele><time>2026-04-25T09:56:09.338Z</time></trkpt><trkpt lat="42.3641961" lon="11.1555602"><ele>121.33333333333334</ele><time>2026-04-25T09:56:10.339Z</time></trkpt><trkpt lat="42.3642812" lon="11.1555831"><ele>122.66666666666667</ele><time>2026-04-25T09:56:11.338Z</time></trkpt><trkpt lat="42.3643686" lon="11.1556068"><ele>124.0</ele><time>2026-04-25T09:56:12.335Z</time></trkpt><trkpt lat="42.3644509" lon="11.1556373"><ele>124.00000000000001</ele><time>2026-04-25T09:56:13.33Z</time></trkpt><trkpt lat="42.3645312" lon="11.1556606"><ele>124.0</ele><time>2026-04-25T09:56:14.338Z</time></trkpt><trkpt lat="42.364613" lon="11.1556719"><ele>124.0</ele><time>2026-04-25T09:56:15.339Z</time></trkpt><trkpt lat="42.3646897" lon="11.1556537"><ele>124.0</ele><time>2026-04-25T09:56:16.342Z</time></trkpt><trkpt lat="42.3647744" lon="11.1556416"><ele>124.00000000000001</ele><time>2026-04-25T09:56:17.341Z</time></trkpt><trkpt lat="42.3648363" lon="11.1556259"><ele>124.0</ele><time>2026-04-25T09:56:18.336Z</time></trkpt><trkpt lat="42.3649401" lon="11.1555966"><ele>126.4</ele><time>2026-04-25T09:56:20.334Z</time></trkpt><trkpt lat="42.3650587" lon="11.155567"><ele>128.8</ele><time>2026-04-25T09:56:22.341Z</time></trkpt><trkpt lat="42.3651637" lon="11.1555549"><ele>131.2</ele><time>2026-04-25T09:56:24.336Z</time></trkpt><trkpt lat="42.3652428" lon="11.1556656"><ele>133.6</ele><time>2026-04-25T09:56:27.337Z</time></trkpt><trkpt lat="42.365283" lon="11.1557862"><ele>136.0</ele><time>2026-04-25T09:56:29.341Z</time></trkpt><trkpt lat="42.365318" lon="11.1558803"><ele>138.83333333333334</ele><time>2026-04-25T09:56:31.335Z</time></trkpt><trkpt lat="42.3653297" lon="11.1559957"><ele>141.66666666666669</ele><time>2026-04-25T09:56:33.338Z</time></trkpt><trkpt lat="42.3653636" lon="11.156083"><ele>144.5</ele><time>2026-04-25T09:56:35.337Z</time></trkpt><trkpt lat="42.3654093" lon="11.1561864"><ele>147.33333333333334</ele><time>2026-04-25T09:56:37.339Z</time></trkpt><trkpt lat="42.3654135" lon="11.1562781"><ele>150.16666666666666</ele><time>2026-04-25T09:56:40.341Z</time></trkpt><trkpt lat="42.365347" lon="11.1562758"><ele>153.0</ele><time>2026-04-25T09:56:49.339Z</time></trkpt><trkpt lat="42.3652452" lon="11.1562698"><ele>153.0</ele><time>2026-04-25T09:56:51.335Z</time></trkpt><trkpt lat="42.3651302" lon="11.156321"><ele>153.0</ele><time>2026-04-25T09:56:53.342Z</time></trkpt><trkpt lat="42.3650659" lon="11.1563655"><ele>153.0</ele><time>2026-04-25T09:56:54.339Z</time></trkpt><trkpt lat="42.365007" lon="11.156407"><ele>153.0</ele><time>2026-04-25T09:56:55.343Z</time></trkpt><trkpt lat="42.3649034" lon="11.1565052"><ele>153.0</ele><time>2026-04-25T09:56:57.339Z</time></trkpt><trkpt lat="42.3648561" lon="11.1565668"><ele>155.33333333333334</ele><time>2026-04-25T09:56:58.335Z</time></trkpt><trkpt lat="42.3648215" lon="11.1566783"><ele>157.66666666666666</ele><time>2026-04-25T09:57:00.334Z</time></trkpt><trkpt lat="42.3648445" lon="11.156831"><ele>160.0</ele><time>2026-04-25T09:57:02.329Z</time></trkpt><trkpt lat="42.364867" lon="11.1569208"><ele>162.33333333333331</ele><time>2026-04-25T09:57:03.331Z</time></trkpt><trkpt lat="42.3648861" lon="11.157005"><ele>164.66666666666666</ele><time>2026-04-25T09:57:04.339Z</time></trkpt><trkpt lat="42.364979" lon="11.1570484"><ele>167.0</ele><time>2026-04-25T09:57:07.339Z</time></trkpt><trkpt lat="42.3650852" lon="11.1570128"><ele>167.0</ele><time>2026-04-25T09:57:09.337Z</time></trkpt><trkpt lat="42.3651508" lon="11.1570294"><ele>167.0</ele><time>2026-04-25T09:57:10.337Z</time></trkpt><trkpt lat="42.3652295" lon="11.1570657"><ele>167.0</ele><time>2026-04-25T09:57:11.34Z</time></trkpt><trkpt lat="42.3653002" lon="11.1571127"><ele>167.0</ele><time>2026-04-25T09:57:12.336Z</time></trkpt><trkpt lat="42.3653774" lon="11.1571665"><ele>167.0</ele><time>2026-04-25T09:57:13.342Z</time></trkpt><trkpt lat="42.3654491" lon="11.1572193"><ele>167.0</ele><time>2026-04-25T09:57:14.331Z</time></trkpt><trkpt lat="42.3655199" lon="11.1572624"><ele>166.8</ele><time>2026-04-25T09:57:15.334Z</time></trkpt><trkpt lat="42.3655921" lon="11.1573196"><ele>166.6</ele><time>2026-04-25T09:57:16.34Z</time></trkpt><trkpt lat="42.3656688" lon="11.1574064"><ele>166.4</ele><time>2026-04-25T09:57:17.346Z</time></trkpt><trkpt lat="42.3657494" lon="11.1574828"><ele>166.20000000000002</ele><time>2026-04-25T09:57:18.333Z</time></trkpt><trkpt lat="42.3658324" lon="11.157543"><ele>166.0</ele><time>2026-04-25T09:57:19.336Z</time></trkpt><trkpt lat="42.3659106" lon="11.1576035"><ele>169.20000000000002</ele><time>2026-04-25T09:57:20.341Z</time></trkpt><trkpt lat="42.3659896" lon="11.1576782"><ele>172.4</ele><time>2026-04-25T09:57:21.339Z</time></trkpt><trkpt lat="42.3660701" lon="11.1577679"><ele>175.6</ele><time>2026-04-25T09:57:22.336Z</time></trkpt><trkpt lat="42.3661499" lon="11.1578431"><ele>178.8</ele><time>2026-04-25T09:57:23.343Z</time></trkpt><trkpt lat="42.3662302" lon="11.1579045"><ele>182.0</ele><time>2026-04-25T09:57:24.34Z</time></trkpt><trkpt lat="42.3663155" lon="11.1579684"><ele>179.8</ele><time>2026-04-25T09:57:25.333Z</time></trkpt><trkpt lat="42.3663987" lon="11.1580287"><ele>177.6</ele><time>2026-04-25T09:57:26.332Z</time></trkpt><trkpt lat="42.3664851" lon="11.1581011"><ele>175.4</ele><time>2026-04-25T09:57:27.331Z</time></trkpt><trkpt lat="42.3665678" lon="11.1581716"><ele>173.20000000000002</ele><time>2026-04-25T09:57:28.337Z</time></trkpt><trkpt lat="42.3666417" lon="11.1582344"><ele>171.0</ele><time>2026-04-25T09:57:29.341Z</time></trkpt><trkpt lat="42.3667199" lon="11.1583062"><ele>174.83333333333334</ele><time>2026-04-25T09:57:30.338Z</time></trkpt><trkpt lat="42.3667918" lon="11.1583923"><ele>178.66666666666669</ele><time>2026-04-25T09:57:31.339Z</time></trkpt><trkpt lat="42.3668613" lon="11.1584716"><ele>182.5</ele><time>2026-04-25T09:57:32.335Z</time></trkpt><trkpt lat="42.3669283" lon="11.1585369"><ele>186.33333333333334</ele><time>2026-04-25T09:57:33.333Z</time></trkpt><trkpt lat="42.366995" lon="11.1585785"><ele>190.16666666666669</ele><time>2026-04-25T09:57:34.328Z</time></trkpt><trkpt lat="42.3670627" lon="11.1586196"><ele>194.0</ele><time>2026-04-25T09:57:35.334Z</time></trkpt><trkpt lat="42.3671304" lon="11.1586597"><ele>194.00000000000003</ele><time>2026-04-25T09:57:36.337Z</time></trkpt><trkpt lat="42.3671919" lon="11.1587"><ele>194.0</ele><time>2026-04-25T09:57:37.348Z</time></trkpt><trkpt lat="42.3672496" lon="11.1587508"><ele>194.0</ele><time>2026-04-25T09:57:38.342Z</time></trkpt><trkpt lat="42.3672992" lon="11.1588066"><ele>194.0</ele><time>2026-04-25T09:57:39.329Z</time></trkpt><trkpt lat="42.3673579" lon="11.1588711"><ele>194.00000000000003</ele><time>2026-04-25T09:57:40.334Z</time></trkpt><trkpt lat="42.3674252" lon="11.1589447"><ele>194.0</ele><time>2026-04-25T09:57:41.329Z</time></trkpt><trkpt lat="42.3675113" lon="11.1590201"><ele>195.50000000000003</ele><time>2026-04-25T09:57:42.331Z</time></trkpt><trkpt lat="42.3676051" lon="11.1591005"><ele>197.0</ele><time>2026-04-25T09:57:43.337Z</time></trkpt><trkpt lat="42.3676986" lon="11.1591746"><ele>198.5</ele><time>2026-04-25T09:57:44.332Z</time></trkpt><trkpt lat="42.3677793" lon="11.1592272"><ele>200.0</ele><time>2026-04-25T09:57:45.333Z</time></trkpt><trkpt lat="42.3678436" lon="11.1592461"><ele>201.50000000000003</ele><time>2026-04-25T09:57:46.338Z</time></trkpt><trkpt lat="42.3679123" lon="11.1592738"><ele>203.0</ele><time>2026-04-25T09:57:47.339Z</time></trkpt><trkpt lat="42.3679823" lon="11.1592967"><ele>202.33333333333334</ele><time>2026-04-25T09:57:48.34Z</time></trkpt><trkpt lat="42.3680602" lon="11.1593215"><ele>201.66666666666669</ele><time>2026-04-25T09:57:49.336Z</time></trkpt><trkpt lat="42.3681578" lon="11.1593506"><ele>201.0</ele><time>2026-04-25T09:57:50.332Z</time></trkpt><trkpt lat="42.3682394" lon="11.1593661"><ele>200.33333333333331</ele><time>2026-04-25T09:57:51.338Z</time></trkpt><trkpt lat="42.3683303" lon="11.1593728"><ele>199.66666666666666</ele><time>2026-04-25T09:57:52.335Z</time></trkpt><trkpt lat="42.3684196" lon="11.1593998"><ele>199.0</ele><time>2026-04-25T09:57:53.335Z</time></trkpt><trkpt lat="42.3685118" lon="11.1594243"><ele>198.99999999999997</ele><time>2026-04-25T09:57:54.333Z</time></trkpt><trkpt lat="42.3686058" lon="11.1594487"><ele>199.0</ele><time>2026-04-25T09:57:55.329Z</time></trkpt><trkpt lat="42.3687113" lon="11.1594754"><ele>199.0</ele><time>2026-04-25T09:57:56.343Z</time></trkpt><trkpt lat="42.3688094" lon="11.159478"><ele>199.0</ele><time>2026-04-25T09:57:57.335Z</time></trkpt><trkpt lat="42.3688858" lon="11.1594931"><ele>198.99999999999997</ele><time>2026-04-25T09:57:58.334Z</time></trkpt><trkpt lat="42.3689481" lon="11.1595226"><ele>199.0</ele><time>2026-04-25T09:57:59.336Z</time></trkpt><trkpt lat="42.369013" lon="11.1595512"><ele>197.99999999999997</ele><time>2026-04-25T09:58:00.34Z</time></trkpt><trkpt lat="42.3690806" lon="11.1595745"><ele>197.0</ele><time>2026-04-25T09:58:01.333Z</time></trkpt><trkpt lat="42.3691561" lon="11.159608"><ele>196.0</ele><time>2026-04-25T09:58:02.333Z</time></trkpt><trkpt lat="42.369228" lon="11.1596588"><ele>195.0</ele><time>2026-04-25T09:58:03.338Z</time></trkpt><trkpt lat="42.3693085" lon="11.1597162"><ele>193.99999999999997</ele><time>2026-04-25T09:58:04.335Z</time></trkpt><trkpt lat="42.3693807" lon="11.1597663"><ele>193.0</ele><time>2026-04-25T09:58:05.333Z</time></trkpt><trkpt lat="42.3694553" lon="11.1598332"><ele>196.4</ele><time>2026-04-25T09:58:06.336Z</time></trkpt><trkpt lat="42.3695284" lon="11.1599038"><ele>199.8</ele><time>2026-04-25T09:58:07.342Z</time></trkpt><trkpt lat="42.3695831" lon="11.1599714"><ele>203.2</ele><time>2026-04-25T09:58:08.333Z</time></trkpt><trkpt lat="42.3696864" lon="11.1600173"><ele>206.6</ele><time>2026-04-25T09:58:10.338Z</time></trkpt><trkpt lat="42.3697722" lon="11.159984"><ele>210.0</ele><time>2026-04-25T09:58:12.336Z</time></trkpt><trkpt lat="42.3698347" lon="11.1598809"><ele>208.66666666666666</ele><time>2026-04-25T09:58:14.326Z</time></trkpt><trkpt lat="42.369884" lon="11.1597796"><ele>207.33333333333331</ele><time>2026-04-25T09:58:15.339Z</time></trkpt><trkpt lat="42.3699297" lon="11.1596595"><ele>206.0</ele><time>2026-04-25T09:58:16.34Z</time></trkpt><trkpt lat="42.3699802" lon="11.1595421"><ele>204.66666666666666</ele><time>2026-04-25T09:58:17.336Z</time></trkpt><trkpt lat="42.3700217" lon="11.1594488"><ele>203.33333333333331</ele><time>2026-04-25T09:58:18.347Z</time></trkpt><trkpt lat="42.3700703" lon="11.1593808"><ele>202.0</ele><time>2026-04-25T09:58:19.335Z</time></trkpt><trkpt lat="42.3701308" lon="11.1593129"><ele>202.0</ele><time>2026-04-25T09:58:20.33Z</time></trkpt><trkpt lat="42.370206" lon="11.1592539"><ele>202.0</ele><time>2026-04-25T09:58:21.335Z</time></trkpt><trkpt lat="42.3703054" lon="11.1591964"><ele>202.0</ele><time>2026-04-25T09:58:22.335Z</time></trkpt><trkpt lat="42.3704039" lon="11.159151"><ele>202.0</ele><time>2026-04-25T09:58:23.344Z</time></trkpt><trkpt lat="42.3704939" lon="11.1591022"><ele>202.0</ele><time>2026-04-25T09:58:24.332Z</time></trkpt><trkpt lat="42.3705591" lon="11.1590487"><ele>203.66666666666666</ele><time>2026-04-25T09:58:25.339Z</time></trkpt><trkpt lat="42.3706176" lon="11.1589843"><ele>205.33333333333331</ele><time>2026-04-25T09:58:26.346Z</time></trkpt><trkpt lat="42.3706727" lon="11.1588939"><ele>207.0</ele><time>2026-04-25T09:58:27.339Z</time></trkpt><trkpt lat="42.3707287" lon="11.1587874"><ele>208.66666666666669</ele><time>2026-04-25T09:58:28.331Z</time></trkpt><trkpt lat="42.3707696" lon="11.1586813"><ele>210.33333333333334</ele><time>2026-04-25T09:58:29.337Z</time></trkpt><trkpt lat="42.3707981" lon="11.1585855"><ele>212.0</ele><time>2026-04-25T09:58:30.339Z</time></trkpt><trkpt lat="42.3708372" lon="11.1584892"><ele>212.00000000000003</ele><time>2026-04-25T09:58:32.334Z</time></trkpt><trkpt lat="42.3708867" lon="11.1585597"><ele>212.0</ele><time>2026-04-25T09:58:36.334Z</time></trkpt><trkpt lat="42.370884" lon="11.1586594"><ele>212.0</ele><time>2026-04-25T09:58:37.331Z</time></trkpt><trkpt lat="42.370864" lon="11.1587694"><ele>212.0</ele><time>2026-04-25T09:58:38.331Z</time></trkpt><trkpt lat="42.3708327" lon="11.1588904"><ele>212.00000000000003</ele><time>2026-04-25T09:58:39.337Z</time></trkpt><trkpt lat="42.3707958" lon="11.1589954"><ele>212.0</ele><time>2026-04-25T09:58:40.329Z</time></trkpt><trkpt lat="42.3707325" lon="11.1590987"><ele>210.0</ele><time>2026-04-25T09:58:41.337Z</time></trkpt><trkpt lat="42.3706516" lon="11.1591954"><ele>208.0</ele><time>2026-04-25T09:58:42.336Z</time></trkpt><trkpt lat="42.3705706" lon="11.159299"><ele>206.0</ele><time>2026-04-25T09:58:43.337Z</time></trkpt><trkpt lat="42.3704899" lon="11.159406"><ele>204.0</ele><time>2026-04-25T09:58:44.331Z</time></trkpt><trkpt lat="42.3704171" lon="11.1594877"><ele>202.0</ele><time>2026-04-25T09:58:45.34Z</time></trkpt><trkpt lat="42.3703561" lon="11.1595592"><ele>201.99999999999997</ele><time>2026-04-25T09:58:46.333Z</time></trkpt><trkpt lat="42.3703218" lon="11.159647"><ele>202.0</ele><time>2026-04-25T09:58:47.333Z</time></trkpt><trkpt lat="42.3703148" lon="11.1597468"><ele>202.0</ele><time>2026-04-25T09:58:48.331Z</time></trkpt><trkpt lat="42.3703201" lon="11.1598521"><ele>202.0</ele><time>2026-04-25T09:58:49.34Z</time></trkpt><trkpt lat="42.3703347" lon="11.159955"><ele>201.99999999999997</ele><time>2026-04-25T09:58:50.334Z</time></trkpt><trkpt lat="42.3703675" lon="11.1600774"><ele>202.0</ele><time>2026-04-25T09:58:51.332Z</time></trkpt><trkpt lat="42.3704171" lon="11.1602476"><ele>204.6</ele><time>2026-04-25T09:58:52.337Z</time></trkpt><trkpt lat="42.3704688" lon="11.1604019"><ele>207.2</ele><time>2026-04-25T09:58:53.338Z</time></trkpt><trkpt lat="42.3705221" lon="11.1605267"><ele>209.8</ele><time>2026-04-25T09:58:54.336Z</time></trkpt><trkpt lat="42.3705723" lon="11.1606306"><ele>212.4</ele><time>2026-04-25T09:58:55.337Z</time></trkpt><trkpt lat="42.3706181" lon="11.1607112"><ele>215.0</ele><time>2026-04-25T09:58:56.338Z</time></trkpt><trkpt lat="42.3706577" lon="11.1607887"><ele>219.6</ele><time>2026-04-25T09:58:57.336Z</time></trkpt><trkpt lat="42.3706893" lon="11.1608697"><ele>224.2</ele><time>2026-04-25T09:58:58.338Z</time></trkpt><trkpt lat="42.3707388" lon="11.1610181"><ele>228.8</ele><time>2026-04-25T09:59:00.335Z</time></trkpt><trkpt lat="42.3707633" lon="11.161164"><ele>233.4</ele><time>2026-04-25T09:59:02.331Z</time></trkpt><trkpt lat="42.3707611" lon="11.1612522"><ele>238.0</ele><time>2026-04-25T09:59:03.334Z</time></trkpt><trkpt lat="42.3707375" lon="11.1614261"><ele>238.0</ele><time>2026-04-25T09:59:05.339Z</time></trkpt><trkpt lat="42.3707393" lon="11.1615259"><ele>238.0</ele><time>2026-04-25T09:59:06.333Z</time></trkpt><trkpt lat="42.3707634" lon="11.161663"><ele>238.0</ele><time>2026-04-25T09:59:07.342Z</time></trkpt><trkpt lat="42.3707923" lon="11.1618239"><ele>238.0</ele><time>2026-04-25T09:59:08.334Z</time></trkpt><trkpt lat="42.3708186" lon="11.16198"><ele>238.0</ele><time>2026-04-25T09:59:09.337Z</time></trkpt><trkpt lat="42.3708452" lon="11.1621322"><ele>234.75</ele><time>2026-04-25T09:59:10.339Z</time></trkpt><trkpt lat="42.3708741" lon="11.162295"><ele>231.5</ele><time>2026-04-25T09:59:11.341Z</time></trkpt><trkpt lat="42.3709095" lon="11.1624502"><ele>228.25</ele><time>2026-04-25T09:59:12.346Z</time></trkpt><trkpt lat="42.3709411" lon="11.1625947"><ele>225.0</ele><time>2026-04-25T09:59:13.331Z</time></trkpt><trkpt lat="42.370969" lon="11.1627385"><ele>222.75</ele><time>2026-04-25T09:59:14.334Z</time></trkpt><trkpt lat="42.3710027" lon="11.1628756"><ele>220.5</ele><time>2026-04-25T09:59:15.331Z</time></trkpt><trkpt lat="42.3710431" lon="11.1630114"><ele>218.25</ele><time>2026-04-25T09:59:16.328Z</time></trkpt><trkpt lat="42.3710702" lon="11.1631752"><ele>216.0</ele><time>2026-04-25T09:59:17.337Z</time></trkpt><trkpt lat="42.3710909" lon="11.1633721"><ele>214.8</ele><time>2026-04-25T09:59:18.333Z</time></trkpt><trkpt lat="42.3711019" lon="11.1635419"><ele>213.60000000000002</ele><time>2026-04-25T09:59:19.348Z</time></trkpt><trkpt lat="42.3710994" lon="11.1636865"><ele>212.4</ele><time>2026-04-25T09:59:20.335Z</time></trkpt><trkpt lat="42.3710823" lon="11.1638196"><ele>211.2</ele><time>2026-04-25T09:59:21.335Z</time></trkpt><trkpt lat="42.3710577" lon="11.1639431"><ele>210.0</ele><time>2026-04-25T09:59:22.335Z</time></trkpt><trkpt lat="42.3710402" lon="11.164055"><ele>209.16666666666666</ele><time>2026-04-25T09:59:23.335Z</time></trkpt><trkpt lat="42.3710328" lon="11.1641577"><ele>208.33333333333331</ele><time>2026-04-25T09:59:24.337Z</time></trkpt><trkpt lat="42.371038" lon="11.1642598"><ele>207.5</ele><time>2026-04-25T09:59:25.336Z</time></trkpt><trkpt lat="42.3710451" lon="11.164364"><ele>206.66666666666666</ele><time>2026-04-25T09:59:26.328Z</time></trkpt><trkpt lat="42.3710491" lon="11.164468"><ele>205.83333333333331</ele><time>2026-04-25T09:59:27.336Z</time></trkpt><trkpt lat="42.3710539" lon="11.1645742"><ele>205.0</ele><time>2026-04-25T09:59:28.33Z</time></trkpt><trkpt lat="42.3710609" lon="11.1646735"><ele>205.0</ele><time>2026-04-25T09:59:29.333Z</time></trkpt><trkpt lat="42.3710664" lon="11.1647938"><ele>205.0</ele><time>2026-04-25T09:59:30.329Z</time></trkpt><trkpt lat="42.371067" lon="11.1649167"><ele>205.0</ele><time>2026-04-25T09:59:31.339Z</time></trkpt><trkpt lat="42.371064" lon="11.1650527"><ele>205.0</ele><time>2026-04-25T09:59:32.332Z</time></trkpt><trkpt lat="42.3710578" lon="11.1651923"><ele>205.0</ele><time>2026-04-25T09:59:33.337Z</time></trkpt><trkpt lat="42.3710491" lon="11.1653465"><ele>204.0</ele><time>2026-04-25T09:59:34.336Z</time></trkpt><trkpt lat="42.3710315" lon="11.1655048"><ele>203.0</ele><time>2026-04-25T09:59:35.337Z</time></trkpt><trkpt lat="42.3710169" lon="11.1656463"><ele>202.0</ele><time>2026-04-25T09:59:36.336Z</time></trkpt><trkpt lat="42.3710098" lon="11.1657678"><ele>201.0</ele><time>2026-04-25T09:59:37.341Z</time></trkpt><trkpt lat="42.3710035" lon="11.1658535"><ele>200.0</ele><time>2026-04-25T09:59:38.335Z</time></trkpt><trkpt lat="42.3710326" lon="11.1659811"><ele>198.83333333333334</ele><time>2026-04-25T09:59:40.34Z</time></trkpt><trkpt lat="42.3711234" lon="11.1660707"><ele>197.66666666666669</ele><time>2026-04-25T09:59:42.331Z</time></trkpt><trkpt lat="42.3711869" lon="11.1660891"><ele>196.5</ele><time>2026-04-25T09:59:43.336Z</time></trkpt><trkpt lat="42.3712697" lon="11.1660972"><ele>195.33333333333331</ele><time>2026-04-25T09:59:44.341Z</time></trkpt><trkpt lat="42.3713547" lon="11.1660937"><ele>194.16666666666666</ele><time>2026-04-25T09:59:45.335Z</time></trkpt><trkpt lat="42.37142" lon="11.1660894"><ele>193.0</ele><time>2026-04-25T09:59:46.333Z</time></trkpt><trkpt lat="42.3714967" lon="11.1661278"><ele>196.33333333333331</ele><time>2026-04-25T09:59:48.332Z</time></trkpt><trkpt lat="42.3715045" lon="11.1662616"><ele>199.66666666666666</ele><time>2026-04-25T09:59:50.339Z</time></trkpt><trkpt lat="42.3714669" lon="11.1663551"><ele>203.0</ele><time>2026-04-25T09:59:51.337Z</time></trkpt><trkpt lat="42.3714289" lon="11.1664444"><ele>206.33333333333331</ele><time>2026-04-25T09:59:52.338Z</time></trkpt><trkpt lat="42.3714024" lon="11.1665452"><ele>209.66666666666666</ele><time>2026-04-25T09:59:53.343Z</time></trkpt><trkpt lat="42.3714073" lon="11.1666585"><ele>213.0</ele><time>2026-04-25T09:59:54.337Z</time></trkpt><trkpt lat="42.3714106" lon="11.1667731"><ele>213.0</ele><time>2026-04-25T09:59:55.341Z</time></trkpt><trkpt lat="42.3713866" lon="11.1668925"><ele>213.0</ele><time>2026-04-25T09:59:56.339Z</time></trkpt><trkpt lat="42.3713375" lon="11.1670138"><ele>213.0</ele><time>2026-04-25T09:59:57.331Z</time></trkpt><trkpt lat="42.3712752" lon="11.1671405"><ele>213.0</ele><time>2026-04-25T09:59:58.341Z</time></trkpt><trkpt lat="42.3712035" lon="11.1673089"><ele>205.0</ele><time>2026-04-25T09:59:59.339Z</time></trkpt><trkpt lat="42.3711427" lon="11.1674875"><ele>197.0</ele><time>2026-04-25T10:00:00.34Z</time></trkpt><trkpt lat="42.3710814" lon="11.16765"><ele>189.0</ele><time>2026-04-25T10:00:01.34Z</time></trkpt><trkpt lat="42.3710178" lon="11.1677938"><ele>181.0</ele><time>2026-04-25T10:00:02.33Z</time></trkpt><trkpt lat="42.3709757" lon="11.1679138"><ele>181.0</ele><time>2026-04-25T10:00:03.334Z</time></trkpt><trkpt lat="42.370938" lon="11.1680499"><ele>181.0</ele><time>2026-04-25T10:00:04.342Z</time></trkpt><trkpt lat="42.3708925" lon="11.1682076"><ele>181.0</ele><time>2026-04-25T10:00:05.336Z</time></trkpt><trkpt lat="42.3708426" lon="11.1683443"><ele>181.0</ele><time>2026-04-25T10:00:06.341Z</time></trkpt><trkpt lat="42.3707979" lon="11.168471"><ele>181.0</ele><time>2026-04-25T10:00:07.332Z</time></trkpt><trkpt lat="42.3707701" lon="11.168595"><ele>181.8</ele><time>2026-04-25T10:00:08.333Z</time></trkpt><trkpt lat="42.3707635" lon="11.1687089"><ele>182.60000000000002</ele><time>2026-04-25T10:00:09.332Z</time></trkpt><trkpt lat="42.3707844" lon="11.1688364"><ele>183.4</ele><time>2026-04-25T10:00:10.33Z</time></trkpt><trkpt lat="42.370816" lon="11.168996"><ele>184.2</ele><time>2026-04-25T10:00:11.332Z</time></trkpt><trkpt lat="42.3708436" lon="11.1691661"><ele>185.0</ele><time>2026-04-25T10:00:12.331Z</time></trkpt><trkpt lat="42.3708502" lon="11.1693149"><ele>185.0</ele><time>2026-04-25T10:00:13.33Z</time></trkpt><trkpt lat="42.370848" lon="11.1694314"><ele>185.0</ele><time>2026-04-25T10:00:14.342Z</time></trkpt><trkpt lat="42.3708349" lon="11.1695178"><ele>185.0</ele><time>2026-04-25T10:00:15.34Z</time></trkpt><trkpt lat="42.3707963" lon="11.1696269"><ele>185.0</ele><time>2026-04-25T10:00:16.332Z</time></trkpt><trkpt lat="42.3707357" lon="11.1697555"><ele>185.0</ele><time>2026-04-25T10:00:17.333Z</time></trkpt><trkpt lat="42.3706808" lon="11.1698573"><ele>185.0</ele><time>2026-04-25T10:00:18.336Z</time></trkpt><trkpt lat="42.3706378" lon="11.1699366"><ele>183.5</ele><time>2026-04-25T10:00:19.333Z</time></trkpt><trkpt lat="42.3706318" lon="11.1700601"><ele>182.0</ele><time>2026-04-25T10:00:21.338Z</time></trkpt><trkpt lat="42.3707179" lon="11.1701861"><ele>180.5</ele><time>2026-04-25T10:00:23.341Z</time></trkpt><trkpt lat="42.3708123" lon="11.1702656"><ele>179.0</ele><time>2026-04-25T10:00:24.331Z</time></trkpt><trkpt lat="42.3709335" lon="11.170336"><ele>179.0</ele><time>2026-04-25T10:00:25.328Z</time></trkpt><trkpt lat="42.371054" lon="11.1703991"><ele>179.0</ele><time>2026-04-25T10:00:26.33Z</time></trkpt><trkpt lat="42.3711685" lon="11.1704551"><ele>179.0</ele><time>2026-04-25T10:00:27.332Z</time></trkpt><trkpt lat="42.3712943" lon="11.1704988"><ele>179.0</ele><time>2026-04-25T10:00:28.336Z</time></trkpt><trkpt lat="42.371416" lon="11.1705358"><ele>177.79999999999998</ele><time>2026-04-25T10:00:29.338Z</time></trkpt><trkpt lat="42.3715289" lon="11.170579"><ele>176.6</ele><time>2026-04-25T10:00:30.338Z</time></trkpt><trkpt lat="42.3716362" lon="11.1706443"><ele>175.4</ele><time>2026-04-25T10:00:31.338Z</time></trkpt><trkpt lat="42.3717337" lon="11.1706985"><ele>174.2</ele><time>2026-04-25T10:00:32.335Z</time></trkpt><trkpt lat="42.3718059" lon="11.1707405"><ele>173.0</ele><time>2026-04-25T10:00:33.334Z</time></trkpt><trkpt lat="42.3718689" lon="11.1708061"><ele>173.0</ele><time>2026-04-25T10:00:34.339Z</time></trkpt><trkpt lat="42.3719216" lon="11.1709124"><ele>173.0</ele><time>2026-04-25T10:00:35.337Z</time></trkpt><trkpt lat="42.3719757" lon="11.1710507"><ele>173.0</ele><time>2026-04-25T10:00:36.329Z</time></trkpt><trkpt lat="42.3720382" lon="11.1712125"><ele>173.0</ele><time>2026-04-25T10:00:37.335Z</time></trkpt><trkpt lat="42.3720921" lon="11.1713626"><ele>177.75</ele><time>2026-04-25T10:00:38.328Z</time></trkpt><trkpt lat="42.3721377" lon="11.1715266"><ele>182.5</ele><time>2026-04-25T10:00:39.327Z</time></trkpt><trkpt lat="42.3721766" lon="11.1717022"><ele>187.25</ele><time>2026-04-25T10:00:40.325Z</time></trkpt><trkpt lat="42.3721957" lon="11.171845"><ele>192.0</ele><time>2026-04-25T10:00:41.325Z</time></trkpt><trkpt lat="42.3722215" lon="11.1719999"><ele>192.0</ele><time>2026-04-25T10:00:42.331Z</time></trkpt><trkpt lat="42.3722496" lon="11.1721473"><ele>192.0</ele><time>2026-04-25T10:00:43.329Z</time></trkpt><trkpt lat="42.3722895" lon="11.1722866"><ele>192.0</ele><time>2026-04-25T10:00:44.327Z</time></trkpt><trkpt lat="42.372345" lon="11.1724168"><ele>192.0</ele><time>2026-04-25T10:00:45.333Z</time></trkpt><trkpt lat="42.3723951" lon="11.1725458"><ele>192.0</ele><time>2026-04-25T10:00:46.327Z</time></trkpt><trkpt lat="42.3724296" lon="11.1726828"><ele>188.0</ele><time>2026-04-25T10:00:47.329Z</time></trkpt><trkpt lat="42.3724665" lon="11.1728294"><ele>184.0</ele><time>2026-04-25T10:00:48.327Z</time></trkpt><trkpt lat="42.3725058" lon="11.1729475"><ele>180.0</ele><time>2026-04-25T10:00:49.345Z</time></trkpt><trkpt lat="42.3725504" lon="11.1730346"><ele>176.0</ele><time>2026-04-25T10:00:50.329Z</time></trkpt><trkpt lat="42.3726157" lon="11.1731079"><ele>172.0</ele><time>2026-04-25T10:00:51.332Z</time></trkpt><trkpt lat="42.3727075" lon="11.1731847"><ele>174.75</ele><time>2026-04-25T10:00:52.339Z</time></trkpt><trkpt lat="42.3728063" lon="11.1732849"><ele>177.5</ele><time>2026-04-25T10:00:53.335Z</time></trkpt><trkpt lat="42.3729119" lon="11.1734352"><ele>180.25</ele><time>2026-04-25T10:00:54.334Z</time></trkpt><trkpt lat="42.3730103" lon="11.1735672"><ele>183.0</ele><time>2026-04-25T10:00:55.335Z</time></trkpt><trkpt lat="42.3730793" lon="11.1736752"><ele>183.0</ele><time>2026-04-25T10:00:56.341Z</time></trkpt><trkpt lat="42.3731463" lon="11.1737665"><ele>183.0</ele><time>2026-04-25T10:00:57.334Z</time></trkpt><trkpt lat="42.3732039" lon="11.1738379"><ele>183.0</ele><time>2026-04-25T10:00:58.335Z</time></trkpt><trkpt lat="42.3732458" lon="11.173905"><ele>183.0</ele><time>2026-04-25T10:00:59.344Z</time></trkpt><trkpt lat="42.3732866" lon="11.1740571"><ele>183.0</ele><time>2026-04-25T10:01:01.338Z</time></trkpt><trkpt lat="42.3733058" lon="11.174148"><ele>183.0</ele><time>2026-04-25T10:01:02.331Z</time></trkpt><trkpt lat="42.3733278" lon="11.1742637"><ele>179.60000000000002</ele><time>2026-04-25T10:01:03.337Z</time></trkpt><trkpt lat="42.373359" lon="11.1744094"><ele>176.20000000000002</ele><time>2026-04-25T10:01:04.339Z</time></trkpt><trkpt lat="42.3733879" lon="11.1745376"><ele>172.8</ele><time>2026-04-25T10:01:05.339Z</time></trkpt><trkpt lat="42.3734189" lon="11.174661"><ele>169.4</ele><time>2026-04-25T10:01:06.329Z</time></trkpt><trkpt lat="42.3734473" lon="11.1747889"><ele>166.0</ele><time>2026-04-25T10:01:07.334Z</time></trkpt><trkpt lat="42.3734732" lon="11.1749057"><ele>163.8</ele><time>2026-04-25T10:01:08.333Z</time></trkpt><trkpt lat="42.3734998" lon="11.1750169"><ele>161.60000000000002</ele><time>2026-04-25T10:01:09.337Z</time></trkpt><trkpt lat="42.3735297" lon="11.1751273"><ele>159.4</ele><time>2026-04-25T10:01:10.326Z</time></trkpt><trkpt lat="42.3735801" lon="11.1752443"><ele>157.2</ele><time>2026-04-25T10:01:11.331Z</time></trkpt><trkpt lat="42.3736456" lon="11.1753548"><ele>155.0</ele><time>2026-04-25T10:01:12.33Z</time></trkpt><trkpt lat="42.3737108" lon="11.1754612"><ele>155.0</ele><time>2026-04-25T10:01:13.335Z</time></trkpt><trkpt lat="42.3737589" lon="11.1755431"><ele>155.0</ele><time>2026-04-25T10:01:14.328Z</time></trkpt><trkpt lat="42.3737886" lon="11.1756218"><ele>155.0</ele><time>2026-04-25T10:01:15.333Z</time></trkpt><trkpt lat="42.3737999" lon="11.1757917"><ele>155.0</ele><time>2026-04-25T10:01:17.34Z</time></trkpt><trkpt lat="42.3737658" lon="11.1758857"><ele>155.0</ele><time>2026-04-25T10:01:18.338Z</time></trkpt><trkpt lat="42.3737068" lon="11.1760043"><ele>154.75</ele><time>2026-04-25T10:01:19.322Z</time></trkpt><trkpt lat="42.3736182" lon="11.1761357"><ele>154.5</ele><time>2026-04-25T10:01:20.336Z</time></trkpt><trkpt lat="42.3735327" lon="11.1762915"><ele>154.25</ele><time>2026-04-25T10:01:21.335Z</time></trkpt><trkpt lat="42.3734301" lon="11.1764418"><ele>154.0</ele><time>2026-04-25T10:01:22.33Z</time></trkpt><trkpt lat="42.3733168" lon="11.1765673"><ele>153.0</ele><time>2026-04-25T10:01:23.335Z</time></trkpt><trkpt lat="42.3732199" lon="11.1766769"><ele>152.0</ele><time>2026-04-25T10:01:24.334Z</time></trkpt><trkpt lat="42.3731413" lon="11.1767505"><ele>151.0</ele><time>2026-04-25T10:01:25.331Z</time></trkpt><trkpt lat="42.3730098" lon="11.1768228"><ele>150.0</ele><time>2026-04-25T10:01:26.333Z</time></trkpt><trkpt lat="42.3728779" lon="11.1768903"><ele>150.0</ele><time>2026-04-25T10:01:27.333Z</time></trkpt><trkpt lat="42.3727707" lon="11.1769344"><ele>150.0</ele><time>2026-04-25T10:01:28.332Z</time></trkpt><trkpt lat="42.3726589" lon="11.1769665"><ele>150.0</ele><time>2026-04-25T10:01:29.328Z</time></trkpt><trkpt lat="42.3725305" lon="11.1769966"><ele>150.0</ele><time>2026-04-25T10:01:30.336Z</time></trkpt><trkpt lat="42.3723943" lon="11.1770485"><ele>150.0</ele><time>2026-04-25T10:01:31.335Z</time></trkpt><trkpt lat="42.3722543" lon="11.1771048"><ele>150.0</ele><time>2026-04-25T10:01:32.331Z</time></trkpt><trkpt lat="42.3721437" lon="11.1771506"><ele>150.0</ele><time>2026-04-25T10:01:33.334Z</time></trkpt><trkpt lat="42.3720597" lon="11.1772051"><ele>150.0</ele><time>2026-04-25T10:01:34.331Z</time></trkpt><trkpt lat="42.3719754" lon="11.1772806"><ele>152.5</ele><time>2026-04-25T10:01:35.333Z</time></trkpt><trkpt lat="42.3718823" lon="11.1774041"><ele>155.0</ele><time>2026-04-25T10:01:36.333Z</time></trkpt><trkpt lat="42.3717913" lon="11.1775549"><ele>157.5</ele><time>2026-04-25T10:01:37.333Z</time></trkpt><trkpt lat="42.3717087" lon="11.1776881"><ele>160.0</ele><time>2026-04-25T10:01:38.331Z</time></trkpt><trkpt lat="42.3716427" lon="11.1777803"><ele>160.0</ele><time>2026-04-25T10:01:39.335Z</time></trkpt><trkpt lat="42.3715916" lon="11.1778672"><ele>160.0</ele><time>2026-04-25T10:01:40.33Z</time></trkpt><trkpt lat="42.3715534" lon="11.177947"><ele>160.0</ele><time>2026-04-25T10:01:41.329Z</time></trkpt><trkpt lat="42.3715442" lon="11.1781112"><ele>160.0</ele><time>2026-04-25T10:01:43.334Z</time></trkpt><trkpt lat="42.371558" lon="11.178197"><ele>160.0</ele><time>2026-04-25T10:01:44.333Z</time></trkpt><trkpt lat="42.371587" lon="11.1783113"><ele>160.0</ele><time>2026-04-25T10:01:45.334Z</time></trkpt><trkpt lat="42.3716375" lon="11.1784494"><ele>162.16666666666669</ele><time>2026-04-25T10:01:46.335Z</time></trkpt><trkpt lat="42.3716844" lon="11.1785924"><ele>164.33333333333334</ele><time>2026-04-25T10:01:47.331Z</time></trkpt><trkpt lat="42.3717204" lon="11.1787003"><ele>166.5</ele><time>2026-04-25T10:01:48.333Z</time></trkpt><trkpt lat="42.3717315" lon="11.1787849"><ele>168.66666666666666</ele><time>2026-04-25T10:01:49.332Z</time></trkpt><trkpt lat="42.3717242" lon="11.178885"><ele>170.83333333333331</ele><time>2026-04-25T10:01:50.334Z</time></trkpt><trkpt lat="42.3716865" lon="11.1790075"><ele>173.0</ele><time>2026-04-25T10:01:51.336Z</time></trkpt><trkpt lat="42.3716132" lon="11.1791577"><ele>174.66666666666666</ele><time>2026-04-25T10:01:52.335Z</time></trkpt><trkpt lat="42.3715161" lon="11.1793281"><ele>176.33333333333334</ele><time>2026-04-25T10:01:53.334Z</time></trkpt><trkpt lat="42.3714246" lon="11.1795065"><ele>178.0</ele><time>2026-04-25T10:01:54.333Z</time></trkpt><trkpt lat="42.3713262" lon="11.179683"><ele>172.25</ele><time>2026-04-25T10:01:55.334Z</time></trkpt><trkpt lat="42.3712318" lon="11.179861"><ele>166.5</ele><time>2026-04-25T10:01:56.335Z</time></trkpt><trkpt lat="42.3711514" lon="11.1800284"><ele>160.75</ele><time>2026-04-25T10:01:57.33Z</time></trkpt><trkpt lat="42.3710724" lon="11.1801521"><ele>155.0</ele><time>2026-04-25T10:01:58.335Z</time></trkpt><trkpt lat="42.3709514" lon="11.1803027"><ele>155.0</ele><time>2026-04-25T10:01:59.335Z</time></trkpt><trkpt lat="42.370816" lon="11.1804525"><ele>155.0</ele><time>2026-04-25T10:02:00.333Z</time></trkpt><trkpt lat="42.370706" lon="11.1805833"><ele>155.0</ele><time>2026-04-25T10:02:01.334Z</time></trkpt><trkpt lat="42.3706134" lon="11.1807087"><ele>153.0</ele><time>2026-04-25T10:02:02.332Z</time></trkpt><trkpt lat="42.3705246" lon="11.1808375"><ele>151.0</ele><time>2026-04-25T10:02:03.342Z</time></trkpt><trkpt lat="42.370444" lon="11.1809454"><ele>149.0</ele><time>2026-04-25T10:02:04.328Z</time></trkpt><trkpt lat="42.3703697" lon="11.1810177"><ele>147.0</ele><time>2026-04-25T10:02:05.337Z</time></trkpt><trkpt lat="42.3703083" lon="11.1810942"><ele>145.0</ele><time>2026-04-25T10:02:06.338Z</time></trkpt><trkpt lat="42.3702627" lon="11.181191"><ele>145.0</ele><time>2026-04-25T10:02:07.338Z</time></trkpt><trkpt lat="42.3702388" lon="11.1812868"><ele>145.0</ele><time>2026-04-25T10:02:08.343Z</time></trkpt><trkpt lat="42.370238" lon="11.1813945"><ele>145.0</ele><time>2026-04-25T10:02:09.334Z</time></trkpt><trkpt lat="42.3702551" lon="11.1814866"><ele>145.0</ele><time>2026-04-25T10:02:10.337Z</time></trkpt><trkpt lat="42.3703011" lon="11.1815918"><ele>145.0</ele><time>2026-04-25T10:02:11.335Z</time></trkpt><trkpt lat="42.3703618" lon="11.1816901"><ele>145.0</ele><time>2026-04-25T10:02:12.337Z</time></trkpt><trkpt lat="42.3704166" lon="11.1817746"><ele>149.6</ele><time>2026-04-25T10:02:13.331Z</time></trkpt><trkpt lat="42.3704816" lon="11.1818305"><ele>154.2</ele><time>2026-04-25T10:02:14.331Z</time></trkpt><trkpt lat="42.3705551" lon="11.1818729"><ele>158.8</ele><time>2026-04-25T10:02:15.342Z</time></trkpt><trkpt lat="42.3706433" lon="11.181905"><ele>163.4</ele><time>2026-04-25T10:02:16.336Z</time></trkpt><trkpt lat="42.3707618" lon="11.1819177"><ele>168.0</ele><time>2026-04-25T10:02:17.338Z</time></trkpt><trkpt lat="42.3708952" lon="11.1819238"><ele>169.5</ele><time>2026-04-25T10:02:18.336Z</time></trkpt><trkpt lat="42.371033" lon="11.1819202"><ele>171.0</ele><time>2026-04-25T10:02:19.327Z</time></trkpt><trkpt lat="42.3711778" lon="11.1819306"><ele>172.5</ele><time>2026-04-25T10:02:20.332Z</time></trkpt><trkpt lat="42.3713271" lon="11.1819478"><ele>174.0</ele><time>2026-04-25T10:02:21.333Z</time></trkpt><trkpt lat="42.3714758" lon="11.1819614"><ele>174.0</ele><time>2026-04-25T10:02:22.334Z</time></trkpt><trkpt lat="42.371617" lon="11.1819788"><ele>174.0</ele><time>2026-04-25T10:02:23.338Z</time></trkpt><trkpt lat="42.3717641" lon="11.1819978"><ele>174.0</ele><time>2026-04-25T10:02:24.334Z</time></trkpt><trkpt lat="42.3719025" lon="11.182009"><ele>174.0</ele><time>2026-04-25T10:02:25.341Z</time></trkpt><trkpt lat="42.3720427" lon="11.1820373"><ele>174.0</ele><time>2026-04-25T10:02:26.334Z</time></trkpt><trkpt lat="42.3721796" lon="11.1820804"><ele>174.0</ele><time>2026-04-25T10:02:27.332Z</time></trkpt><trkpt lat="42.3723094" lon="11.1821193"><ele>174.0</ele><time>2026-04-25T10:02:28.339Z</time></trkpt><trkpt lat="42.3724258" lon="11.1821556"><ele>174.0</ele><time>2026-04-25T10:02:29.338Z</time></trkpt><trkpt lat="42.3725405" lon="11.1822075"><ele>172.6</ele><time>2026-04-25T10:02:30.333Z</time></trkpt><trkpt lat="42.37265" lon="11.1822612"><ele>171.2</ele><time>2026-04-25T10:02:31.333Z</time></trkpt><trkpt lat="42.3727523" lon="11.1823095"><ele>169.79999999999998</ele><time>2026-04-25T10:02:32.33Z</time></trkpt><trkpt lat="42.372844" lon="11.182346"><ele>168.39999999999998</ele><time>2026-04-25T10:02:33.331Z</time></trkpt><trkpt lat="42.3729269" lon="11.1823529"><ele>167.0</ele><time>2026-04-25T10:02:34.331Z</time></trkpt><trkpt lat="42.3730185" lon="11.1823288"><ele>165.2</ele><time>2026-04-25T10:02:35.339Z</time></trkpt><trkpt lat="42.3731114" lon="11.1822823"><ele>163.39999999999998</ele><time>2026-04-25T10:02:36.334Z</time></trkpt><trkpt lat="42.3732102" lon="11.1821938"><ele>161.60000000000002</ele><time>2026-04-25T10:02:37.338Z</time></trkpt><trkpt lat="42.3733028" lon="11.182098"><ele>159.8</ele><time>2026-04-25T10:02:38.334Z</time></trkpt><trkpt lat="42.3733876" lon="11.1820196"><ele>158.0</ele><time>2026-04-25T10:02:39.339Z</time></trkpt><trkpt lat="42.3734854" lon="11.1819534"><ele>158.0</ele><time>2026-04-25T10:02:40.331Z</time></trkpt><trkpt lat="42.3735843" lon="11.1819103"><ele>158.0</ele><time>2026-04-25T10:02:41.339Z</time></trkpt><trkpt lat="42.3736676" lon="11.1818856"><ele>158.0</ele><time>2026-04-25T10:02:42.334Z</time></trkpt><trkpt lat="42.3737294" lon="11.1818672"><ele>158.0</ele><time>2026-04-25T10:02:43.335Z</time></trkpt><trkpt lat="42.3738365" lon="11.1818591"><ele>158.0</ele><time>2026-04-25T10:02:45.329Z</time></trkpt><trkpt lat="42.3738969" lon="11.1819716"><ele>158.0</ele><time>2026-04-25T10:02:47.341Z</time></trkpt><trkpt lat="42.3738984" lon="11.1820705"><ele>158.0</ele><time>2026-04-25T10:02:48.332Z</time></trkpt><trkpt lat="42.3738893" lon="11.1821823"><ele>158.0</ele><time>2026-04-25T10:02:49.333Z</time></trkpt><trkpt lat="42.3738533" lon="11.182316"><ele>158.0</ele><time>2026-04-25T10:02:51.327Z</time></trkpt><trkpt lat="42.3737563" lon="11.1824028"><ele>158.0</ele><time>2026-04-25T10:02:53.342Z</time></trkpt><trkpt lat="42.3736935" lon="11.1824176"><ele>158.0</ele><time>2026-04-25T10:02:54.334Z</time></trkpt><trkpt lat="42.3736196" lon="11.1824388"><ele>154.0</ele><time>2026-04-25T10:02:55.337Z</time></trkpt><trkpt lat="42.3735153" lon="11.1824993"><ele>150.0</ele><time>2026-04-25T10:02:57.332Z</time></trkpt><trkpt lat="42.3734941" lon="11.1826941"><ele>146.0</ele><time>2026-04-25T10:02:59.334Z</time></trkpt><trkpt lat="42.3735129" lon="11.1828051"><ele>142.0</ele><time>2026-04-25T10:03:00.336Z</time></trkpt><trkpt lat="42.3735404" lon="11.1828944"><ele>138.0</ele><time>2026-04-25T10:03:01.349Z</time></trkpt><trkpt lat="42.3736344" lon="11.1829585"><ele>138.0</ele><time>2026-04-25T10:03:03.329Z</time></trkpt><trkpt lat="42.3737129" lon="11.1829595"><ele>138.0</ele><time>2026-04-25T10:03:04.337Z</time></trkpt><trkpt lat="42.3737939" lon="11.1829648"><ele>138.0</ele><time>2026-04-25T10:03:05.337Z</time></trkpt><trkpt lat="42.3738595" lon="11.1829843"><ele>138.0</ele><time>2026-04-25T10:03:06.351Z</time></trkpt><trkpt lat="42.3739256" lon="11.1830192"><ele>138.0</ele><time>2026-04-25T10:03:07.333Z</time></trkpt><trkpt lat="42.3739908" lon="11.1830741"><ele>138.0</ele><time>2026-04-25T10:03:08.329Z</time></trkpt><trkpt lat="42.3740523" lon="11.1831522"><ele>134.4</ele><time>2026-04-25T10:03:09.33Z</time></trkpt><trkpt lat="42.3741077" lon="11.1832331"><ele>130.8</ele><time>2026-04-25T10:03:10.334Z</time></trkpt><trkpt lat="42.3741613" lon="11.1832997"><ele>127.2</ele><time>2026-04-25T10:03:11.331Z</time></trkpt><trkpt lat="42.3742245" lon="11.1834221"><ele>123.6</ele><time>2026-04-25T10:03:13.336Z</time></trkpt><trkpt lat="42.374211" lon="11.1835274"><ele>120.0</ele><time>2026-04-25T10:03:15.334Z</time></trkpt><trkpt lat="42.3740915" lon="11.1835726"><ele>120.0</ele><time>2026-04-25T10:03:17.336Z</time></trkpt><trkpt lat="42.3740162" lon="11.1835909"><ele>120.0</ele><time>2026-04-25T10:03:18.324Z</time></trkpt><trkpt lat="42.3739548" lon="11.1836505"><ele>120.0</ele><time>2026-04-25T10:03:19.334Z</time></trkpt><trkpt lat="42.3738948" lon="11.1837417"><ele>120.0</ele><time>2026-04-25T10:03:20.332Z</time></trkpt><trkpt lat="42.3738393" lon="11.1838413"><ele>120.0</ele><time>2026-04-25T10:03:21.337Z</time></trkpt><trkpt lat="42.3737909" lon="11.1839271"><ele>120.0</ele><time>2026-04-25T10:03:22.337Z</time></trkpt><trkpt lat="42.3737494" lon="11.1840213"><ele>117.66666666666667</ele><time>2026-04-25T10:03:24.336Z</time></trkpt><trkpt lat="42.3738079" lon="11.1841221"><ele>115.33333333333334</ele><time>2026-04-25T10:03:26.334Z</time></trkpt><trkpt lat="42.3738646" lon="11.184167"><ele>113.0</ele><time>2026-04-25T10:03:27.335Z</time></trkpt><trkpt lat="42.3739323" lon="11.1842095"><ele>110.66666666666667</ele><time>2026-04-25T10:03:28.34Z</time></trkpt><trkpt lat="42.3740091" lon="11.1842606"><ele>108.33333333333334</ele><time>2026-04-25T10:03:29.34Z</time></trkpt><trkpt lat="42.37408" lon="11.1843122"><ele>106.0</ele><time>2026-04-25T10:03:30.335Z</time></trkpt><trkpt lat="42.3741493" lon="11.1843742"><ele>104.66666666666667</ele><time>2026-04-25T10:03:31.341Z</time></trkpt><trkpt lat="42.3742024" lon="11.1844509"><ele>103.33333333333334</ele><time>2026-04-25T10:03:32.338Z</time></trkpt><trkpt lat="42.3742214" lon="11.1845474"><ele>102.0</ele><time>2026-04-25T10:03:33.343Z</time></trkpt><trkpt lat="42.3742307" lon="11.1846429"><ele>100.66666666666666</ele><time>2026-04-25T10:03:34.339Z</time></trkpt><trkpt lat="42.3742273" lon="11.1847417"><ele>99.33333333333333</ele><time>2026-04-25T10:03:35.334Z</time></trkpt><trkpt lat="42.3742265" lon="11.1848564"><ele>98.0</ele><time>2026-04-25T10:03:36.331Z</time></trkpt><trkpt lat="42.3742402" lon="11.1849686"><ele>93.80000000000001</ele><time>2026-04-25T10:03:37.334Z</time></trkpt><trkpt lat="42.3742542" lon="11.1850687"><ele>89.60000000000001</ele><time>2026-04-25T10:03:38.337Z</time></trkpt><trkpt lat="42.3742872" lon="11.1851726"><ele>85.4</ele><time>2026-04-25T10:03:39.333Z</time></trkpt><trkpt lat="42.3743328" lon="11.1852837"><ele>81.2</ele><time>2026-04-25T10:03:40.334Z</time></trkpt><trkpt lat="42.3743815" lon="11.1853891"><ele>77.0</ele><time>2026-04-25T10:03:41.339Z</time></trkpt><trkpt lat="42.3744479" lon="11.1855105"><ele>77.0</ele><time>2026-04-25T10:03:42.326Z</time></trkpt><trkpt lat="42.3745255" lon="11.1856352"><ele>77.0</ele><time>2026-04-25T10:03:43.339Z</time></trkpt><trkpt lat="42.3745922" lon="11.1857354"><ele>77.0</ele><time>2026-04-25T10:03:44.337Z</time></trkpt><trkpt lat="42.3746521" lon="11.1858236"><ele>77.0</ele><time>2026-04-25T10:03:45.334Z</time></trkpt><trkpt lat="42.3747173" lon="11.1859"><ele>77.0</ele><time>2026-04-25T10:03:46.336Z</time></trkpt><trkpt lat="42.3747776" lon="11.1859681"><ele>76.14285714285714</ele><time>2026-04-25T10:03:47.335Z</time></trkpt><trkpt lat="42.3748243" lon="11.1860421"><ele>75.28571428571428</ele><time>2026-04-25T10:03:48.337Z</time></trkpt><trkpt lat="42.3748574" lon="11.1861303"><ele>74.42857142857143</ele><time>2026-04-25T10:03:49.331Z</time></trkpt><trkpt lat="42.3748823" lon="11.186216"><ele>73.57142857142857</ele><time>2026-04-25T10:03:50.327Z</time></trkpt><trkpt lat="42.3749" lon="11.1863095"><ele>72.71428571428571</ele><time>2026-04-25T10:03:51.333Z</time></trkpt><trkpt lat="42.3749145" lon="11.1863979"><ele>71.85714285714286</ele><time>2026-04-25T10:03:52.335Z</time></trkpt><trkpt lat="42.3749272" lon="11.1864914"><ele>71.0</ele><time>2026-04-25T10:03:53.336Z</time></trkpt><trkpt lat="42.3749438" lon="11.1865801"><ele>69.66666666666667</ele><time>2026-04-25T10:03:54.341Z</time></trkpt><trkpt lat="42.3749704" lon="11.1866676"><ele>68.33333333333334</ele><time>2026-04-25T10:03:55.333Z</time></trkpt><trkpt lat="42.375021" lon="11.1867442"><ele>67.0</ele><time>2026-04-25T10:03:56.332Z</time></trkpt><trkpt lat="42.3750703" lon="11.1868245"><ele>65.66666666666667</ele><time>2026-04-25T10:03:57.34Z</time></trkpt><trkpt lat="42.3751055" lon="11.1869162"><ele>64.33333333333333</ele><time>2026-04-25T10:03:58.338Z</time></trkpt><trkpt lat="42.3751811" lon="11.1870261"><ele>63.0</ele><time>2026-04-25T10:04:00.333Z</time></trkpt><trkpt lat="42.375266" lon="11.1870263"><ele>63.0</ele><time>2026-04-25T10:04:02.337Z</time></trkpt><trkpt lat="42.3753674" lon="11.1869921"><ele>63.0</ele><time>2026-04-25T10:04:04.328Z</time></trkpt><trkpt lat="42.3754556" lon="11.1869179"><ele>63.0</ele><time>2026-04-25T10:04:06.331Z</time></trkpt><trkpt lat="42.3755731" lon="11.1868553"><ele>63.0</ele><time>2026-04-25T10:04:08.335Z</time></trkpt><trkpt lat="42.3756437" lon="11.1868371"><ele>63.0</ele><time>2026-04-25T10:04:09.334Z</time></trkpt><trkpt lat="42.3757074" lon="11.1868159"><ele>66.33333333333333</ele><time>2026-04-25T10:04:10.333Z</time></trkpt><trkpt lat="42.3758325" lon="11.1867599"><ele>69.66666666666667</ele><time>2026-04-25T10:04:12.337Z</time></trkpt><trkpt lat="42.3759063" lon="11.1867492"><ele>73.0</ele><time>2026-04-25T10:04:13.34Z</time></trkpt><trkpt lat="42.3759824" lon="11.186747"><ele>76.33333333333334</ele><time>2026-04-25T10:04:14.338Z</time></trkpt><trkpt lat="42.376053" lon="11.1867353"><ele>79.66666666666667</ele><time>2026-04-25T10:04:15.335Z</time></trkpt><trkpt lat="42.3761146" lon="11.1867077"><ele>83.0</ele><time>2026-04-25T10:04:16.334Z</time></trkpt><trkpt lat="42.3761735" lon="11.1866714"><ele>83.0</ele><time>2026-04-25T10:04:17.331Z</time></trkpt><trkpt lat="42.3762349" lon="11.1866181"><ele>83.0</ele><time>2026-04-25T10:04:18.339Z</time></trkpt><trkpt lat="42.3762907" lon="11.1865586"><ele>83.0</ele><time>2026-04-25T10:04:19.333Z</time></trkpt><trkpt lat="42.3763335" lon="11.1864957"><ele>83.0</ele><time>2026-04-25T10:04:20.337Z</time></trkpt><trkpt lat="42.3763641" lon="11.186404"><ele>83.0</ele><time>2026-04-25T10:04:21.336Z</time></trkpt><trkpt lat="42.376378" lon="11.1862888"><ele>83.0</ele><time>2026-04-25T10:04:22.333Z</time></trkpt><trkpt lat="42.37638" lon="11.1861949"><ele>83.0</ele><time>2026-04-25T10:04:23.337Z</time></trkpt><trkpt lat="42.3763578" lon="11.1860317"><ele>83.33333333333334</ele><time>2026-04-25T10:04:25.339Z</time></trkpt><trkpt lat="42.3763279" lon="11.1859213"><ele>83.66666666666667</ele><time>2026-04-25T10:04:27.336Z</time></trkpt><trkpt lat="42.3763562" lon="11.1860193"><ele>84.0</ele><time>2026-04-25T10:05:16.34Z</time></trkpt><trkpt lat="42.3763524" lon="11.1861695"><ele>84.33333333333333</ele><time>2026-04-25T10:05:18.337Z</time></trkpt><trkpt lat="42.3763614" lon="11.1862565"><ele>84.66666666666666</ele><time>2026-04-25T10:05:19.34Z</time></trkpt><trkpt lat="42.3763616" lon="11.1863464"><ele>85.0</ele><time>2026-04-25T10:05:20.344Z</time></trkpt><trkpt lat="42.3763116" lon="11.1865075"><ele>84.71428571428572</ele><time>2026-04-25T10:05:22.33Z</time></trkpt><trkpt lat="42.3762616" lon="11.186582"><ele>84.42857142857142</ele><time>2026-04-25T10:05:23.332Z</time></trkpt><trkpt lat="42.3762083" lon="11.1866338"><ele>84.14285714285714</ele><time>2026-04-25T10:05:24.336Z</time></trkpt><trkpt lat="42.3761526" lon="11.1866816"><ele>83.85714285714286</ele><time>2026-04-25T10:05:25.336Z</time></trkpt><trkpt lat="42.3760816" lon="11.1867147"><ele>83.57142857142858</ele><time>2026-04-25T10:05:26.333Z</time></trkpt><trkpt lat="42.3759983" lon="11.1867428"><ele>83.28571428571428</ele><time>2026-04-25T10:05:27.332Z</time></trkpt><trkpt lat="42.375919" lon="11.1867632"><ele>83.0</ele><time>2026-04-25T10:05:28.336Z</time></trkpt><trkpt lat="42.3758442" lon="11.1867759"><ele>83.0</ele><time>2026-04-25T10:05:29.336Z</time></trkpt><trkpt lat="42.3757726" lon="11.1867904"><ele>83.0</ele><time>2026-04-25T10:05:30.333Z</time></trkpt><trkpt lat="42.3756999" lon="11.1868091"><ele>83.0</ele><time>2026-04-25T10:05:31.331Z</time></trkpt><trkpt lat="42.3756307" lon="11.1868288"><ele>83.0</ele><time>2026-04-25T10:05:32.333Z</time></trkpt><trkpt lat="42.3755678" lon="11.186852"><ele>83.0</ele><time>2026-04-25T10:05:33.331Z</time></trkpt><trkpt lat="42.3755073" lon="11.1868834"><ele>83.0</ele><time>2026-04-25T10:05:34.338Z</time></trkpt><trkpt lat="42.3754231" lon="11.1869401"><ele>83.0</ele><time>2026-04-25T10:05:36.34Z</time></trkpt><trkpt lat="42.3753651" lon="11.1869857"><ele>83.0</ele><time>2026-04-25T10:05:38.334Z</time></trkpt><trkpt lat="42.3753088" lon="11.1870279"><ele>83.0</ele><time>2026-04-25T10:05:45.334Z</time></trkpt><trkpt lat="42.375258" lon="11.1870884"><ele>83.0</ele><time>2026-04-25T10:06:00.334Z</time></trkpt><trkpt lat="42.3753348" lon="11.1870664"><ele>83.0</ele><time>2026-04-25T10:06:41.33Z</time></trkpt><trkpt lat="42.375392" lon="11.1870235"><ele>83.0</ele><time>2026-04-25T10:06:43.332Z</time></trkpt><trkpt lat="42.3754436" lon="11.186947"><ele>83.0</ele><time>2026-04-25T10:07:30.345Z</time></trkpt><trkpt lat="42.3755116" lon="11.1869001"><ele>83.0</ele><time>2026-04-25T10:07:32.336Z</time></trkpt><trkpt lat="42.375613" lon="11.1868531"><ele>83.0</ele><time>2026-04-25T10:07:34.343Z</time></trkpt><trkpt lat="42.3757342" lon="11.186823"><ele>83.0</ele><time>2026-04-25T10:07:36.337Z</time></trkpt><trkpt lat="42.3758199" lon="11.1867973"><ele>83.0</ele><time>2026-04-25T10:07:37.336Z</time></trkpt><trkpt lat="42.3759264" lon="11.1867627"><ele>83.0</ele><time>2026-04-25T10:07:38.339Z</time></trkpt><trkpt lat="42.3760202" lon="11.1867373"><ele>83.0</ele><time>2026-04-25T10:07:39.339Z</time></trkpt><trkpt lat="42.3761036" lon="11.1867134"><ele>83.0</ele><time>2026-04-25T10:07:40.331Z</time></trkpt><trkpt lat="42.3761743" lon="11.1866738"><ele>83.0</ele><time>2026-04-25T10:07:41.339Z</time></trkpt><trkpt lat="42.3762475" lon="11.1866034"><ele>83.0</ele><time>2026-04-25T10:07:42.338Z</time></trkpt><trkpt lat="42.3763031" lon="11.1865196"><ele>83.0</ele><time>2026-04-25T10:07:43.331Z</time></trkpt><trkpt lat="42.3763471" lon="11.186428"><ele>83.0</ele><time>2026-04-25T10:07:44.336Z</time></trkpt><trkpt lat="42.3763668" lon="11.1863146"><ele>83.0</ele><time>2026-04-25T10:07:45.34Z</time></trkpt><trkpt lat="42.3763701" lon="11.1862219"><ele>88.66666666666667</ele><time>2026-04-25T10:07:46.336Z</time></trkpt><trkpt lat="42.3763667" lon="11.1861368"><ele>94.33333333333334</ele><time>2026-04-25T10:07:47.335Z</time></trkpt><trkpt lat="42.3763618" lon="11.1860446"><ele>100.0</ele><time>2026-04-25T10:07:48.343Z</time></trkpt><trkpt lat="42.3763944" lon="11.1859554"><ele>105.66666666666667</ele><time>2026-04-25T10:07:50.339Z</time></trkpt><trkpt lat="42.3764715" lon="11.1859991"><ele>111.33333333333333</ele><time>2026-04-25T10:07:52.339Z</time></trkpt><trkpt lat="42.3765086" lon="11.1860806"><ele>117.0</ele><time>2026-04-25T10:07:53.333Z</time></trkpt><trkpt lat="42.3765405" lon="11.186204"><ele>117.0</ele><time>2026-04-25T10:07:54.333Z</time></trkpt><trkpt lat="42.3765798" lon="11.1863424"><ele>116.99999999999999</ele><time>2026-04-25T10:07:55.334Z</time></trkpt><trkpt lat="42.3766333" lon="11.1864555"><ele>116.99999999999999</ele><time>2026-04-25T10:07:56.337Z</time></trkpt><trkpt lat="42.3766888" lon="11.1865264"><ele>117.0</ele><time>2026-04-25T10:07:57.336Z</time></trkpt><trkpt lat="42.376802" lon="11.1865262"><ele>117.0</ele><time>2026-04-25T10:07:59.332Z</time></trkpt><trkpt lat="42.3768531" lon="11.1864471"><ele>117.0</ele><time>2026-04-25T10:08:00.337Z</time></trkpt><trkpt lat="42.3768894" lon="11.1863491"><ele>117.0</ele><time>2026-04-25T10:08:01.335Z</time></trkpt><trkpt lat="42.3769278" lon="11.1862348"><ele>117.0</ele><time>2026-04-25T10:08:02.331Z</time></trkpt><trkpt lat="42.3769698" lon="11.1861227"><ele>117.0</ele><time>2026-04-25T10:08:03.336Z</time></trkpt><trkpt lat="42.3770095" lon="11.186005"><ele>117.0</ele><time>2026-04-25T10:08:04.344Z</time></trkpt><trkpt lat="42.3770585" lon="11.1859107"><ele>117.0</ele><time>2026-04-25T10:08:05.338Z</time></trkpt><trkpt lat="42.3771255" lon="11.1858328"><ele>120.0</ele><time>2026-04-25T10:08:06.335Z</time></trkpt><trkpt lat="42.3772303" lon="11.1857994"><ele>123.0</ele><time>2026-04-25T10:08:07.335Z</time></trkpt><trkpt lat="42.3773606" lon="11.1857737"><ele>126.0</ele><time>2026-04-25T10:08:08.328Z</time></trkpt><trkpt lat="42.3774896" lon="11.1857644"><ele>129.0</ele><time>2026-04-25T10:08:09.338Z</time></trkpt><trkpt lat="42.3776093" lon="11.1857469"><ele>129.0</ele><time>2026-04-25T10:08:10.331Z</time></trkpt><trkpt lat="42.3777236" lon="11.1857316"><ele>129.0</ele><time>2026-04-25T10:08:11.328Z</time></trkpt><trkpt lat="42.3778337" lon="11.1857043"><ele>129.0</ele><time>2026-04-25T10:08:12.336Z</time></trkpt><trkpt lat="42.3779433" lon="11.1856822"><ele>129.0</ele><time>2026-04-25T10:08:13.335Z</time></trkpt><trkpt lat="42.3780684" lon="11.185674"><ele>130.5</ele><time>2026-04-25T10:08:14.337Z</time></trkpt><trkpt lat="42.3781931" lon="11.1856798"><ele>132.0</ele><time>2026-04-25T10:08:15.334Z</time></trkpt><trkpt lat="42.3783248" lon="11.1856866"><ele>133.5</ele><time>2026-04-25T10:08:16.331Z</time></trkpt><trkpt lat="42.3784574" lon="11.1856978"><ele>135.0</ele><time>2026-04-25T10:08:17.332Z</time></trkpt><trkpt lat="42.3785941" lon="11.1857203"><ele>135.0</ele><time>2026-04-25T10:08:18.33Z</time></trkpt><trkpt lat="42.3787282" lon="11.1857457"><ele>135.0</ele><time>2026-04-25T10:08:19.333Z</time></trkpt><trkpt lat="42.3788709" lon="11.1857776"><ele>135.0</ele><time>2026-04-25T10:08:20.334Z</time></trkpt><trkpt lat="42.379006" lon="11.1857935"><ele>135.0</ele><time>2026-04-25T10:08:21.342Z</time></trkpt><trkpt lat="42.3791364" lon="11.1858042"><ele>134.75</ele><time>2026-04-25T10:08:22.334Z</time></trkpt><trkpt lat="42.3792621" lon="11.1858253"><ele>134.5</ele><time>2026-04-25T10:08:23.34Z</time></trkpt><trkpt lat="42.3793822" lon="11.1858571"><ele>134.25</ele><time>2026-04-25T10:08:24.329Z</time></trkpt><trkpt lat="42.3794966" lon="11.1859018"><ele>134.0</ele><time>2026-04-25T10:08:25.333Z</time></trkpt><trkpt lat="42.3796164" lon="11.18595"><ele>133.25</ele><time>2026-04-25T10:08:26.344Z</time></trkpt><trkpt lat="42.3797408" lon="11.1859801"><ele>132.5</ele><time>2026-04-25T10:08:27.345Z</time></trkpt><trkpt lat="42.3798718" lon="11.1859701"><ele>131.75</ele><time>2026-04-25T10:08:28.347Z</time></trkpt><trkpt lat="42.3800132" lon="11.1859448"><ele>131.0</ele><time>2026-04-25T10:08:29.33Z</time></trkpt><trkpt lat="42.3801485" lon="11.1859071"><ele>131.0</ele><time>2026-04-25T10:08:30.342Z</time></trkpt><trkpt lat="42.3802862" lon="11.1858931"><ele>131.0</ele><time>2026-04-25T10:08:31.35Z</time></trkpt><trkpt lat="42.3804243" lon="11.1859174"><ele>131.0</ele><time>2026-04-25T10:08:32.339Z</time></trkpt><trkpt lat="42.3805599" lon="11.1859964"><ele>131.0</ele><time>2026-04-25T10:08:33.336Z</time></trkpt><trkpt lat="42.3806906" lon="11.1861076"><ele>132.66666666666666</ele><time>2026-04-25T10:08:34.344Z</time></trkpt><trkpt lat="42.3808252" lon="11.1862267"><ele>134.33333333333334</ele><time>2026-04-25T10:08:35.334Z</time></trkpt><trkpt lat="42.3809569" lon="11.1863457"><ele>136.0</ele><time>2026-04-25T10:08:36.336Z</time></trkpt><trkpt lat="42.381078" lon="11.1864595"><ele>133.0</ele><time>2026-04-25T10:08:37.339Z</time></trkpt><trkpt lat="42.3812031" lon="11.1865643"><ele>130.0</ele><time>2026-04-25T10:08:38.337Z</time></trkpt><trkpt lat="42.3813239" lon="11.1866738"><ele>127.0</ele><time>2026-04-25T10:08:39.336Z</time></trkpt><trkpt lat="42.3814427" lon="11.186787"><ele>124.0</ele><time>2026-04-25T10:08:40.336Z</time></trkpt><trkpt lat="42.3815535" lon="11.18691"><ele>124.0</ele><time>2026-04-25T10:08:41.341Z</time></trkpt><trkpt lat="42.3816551" lon="11.1870346"><ele>124.0</ele><time>2026-04-25T10:08:42.334Z</time></trkpt><trkpt lat="42.3817439" lon="11.1871723"><ele>124.0</ele><time>2026-04-25T10:08:43.328Z</time></trkpt><trkpt lat="42.3818261" lon="11.1872976"><ele>124.0</ele><time>2026-04-25T10:08:44.334Z</time></trkpt><trkpt lat="42.3818873" lon="11.187431"><ele>121.25</ele><time>2026-04-25T10:08:45.351Z</time></trkpt><trkpt lat="42.3819063" lon="11.1875769"><ele>118.5</ele><time>2026-04-25T10:08:46.337Z</time></trkpt><trkpt lat="42.3818917" lon="11.1877264"><ele>115.75</ele><time>2026-04-25T10:08:47.333Z</time></trkpt><trkpt lat="42.3818322" lon="11.1878867"><ele>113.0</ele><time>2026-04-25T10:08:48.331Z</time></trkpt><trkpt lat="42.3817466" lon="11.1880447"><ele>113.0</ele><time>2026-04-25T10:08:49.333Z</time></trkpt><trkpt lat="42.3816401" lon="11.188191"><ele>113.0</ele><time>2026-04-25T10:08:50.336Z</time></trkpt><trkpt lat="42.3815453" lon="11.1883242"><ele>113.0</ele><time>2026-04-25T10:08:51.332Z</time></trkpt><trkpt lat="42.3814612" lon="11.1884401"><ele>113.0</ele><time>2026-04-25T10:08:52.337Z</time></trkpt><trkpt lat="42.3813848" lon="11.1885515"><ele>106.4</ele><time>2026-04-25T10:08:53.339Z</time></trkpt><trkpt lat="42.3813168" lon="11.1886553"><ele>99.80000000000001</ele><time>2026-04-25T10:08:54.332Z</time></trkpt><trkpt lat="42.381259" lon="11.1887484"><ele>93.2</ele><time>2026-04-25T10:08:55.333Z</time></trkpt><trkpt lat="42.3812111" lon="11.1888529"><ele>86.6</ele><time>2026-04-25T10:08:56.344Z</time></trkpt><trkpt lat="42.3811974" lon="11.1889639"><ele>80.0</ele><time>2026-04-25T10:08:57.336Z</time></trkpt><trkpt lat="42.3812134" lon="11.1890898"><ele>80.0</ele><time>2026-04-25T10:08:58.331Z</time></trkpt><trkpt lat="42.3812609" lon="11.1892094"><ele>80.0</ele><time>2026-04-25T10:08:59.335Z</time></trkpt><trkpt lat="42.3813386" lon="11.1893071"><ele>80.0</ele><time>2026-04-25T10:09:00.337Z</time></trkpt><trkpt lat="42.3814252" lon="11.1893924"><ele>80.0</ele><time>2026-04-25T10:09:01.338Z</time></trkpt><trkpt lat="42.3815096" lon="11.1894816"><ele>80.0</ele><time>2026-04-25T10:09:02.331Z</time></trkpt><trkpt lat="42.3815757" lon="11.1895879"><ele>82.4</ele><time>2026-04-25T10:09:03.334Z</time></trkpt><trkpt lat="42.3816103" lon="11.1897231"><ele>84.8</ele><time>2026-04-25T10:09:04.335Z</time></trkpt><trkpt lat="42.3816264" lon="11.1898591"><ele>87.19999999999999</ele><time>2026-04-25T10:09:05.337Z</time></trkpt><trkpt lat="42.3816427" lon="11.1899877"><ele>89.6</ele><time>2026-04-25T10:09:06.337Z</time></trkpt><trkpt lat="42.3816859" lon="11.1900812"><ele>92.0</ele><time>2026-04-25T10:09:07.331Z</time></trkpt><trkpt lat="42.381757" lon="11.1901288"><ele>92.0</ele><time>2026-04-25T10:09:08.332Z</time></trkpt><trkpt lat="42.3818398" lon="11.1901314"><ele>92.0</ele><time>2026-04-25T10:09:09.339Z</time></trkpt><trkpt lat="42.3819267" lon="11.1900948"><ele>92.0</ele><time>2026-04-25T10:09:10.341Z</time></trkpt><trkpt lat="42.3820035" lon="11.1900367"><ele>92.0</ele><time>2026-04-25T10:09:11.343Z</time></trkpt><trkpt lat="42.3820612" lon="11.1899943"><ele>92.0</ele><time>2026-04-25T10:09:12.333Z</time></trkpt><trkpt lat="42.3821393" lon="11.1899408"><ele>92.0</ele><time>2026-04-25T10:09:14.333Z</time></trkpt><trkpt lat="42.3822259" lon="11.189895"><ele>96.6</ele><time>2026-04-25T10:09:16.34Z</time></trkpt><trkpt lat="42.38235" lon="11.1899103"><ele>101.19999999999999</ele><time>2026-04-25T10:09:18.337Z</time></trkpt><trkpt lat="42.3824159" lon="11.1899503"><ele>105.8</ele><time>2026-04-25T10:09:19.339Z</time></trkpt><trkpt lat="42.382471" lon="11.1900143"><ele>110.4</ele><time>2026-04-25T10:09:20.333Z</time></trkpt><trkpt lat="42.3825014" lon="11.1901926"><ele>115.0</ele><time>2026-04-25T10:09:22.332Z</time></trkpt><trkpt lat="42.3824948" lon="11.190303"><ele>115.0</ele><time>2026-04-25T10:09:23.326Z</time></trkpt><trkpt lat="42.3824769" lon="11.1904416"><ele>115.0</ele><time>2026-04-25T10:09:24.331Z</time></trkpt><trkpt lat="42.382449" lon="11.1906295"><ele>115.0</ele><time>2026-04-25T10:09:25.329Z</time></trkpt><trkpt lat="42.3824317" lon="11.1908793"><ele>115.0</ele><time>2026-04-25T10:09:26.334Z</time></trkpt><trkpt lat="42.3824371" lon="11.1911304"><ele>111.0</ele><time>2026-04-25T10:09:27.335Z</time></trkpt><trkpt lat="42.3824676" lon="11.1913538"><ele>107.0</ele><time>2026-04-25T10:09:28.329Z</time></trkpt><trkpt lat="42.3824939" lon="11.1915689"><ele>103.0</ele><time>2026-04-25T10:09:29.33Z</time></trkpt><trkpt lat="42.3825268" lon="11.1917816"><ele>101.0</ele><time>2026-04-25T10:09:30.332Z</time></trkpt><trkpt lat="42.3825605" lon="11.191975"><ele>99.0</ele><time>2026-04-25T10:09:31.333Z</time></trkpt><trkpt lat="42.3826095" lon="11.19216"><ele>97.0</ele><time>2026-04-25T10:09:32.33Z</time></trkpt><trkpt lat="42.3826664" lon="11.192332"><ele>95.0</ele><time>2026-04-25T10:09:33.333Z</time></trkpt><trkpt lat="42.3827364" lon="11.1924849"><ele>92.25</ele><time>2026-04-25T10:09:34.338Z</time></trkpt><trkpt lat="42.3828137" lon="11.1926264"><ele>89.5</ele><time>2026-04-25T10:09:35.339Z</time></trkpt><trkpt lat="42.3829042" lon="11.192769"><ele>86.75</ele><time>2026-04-25T10:09:36.341Z</time></trkpt><trkpt lat="42.3829972" lon="11.1929191"><ele>84.0</ele><time>2026-04-25T10:09:37.344Z</time></trkpt><trkpt lat="42.3830937" lon="11.1930595"><ele>87.5</ele><time>2026-04-25T10:09:38.336Z</time></trkpt><trkpt lat="42.3831987" lon="11.1931935"><ele>91.0</ele><time>2026-04-25T10:09:39.334Z</time></trkpt><trkpt lat="42.3833252" lon="11.1933071"><ele>94.5</ele><time>2026-04-25T10:09:40.344Z</time></trkpt><trkpt lat="42.3834504" lon="11.1934054"><ele>98.0</ele><time>2026-04-25T10:09:41.351Z</time></trkpt><trkpt lat="42.3835748" lon="11.1934771"><ele>98.0</ele><time>2026-04-25T10:09:42.34Z</time></trkpt><trkpt lat="42.3836927" lon="11.1935399"><ele>98.0</ele><time>2026-04-25T10:09:43.335Z</time></trkpt><trkpt lat="42.3837916" lon="11.1936406"><ele>98.0</ele><time>2026-04-25T10:09:44.34Z</time></trkpt><trkpt lat="42.3838587" lon="11.19377"><ele>98.0</ele><time>2026-04-25T10:09:45.339Z</time></trkpt><trkpt lat="42.3839124" lon="11.1939319"><ele>98.5</ele><time>2026-04-25T10:09:46.337Z</time></trkpt><trkpt lat="42.3839393" lon="11.194124"><ele>99.0</ele><time>2026-04-25T10:09:47.344Z</time></trkpt><trkpt lat="42.383953" lon="11.1943305"><ele>99.5</ele><time>2026-04-25T10:09:48.337Z</time></trkpt><trkpt lat="42.3839767" lon="11.1945167"><ele>100.0</ele><time>2026-04-25T10:09:49.346Z</time></trkpt><trkpt lat="42.3840052" lon="11.1946866"><ele>98.5</ele><time>2026-04-25T10:09:50.329Z</time></trkpt><trkpt lat="42.3840573" lon="11.1948483"><ele>97.0</ele><time>2026-04-25T10:09:51.339Z</time></trkpt><trkpt lat="42.3841223" lon="11.1949964"><ele>95.5</ele><time>2026-04-25T10:09:52.333Z</time></trkpt><trkpt lat="42.3841896" lon="11.1951374"><ele>94.0</ele><time>2026-04-25T10:09:53.339Z</time></trkpt><trkpt lat="42.3842596" lon="11.1952756"><ele>94.0</ele><time>2026-04-25T10:09:54.333Z</time></trkpt><trkpt lat="42.3843215" lon="11.1954098"><ele>94.0</ele><time>2026-04-25T10:09:55.335Z</time></trkpt><trkpt lat="42.3843777" lon="11.1955266"><ele>94.0</ele><time>2026-04-25T10:09:56.337Z</time></trkpt><trkpt lat="42.3844241" lon="11.1956146"><ele>94.0</ele><time>2026-04-25T10:09:57.341Z</time></trkpt><trkpt lat="42.3844843" lon="11.1957694"><ele>94.0</ele><time>2026-04-25T10:09:59.331Z</time></trkpt><trkpt lat="42.3845077" lon="11.1958543"><ele>92.80000000000001</ele><time>2026-04-25T10:10:00.337Z</time></trkpt><trkpt lat="42.384519" lon="11.1959856"><ele>91.60000000000001</ele><time>2026-04-25T10:10:02.337Z</time></trkpt><trkpt lat="42.384503" lon="11.196113"><ele>90.4</ele><time>2026-04-25T10:10:04.334Z</time></trkpt><trkpt lat="42.384478" lon="11.1962399"><ele>89.2</ele><time>2026-04-25T10:10:05.338Z</time></trkpt><trkpt lat="42.3844067" lon="11.1963686"><ele>88.0</ele><time>2026-04-25T10:10:06.337Z</time></trkpt><trkpt lat="42.3842925" lon="11.1965387"><ele>88.0</ele><time>2026-04-25T10:10:07.332Z</time></trkpt><trkpt lat="42.3841893" lon="11.1967423"><ele>88.0</ele><time>2026-04-25T10:10:08.333Z</time></trkpt><trkpt lat="42.3841047" lon="11.1969035"><ele>88.0</ele><time>2026-04-25T10:10:09.336Z</time></trkpt><trkpt lat="42.3840631" lon="11.197"><ele>88.0</ele><time>2026-04-25T10:10:10.33Z</time></trkpt><trkpt lat="42.3840186" lon="11.1971154"><ele>88.0</ele><time>2026-04-25T10:10:12.337Z</time></trkpt><trkpt lat="42.3839841" lon="11.197234"><ele>88.0</ele><time>2026-04-25T10:10:18.329Z</time></trkpt><trkpt lat="42.383961" lon="11.1973652"><ele>88.0</ele><time>2026-04-25T10:10:20.34Z</time></trkpt><trkpt lat="42.383909" lon="11.1975015"><ele>88.0</ele><time>2026-04-25T10:10:21.337Z</time></trkpt><trkpt lat="42.3838551" lon="11.1976456"><ele>88.0</ele><time>2026-04-25T10:10:22.337Z</time></trkpt><trkpt lat="42.3838034" lon="11.1978092"><ele>84.0</ele><time>2026-04-25T10:10:23.334Z</time></trkpt><trkpt lat="42.3837483" lon="11.1979858"><ele>80.0</ele><time>2026-04-25T10:10:24.335Z</time></trkpt><trkpt lat="42.3836678" lon="11.1981404"><ele>76.0</ele><time>2026-04-25T10:10:25.327Z</time></trkpt><trkpt lat="42.3835704" lon="11.1982904"><ele>72.0</ele><time>2026-04-25T10:10:26.335Z</time></trkpt><trkpt lat="42.383464" lon="11.19841"><ele>72.0</ele><time>2026-04-25T10:10:27.336Z</time></trkpt><trkpt lat="42.3833444" lon="11.1985016"><ele>72.0</ele><time>2026-04-25T10:10:28.329Z</time></trkpt><trkpt lat="42.3832285" lon="11.1985961"><ele>72.0</ele><time>2026-04-25T10:10:29.335Z</time></trkpt><trkpt lat="42.3831298" lon="11.1987013"><ele>72.0</ele><time>2026-04-25T10:10:30.33Z</time></trkpt><trkpt lat="42.3830567" lon="11.1988281"><ele>64.0</ele><time>2026-04-25T10:10:31.334Z</time></trkpt><trkpt lat="42.3829989" lon="11.1989851"><ele>56.0</ele><time>2026-04-25T10:10:32.331Z</time></trkpt><trkpt lat="42.3829608" lon="11.1991187"><ele>48.0</ele><time>2026-04-25T10:10:33.331Z</time></trkpt><trkpt lat="42.3829426" lon="11.1992384"><ele>40.0</ele><time>2026-04-25T10:10:34.341Z</time></trkpt><trkpt lat="42.3829552" lon="11.1993633"><ele>32.0</ele><time>2026-04-25T10:10:35.331Z</time></trkpt><trkpt lat="42.3830006" lon="11.1994705"><ele>42.2</ele><time>2026-04-25T10:10:36.337Z</time></trkpt><trkpt lat="42.3830814" lon="11.1995516"><ele>52.400000000000006</ele><time>2026-04-25T10:10:37.335Z</time></trkpt><trkpt lat="42.3831831" lon="11.1996085"><ele>62.60000000000001</ele><time>2026-04-25T10:10:38.334Z</time></trkpt><trkpt lat="42.3832723" lon="11.1996568"><ele>72.80000000000001</ele><time>2026-04-25T10:10:39.333Z</time></trkpt><trkpt lat="42.3833651" lon="11.1997108"><ele>83.0</ele><time>2026-04-25T10:10:40.342Z</time></trkpt><trkpt lat="42.383445" lon="11.1997863"><ele>79.60000000000001</ele><time>2026-04-25T10:10:41.336Z</time></trkpt><trkpt lat="42.3835034" lon="11.1999149"><ele>76.2</ele><time>2026-04-25T10:10:42.335Z</time></trkpt><trkpt lat="42.3835351" lon="11.2000625"><ele>72.8</ele><time>2026-04-25T10:10:43.331Z</time></trkpt><trkpt lat="42.3835777" lon="11.2001995"><ele>69.4</ele><time>2026-04-25T10:10:44.34Z</time></trkpt><trkpt lat="42.3836291" lon="11.200336"><ele>66.0</ele><time>2026-04-25T10:10:45.335Z</time></trkpt><trkpt lat="42.3836836" lon="11.2004837"><ele>66.0</ele><time>2026-04-25T10:10:46.339Z</time></trkpt><trkpt lat="42.3837533" lon="11.2006272"><ele>66.0</ele><time>2026-04-25T10:10:47.334Z</time></trkpt><trkpt lat="42.3838354" lon="11.2007593"><ele>66.0</ele><time>2026-04-25T10:10:48.335Z</time></trkpt><trkpt lat="42.3839201" lon="11.2008701"><ele>66.0</ele><time>2026-04-25T10:10:49.333Z</time></trkpt><trkpt lat="42.3839976" lon="11.2009816"><ele>67.0</ele><time>2026-04-25T10:10:50.336Z</time></trkpt><trkpt lat="42.3840621" lon="11.2011219"><ele>68.0</ele><time>2026-04-25T10:10:51.338Z</time></trkpt><trkpt lat="42.3840971" lon="11.2012753"><ele>69.0</ele><time>2026-04-25T10:10:52.341Z</time></trkpt><trkpt lat="42.3840984" lon="11.2014581"><ele>70.0</ele><time>2026-04-25T10:10:53.342Z</time></trkpt><trkpt lat="42.3840792" lon="11.2016483"><ele>70.0</ele><time>2026-04-25T10:10:54.335Z</time></trkpt><trkpt lat="42.3840595" lon="11.2018284"><ele>70.0</ele><time>2026-04-25T10:10:55.338Z</time></trkpt><trkpt lat="42.3840498" lon="11.2019886"><ele>70.0</ele><time>2026-04-25T10:10:56.332Z</time></trkpt><trkpt lat="42.384062" lon="11.2021201"><ele>70.0</ele><time>2026-04-25T10:10:57.341Z</time></trkpt><trkpt lat="42.3841005" lon="11.2022351"><ele>70.0</ele><time>2026-04-25T10:10:58.339Z</time></trkpt><trkpt lat="42.3841677" lon="11.2023257"><ele>65.0</ele><time>2026-04-25T10:10:59.338Z</time></trkpt><trkpt lat="42.3842653" lon="11.202389"><ele>60.0</ele><time>2026-04-25T10:11:00.338Z</time></trkpt><trkpt lat="42.3843822" lon="11.2024564"><ele>55.0</ele><time>2026-04-25T10:11:01.334Z</time></trkpt><trkpt lat="42.3845046" lon="11.2025164"><ele>50.0</ele><time>2026-04-25T10:11:02.339Z</time></trkpt><trkpt lat="42.3846237" lon="11.2025842"><ele>53.5</ele><time>2026-04-25T10:11:03.337Z</time></trkpt><trkpt lat="42.3847489" lon="11.2026521"><ele>57.0</ele><time>2026-04-25T10:11:04.332Z</time></trkpt><trkpt lat="42.3848663" lon="11.2027122"><ele>60.5</ele><time>2026-04-25T10:11:05.336Z</time></trkpt><trkpt lat="42.3849832" lon="11.202751"><ele>64.0</ele><time>2026-04-25T10:11:06.338Z</time></trkpt><trkpt lat="42.3850931" lon="11.2027667"><ele>64.0</ele><time>2026-04-25T10:11:07.333Z</time></trkpt><trkpt lat="42.3852153" lon="11.2027327"><ele>64.0</ele><time>2026-04-25T10:11:08.332Z</time></trkpt><trkpt lat="42.3853395" lon="11.2026692"><ele>64.0</ele><time>2026-04-25T10:11:09.341Z</time></trkpt><trkpt lat="42.3854555" lon="11.2026017"><ele>64.0</ele><time>2026-04-25T10:11:10.335Z</time></trkpt><trkpt lat="42.3855763" lon="11.2025407"><ele>63.75</ele><time>2026-04-25T10:11:11.34Z</time></trkpt><trkpt lat="42.3857" lon="11.2025081"><ele>63.5</ele><time>2026-04-25T10:11:12.336Z</time></trkpt><trkpt lat="42.3858356" lon="11.2024987"><ele>63.25</ele><time>2026-04-25T10:11:13.337Z</time></trkpt><trkpt lat="42.3859709" lon="11.2025041"><ele>63.0</ele><time>2026-04-25T10:11:14.335Z</time></trkpt><trkpt lat="42.3861104" lon="11.2025227"><ele>63.0</ele><time>2026-04-25T10:11:15.334Z</time></trkpt><trkpt lat="42.3862454" lon="11.2025426"><ele>63.0</ele><time>2026-04-25T10:11:16.331Z</time></trkpt><trkpt lat="42.3863883" lon="11.2025664"><ele>63.0</ele><time>2026-04-25T10:11:17.338Z</time></trkpt><trkpt lat="42.3865395" lon="11.2025881"><ele>63.0</ele><time>2026-04-25T10:11:18.336Z</time></trkpt><trkpt lat="42.3866782" lon="11.2026063"><ele>64.0</ele><time>2026-04-25T10:11:19.34Z</time></trkpt><trkpt lat="42.3868091" lon="11.2026249"><ele>65.0</ele><time>2026-04-25T10:11:20.327Z</time></trkpt><trkpt lat="42.3869286" lon="11.2026452"><ele>66.0</ele><time>2026-04-25T10:11:21.332Z</time></trkpt><trkpt lat="42.3870303" lon="11.2026722"><ele>67.0</ele><time>2026-04-25T10:11:22.335Z</time></trkpt><trkpt lat="42.3871188" lon="11.202712"><ele>68.0</ele><time>2026-04-25T10:11:23.338Z</time></trkpt><trkpt lat="42.3871899" lon="11.2027702"><ele>68.2</ele><time>2026-04-25T10:11:24.333Z</time></trkpt><trkpt lat="42.3872359" lon="11.2028577"><ele>68.4</ele><time>2026-04-25T10:11:25.332Z</time></trkpt><trkpt lat="42.3872413" lon="11.202961"><ele>68.60000000000001</ele><time>2026-04-25T10:11:26.34Z</time></trkpt><trkpt lat="42.387212" lon="11.2030779"><ele>68.8</ele><time>2026-04-25T10:11:27.33Z</time></trkpt><trkpt lat="42.3871338" lon="11.2031907"><ele>69.0</ele><time>2026-04-25T10:11:28.346Z</time></trkpt><trkpt lat="42.387032" lon="11.2033021"><ele>65.75</ele><time>2026-04-25T10:11:29.336Z</time></trkpt><trkpt lat="42.3869298" lon="11.203415"><ele>62.5</ele><time>2026-04-25T10:11:30.33Z</time></trkpt><trkpt lat="42.3868307" lon="11.203543"><ele>59.25</ele><time>2026-04-25T10:11:31.328Z</time></trkpt><trkpt lat="42.3867286" lon="11.2036715"><ele>56.0</ele><time>2026-04-25T10:11:32.333Z</time></trkpt><trkpt lat="42.3866335" lon="11.2038117"><ele>56.0</ele><time>2026-04-25T10:11:33.336Z</time></trkpt><trkpt lat="42.3865394" lon="11.2039695"><ele>56.0</ele><time>2026-04-25T10:11:34.341Z</time></trkpt><trkpt lat="42.3864543" lon="11.2041376"><ele>56.0</ele><time>2026-04-25T10:11:35.334Z</time></trkpt><trkpt lat="42.3863872" lon="11.2043152"><ele>56.0</ele><time>2026-04-25T10:11:36.338Z</time></trkpt><trkpt lat="42.386319" lon="11.204494"><ele>53.25</ele><time>2026-04-25T10:11:37.335Z</time></trkpt><trkpt lat="42.386253" lon="11.2046615"><ele>50.5</ele><time>2026-04-25T10:11:38.333Z</time></trkpt><trkpt lat="42.3861947" lon="11.2048219"><ele>47.75</ele><time>2026-04-25T10:11:39.337Z</time></trkpt><trkpt lat="42.3861559" lon="11.2049733"><ele>45.0</ele><time>2026-04-25T10:11:40.34Z</time></trkpt><trkpt lat="42.3861374" lon="11.2050986"><ele>45.0</ele><time>2026-04-25T10:11:41.333Z</time></trkpt><trkpt lat="42.3861566" lon="11.2052358"><ele>45.0</ele><time>2026-04-25T10:11:42.333Z</time></trkpt><trkpt lat="42.3862089" lon="11.2053846"><ele>45.0</ele><time>2026-04-25T10:11:43.329Z</time></trkpt><trkpt lat="42.3862657" lon="11.2055307"><ele>45.0</ele><time>2026-04-25T10:11:44.337Z</time></trkpt><trkpt lat="42.3863209" lon="11.2056901"><ele>48.0</ele><time>2026-04-25T10:11:45.337Z</time></trkpt><trkpt lat="42.3863719" lon="11.2058449"><ele>51.0</ele><time>2026-04-25T10:11:46.339Z</time></trkpt><trkpt lat="42.3864268" lon="11.206001"><ele>54.0</ele><time>2026-04-25T10:11:47.347Z</time></trkpt><trkpt lat="42.3865016" lon="11.2061371"><ele>57.0</ele><time>2026-04-25T10:11:48.338Z</time></trkpt><trkpt lat="42.3866034" lon="11.2062474"><ele>57.0</ele><time>2026-04-25T10:11:49.333Z</time></trkpt><trkpt lat="42.3867219" lon="11.2063289"><ele>57.0</ele><time>2026-04-25T10:11:50.336Z</time></trkpt><trkpt lat="42.3868365" lon="11.206406"><ele>57.0</ele><time>2026-04-25T10:11:51.332Z</time></trkpt><trkpt lat="42.3869466" lon="11.2064899"><ele>57.0</ele><time>2026-04-25T10:11:52.338Z</time></trkpt><trkpt lat="42.3870529" lon="11.2065763"><ele>56.75</ele><time>2026-04-25T10:11:53.334Z</time></trkpt><trkpt lat="42.3871551" lon="11.2066598"><ele>56.5</ele><time>2026-04-25T10:11:54.333Z</time></trkpt><trkpt lat="42.3872652" lon="11.2067424"><ele>56.25</ele><time>2026-04-25T10:11:55.338Z</time></trkpt><trkpt lat="42.3873731" lon="11.2068267"><ele>56.0</ele><time>2026-04-25T10:11:56.34Z</time></trkpt><trkpt lat="42.3874708" lon="11.2069008"><ele>56.0</ele><time>2026-04-25T10:11:57.336Z</time></trkpt><trkpt lat="42.3875584" lon="11.2069661"><ele>55.99999999999999</ele><time>2026-04-25T10:11:58.336Z</time></trkpt><trkpt lat="42.3876492" lon="11.2070383"><ele>55.99999999999999</ele><time>2026-04-25T10:11:59.336Z</time></trkpt><trkpt lat="42.3877396" lon="11.2071205"><ele>56.0</ele><time>2026-04-25T10:12:00.339Z</time></trkpt><trkpt lat="42.3878244" lon="11.2071919"><ele>56.0</ele><time>2026-04-25T10:12:01.336Z</time></trkpt><trkpt lat="42.3879109" lon="11.2072601"><ele>56.00000000000001</ele><time>2026-04-25T10:12:02.335Z</time></trkpt><trkpt lat="42.3879774" lon="11.2073216"><ele>56.0</ele><time>2026-04-25T10:12:03.333Z</time></trkpt><trkpt lat="42.3880357" lon="11.2073831"><ele>56.0</ele><time>2026-04-25T10:12:04.333Z</time></trkpt><trkpt lat="42.3880899" lon="11.2074369"><ele>56.0</ele><time>2026-04-25T10:12:05.332Z</time></trkpt><trkpt lat="42.3881471" lon="11.2074963"><ele>56.00000000000001</ele><time>2026-04-25T10:12:06.339Z</time></trkpt><trkpt lat="42.3882011" lon="11.2075984"><ele>56.0</ele><time>2026-04-25T10:12:08.328Z</time></trkpt><trkpt lat="42.3881529" lon="11.2077406"><ele>55.16666666666667</ele><time>2026-04-25T10:12:10.335Z</time></trkpt><trkpt lat="42.3881062" lon="11.2078608"><ele>54.333333333333336</ele><time>2026-04-25T10:12:12.333Z</time></trkpt><trkpt lat="42.3880731" lon="11.2079404"><ele>53.5</ele><time>2026-04-25T10:12:16.339Z</time></trkpt><trkpt lat="42.3880584" lon="11.2080276"><ele>52.66666666666667</ele><time>2026-04-25T10:12:19.339Z</time></trkpt><trkpt lat="42.388043" lon="11.2081303"><ele>51.833333333333336</ele><time>2026-04-25T10:12:24.336Z</time></trkpt><trkpt lat="42.3880307" lon="11.2082591"><ele>51.0</ele><time>2026-04-25T10:12:27.34Z</time></trkpt><trkpt lat="42.3880491" lon="11.208375"><ele>50.599999999999994</ele><time>2026-04-25T10:12:28.338Z</time></trkpt><trkpt lat="42.3881056" lon="11.2085012"><ele>50.2</ele><time>2026-04-25T10:12:29.339Z</time></trkpt><trkpt lat="42.388164" lon="11.2086275"><ele>49.8</ele><time>2026-04-25T10:12:30.335Z</time></trkpt><trkpt lat="42.3882229" lon="11.2087465"><ele>49.400000000000006</ele><time>2026-04-25T10:12:31.338Z</time></trkpt><trkpt lat="42.3882801" lon="11.2088563"><ele>49.0</ele><time>2026-04-25T10:12:32.339Z</time></trkpt><trkpt lat="42.3883229" lon="11.2089552"><ele>50.0</ele><time>2026-04-25T10:12:33.333Z</time></trkpt><trkpt lat="42.3883415" lon="11.2090701"><ele>51.0</ele><time>2026-04-25T10:12:34.331Z</time></trkpt><trkpt lat="42.388348" lon="11.2092195"><ele>52.0</ele><time>2026-04-25T10:12:35.338Z</time></trkpt><trkpt lat="42.3883343" lon="11.2093871"><ele>53.0</ele><time>2026-04-25T10:12:36.324Z</time></trkpt><trkpt lat="42.3883109" lon="11.2095662"><ele>53.0</ele><time>2026-04-25T10:12:37.334Z</time></trkpt><trkpt lat="42.3882843" lon="11.2097628"><ele>53.0</ele><time>2026-04-25T10:12:38.332Z</time></trkpt><trkpt lat="42.3882667" lon="11.2099674"><ele>53.0</ele><time>2026-04-25T10:12:39.334Z</time></trkpt><trkpt lat="42.388256" lon="11.2101743"><ele>54.0</ele><time>2026-04-25T10:12:40.332Z</time></trkpt><trkpt lat="42.3882501" lon="11.2103713"><ele>55.0</ele><time>2026-04-25T10:12:41.336Z</time></trkpt><trkpt lat="42.3882506" lon="11.2105633"><ele>56.0</ele><time>2026-04-25T10:12:42.335Z</time></trkpt><trkpt lat="42.3882525" lon="11.2107474"><ele>57.0</ele><time>2026-04-25T10:12:43.339Z</time></trkpt><trkpt lat="42.3882599" lon="11.2109361"><ele>58.25</ele><time>2026-04-25T10:12:44.343Z</time></trkpt><trkpt lat="42.388266" lon="11.2111452"><ele>59.5</ele><time>2026-04-25T10:12:45.338Z</time></trkpt><trkpt lat="42.3882366" lon="11.2113492"><ele>60.75</ele><time>2026-04-25T10:12:46.345Z</time></trkpt><trkpt lat="42.388194" lon="11.2115277"><ele>62.0</ele><time>2026-04-25T10:12:47.338Z</time></trkpt><trkpt lat="42.388152" lon="11.2116834"><ele>62.333333333333336</ele><time>2026-04-25T10:12:48.36Z</time></trkpt><trkpt lat="42.3881179" lon="11.2117996"><ele>62.66666666666667</ele><time>2026-04-25T10:12:49.369Z</time></trkpt><trkpt lat="42.3880972" lon="11.2118861"><ele>63.0</ele><time>2026-04-25T10:12:50.33Z</time></trkpt><trkpt lat="42.3880476" lon="11.2119529"><ele>63.33333333333333</ele><time>2026-04-25T10:12:52.34Z</time></trkpt><trkpt lat="42.3881184" lon="11.2120437"><ele>63.666666666666664</ele><time>2026-04-25T10:22:05.338Z</time></trkpt><trkpt lat="42.3882005" lon="11.2120686"><ele>64.0</ele><time>2026-04-25T10:22:07.333Z</time></trkpt><trkpt lat="42.3882794" lon="11.2120786"><ele>64.0</ele><time>2026-04-25T10:22:09.338Z</time></trkpt><trkpt lat="42.388355" lon="11.2120962"><ele>63.99999999999999</ele><time>2026-04-25T10:22:11.338Z</time></trkpt><trkpt lat="42.3884175" lon="11.2121068"><ele>64.0</ele><time>2026-04-25T10:22:13.339Z</time></trkpt><trkpt lat="42.3884806" lon="11.2121182"><ele>64.0</ele><time>2026-04-25T10:22:16.345Z</time></trkpt><trkpt lat="42.3885459" lon="11.2121368"><ele>63.99999999999999</ele><time>2026-04-25T10:22:19.339Z</time></trkpt><trkpt lat="42.3886497" lon="11.2121485"><ele>64.0</ele><time>2026-04-25T10:22:21.347Z</time></trkpt><trkpt lat="42.3887158" lon="11.2121544"><ele>64.0</ele><time>2026-04-25T10:22:22.339Z</time></trkpt><trkpt lat="42.3888093" lon="11.2121496"><ele>67.80000000000001</ele><time>2026-04-25T10:22:24.334Z</time></trkpt><trkpt lat="42.388902" lon="11.2121583"><ele>71.60000000000001</ele><time>2026-04-25T10:22:26.336Z</time></trkpt><trkpt lat="42.3890003" lon="11.2121897"><ele>75.4</ele><time>2026-04-25T10:22:28.329Z</time></trkpt><trkpt lat="42.3891073" lon="11.2122153"><ele>79.2</ele><time>2026-04-25T10:22:30.337Z</time></trkpt><trkpt lat="42.3891945" lon="11.2122394"><ele>83.0</ele><time>2026-04-25T10:22:32.332Z</time></trkpt><trkpt lat="42.3892532" lon="11.2122989"><ele>83.0</ele><time>2026-04-25T10:22:34.333Z</time></trkpt><trkpt lat="42.3892894" lon="11.2124065"><ele>83.0</ele><time>2026-04-25T10:22:37.338Z</time></trkpt><trkpt lat="42.3893431" lon="11.2124557"><ele>83.0</ele><time>2026-04-25T10:22:40.334Z</time></trkpt><trkpt lat="42.3894032" lon="11.2124157"><ele>83.0</ele><time>2026-04-25T10:22:49.363Z</time></trkpt><trkpt lat="42.3893608" lon="11.212321"><ele>83.0</ele><time>2026-04-25T10:22:51.33Z</time></trkpt><trkpt lat="42.3892858" lon="11.2122592"><ele>83.0</ele><time>2026-04-25T10:22:53.333Z</time></trkpt><trkpt lat="42.3891905" lon="11.2122228"><ele>83.0</ele><time>2026-04-25T10:22:55.337Z</time></trkpt><trkpt lat="42.3890669" lon="11.2121952"><ele>83.0</ele><time>2026-04-25T10:22:57.335Z</time></trkpt><trkpt lat="42.3890013" lon="11.212182"><ele>83.0</ele><time>2026-04-25T10:22:58.338Z</time></trkpt><trkpt lat="42.3889352" lon="11.212169"><ele>83.0</ele><time>2026-04-25T10:22:59.333Z</time></trkpt><trkpt lat="42.3888679" lon="11.2121514"><ele>83.0</ele><time>2026-04-25T10:23:00.336Z</time></trkpt><trkpt lat="42.3888022" lon="11.212142"><ele>83.0</ele><time>2026-04-25T10:23:01.327Z</time></trkpt><trkpt lat="42.3887392" lon="11.2121358"><ele>79.2</ele><time>2026-04-25T10:23:02.333Z</time></trkpt><trkpt lat="42.3886351" lon="11.2121279"><ele>75.4</ele><time>2026-04-25T10:23:04.334Z</time></trkpt><trkpt lat="42.3885399" lon="11.2121235"><ele>71.60000000000001</ele><time>2026-04-25T10:23:06.335Z</time></trkpt><trkpt lat="42.3884435" lon="11.2121105"><ele>67.80000000000001</ele><time>2026-04-25T10:23:08.336Z</time></trkpt><trkpt lat="42.3883282" lon="11.2120876"><ele>64.0</ele><time>2026-04-25T10:23:10.334Z</time></trkpt><trkpt lat="42.3882638" lon="11.2120799"><ele>63.99999999999999</ele><time>2026-04-25T10:23:11.344Z</time></trkpt><trkpt lat="42.3881949" lon="11.2120669"><ele>64.0</ele><time>2026-04-25T10:23:12.335Z</time></trkpt><trkpt lat="42.3881043" lon="11.2120277"><ele>64.0</ele><time>2026-04-25T10:23:14.34Z</time></trkpt><trkpt lat="42.3881017" lon="11.2119058"><ele>64.0</ele><time>2026-04-25T10:23:17.327Z</time></trkpt><trkpt lat="42.3881158" lon="11.2118151"><ele>63.99999999999999</ele><time>2026-04-25T10:23:18.34Z</time></trkpt><trkpt lat="42.3881346" lon="11.2117105"><ele>64.0</ele><time>2026-04-25T10:23:19.334Z</time></trkpt><trkpt lat="42.3881626" lon="11.2116043"><ele>63.99999999999999</ele><time>2026-04-25T10:23:20.341Z</time></trkpt><trkpt lat="42.3881786" lon="11.2115168"><ele>64.0</ele><time>2026-04-25T10:23:21.346Z</time></trkpt><trkpt lat="42.3882056" lon="11.2113893"><ele>64.0</ele><time>2026-04-25T10:23:23.333Z</time></trkpt><trkpt lat="42.3882299" lon="11.2112708"><ele>64.0</ele><time>2026-04-25T10:23:25.338Z</time></trkpt><trkpt lat="42.388263" lon="11.2111214"><ele>63.99999999999999</ele><time>2026-04-25T10:23:27.34Z</time></trkpt><trkpt lat="42.388276" lon="11.211028"><ele>64.0</ele><time>2026-04-25T10:23:28.343Z</time></trkpt><trkpt lat="42.3882821" lon="11.2109314"><ele>63.666666666666664</ele><time>2026-04-25T10:23:29.335Z</time></trkpt><trkpt lat="42.3882822" lon="11.2108363"><ele>63.33333333333333</ele><time>2026-04-25T10:23:30.341Z</time></trkpt><trkpt lat="42.3882789" lon="11.210731"><ele>63.0</ele><time>2026-04-25T10:23:31.337Z</time></trkpt><trkpt lat="42.3882769" lon="11.2106186"><ele>62.66666666666667</ele><time>2026-04-25T10:23:32.338Z</time></trkpt><trkpt lat="42.3882753" lon="11.2104961"><ele>62.333333333333336</ele><time>2026-04-25T10:23:33.344Z</time></trkpt><trkpt lat="42.38828" lon="11.2103665"><ele>62.0</ele><time>2026-04-25T10:23:34.331Z</time></trkpt><trkpt lat="42.3882863" lon="11.2102298"><ele>61.0</ele><time>2026-04-25T10:23:35.336Z</time></trkpt><trkpt lat="42.3882926" lon="11.2100912"><ele>60.0</ele><time>2026-04-25T10:23:36.332Z</time></trkpt><trkpt lat="42.3883005" lon="11.2099585"><ele>59.0</ele><time>2026-04-25T10:23:37.335Z</time></trkpt><trkpt lat="42.3883075" lon="11.2098296"><ele>58.0</ele><time>2026-04-25T10:23:38.339Z</time></trkpt><trkpt lat="42.3883174" lon="11.2096913"><ele>57.0</ele><time>2026-04-25T10:23:39.335Z</time></trkpt><trkpt lat="42.388328" lon="11.2095617"><ele>56.2</ele><time>2026-04-25T10:23:40.344Z</time></trkpt><trkpt lat="42.3883446" lon="11.209451"><ele>55.400000000000006</ele><time>2026-04-25T10:23:41.332Z</time></trkpt><trkpt lat="42.388361" lon="11.209348"><ele>54.599999999999994</ele><time>2026-04-25T10:23:42.335Z</time></trkpt><trkpt lat="42.3883758" lon="11.2092631"><ele>53.8</ele><time>2026-04-25T10:23:43.344Z</time></trkpt><trkpt lat="42.3883876" lon="11.2091166"><ele>53.0</ele><time>2026-04-25T10:23:45.345Z</time></trkpt><trkpt lat="42.3883655" lon="11.2089602"><ele>52.333333333333336</ele><time>2026-04-25T10:23:47.344Z</time></trkpt><trkpt lat="42.3882957" lon="11.2088211"><ele>51.66666666666667</ele><time>2026-04-25T10:23:49.344Z</time></trkpt><trkpt lat="42.3882491" lon="11.208754"><ele>51.0</ele><time>2026-04-25T10:23:50.34Z</time></trkpt><trkpt lat="42.3882014" lon="11.2086707"><ele>50.33333333333333</ele><time>2026-04-25T10:23:51.336Z</time></trkpt><trkpt lat="42.3881562" lon="11.2085779"><ele>49.666666666666664</ele><time>2026-04-25T10:23:52.339Z</time></trkpt><trkpt lat="42.3881145" lon="11.208489"><ele>49.0</ele><time>2026-04-25T10:23:53.343Z</time></trkpt><trkpt lat="42.3880808" lon="11.2084072"><ele>49.0</ele><time>2026-04-25T10:23:54.337Z</time></trkpt><trkpt lat="42.3880439" lon="11.2082388"><ele>49.0</ele><time>2026-04-25T10:23:56.338Z</time></trkpt><trkpt lat="42.3880524" lon="11.2081399"><ele>49.0</ele><time>2026-04-25T10:23:57.338Z</time></trkpt><trkpt lat="42.3880838" lon="11.208031"><ele>49.0</ele><time>2026-04-25T10:23:58.338Z</time></trkpt><trkpt lat="42.38812" lon="11.2079037"><ele>49.0</ele><time>2026-04-25T10:23:59.34Z</time></trkpt><trkpt lat="42.388156" lon="11.207783"><ele>49.400000000000006</ele><time>2026-04-25T10:24:00.341Z</time></trkpt><trkpt lat="42.3881938" lon="11.2076924"><ele>49.8</ele><time>2026-04-25T10:24:01.339Z</time></trkpt><trkpt lat="42.3882737" lon="11.2076844"><ele>50.2</ele><time>2026-04-25T10:24:08.338Z</time></trkpt><trkpt lat="42.3883689" lon="11.2077167"><ele>50.599999999999994</ele><time>2026-04-25T10:24:23.337Z</time></trkpt><trkpt lat="42.3884578" lon="11.2077799"><ele>51.0</ele><time>2026-04-25T10:24:24.339Z</time></trkpt><trkpt lat="42.3885416" lon="11.2078516"><ele>51.0</ele><time>2026-04-25T10:24:25.343Z</time></trkpt><trkpt lat="42.3886222" lon="11.2079306"><ele>51.0</ele><time>2026-04-25T10:24:26.337Z</time></trkpt><trkpt lat="42.388706" lon="11.2080181"><ele>51.0</ele><time>2026-04-25T10:24:27.336Z</time></trkpt><trkpt lat="42.3887886" lon="11.2081035"><ele>51.0</ele><time>2026-04-25T10:24:28.339Z</time></trkpt><trkpt lat="42.3888705" lon="11.2081856"><ele>51.0</ele><time>2026-04-25T10:24:29.351Z</time></trkpt><trkpt lat="42.388967" lon="11.2082638"><ele>49.0</ele><time>2026-04-25T10:24:30.34Z</time></trkpt><trkpt lat="42.3890664" lon="11.2083383"><ele>47.0</ele><time>2026-04-25T10:24:31.337Z</time></trkpt><trkpt lat="42.3891705" lon="11.2084113"><ele>45.0</ele><time>2026-04-25T10:24:32.346Z</time></trkpt><trkpt lat="42.3892913" lon="11.2084898"><ele>43.0</ele><time>2026-04-25T10:24:33.333Z</time></trkpt><trkpt lat="42.3894138" lon="11.2085617"><ele>43.0</ele><time>2026-04-25T10:24:34.335Z</time></trkpt><trkpt lat="42.3895317" lon="11.2086259"><ele>43.0</ele><time>2026-04-25T10:24:35.342Z</time></trkpt><trkpt lat="42.389642" lon="11.2086968"><ele>43.0</ele><time>2026-04-25T10:24:36.337Z</time></trkpt><trkpt lat="42.3897433" lon="11.2087802"><ele>43.0</ele><time>2026-04-25T10:24:37.338Z</time></trkpt><trkpt lat="42.3898302" lon="11.2088737"><ele>41.0</ele><time>2026-04-25T10:24:38.335Z</time></trkpt><trkpt lat="42.389899" lon="11.2089609"><ele>39.0</ele><time>2026-04-25T10:24:39.334Z</time></trkpt><trkpt lat="42.3899676" lon="11.2090454"><ele>37.0</ele><time>2026-04-25T10:24:40.338Z</time></trkpt><trkpt lat="42.3900551" lon="11.209104"><ele>35.0</ele><time>2026-04-25T10:24:41.343Z</time></trkpt><trkpt lat="42.3901461" lon="11.2091868"><ele>33.0</ele><time>2026-04-25T10:24:42.334Z</time></trkpt><trkpt lat="42.3902233" lon="11.2092753"><ele>33.0</ele><time>2026-04-25T10:24:43.329Z</time></trkpt><trkpt lat="42.3902887" lon="11.2093519"><ele>33.0</ele><time>2026-04-25T10:24:44.335Z</time></trkpt><trkpt lat="42.3903478" lon="11.2094331"><ele>33.0</ele><time>2026-04-25T10:24:45.343Z</time></trkpt><trkpt lat="42.3904364" lon="11.2095147"><ele>33.0</ele><time>2026-04-25T10:24:47.336Z</time></trkpt><trkpt lat="42.3904763" lon="11.2094233"><ele>33.0</ele><time>2026-04-25T10:24:50.329Z</time></trkpt><trkpt lat="42.3904184" lon="11.2093417"><ele>33.0</ele><time>2026-04-25T10:24:52.337Z</time></trkpt><trkpt lat="42.3903627" lon="11.2092871"><ele>33.0</ele><time>2026-04-25T10:24:53.337Z</time></trkpt><trkpt lat="42.3903156" lon="11.2092106"><ele>33.0</ele><time>2026-04-25T10:24:54.335Z</time></trkpt><trkpt lat="42.3902635" lon="11.2091423"><ele>33.0</ele><time>2026-04-25T10:24:55.345Z</time></trkpt><trkpt lat="42.3902084" lon="11.209064"><ele>33.0</ele><time>2026-04-25T10:24:56.345Z</time></trkpt><trkpt lat="42.3901463" lon="11.2089801"><ele>33.0</ele><time>2026-04-25T10:24:57.337Z</time></trkpt><trkpt lat="42.390094" lon="11.2088915"><ele>33.0</ele><time>2026-04-25T10:24:58.333Z</time></trkpt><trkpt lat="42.3900342" lon="11.2088062"><ele>31.166666666666668</ele><time>2026-04-25T10:24:59.345Z</time></trkpt><trkpt lat="42.3899733" lon="11.2087247"><ele>29.333333333333332</ele><time>2026-04-25T10:25:00.338Z</time></trkpt><trkpt lat="42.3899208" lon="11.2086439"><ele>27.5</ele><time>2026-04-25T10:25:01.335Z</time></trkpt><trkpt lat="42.3898844" lon="11.2085478"><ele>25.666666666666664</ele><time>2026-04-25T10:25:02.339Z</time></trkpt><trkpt lat="42.389871" lon="11.2084357"><ele>23.833333333333332</ele><time>2026-04-25T10:25:03.332Z</time></trkpt><trkpt lat="42.389878" lon="11.2083093"><ele>22.0</ele><time>2026-04-25T10:25:04.331Z</time></trkpt><trkpt lat="42.3899004" lon="11.2081928"><ele>24.6</ele><time>2026-04-25T10:25:05.337Z</time></trkpt><trkpt lat="42.389943" lon="11.2080982"><ele>27.200000000000003</ele><time>2026-04-25T10:25:06.338Z</time></trkpt><trkpt lat="42.3900103" lon="11.2080236"><ele>29.8</ele><time>2026-04-25T10:25:07.338Z</time></trkpt><trkpt lat="42.3900926" lon="11.2079481"><ele>32.4</ele><time>2026-04-25T10:25:08.331Z</time></trkpt><trkpt lat="42.3901797" lon="11.2078546"><ele>35.0</ele><time>2026-04-25T10:25:09.342Z</time></trkpt><trkpt lat="42.3902648" lon="11.2077576"><ele>35.0</ele><time>2026-04-25T10:25:10.343Z</time></trkpt><trkpt lat="42.3903495" lon="11.2076524"><ele>35.0</ele><time>2026-04-25T10:25:11.335Z</time></trkpt><trkpt lat="42.3904333" lon="11.2075378"><ele>35.0</ele><time>2026-04-25T10:25:12.345Z</time></trkpt><trkpt lat="42.390526" lon="11.2074141"><ele>35.0</ele><time>2026-04-25T10:25:13.342Z</time></trkpt><trkpt lat="42.3906256" lon="11.207292"><ele>33.5</ele><time>2026-04-25T10:25:14.336Z</time></trkpt><trkpt lat="42.3907278" lon="11.2071704"><ele>32.0</ele><time>2026-04-25T10:25:15.34Z</time></trkpt><trkpt lat="42.3908334" lon="11.2070386"><ele>30.5</ele><time>2026-04-25T10:25:16.337Z</time></trkpt><trkpt lat="42.3909429" lon="11.206907"><ele>29.0</ele><time>2026-04-25T10:25:17.333Z</time></trkpt><trkpt lat="42.3910368" lon="11.206778"><ele>29.0</ele><time>2026-04-25T10:25:18.339Z</time></trkpt><trkpt lat="42.391131" lon="11.206654"><ele>29.0</ele><time>2026-04-25T10:25:19.338Z</time></trkpt><trkpt lat="42.3912266" lon="11.2065413"><ele>29.0</ele><time>2026-04-25T10:25:20.337Z</time></trkpt><trkpt lat="42.3913113" lon="11.20643"><ele>29.0</ele><time>2026-04-25T10:25:21.335Z</time></trkpt><trkpt lat="42.3913942" lon="11.2063347"><ele>28.2</ele><time>2026-04-25T10:25:22.332Z</time></trkpt><trkpt lat="42.3914722" lon="11.2062438"><ele>27.4</ele><time>2026-04-25T10:25:23.335Z</time></trkpt><trkpt lat="42.3915377" lon="11.2061581"><ele>26.6</ele><time>2026-04-25T10:25:24.339Z</time></trkpt><trkpt lat="42.3916036" lon="11.2060829"><ele>25.8</ele><time>2026-04-25T10:25:25.345Z</time></trkpt><trkpt lat="42.3916696" lon="11.206022"><ele>25.0</ele><time>2026-04-25T10:25:26.339Z</time></trkpt><trkpt lat="42.3917495" lon="11.2059624"><ele>25.0</ele><time>2026-04-25T10:25:27.337Z</time></trkpt><trkpt lat="42.3918298" lon="11.2059154"><ele>25.0</ele><time>2026-04-25T10:25:28.339Z</time></trkpt><trkpt lat="42.3919201" lon="11.2058808"><ele>25.0</ele><time>2026-04-25T10:25:29.34Z</time></trkpt><trkpt lat="42.3920047" lon="11.2058393"><ele>25.0</ele><time>2026-04-25T10:25:30.334Z</time></trkpt><trkpt lat="42.3920925" lon="11.2058"><ele>25.0</ele><time>2026-04-25T10:25:31.34Z</time></trkpt><trkpt lat="42.3921825" lon="11.2057565"><ele>24.000000000000004</ele><time>2026-04-25T10:25:32.344Z</time></trkpt><trkpt lat="42.3922688" lon="11.205713"><ele>23.0</ele><time>2026-04-25T10:25:33.345Z</time></trkpt><trkpt lat="42.392348" lon="11.2056721"><ele>22.0</ele><time>2026-04-25T10:25:34.338Z</time></trkpt><trkpt lat="42.392418" lon="11.2056244"><ele>21.0</ele><time>2026-04-25T10:25:35.331Z</time></trkpt><trkpt lat="42.3924839" lon="11.2055546"><ele>20.0</ele><time>2026-04-25T10:25:36.344Z</time></trkpt><trkpt lat="42.3925456" lon="11.2054665"><ele>19.0</ele><time>2026-04-25T10:25:37.339Z</time></trkpt><trkpt lat="42.3926017" lon="11.2053709"><ele>19.0</ele><time>2026-04-25T10:25:38.332Z</time></trkpt><trkpt lat="42.3926519" lon="11.2052802"><ele>19.0</ele><time>2026-04-25T10:25:39.341Z</time></trkpt><trkpt lat="42.3926968" lon="11.2051799"><ele>19.0</ele><time>2026-04-25T10:25:40.342Z</time></trkpt><trkpt lat="42.3927366" lon="11.2050844"><ele>19.0</ele><time>2026-04-25T10:25:41.337Z</time></trkpt><trkpt lat="42.3927827" lon="11.2049883"><ele>19.0</ele><time>2026-04-25T10:25:42.332Z</time></trkpt><trkpt lat="42.3928313" lon="11.204895"><ele>19.0</ele><time>2026-04-25T10:25:43.334Z</time></trkpt><trkpt lat="42.3928821" lon="11.2048068"><ele>18.5</ele><time>2026-04-25T10:25:44.339Z</time></trkpt><trkpt lat="42.3929399" lon="11.2047212"><ele>18.0</ele><time>2026-04-25T10:25:45.339Z</time></trkpt><trkpt lat="42.3929922" lon="11.2046313"><ele>17.5</ele><time>2026-04-25T10:25:46.337Z</time></trkpt><trkpt lat="42.3930399" lon="11.2045623"><ele>17.0</ele><time>2026-04-25T10:25:47.336Z</time></trkpt><trkpt lat="42.393119" lon="11.2044642"><ele>16.5</ele><time>2026-04-25T10:25:49.335Z</time></trkpt><trkpt lat="42.3931803" lon="11.2043881"><ele>16.0</ele><time>2026-04-25T10:25:51.332Z</time></trkpt><trkpt lat="42.3932486" lon="11.2043248"><ele>15.333333333333332</ele><time>2026-04-25T10:27:18.333Z</time></trkpt><trkpt lat="42.3933252" lon="11.2042553"><ele>14.666666666666666</ele><time>2026-04-25T10:45:19.335Z</time></trkpt><trkpt lat="42.3933776" lon="11.2041989"><ele>14.0</ele><time>2026-04-25T10:45:20.341Z</time></trkpt><trkpt lat="42.3934644" lon="11.2041286"><ele>13.333333333333332</ele><time>2026-04-25T10:45:22.334Z</time></trkpt><trkpt lat="42.3935316" lon="11.2040702"><ele>12.666666666666666</ele><time>2026-04-25T10:45:25.353Z</time></trkpt><trkpt lat="42.3936177" lon="11.2040486"><ele>12.0</ele><time>2026-04-25T10:45:28.34Z</time></trkpt><trkpt lat="42.3937122" lon="11.2040093"><ele>12.0</ele><time>2026-04-25T10:45:31.345Z</time></trkpt><trkpt lat="42.3937826" lon="11.2039917"><ele>12.0</ele><time>2026-04-25T10:45:33.336Z</time></trkpt><trkpt lat="42.3938861" lon="11.2039814"><ele>12.0</ele><time>2026-04-25T10:45:36.337Z</time></trkpt><trkpt lat="42.3940114" lon="11.2039554"><ele>12.0</ele><time>2026-04-25T10:45:38.339Z</time></trkpt><trkpt lat="42.3941282" lon="11.2039306"><ele>12.0</ele><time>2026-04-25T10:45:40.34Z</time></trkpt><trkpt lat="42.3942383" lon="11.2039051"><ele>12.6</ele><time>2026-04-25T10:45:42.34Z</time></trkpt><trkpt lat="42.3943623" lon="11.2038651"><ele>13.2</ele><time>2026-04-25T10:45:44.332Z</time></trkpt><trkpt lat="42.3944472" lon="11.2038471"><ele>13.8</ele><time>2026-04-25T10:45:45.339Z</time></trkpt><trkpt lat="42.3945448" lon="11.2038223"><ele>14.4</ele><time>2026-04-25T10:45:46.344Z</time></trkpt><trkpt lat="42.3946512" lon="11.203798"><ele>15.0</ele><time>2026-04-25T10:45:47.343Z</time></trkpt><trkpt lat="42.394763" lon="11.203773"><ele>16.5</ele><time>2026-04-25T10:45:48.344Z</time></trkpt><trkpt lat="42.394879" lon="11.2037487"><ele>18.0</ele><time>2026-04-25T10:45:49.339Z</time></trkpt><trkpt lat="42.3949985" lon="11.2037116"><ele>19.5</ele><time>2026-04-25T10:45:50.339Z</time></trkpt><trkpt lat="42.3951159" lon="11.2036725"><ele>21.0</ele><time>2026-04-25T10:45:51.337Z</time></trkpt><trkpt lat="42.3952335" lon="11.2036187"><ele>21.0</ele><time>2026-04-25T10:45:52.34Z</time></trkpt><trkpt lat="42.3953429" lon="11.2035254"><ele>21.0</ele><time>2026-04-25T10:45:53.342Z</time></trkpt><trkpt lat="42.395447" lon="11.2034188"><ele>21.0</ele><time>2026-04-25T10:45:54.344Z</time></trkpt><trkpt lat="42.3955385" lon="11.203302"><ele>21.0</ele><time>2026-04-25T10:45:55.345Z</time></trkpt><trkpt lat="42.3956253" lon="11.2031665"><ele>23.25</ele><time>2026-04-25T10:45:56.339Z</time></trkpt><trkpt lat="42.3957068" lon="11.2030192"><ele>25.5</ele><time>2026-04-25T10:45:57.333Z</time></trkpt><trkpt lat="42.3957929" lon="11.202862"><ele>27.75</ele><time>2026-04-25T10:45:58.344Z</time></trkpt><trkpt lat="42.3958692" lon="11.2027198"><ele>30.0</ele><time>2026-04-25T10:45:59.343Z</time></trkpt><trkpt lat="42.3959389" lon="11.2025904"><ele>30.0</ele><time>2026-04-25T10:46:00.335Z</time></trkpt><trkpt lat="42.3959989" lon="11.2024844"><ele>30.0</ele><time>2026-04-25T10:46:01.337Z</time></trkpt><trkpt lat="42.396055" lon="11.2024102"><ele>30.0</ele><time>2026-04-25T10:46:02.344Z</time></trkpt><trkpt lat="42.3961226" lon="11.2023393"><ele>30.0</ele><time>2026-04-25T10:46:03.348Z</time></trkpt><trkpt lat="42.3961929" lon="11.2022796"><ele>30.0</ele><time>2026-04-25T10:46:04.341Z</time></trkpt><trkpt lat="42.3962677" lon="11.202223"><ele>30.0</ele><time>2026-04-25T10:46:05.331Z</time></trkpt><trkpt lat="42.3963488" lon="11.2021646"><ele>28.4</ele><time>2026-04-25T10:46:06.335Z</time></trkpt><trkpt lat="42.3964343" lon="11.2021139"><ele>26.8</ele><time>2026-04-25T10:46:07.336Z</time></trkpt><trkpt lat="42.3965309" lon="11.2020527"><ele>25.200000000000003</ele><time>2026-04-25T10:46:08.337Z</time></trkpt><trkpt lat="42.3966235" lon="11.2019859"><ele>23.6</ele><time>2026-04-25T10:46:09.341Z</time></trkpt><trkpt lat="42.3967138" lon="11.2019348"><ele>22.0</ele><time>2026-04-25T10:46:10.334Z</time></trkpt><trkpt lat="42.3967964" lon="11.2018841"><ele>22.0</ele><time>2026-04-25T10:46:11.345Z</time></trkpt><trkpt lat="42.396891" lon="11.2018492"><ele>22.0</ele><time>2026-04-25T10:46:12.341Z</time></trkpt><trkpt lat="42.3969922" lon="11.2018244"><ele>22.0</ele><time>2026-04-25T10:46:13.34Z</time></trkpt><trkpt lat="42.3971052" lon="11.2018188"><ele>22.0</ele><time>2026-04-25T10:46:14.331Z</time></trkpt><trkpt lat="42.3972167" lon="11.2018279"><ele>22.0</ele><time>2026-04-25T10:46:15.338Z</time></trkpt><trkpt lat="42.3973292" lon="11.2018336"><ele>21.200000000000003</ele><time>2026-04-25T10:46:16.344Z</time></trkpt><trkpt lat="42.3974385" lon="11.2018381"><ele>20.400000000000002</ele><time>2026-04-25T10:46:17.338Z</time></trkpt><trkpt lat="42.3975424" lon="11.2018419"><ele>19.6</ele><time>2026-04-25T10:46:18.338Z</time></trkpt><trkpt lat="42.3976423" lon="11.2018469"><ele>18.8</ele><time>2026-04-25T10:46:19.333Z</time></trkpt><trkpt lat="42.3977409" lon="11.2018423"><ele>18.0</ele><time>2026-04-25T10:46:20.338Z</time></trkpt><trkpt lat="42.3978405" lon="11.2018134"><ele>18.0</ele><time>2026-04-25T10:46:21.336Z</time></trkpt><trkpt lat="42.3979414" lon="11.2017662"><ele>18.0</ele><time>2026-04-25T10:46:22.371Z</time></trkpt><trkpt lat="42.3980396" lon="11.2017121"><ele>18.0</ele><time>2026-04-25T10:46:23.343Z</time></trkpt><trkpt lat="42.3981403" lon="11.2016369"><ele>18.0</ele><time>2026-04-25T10:46:24.337Z</time></trkpt><trkpt lat="42.398243" lon="11.2015401"><ele>16.666666666666668</ele><time>2026-04-25T10:46:25.343Z</time></trkpt><trkpt lat="42.3983679" lon="11.2014418"><ele>15.333333333333334</ele><time>2026-04-25T10:46:26.342Z</time></trkpt><trkpt lat="42.3985169" lon="11.2013566"><ele>14.0</ele><time>2026-04-25T10:46:27.339Z</time></trkpt><trkpt lat="42.3986563" lon="11.2012757"><ele>14.0</ele><time>2026-04-25T10:46:28.34Z</time></trkpt><trkpt lat="42.3987973" lon="11.2011938"><ele>14.0</ele><time>2026-04-25T10:46:29.336Z</time></trkpt><trkpt lat="42.3989319" lon="11.2011129"><ele>14.0</ele><time>2026-04-25T10:46:30.339Z</time></trkpt><trkpt lat="42.3990608" lon="11.2010317"><ele>14.0</ele><time>2026-04-25T10:46:31.341Z</time></trkpt><trkpt lat="42.3991854" lon="11.2009396"><ele>13.25</ele><time>2026-04-25T10:46:32.341Z</time></trkpt><trkpt lat="42.3993123" lon="11.2008526"><ele>12.5</ele><time>2026-04-25T10:46:33.348Z</time></trkpt><trkpt lat="42.3994401" lon="11.2007642"><ele>11.75</ele><time>2026-04-25T10:46:34.334Z</time></trkpt><trkpt lat="42.3995663" lon="11.2006764"><ele>11.0</ele><time>2026-04-25T10:46:35.335Z</time></trkpt><trkpt lat="42.3996894" lon="11.2005863"><ele>11.0</ele><time>2026-04-25T10:46:36.339Z</time></trkpt><trkpt lat="42.3998171" lon="11.2004924"><ele>11.0</ele><time>2026-04-25T10:46:37.342Z</time></trkpt><trkpt lat="42.3999483" lon="11.2003968"><ele>11.0</ele><time>2026-04-25T10:46:38.335Z</time></trkpt><trkpt lat="42.4000842" lon="11.2003037"><ele>11.0</ele><time>2026-04-25T10:46:39.334Z</time></trkpt><trkpt lat="42.4002125" lon="11.200215"><ele>11.0</ele><time>2026-04-25T10:46:40.346Z</time></trkpt><trkpt lat="42.4003387" lon="11.2001163"><ele>11.0</ele><time>2026-04-25T10:46:41.337Z</time></trkpt><trkpt lat="42.400468" lon="11.2000194"><ele>11.0</ele><time>2026-04-25T10:46:42.341Z</time></trkpt><trkpt lat="42.4005969" lon="11.1999238"><ele>11.0</ele><time>2026-04-25T10:46:43.332Z</time></trkpt><trkpt lat="42.4007211" lon="11.1998319"><ele>10.75</ele><time>2026-04-25T10:46:44.343Z</time></trkpt><trkpt lat="42.4008377" lon="11.1997408"><ele>10.5</ele><time>2026-04-25T10:46:45.34Z</time></trkpt><trkpt lat="42.4009463" lon="11.1996547"><ele>10.25</ele><time>2026-04-25T10:46:46.337Z</time></trkpt><trkpt lat="42.4010486" lon="11.1995711"><ele>10.0</ele><time>2026-04-25T10:46:47.338Z</time></trkpt><trkpt lat="42.4011444" lon="11.1994932"><ele>10.0</ele><time>2026-04-25T10:46:48.337Z</time></trkpt><trkpt lat="42.4012396" lon="11.1994466"><ele>10.0</ele><time>2026-04-25T10:46:49.338Z</time></trkpt><trkpt lat="42.401339" lon="11.1994288"><ele>10.0</ele><time>2026-04-25T10:46:50.339Z</time></trkpt><trkpt lat="42.4014448" lon="11.1993984"><ele>10.0</ele><time>2026-04-25T10:46:51.335Z</time></trkpt><trkpt lat="42.4015476" lon="11.1993586"><ele>10.0</ele><time>2026-04-25T10:46:52.343Z</time></trkpt><trkpt lat="42.401656" lon="11.1993379"><ele>9.5</ele><time>2026-04-25T10:46:53.34Z</time></trkpt><trkpt lat="42.401776" lon="11.1993506"><ele>9.0</ele><time>2026-04-25T10:46:54.345Z</time></trkpt><trkpt lat="42.4019039" lon="11.1993891"><ele>8.5</ele><time>2026-04-25T10:46:55.344Z</time></trkpt><trkpt lat="42.4020427" lon="11.1994435"><ele>8.0</ele><time>2026-04-25T10:46:56.333Z</time></trkpt><trkpt lat="42.4021786" lon="11.1995119"><ele>7.75</ele><time>2026-04-25T10:46:57.344Z</time></trkpt><trkpt lat="42.4023167" lon="11.1995876"><ele>7.5</ele><time>2026-04-25T10:46:58.34Z</time></trkpt><trkpt lat="42.4024493" lon="11.1996598"><ele>7.25</ele><time>2026-04-25T10:46:59.337Z</time></trkpt><trkpt lat="42.4025829" lon="11.199733"><ele>7.0</ele><time>2026-04-25T10:47:00.336Z</time></trkpt><trkpt lat="42.402725" lon="11.1998069"><ele>7.0</ele><time>2026-04-25T10:47:01.342Z</time></trkpt><trkpt lat="42.4028634" lon="11.199881"><ele>7.0</ele><time>2026-04-25T10:47:02.338Z</time></trkpt><trkpt lat="42.4029955" lon="11.1999524"><ele>7.0</ele><time>2026-04-25T10:47:03.336Z</time></trkpt><trkpt lat="42.4031191" lon="11.2000174"><ele>7.0</ele><time>2026-04-25T10:47:04.347Z</time></trkpt><trkpt lat="42.4032396" lon="11.2000812"><ele>7.0</ele><time>2026-04-25T10:47:05.337Z</time></trkpt><trkpt lat="42.4033587" lon="11.2001457"><ele>7.0</ele><time>2026-04-25T10:47:06.335Z</time></trkpt><trkpt lat="42.4034793" lon="11.2002141"><ele>7.0</ele><time>2026-04-25T10:47:07.341Z</time></trkpt><trkpt lat="42.4035816" lon="11.2002935"><ele>7.0</ele><time>2026-04-25T10:47:08.337Z</time></trkpt><trkpt lat="42.4036622" lon="11.2003911"><ele>7.0</ele><time>2026-04-25T10:47:09.376Z</time></trkpt><trkpt lat="42.4037169" lon="11.200497"><ele>6.999999999999999</ele><time>2026-04-25T10:47:10.338Z</time></trkpt><trkpt lat="42.4037465" lon="11.2006074"><ele>6.999999999999999</ele><time>2026-04-25T10:47:11.339Z</time></trkpt><trkpt lat="42.4037511" lon="11.2007211"><ele>7.0</ele><time>2026-04-25T10:47:12.339Z</time></trkpt><trkpt lat="42.4037361" lon="11.2008416"><ele>7.0</ele><time>2026-04-25T10:47:13.332Z</time></trkpt><trkpt lat="42.4036923" lon="11.2009558"><ele>6.6</ele><time>2026-04-25T10:47:14.334Z</time></trkpt><trkpt lat="42.4036329" lon="11.201073"><ele>6.199999999999999</ele><time>2026-04-25T10:47:15.338Z</time></trkpt><trkpt lat="42.4035688" lon="11.2011762"><ele>5.8</ele><time>2026-04-25T10:47:16.341Z</time></trkpt><trkpt lat="42.403503" lon="11.2012771"><ele>5.4</ele><time>2026-04-25T10:47:17.336Z</time></trkpt><trkpt lat="42.4034443" lon="11.2013799"><ele>5.0</ele><time>2026-04-25T10:47:18.338Z</time></trkpt><trkpt lat="42.4033955" lon="11.2014764"><ele>5.0</ele><time>2026-04-25T10:47:19.343Z</time></trkpt><trkpt lat="42.4033454" lon="11.2015661"><ele>5.0</ele><time>2026-04-25T10:47:20.332Z</time></trkpt><trkpt lat="42.4032954" lon="11.2016534"><ele>5.0</ele><time>2026-04-25T10:47:21.345Z</time></trkpt><trkpt lat="42.4032451" lon="11.2017536"><ele>5.0</ele><time>2026-04-25T10:47:22.341Z</time></trkpt><trkpt lat="42.4031966" lon="11.20186"><ele>5.0</ele><time>2026-04-25T10:47:23.336Z</time></trkpt><trkpt lat="42.4031522" lon="11.2019757"><ele>5.0</ele><time>2026-04-25T10:47:24.335Z</time></trkpt><trkpt lat="42.4031221" lon="11.2021035"><ele>5.0</ele><time>2026-04-25T10:47:25.341Z</time></trkpt><trkpt lat="42.4030972" lon="11.2022354"><ele>5.0</ele><time>2026-04-25T10:47:26.339Z</time></trkpt><trkpt lat="42.4030729" lon="11.2023613"><ele>5.0</ele><time>2026-04-25T10:47:27.336Z</time></trkpt><trkpt lat="42.4030489" lon="11.2024836"><ele>5.0</ele><time>2026-04-25T10:47:28.341Z</time></trkpt><trkpt lat="42.4030278" lon="11.2026029"><ele>5.0</ele><time>2026-04-25T10:47:29.34Z</time></trkpt><trkpt lat="42.4030029" lon="11.2027175"><ele>4.833333333333334</ele><time>2026-04-25T10:47:30.336Z</time></trkpt><trkpt lat="42.4029803" lon="11.202831"><ele>4.666666666666667</ele><time>2026-04-25T10:47:31.336Z</time></trkpt><trkpt lat="42.4029645" lon="11.2029352"><ele>4.5</ele><time>2026-04-25T10:47:32.338Z</time></trkpt><trkpt lat="42.4029466" lon="11.2030274"><ele>4.333333333333333</ele><time>2026-04-25T10:47:33.336Z</time></trkpt><trkpt lat="42.402924" lon="11.2031299"><ele>4.166666666666666</ele><time>2026-04-25T10:47:34.343Z</time></trkpt><trkpt lat="42.4028949" lon="11.2032519"><ele>4.0</ele><time>2026-04-25T10:47:35.346Z</time></trkpt><trkpt lat="42.4028709" lon="11.2033686"><ele>3.8000000000000003</ele><time>2026-04-25T10:47:36.335Z</time></trkpt><trkpt lat="42.4028526" lon="11.2034519"><ele>3.6000000000000005</ele><time>2026-04-25T10:47:37.337Z</time></trkpt><trkpt lat="42.402891" lon="11.2035682"><ele>3.4</ele><time>2026-04-25T10:47:39.343Z</time></trkpt><trkpt lat="42.403031" lon="11.2036134"><ele>3.2</ele><time>2026-04-25T10:47:41.342Z</time></trkpt><trkpt lat="42.4031416" lon="11.2036381"><ele>3.0</ele><time>2026-04-25T10:47:42.336Z</time></trkpt><trkpt lat="42.4032592" lon="11.2036717"><ele>3.0</ele><time>2026-04-25T10:47:43.338Z</time></trkpt><trkpt lat="42.4033839" lon="11.2037166"><ele>3.0</ele><time>2026-04-25T10:47:44.341Z</time></trkpt><trkpt lat="42.4035165" lon="11.2037554"><ele>3.0</ele><time>2026-04-25T10:47:45.344Z</time></trkpt><trkpt lat="42.4036358" lon="11.2037892"><ele>3.0</ele><time>2026-04-25T10:47:46.337Z</time></trkpt><trkpt lat="42.4037333" lon="11.2038182"><ele>3.0</ele><time>2026-04-25T10:47:47.346Z</time></trkpt><trkpt lat="42.4038024" lon="11.2038528"><ele>3.0</ele><time>2026-04-25T10:47:48.338Z</time></trkpt><trkpt lat="42.4038448" lon="11.2039167"><ele>3.0</ele><time>2026-04-25T10:47:49.337Z</time></trkpt><trkpt lat="42.4038552" lon="11.2040901"><ele>3.0</ele><time>2026-04-25T10:47:51.338Z</time></trkpt><trkpt lat="42.4038283" lon="11.2042131"><ele>3.0</ele><time>2026-04-25T10:47:52.337Z</time></trkpt><trkpt lat="42.4037995" lon="11.2043526"><ele>3.0</ele><time>2026-04-25T10:47:53.348Z</time></trkpt><trkpt lat="42.4037713" lon="11.2044937"><ele>3.0</ele><time>2026-04-25T10:47:54.337Z</time></trkpt><trkpt lat="42.4037427" lon="11.2046302"><ele>3.0</ele><time>2026-04-25T10:47:55.338Z</time></trkpt><trkpt lat="42.4037135" lon="11.2047511"><ele>3.0</ele><time>2026-04-25T10:47:56.339Z</time></trkpt><trkpt lat="42.4036907" lon="11.2048826"><ele>3.0</ele><time>2026-04-25T10:47:57.341Z</time></trkpt><trkpt lat="42.4036738" lon="11.2050469"><ele>3.0</ele><time>2026-04-25T10:47:58.344Z</time></trkpt><trkpt lat="42.4036595" lon="11.2052243"><ele>3.0</ele><time>2026-04-25T10:47:59.346Z</time></trkpt><trkpt lat="42.4036418" lon="11.2053721"><ele>3.0</ele><time>2026-04-25T10:48:00.344Z</time></trkpt><trkpt lat="42.4036293" lon="11.2054844"><ele>3.0</ele><time>2026-04-25T10:48:01.345Z</time></trkpt><trkpt lat="42.4036168" lon="11.2055772"><ele>3.0</ele><time>2026-04-25T10:48:02.337Z</time></trkpt><trkpt lat="42.4035909" lon="11.2056687"><ele>2.6666666666666665</ele><time>2026-04-25T10:48:03.347Z</time></trkpt><trkpt lat="42.4035541" lon="11.2057527"><ele>2.3333333333333335</ele><time>2026-04-25T10:48:04.336Z</time></trkpt><trkpt lat="42.403522" lon="11.2058311"><ele>2.0</ele><time>2026-04-25T10:48:05.339Z</time></trkpt><trkpt lat="42.4034988" lon="11.2060077"><ele>1.6666666666666665</ele><time>2026-04-25T10:48:07.339Z</time></trkpt><trkpt lat="42.403497" lon="11.2061027"><ele>1.3333333333333333</ele><time>2026-04-25T10:48:08.338Z</time></trkpt><trkpt lat="42.4034952" lon="11.2062066"><ele>1.0</ele><time>2026-04-25T10:48:09.338Z</time></trkpt><trkpt lat="42.4034913" lon="11.2063046"><ele>0.9999999999999999</ele><time>2026-04-25T10:48:10.347Z</time></trkpt><trkpt lat="42.403485" lon="11.2063902"><ele>1.0</ele><time>2026-04-25T10:48:11.348Z</time></trkpt><trkpt lat="42.4034774" lon="11.206538"><ele>1.0</ele><time>2026-04-25T10:48:13.341Z</time></trkpt><trkpt lat="42.4034788" lon="11.2066736"><ele>1.0</ele><time>2026-04-25T10:48:15.337Z</time></trkpt><trkpt lat="42.4034641" lon="11.2067921"><ele>0.9999999999999999</ele><time>2026-04-25T10:48:17.34Z</time></trkpt><trkpt lat="42.403438" lon="11.2068891"><ele>1.0</ele><time>2026-04-25T10:48:19.34Z</time></trkpt><trkpt lat="42.4033941" lon="11.2069894"><ele>0.8</ele><time>2026-04-25T10:48:21.336Z</time></trkpt><trkpt lat="42.4034039" lon="11.2071003"><ele>0.6000000000000001</ele><time>2026-04-25T10:48:23.345Z</time></trkpt><trkpt lat="42.4034317" lon="11.2072199"><ele>0.4</ele><time>2026-04-25T10:48:25.338Z</time></trkpt><trkpt lat="42.4034572" lon="11.2073463"><ele>0.2</ele><time>2026-04-25T10:48:27.345Z</time></trkpt><trkpt lat="42.4034905" lon="11.2074939"><ele>0.0</ele><time>2026-04-25T10:48:29.336Z</time></trkpt><trkpt lat="42.4035204" lon="11.2076194"><ele>0.0</ele><time>2026-04-25T10:48:31.334Z</time></trkpt><trkpt lat="42.4035646" lon="11.2076996"><ele>0.0</ele><time>2026-04-25T10:48:33.337Z</time></trkpt><trkpt lat="42.4036332" lon="11.2077246"><ele>0.0</ele><time>2026-04-25T10:48:36.341Z</time></trkpt><trkpt lat="42.4036529" lon="11.2076334"><ele>0.0</ele><time>2026-04-25T10:48:39.339Z</time></trkpt><trkpt lat="42.4035846" lon="11.2074663"><ele>0.0</ele><time>2026-04-25T10:48:41.343Z</time></trkpt><trkpt lat="42.4035292" lon="11.2073647"><ele>0.0</ele><time>2026-04-25T10:48:42.338Z</time></trkpt><trkpt lat="42.4034914" lon="11.2072786"><ele>0.0</ele><time>2026-04-25T10:48:43.334Z</time></trkpt><trkpt lat="42.4034551" lon="11.2071872"><ele>0.0</ele><time>2026-04-25T10:48:45.335Z</time></trkpt><trkpt lat="42.4034639" lon="11.2073115"><ele>0.0</ele><time>2026-04-25T10:48:48.333Z</time></trkpt><trkpt lat="42.4035102" lon="11.2074249"><ele>0.0</ele><time>2026-04-25T10:48:49.339Z</time></trkpt><trkpt lat="42.4035332" lon="11.2075281"><ele>0.0</ele><time>2026-04-25T10:48:51.342Z</time></trkpt><trkpt lat="42.4035506" lon="11.2076275"><ele>0.0</ele><time>2026-04-25T10:48:53.343Z</time></trkpt><trkpt lat="42.4035884" lon="11.207736"><ele>0.0</ele><time>2026-04-25T10:48:55.344Z</time></trkpt><trkpt lat="42.4035941" lon="11.2078726"><ele>0.0</ele><time>2026-04-25T10:48:57.35Z</time></trkpt><trkpt lat="42.4035898" lon="11.2080189"><ele>0.0</ele><time>2026-04-25T10:48:59.336Z</time></trkpt><trkpt lat="42.4035625" lon="11.2081772"><ele>0.0</ele><time>2026-04-25T10:49:01.338Z</time></trkpt><trkpt lat="42.4035732" lon="11.2083395"><ele>0.0</ele><time>2026-04-25T10:49:03.344Z</time></trkpt><trkpt lat="42.4035962" lon="11.2085065"><ele>0.0</ele><time>2026-04-25T10:49:05.342Z</time></trkpt><trkpt lat="42.403631" lon="11.208651"><ele>0.0</ele><time>2026-04-25T10:49:07.338Z</time></trkpt><trkpt lat="42.4036593" lon="11.2087528"><ele>0.0</ele><time>2026-04-25T10:49:09.343Z</time></trkpt><trkpt lat="42.403681" lon="11.2088518"><ele>0.0</ele><time>2026-04-25T10:49:12.346Z</time></trkpt></trkseg><trkseg><trkpt lat="42.4036854" lon="11.2088169"><ele>0.0</ele><time>2026-04-25T11:33:29.727Z</time></trkpt><trkpt lat="42.4036569" lon="11.2087262"><ele>0.0</ele><time>2026-04-25T11:33:30.737Z</time></trkpt><trkpt lat="42.4036238" lon="11.2086278"><ele>0.0</ele><time>2026-04-25T11:33:31.726Z</time></trkpt><trkpt lat="42.4035774" lon="11.2083744"><ele>0.0</ele><time>2026-04-25T11:33:34.729Z</time></trkpt><trkpt lat="42.4035619" lon="11.2082618"><ele>0.0</ele><time>2026-04-25T11:33:35.734Z</time></trkpt><trkpt lat="42.4035643" lon="11.2081015"><ele>0.0</ele><time>2026-04-25T11:33:37.724Z</time></trkpt><trkpt lat="42.4035821" lon="11.2080097"><ele>0.0</ele><time>2026-04-25T11:33:38.72Z</time></trkpt><trkpt lat="42.4035924" lon="11.2079194"><ele>0.0</ele><time>2026-04-25T11:33:39.728Z</time></trkpt><trkpt lat="42.4035703" lon="11.207766"><ele>0.0</ele><time>2026-04-25T11:33:41.728Z</time></trkpt><trkpt lat="42.4035128" lon="11.2076368"><ele>0.0</ele><time>2026-04-25T11:33:43.721Z</time></trkpt><trkpt lat="42.4034834" lon="11.2075556"><ele>0.0</ele><time>2026-04-25T11:33:44.724Z</time></trkpt><trkpt lat="42.4034658" lon="11.2074711"><ele>0.0</ele><time>2026-04-25T11:33:45.723Z</time></trkpt><trkpt lat="42.4034656" lon="11.2073834"><ele>0.0</ele><time>2026-04-25T11:33:47.72Z</time></trkpt><trkpt lat="42.4035575" lon="11.2074132"><ele>0.0</ele><time>2026-04-25T11:33:50.729Z</time></trkpt><trkpt lat="42.4036194" lon="11.2074873"><ele>0.0</ele><time>2026-04-25T11:33:51.731Z</time></trkpt><trkpt lat="42.4036907" lon="11.2075717"><ele>0.0</ele><time>2026-04-25T11:33:52.726Z</time></trkpt><trkpt lat="42.4037524" lon="11.2076349"><ele>0.0</ele><time>2026-04-25T11:33:53.735Z</time></trkpt><trkpt lat="42.4038243" lon="11.2077006"><ele>0.2</ele><time>2026-04-25T11:33:54.734Z</time></trkpt><trkpt lat="42.4039005" lon="11.2077545"><ele>0.4</ele><time>2026-04-25T11:33:55.734Z</time></trkpt><trkpt lat="42.4039818" lon="11.2077942"><ele>0.6000000000000001</ele><time>2026-04-25T11:33:56.727Z</time></trkpt><trkpt lat="42.4040609" lon="11.2078278"><ele>0.8</ele><time>2026-04-25T11:33:57.738Z</time></trkpt><trkpt lat="42.404151" lon="11.2078648"><ele>1.0</ele><time>2026-04-25T11:33:59.727Z</time></trkpt><trkpt lat="42.4042675" lon="11.2078578"><ele>1.0</ele><time>2026-04-25T11:34:01.724Z</time></trkpt><trkpt lat="42.4043681" lon="11.2078581"><ele>1.0</ele><time>2026-04-25T11:34:03.732Z</time></trkpt><trkpt lat="42.4044618" lon="11.2079192"><ele>1.0</ele><time>2026-04-25T11:34:05.729Z</time></trkpt><trkpt lat="42.4045685" lon="11.2079928"><ele>1.0</ele><time>2026-04-25T11:34:07.72Z</time></trkpt><trkpt lat="42.4046544" lon="11.2080202"><ele>1.0</ele><time>2026-04-25T11:34:09.737Z</time></trkpt><trkpt lat="42.4047612" lon="11.2079893"><ele>3.666666666666667</ele><time>2026-04-25T11:34:11.731Z</time></trkpt><trkpt lat="42.4048464" lon="11.207898"><ele>6.333333333333334</ele><time>2026-04-25T11:34:13.721Z</time></trkpt><trkpt lat="42.4048806" lon="11.2078184"><ele>9.0</ele><time>2026-04-25T11:34:14.729Z</time></trkpt><trkpt lat="42.4049035" lon="11.2077251"><ele>11.666666666666668</ele><time>2026-04-25T11:34:15.728Z</time></trkpt><trkpt lat="42.4049197" lon="11.207639"><ele>14.333333333333334</ele><time>2026-04-25T11:34:16.727Z</time></trkpt><trkpt lat="42.404952" lon="11.2075032"><ele>17.0</ele><time>2026-04-25T11:34:18.724Z</time></trkpt><trkpt lat="42.4049937" lon="11.2073942"><ele>15.666666666666668</ele><time>2026-04-25T11:34:20.723Z</time></trkpt><trkpt lat="42.4050163" lon="11.2072907"><ele>14.333333333333334</ele><time>2026-04-25T11:34:22.73Z</time></trkpt><trkpt lat="42.4049794" lon="11.2071275"><ele>13.0</ele><time>2026-04-25T11:34:24.728Z</time></trkpt><trkpt lat="42.4049348" lon="11.2070206"><ele>11.666666666666668</ele><time>2026-04-25T11:34:25.718Z</time></trkpt><trkpt lat="42.4049034" lon="11.2069134"><ele>10.333333333333334</ele><time>2026-04-25T11:34:26.727Z</time></trkpt><trkpt lat="42.4048998" lon="11.2068278"><ele>9.0</ele><time>2026-04-25T11:34:27.721Z</time></trkpt><trkpt lat="42.4049066" lon="11.2067358"><ele>9.0</ele><time>2026-04-25T11:34:28.733Z</time></trkpt><trkpt lat="42.4049248" lon="11.2066433"><ele>9.0</ele><time>2026-04-25T11:34:29.737Z</time></trkpt><trkpt lat="42.4049412" lon="11.2065601"><ele>9.0</ele><time>2026-04-25T11:34:30.726Z</time></trkpt><trkpt lat="42.4049166" lon="11.2064336"><ele>9.0</ele><time>2026-04-25T11:34:32.727Z</time></trkpt><trkpt lat="42.4048644" lon="11.2063807"><ele>9.0</ele><time>2026-04-25T11:34:33.729Z</time></trkpt><trkpt lat="42.4047801" lon="11.2063354"><ele>9.0</ele><time>2026-04-25T11:34:34.729Z</time></trkpt><trkpt lat="42.404705" lon="11.206285"><ele>7.8</ele><time>2026-04-25T11:34:35.724Z</time></trkpt><trkpt lat="42.4046516" lon="11.2062249"><ele>6.6000000000000005</ele><time>2026-04-25T11:34:36.73Z</time></trkpt><trkpt lat="42.4045804" lon="11.2061222"><ele>5.4</ele><time>2026-04-25T11:34:38.723Z</time></trkpt><trkpt lat="42.4044548" lon="11.206122"><ele>4.2</ele><time>2026-04-25T11:34:40.734Z</time></trkpt><trkpt lat="42.4043588" lon="11.2061585"><ele>3.0</ele><time>2026-04-25T11:34:42.726Z</time></trkpt><trkpt lat="42.4042767" lon="11.2062267"><ele>3.0</ele><time>2026-04-25T11:34:45.722Z</time></trkpt><trkpt lat="42.4041917" lon="11.2062498"><ele>3.0</ele><time>2026-04-25T11:34:47.725Z</time></trkpt><trkpt lat="42.4040931" lon="11.206288"><ele>3.0</ele><time>2026-04-25T11:34:49.726Z</time></trkpt><trkpt lat="42.4039754" lon="11.2063456"><ele>3.0</ele><time>2026-04-25T11:34:51.727Z</time></trkpt><trkpt lat="42.403882" lon="11.206403"><ele>3.0</ele><time>2026-04-25T11:34:53.723Z</time></trkpt><trkpt lat="42.4037789" lon="11.2064562"><ele>2.6</ele><time>2026-04-25T11:34:55.733Z</time></trkpt><trkpt lat="42.4036736" lon="11.2064917"><ele>2.1999999999999997</ele><time>2026-04-25T11:34:57.741Z</time></trkpt><trkpt lat="42.4035971" lon="11.2064843"><ele>1.8</ele><time>2026-04-25T11:34:59.724Z</time></trkpt><trkpt lat="42.403545" lon="11.2064304"><ele>1.4</ele><time>2026-04-25T11:35:01.721Z</time></trkpt><trkpt lat="42.4034973" lon="11.2063267"><ele>1.0</ele><time>2026-04-25T11:35:03.727Z</time></trkpt><trkpt lat="42.4034842" lon="11.206153"><ele>1.0</ele><time>2026-04-25T11:35:05.733Z</time></trkpt><trkpt lat="42.4034899" lon="11.2060637"><ele>0.9999999999999999</ele><time>2026-04-25T11:35:06.728Z</time></trkpt><trkpt lat="42.4034984" lon="11.2059725"><ele>1.0</ele><time>2026-04-25T11:35:07.731Z</time></trkpt><trkpt lat="42.4035107" lon="11.205888"><ele>1.0</ele><time>2026-04-25T11:35:08.731Z</time></trkpt><trkpt lat="42.4035314" lon="11.2058017"><ele>0.9999999999999999</ele><time>2026-04-25T11:35:09.73Z</time></trkpt><trkpt lat="42.4035575" lon="11.205721"><ele>1.0</ele><time>2026-04-25T11:35:10.722Z</time></trkpt><trkpt lat="42.4035894" lon="11.2056406"><ele>1.0</ele><time>2026-04-25T11:35:11.725Z</time></trkpt><trkpt lat="42.4036285" lon="11.2055005"><ele>1.3333333333333333</ele><time>2026-04-25T11:35:13.724Z</time></trkpt><trkpt lat="42.4036469" lon="11.2053415"><ele>1.6666666666666665</ele><time>2026-04-25T11:35:15.727Z</time></trkpt><trkpt lat="42.4036502" lon="11.2052561"><ele>2.0</ele><time>2026-04-25T11:35:16.733Z</time></trkpt><trkpt lat="42.4036598" lon="11.2051629"><ele>2.3333333333333335</ele><time>2026-04-25T11:35:17.729Z</time></trkpt><trkpt lat="42.4036782" lon="11.2050606"><ele>2.6666666666666665</ele><time>2026-04-25T11:35:18.73Z</time></trkpt><trkpt lat="42.4037017" lon="11.2049496"><ele>3.0</ele><time>2026-04-25T11:35:19.728Z</time></trkpt><trkpt lat="42.403722" lon="11.2048427"><ele>2.6</ele><time>2026-04-25T11:35:20.721Z</time></trkpt><trkpt lat="42.403741" lon="11.2047305"><ele>2.1999999999999997</ele><time>2026-04-25T11:35:21.732Z</time></trkpt><trkpt lat="42.4037645" lon="11.2046073"><ele>1.8</ele><time>2026-04-25T11:35:22.732Z</time></trkpt><trkpt lat="42.4037894" lon="11.2044827"><ele>1.4</ele><time>2026-04-25T11:35:23.736Z</time></trkpt><trkpt lat="42.4038155" lon="11.2043495"><ele>1.0</ele><time>2026-04-25T11:35:24.727Z</time></trkpt><trkpt lat="42.4038401" lon="11.2042097"><ele>1.0</ele><time>2026-04-25T11:35:25.735Z</time></trkpt><trkpt lat="42.403864" lon="11.2040863"><ele>1.0</ele><time>2026-04-25T11:35:26.725Z</time></trkpt><trkpt lat="42.4038746" lon="11.203988"><ele>1.0</ele><time>2026-04-25T11:35:27.723Z</time></trkpt><trkpt lat="42.4038242" lon="11.2038508"><ele>1.0</ele><time>2026-04-25T11:35:29.722Z</time></trkpt><trkpt lat="42.4037538" lon="11.2038171"><ele>1.0</ele><time>2026-04-25T11:35:30.725Z</time></trkpt><trkpt lat="42.4036583" lon="11.2037875"><ele>1.5</ele><time>2026-04-25T11:35:31.722Z</time></trkpt><trkpt lat="42.4035495" lon="11.2037586"><ele>2.0</ele><time>2026-04-25T11:35:32.725Z</time></trkpt><trkpt lat="42.4034263" lon="11.2037212"><ele>2.5</ele><time>2026-04-25T11:35:33.727Z</time></trkpt><trkpt lat="42.4032953" lon="11.2036776"><ele>3.0</ele><time>2026-04-25T11:35:34.726Z</time></trkpt><trkpt lat="42.4031688" lon="11.2036451"><ele>3.0</ele><time>2026-04-25T11:35:35.728Z</time></trkpt><trkpt lat="42.4030561" lon="11.2036124"><ele>3.0</ele><time>2026-04-25T11:35:36.724Z</time></trkpt><trkpt lat="42.4029741" lon="11.2035901"><ele>3.0</ele><time>2026-04-25T11:35:37.726Z</time></trkpt><trkpt lat="42.4028804" lon="11.2035479"><ele>3.0</ele><time>2026-04-25T11:35:39.735Z</time></trkpt><trkpt lat="42.4028622" lon="11.2034517"><ele>3.0</ele><time>2026-04-25T11:35:41.723Z</time></trkpt><trkpt lat="42.4028756" lon="11.2033517"><ele>3.0</ele><time>2026-04-25T11:35:42.725Z</time></trkpt><trkpt lat="42.4029055" lon="11.203224"><ele>3.25</ele><time>2026-04-25T11:35:43.729Z</time></trkpt><trkpt lat="42.4029471" lon="11.2030648"><ele>3.5</ele><time>2026-04-25T11:35:44.729Z</time></trkpt><trkpt lat="42.4029866" lon="11.202885"><ele>3.75</ele><time>2026-04-25T11:35:45.73Z</time></trkpt><trkpt lat="42.4030281" lon="11.2027047"><ele>4.0</ele><time>2026-04-25T11:35:46.731Z</time></trkpt><trkpt lat="42.403068" lon="11.2025268"><ele>4.0</ele><time>2026-04-25T11:35:47.728Z</time></trkpt><trkpt lat="42.4031057" lon="11.2023538"><ele>4.0</ele><time>2026-04-25T11:35:48.725Z</time></trkpt><trkpt lat="42.403144" lon="11.202179"><ele>4.0</ele><time>2026-04-25T11:35:49.724Z</time></trkpt><trkpt lat="42.4031911" lon="11.2019914"><ele>4.0</ele><time>2026-04-25T11:35:50.727Z</time></trkpt><trkpt lat="42.4032606" lon="11.2018085"><ele>4.25</ele><time>2026-04-25T11:35:51.729Z</time></trkpt><trkpt lat="42.4033359" lon="11.2016309"><ele>4.5</ele><time>2026-04-25T11:35:52.735Z</time></trkpt><trkpt lat="42.4034171" lon="11.2014643"><ele>4.75</ele><time>2026-04-25T11:35:53.725Z</time></trkpt><trkpt lat="42.4035045" lon="11.2013189"><ele>5.0</ele><time>2026-04-25T11:35:54.731Z</time></trkpt><trkpt lat="42.403589" lon="11.2011698"><ele>5.0</ele><time>2026-04-25T11:35:55.722Z</time></trkpt><trkpt lat="42.40367" lon="11.2010392"><ele>5.0</ele><time>2026-04-25T11:35:56.729Z</time></trkpt><trkpt lat="42.4037519" lon="11.2009331"><ele>5.0</ele><time>2026-04-25T11:35:57.729Z</time></trkpt><trkpt lat="42.403832" lon="11.2008415"><ele>5.0</ele><time>2026-04-25T11:35:58.727Z</time></trkpt><trkpt lat="42.4039071" lon="11.2007592"><ele>5.0</ele><time>2026-04-25T11:35:59.728Z</time></trkpt><trkpt lat="42.4039676" lon="11.2006779"><ele>5.333333333333334</ele><time>2026-04-25T11:36:00.729Z</time></trkpt><trkpt lat="42.4039984" lon="11.200598"><ele>5.666666666666667</ele><time>2026-04-25T11:36:01.733Z</time></trkpt><trkpt lat="42.4039959" lon="11.2004897"><ele>6.0</ele><time>2026-04-25T11:36:03.728Z</time></trkpt><trkpt lat="42.4039298" lon="11.2004096"><ele>6.333333333333334</ele><time>2026-04-25T11:36:05.728Z</time></trkpt><trkpt lat="42.4038644" lon="11.2003519"><ele>6.666666666666667</ele><time>2026-04-25T11:36:06.729Z</time></trkpt><trkpt lat="42.4037669" lon="11.2002993"><ele>7.0</ele><time>2026-04-25T11:36:07.727Z</time></trkpt><trkpt lat="42.4036593" lon="11.2002433"><ele>7.0</ele><time>2026-04-25T11:36:08.728Z</time></trkpt><trkpt lat="42.4035403" lon="11.2001782"><ele>7.0</ele><time>2026-04-25T11:36:09.732Z</time></trkpt><trkpt lat="42.4034108" lon="11.2001047"><ele>7.0</ele><time>2026-04-25T11:36:10.73Z</time></trkpt><trkpt lat="42.4032794" lon="11.2000385"><ele>7.0</ele><time>2026-04-25T11:36:11.725Z</time></trkpt><trkpt lat="42.4031485" lon="11.1999715"><ele>7.0</ele><time>2026-04-25T11:36:12.729Z</time></trkpt><trkpt lat="42.4030237" lon="11.1999062"><ele>7.0</ele><time>2026-04-25T11:36:13.73Z</time></trkpt><trkpt lat="42.4028959" lon="11.1998441"><ele>7.0</ele><time>2026-04-25T11:36:14.726Z</time></trkpt><trkpt lat="42.4027712" lon="11.1997795"><ele>7.0</ele><time>2026-04-25T11:36:15.729Z</time></trkpt><trkpt lat="42.4026491" lon="11.1997208"><ele>7.0</ele><time>2026-04-25T11:36:16.731Z</time></trkpt><trkpt lat="42.4025274" lon="11.1996585"><ele>7.0</ele><time>2026-04-25T11:36:17.722Z</time></trkpt><trkpt lat="42.402404" lon="11.1996"><ele>7.0</ele><time>2026-04-25T11:36:18.74Z</time></trkpt><trkpt lat="42.4022822" lon="11.1995425"><ele>7.0</ele><time>2026-04-25T11:36:19.727Z</time></trkpt><trkpt lat="42.4021575" lon="11.1994759"><ele>7.25</ele><time>2026-04-25T11:36:20.728Z</time></trkpt><trkpt lat="42.4020321" lon="11.199414"><ele>7.5</ele><time>2026-04-25T11:36:21.73Z</time></trkpt><trkpt lat="42.4019067" lon="11.1993632"><ele>7.75</ele><time>2026-04-25T11:36:22.734Z</time></trkpt><trkpt lat="42.4017945" lon="11.1993323"><ele>8.0</ele><time>2026-04-25T11:36:23.727Z</time></trkpt><trkpt lat="42.4016948" lon="11.1993109"><ele>8.0</ele><time>2026-04-25T11:36:24.737Z</time></trkpt><trkpt lat="42.4016057" lon="11.1992823"><ele>7.999999999999999</ele><time>2026-04-25T11:36:25.724Z</time></trkpt><trkpt lat="42.4015332" lon="11.1992425"><ele>8.0</ele><time>2026-04-25T11:36:26.735Z</time></trkpt><trkpt lat="42.4014821" lon="11.1991918"><ele>8.0</ele><time>2026-04-25T11:36:27.725Z</time></trkpt><trkpt lat="42.4014487" lon="11.1991192"><ele>7.999999999999999</ele><time>2026-04-25T11:36:28.728Z</time></trkpt><trkpt lat="42.4014489" lon="11.1990265"><ele>8.0</ele><time>2026-04-25T11:36:29.725Z</time></trkpt><trkpt lat="42.4014745" lon="11.1989356"><ele>8.0</ele><time>2026-04-25T11:36:30.73Z</time></trkpt><trkpt lat="42.4015205" lon="11.1988226"><ele>8.5</ele><time>2026-04-25T11:36:31.734Z</time></trkpt><trkpt lat="42.4015751" lon="11.1987102"><ele>9.0</ele><time>2026-04-25T11:36:32.727Z</time></trkpt><trkpt lat="42.4016269" lon="11.1985908"><ele>9.5</ele><time>2026-04-25T11:36:33.728Z</time></trkpt><trkpt lat="42.4016887" lon="11.1984501"><ele>10.0</ele><time>2026-04-25T11:36:34.726Z</time></trkpt><trkpt lat="42.4017502" lon="11.1982926"><ele>11.0</ele><time>2026-04-25T11:36:35.726Z</time></trkpt><trkpt lat="42.4018107" lon="11.1981083"><ele>12.0</ele><time>2026-04-25T11:36:36.724Z</time></trkpt><trkpt lat="42.4018738" lon="11.1979085"><ele>13.0</ele><time>2026-04-25T11:36:37.727Z</time></trkpt><trkpt lat="42.4019357" lon="11.1976924"><ele>13.0</ele><time>2026-04-25T11:36:38.732Z</time></trkpt><trkpt lat="42.4020031" lon="11.1974746"><ele>13.0</ele><time>2026-04-25T11:36:39.73Z</time></trkpt><trkpt lat="42.4020626" lon="11.1972917"><ele>13.0</ele><time>2026-04-25T11:36:40.722Z</time></trkpt><trkpt lat="42.4021176" lon="11.1971237"><ele>13.25</ele><time>2026-04-25T11:36:41.728Z</time></trkpt><trkpt lat="42.4021745" lon="11.1969762"><ele>13.5</ele><time>2026-04-25T11:36:42.726Z</time></trkpt><trkpt lat="42.4022384" lon="11.19684"><ele>13.75</ele><time>2026-04-25T11:36:43.736Z</time></trkpt><trkpt lat="42.4023014" lon="11.1967196"><ele>14.0</ele><time>2026-04-25T11:36:44.73Z</time></trkpt><trkpt lat="42.4023643" lon="11.1966131"><ele>14.0</ele><time>2026-04-25T11:36:45.734Z</time></trkpt><trkpt lat="42.4024382" lon="11.1965091"><ele>14.0</ele><time>2026-04-25T11:36:46.727Z</time></trkpt><trkpt lat="42.4025258" lon="11.1964017"><ele>14.0</ele><time>2026-04-25T11:36:47.737Z</time></trkpt><trkpt lat="42.4026253" lon="11.196277"><ele>14.0</ele><time>2026-04-25T11:36:48.722Z</time></trkpt><trkpt lat="42.4027272" lon="11.1961546"><ele>14.5</ele><time>2026-04-25T11:36:49.741Z</time></trkpt><trkpt lat="42.4028248" lon="11.1960319"><ele>15.0</ele><time>2026-04-25T11:36:50.729Z</time></trkpt><trkpt lat="42.4029255" lon="11.1959199"><ele>15.5</ele><time>2026-04-25T11:36:51.737Z</time></trkpt><trkpt lat="42.4030267" lon="11.1958148"><ele>16.0</ele><time>2026-04-25T11:36:52.725Z</time></trkpt><trkpt lat="42.4031408" lon="11.1957333"><ele>16.0</ele><time>2026-04-25T11:36:53.729Z</time></trkpt><trkpt lat="42.4032669" lon="11.1956844"><ele>16.0</ele><time>2026-04-25T11:36:54.725Z</time></trkpt><trkpt lat="42.4034071" lon="11.1956443"><ele>16.0</ele><time>2026-04-25T11:36:55.725Z</time></trkpt><trkpt lat="42.4035139" lon="11.195598"><ele>16.0</ele><time>2026-04-25T11:36:56.732Z</time></trkpt><trkpt lat="42.4035831" lon="11.195554"><ele>16.6</ele><time>2026-04-25T11:36:57.721Z</time></trkpt><trkpt lat="42.4036403" lon="11.1954902"><ele>17.200000000000003</ele><time>2026-04-25T11:36:58.732Z</time></trkpt><trkpt lat="42.4036868" lon="11.1953907"><ele>17.799999999999997</ele><time>2026-04-25T11:36:59.735Z</time></trkpt><trkpt lat="42.4037054" lon="11.1952548"><ele>18.4</ele><time>2026-04-25T11:37:00.728Z</time></trkpt><trkpt lat="42.4037294" lon="11.1950865"><ele>19.0</ele><time>2026-04-25T11:37:01.723Z</time></trkpt><trkpt lat="42.4037466" lon="11.1949328"><ele>19.6</ele><time>2026-04-25T11:37:02.729Z</time></trkpt><trkpt lat="42.4037844" lon="11.1948073"><ele>20.2</ele><time>2026-04-25T11:37:03.727Z</time></trkpt><trkpt lat="42.4038478" lon="11.1946812"><ele>20.8</ele><time>2026-04-25T11:37:04.733Z</time></trkpt><trkpt lat="42.4039051" lon="11.1945582"><ele>21.400000000000002</ele><time>2026-04-25T11:37:05.725Z</time></trkpt><trkpt lat="42.4039402" lon="11.1944696"><ele>22.0</ele><time>2026-04-25T11:37:06.726Z</time></trkpt><trkpt lat="42.4039923" lon="11.1944076"><ele>22.0</ele><time>2026-04-25T11:37:08.723Z</time></trkpt><trkpt lat="42.4040783" lon="11.1943918"><ele>22.0</ele><time>2026-04-25T11:37:10.724Z</time></trkpt><trkpt lat="42.4041661" lon="11.1943385"><ele>22.0</ele><time>2026-04-25T11:37:12.725Z</time></trkpt><trkpt lat="42.4042016" lon="11.1942625"><ele>22.0</ele><time>2026-04-25T11:37:13.73Z</time></trkpt><trkpt lat="42.4042348" lon="11.19415"><ele>22.0</ele><time>2026-04-25T11:37:14.726Z</time></trkpt><trkpt lat="42.4042711" lon="11.1940321"><ele>22.0</ele><time>2026-04-25T11:37:15.727Z</time></trkpt><trkpt lat="42.4043247" lon="11.1939232"><ele>22.75</ele><time>2026-04-25T11:37:16.726Z</time></trkpt><trkpt lat="42.4043897" lon="11.1938177"><ele>23.5</ele><time>2026-04-25T11:37:17.731Z</time></trkpt><trkpt lat="42.4044755" lon="11.1937104"><ele>24.25</ele><time>2026-04-25T11:37:18.731Z</time></trkpt><trkpt lat="42.404578" lon="11.1935714"><ele>25.0</ele><time>2026-04-25T11:37:19.729Z</time></trkpt><trkpt lat="42.4046713" lon="11.1934497"><ele>26.25</ele><time>2026-04-25T11:37:20.729Z</time></trkpt><trkpt lat="42.4047611" lon="11.1933404"><ele>27.5</ele><time>2026-04-25T11:37:21.73Z</time></trkpt><trkpt lat="42.4048663" lon="11.1932391"><ele>28.75</ele><time>2026-04-25T11:37:22.73Z</time></trkpt><trkpt lat="42.4049596" lon="11.193114"><ele>30.0</ele><time>2026-04-25T11:37:23.734Z</time></trkpt><trkpt lat="42.4050271" lon="11.1929909"><ele>31.0</ele><time>2026-04-25T11:37:24.739Z</time></trkpt><trkpt lat="42.4050815" lon="11.1929068"><ele>32.0</ele><time>2026-04-25T11:37:25.733Z</time></trkpt><trkpt lat="42.4051446" lon="11.1928454"><ele>33.0</ele><time>2026-04-25T11:37:26.729Z</time></trkpt><trkpt lat="42.4052095" lon="11.1927935"><ele>34.0</ele><time>2026-04-25T11:37:27.729Z</time></trkpt><trkpt lat="42.4053015" lon="11.1927208"><ele>35.0</ele><time>2026-04-25T11:37:29.733Z</time></trkpt><trkpt lat="42.4054207" lon="11.1927138"><ele>35.0</ele><time>2026-04-25T11:37:31.73Z</time></trkpt><trkpt lat="42.4054768" lon="11.1927903"><ele>35.0</ele><time>2026-04-25T11:37:32.731Z</time></trkpt><trkpt lat="42.405535" lon="11.1928965"><ele>35.0</ele><time>2026-04-25T11:37:33.727Z</time></trkpt><trkpt lat="42.4055933" lon="11.1930307"><ele>35.0</ele><time>2026-04-25T11:37:34.737Z</time></trkpt><trkpt lat="42.4056469" lon="11.1931607"><ele>35.0</ele><time>2026-04-25T11:37:35.727Z</time></trkpt><trkpt lat="42.4056886" lon="11.1932915"><ele>35.666666666666664</ele><time>2026-04-25T11:37:36.729Z</time></trkpt><trkpt lat="42.4057342" lon="11.1934108"><ele>36.33333333333333</ele><time>2026-04-25T11:37:37.729Z</time></trkpt><trkpt lat="42.4057739" lon="11.1934888"><ele>37.0</ele><time>2026-04-25T11:37:38.733Z</time></trkpt><trkpt lat="42.4058273" lon="11.1935436"><ele>37.666666666666664</ele><time>2026-04-25T11:37:39.729Z</time></trkpt><trkpt lat="42.4058994" lon="11.1935858"><ele>38.333333333333336</ele><time>2026-04-25T11:37:40.728Z</time></trkpt><trkpt lat="42.4059953" lon="11.1935696"><ele>39.0</ele><time>2026-04-25T11:37:42.726Z</time></trkpt><trkpt lat="42.4060533" lon="11.1933989"><ele>39.0</ele><time>2026-04-25T11:37:44.723Z</time></trkpt><trkpt lat="42.4061093" lon="11.1932978"><ele>39.0</ele><time>2026-04-25T11:37:45.734Z</time></trkpt><trkpt lat="42.4061799" lon="11.193195"><ele>39.0</ele><time>2026-04-25T11:37:46.724Z</time></trkpt><trkpt lat="42.4062591" lon="11.1930795"><ele>39.0</ele><time>2026-04-25T11:37:47.728Z</time></trkpt><trkpt lat="42.4063486" lon="11.1929473"><ele>39.0</ele><time>2026-04-25T11:37:48.727Z</time></trkpt><trkpt lat="42.4064358" lon="11.1928191"><ele>43.75</ele><time>2026-04-25T11:37:49.731Z</time></trkpt><trkpt lat="42.4065128" lon="11.1926993"><ele>48.5</ele><time>2026-04-25T11:37:50.732Z</time></trkpt><trkpt lat="42.4065928" lon="11.19258"><ele>53.25</ele><time>2026-04-25T11:37:51.729Z</time></trkpt><trkpt lat="42.4066711" lon="11.1924746"><ele>58.0</ele><time>2026-04-25T11:37:52.73Z</time></trkpt><trkpt lat="42.4067496" lon="11.192372"><ele>59.5</ele><time>2026-04-25T11:37:53.735Z</time></trkpt><trkpt lat="42.4068195" lon="11.1922481"><ele>61.0</ele><time>2026-04-25T11:37:54.725Z</time></trkpt><trkpt lat="42.4068784" lon="11.1920971"><ele>62.5</ele><time>2026-04-25T11:37:55.727Z</time></trkpt><trkpt lat="42.4069108" lon="11.1919333"><ele>64.0</ele><time>2026-04-25T11:37:56.732Z</time></trkpt><trkpt lat="42.406927" lon="11.1917957"><ele>64.0</ele><time>2026-04-25T11:37:57.728Z</time></trkpt><trkpt lat="42.4069406" lon="11.1916842"><ele>64.0</ele><time>2026-04-25T11:37:58.726Z</time></trkpt><trkpt lat="42.4069755" lon="11.1915678"><ele>64.0</ele><time>2026-04-25T11:37:59.732Z</time></trkpt><trkpt lat="42.4070244" lon="11.1914332"><ele>64.0</ele><time>2026-04-25T11:38:00.727Z</time></trkpt><trkpt lat="42.4070783" lon="11.1913009"><ele>64.0</ele><time>2026-04-25T11:38:01.729Z</time></trkpt><trkpt lat="42.4071272" lon="11.1911692"><ele>71.0</ele><time>2026-04-25T11:38:02.731Z</time></trkpt><trkpt lat="42.4071796" lon="11.1910093"><ele>78.0</ele><time>2026-04-25T11:38:03.727Z</time></trkpt><trkpt lat="42.4072189" lon="11.190829"><ele>85.0</ele><time>2026-04-25T11:38:04.733Z</time></trkpt><trkpt lat="42.407258" lon="11.1906441"><ele>92.0</ele><time>2026-04-25T11:38:05.723Z</time></trkpt><trkpt lat="42.4072905" lon="11.1904843"><ele>93.0</ele><time>2026-04-25T11:38:06.733Z</time></trkpt><trkpt lat="42.4073301" lon="11.190315"><ele>94.0</ele><time>2026-04-25T11:38:07.734Z</time></trkpt><trkpt lat="42.4073744" lon="11.1901528"><ele>95.0</ele><time>2026-04-25T11:38:08.722Z</time></trkpt><trkpt lat="42.4074156" lon="11.190005"><ele>96.0</ele><time>2026-04-25T11:38:09.724Z</time></trkpt><trkpt lat="42.4074641" lon="11.1898748"><ele>97.0</ele><time>2026-04-25T11:38:10.729Z</time></trkpt><trkpt lat="42.4075272" lon="11.189765"><ele>98.0</ele><time>2026-04-25T11:38:11.74Z</time></trkpt><trkpt lat="42.4075983" lon="11.1896671"><ele>99.0</ele><time>2026-04-25T11:38:12.732Z</time></trkpt><trkpt lat="42.4076871" lon="11.1895735"><ele>100.0</ele><time>2026-04-25T11:38:13.735Z</time></trkpt><trkpt lat="42.4077654" lon="11.189477"><ele>101.0</ele><time>2026-04-25T11:38:14.729Z</time></trkpt><trkpt lat="42.4078342" lon="11.1893716"><ele>101.0</ele><time>2026-04-25T11:38:15.73Z</time></trkpt><trkpt lat="42.4078886" lon="11.1892524"><ele>101.0</ele><time>2026-04-25T11:38:16.731Z</time></trkpt><trkpt lat="42.4079264" lon="11.1891577"><ele>101.0</ele><time>2026-04-25T11:38:17.722Z</time></trkpt><trkpt lat="42.4079798" lon="11.1890712"><ele>101.0</ele><time>2026-04-25T11:38:18.732Z</time></trkpt><trkpt lat="42.4080596" lon="11.1889808"><ele>101.0</ele><time>2026-04-25T11:38:19.727Z</time></trkpt><trkpt lat="42.4081533" lon="11.1888738"><ele>104.75</ele><time>2026-04-25T11:38:20.73Z</time></trkpt><trkpt lat="42.4082511" lon="11.1887502"><ele>108.5</ele><time>2026-04-25T11:38:21.728Z</time></trkpt><trkpt lat="42.4083451" lon="11.1885935"><ele>112.25</ele><time>2026-04-25T11:38:22.728Z</time></trkpt><trkpt lat="42.408424" lon="11.1884266"><ele>116.0</ele><time>2026-04-25T11:38:23.731Z</time></trkpt><trkpt lat="42.4084871" lon="11.188268"><ele>115.5</ele><time>2026-04-25T11:38:24.733Z</time></trkpt><trkpt lat="42.4085389" lon="11.1881353"><ele>115.0</ele><time>2026-04-25T11:38:25.732Z</time></trkpt><trkpt lat="42.4085968" lon="11.1880219"><ele>114.5</ele><time>2026-04-25T11:38:26.73Z</time></trkpt><trkpt lat="42.4086755" lon="11.1878953"><ele>114.0</ele><time>2026-04-25T11:38:27.728Z</time></trkpt><trkpt lat="42.4087614" lon="11.1877836"><ele>116.0</ele><time>2026-04-25T11:38:28.733Z</time></trkpt><trkpt lat="42.408851" lon="11.1876839"><ele>118.0</ele><time>2026-04-25T11:38:29.727Z</time></trkpt><trkpt lat="42.408956" lon="11.18758"><ele>120.0</ele><time>2026-04-25T11:38:30.735Z</time></trkpt><trkpt lat="42.4090781" lon="11.1874608"><ele>122.0</ele><time>2026-04-25T11:38:31.725Z</time></trkpt><trkpt lat="42.4092098" lon="11.1873534"><ele>121.25</ele><time>2026-04-25T11:38:32.728Z</time></trkpt><trkpt lat="42.40933" lon="11.1872486"><ele>120.5</ele><time>2026-04-25T11:38:33.728Z</time></trkpt><trkpt lat="42.4094515" lon="11.1871415"><ele>119.75</ele><time>2026-04-25T11:38:34.742Z</time></trkpt><trkpt lat="42.4095704" lon="11.1870284"><ele>119.0</ele><time>2026-04-25T11:38:35.731Z</time></trkpt><trkpt lat="42.4096709" lon="11.1869294"><ele>121.25</ele><time>2026-04-25T11:38:36.731Z</time></trkpt><trkpt lat="42.4097677" lon="11.1868398"><ele>123.5</ele><time>2026-04-25T11:38:37.73Z</time></trkpt><trkpt lat="42.4098756" lon="11.1867429"><ele>125.75</ele><time>2026-04-25T11:38:38.728Z</time></trkpt><trkpt lat="42.4099826" lon="11.1866421"><ele>128.0</ele><time>2026-04-25T11:38:39.728Z</time></trkpt><trkpt lat="42.4100994" lon="11.1865333"><ele>128.8</ele><time>2026-04-25T11:38:40.731Z</time></trkpt><trkpt lat="42.4102073" lon="11.1864121"><ele>129.60000000000002</ele><time>2026-04-25T11:38:41.725Z</time></trkpt><trkpt lat="42.4103033" lon="11.186304"><ele>130.39999999999998</ele><time>2026-04-25T11:38:42.725Z</time></trkpt><trkpt lat="42.4103771" lon="11.1862481"><ele>131.2</ele><time>2026-04-25T11:38:43.735Z</time></trkpt><trkpt lat="42.4104521" lon="11.1862016"><ele>132.0</ele><time>2026-04-25T11:38:44.729Z</time></trkpt><trkpt lat="42.4105183" lon="11.1861614"><ele>132.16666666666666</ele><time>2026-04-25T11:38:45.729Z</time></trkpt><trkpt lat="42.4105796" lon="11.1861094"><ele>132.33333333333334</ele><time>2026-04-25T11:38:46.728Z</time></trkpt><trkpt lat="42.4106442" lon="11.1860483"><ele>132.5</ele><time>2026-04-25T11:38:47.733Z</time></trkpt><trkpt lat="42.4107077" lon="11.1859867"><ele>132.66666666666669</ele><time>2026-04-25T11:38:48.732Z</time></trkpt><trkpt lat="42.4107734" lon="11.1859151"><ele>132.83333333333334</ele><time>2026-04-25T11:38:49.724Z</time></trkpt><trkpt lat="42.410842" lon="11.1858453"><ele>133.0</ele><time>2026-04-25T11:38:50.734Z</time></trkpt><trkpt lat="42.4109227" lon="11.1857872"><ele>133.0</ele><time>2026-04-25T11:38:51.724Z</time></trkpt><trkpt lat="42.4110082" lon="11.1857299"><ele>133.0</ele><time>2026-04-25T11:38:52.729Z</time></trkpt><trkpt lat="42.4110781" lon="11.1856805"><ele>133.0</ele><time>2026-04-25T11:38:53.726Z</time></trkpt><trkpt lat="42.4111413" lon="11.185639"><ele>133.0</ele><time>2026-04-25T11:38:54.742Z</time></trkpt><trkpt lat="42.4111946" lon="11.1855893"><ele>133.0</ele><time>2026-04-25T11:38:55.73Z</time></trkpt><trkpt lat="42.4112491" lon="11.185515"><ele>133.0</ele><time>2026-04-25T11:38:56.733Z</time></trkpt><trkpt lat="42.4112959" lon="11.1853962"><ele>128.4</ele><time>2026-04-25T11:38:57.732Z</time></trkpt><trkpt lat="42.4113457" lon="11.1852631"><ele>123.80000000000001</ele><time>2026-04-25T11:38:58.738Z</time></trkpt><trkpt lat="42.4114081" lon="11.1851494"><ele>119.2</ele><time>2026-04-25T11:38:59.728Z</time></trkpt><trkpt lat="42.4114681" lon="11.1850387"><ele>114.6</ele><time>2026-04-25T11:39:00.727Z</time></trkpt><trkpt lat="42.411519" lon="11.184921"><ele>110.0</ele><time>2026-04-25T11:39:01.731Z</time></trkpt><trkpt lat="42.4115472" lon="11.1848268"><ele>109.5</ele><time>2026-04-25T11:39:02.728Z</time></trkpt><trkpt lat="42.411568" lon="11.1847165"><ele>109.0</ele><time>2026-04-25T11:39:03.732Z</time></trkpt><trkpt lat="42.4115957" lon="11.1845664"><ele>108.5</ele><time>2026-04-25T11:39:04.726Z</time></trkpt><trkpt lat="42.4116067" lon="11.184374"><ele>108.0</ele><time>2026-04-25T11:39:05.721Z</time></trkpt><trkpt lat="42.4115984" lon="11.1841707"><ele>108.25</ele><time>2026-04-25T11:39:06.726Z</time></trkpt><trkpt lat="42.4116028" lon="11.1839975"><ele>108.5</ele><time>2026-04-25T11:39:07.731Z</time></trkpt><trkpt lat="42.4116102" lon="11.1838473"><ele>108.75</ele><time>2026-04-25T11:39:08.727Z</time></trkpt><trkpt lat="42.4116298" lon="11.1836962"><ele>109.0</ele><time>2026-04-25T11:39:09.723Z</time></trkpt><trkpt lat="42.4116635" lon="11.1835469"><ele>109.0</ele><time>2026-04-25T11:39:10.735Z</time></trkpt><trkpt lat="42.4117184" lon="11.1833739"><ele>109.0</ele><time>2026-04-25T11:39:11.73Z</time></trkpt><trkpt lat="42.4117718" lon="11.1831974"><ele>109.0</ele><time>2026-04-25T11:39:12.725Z</time></trkpt><trkpt lat="42.4118297" lon="11.1830413"><ele>109.0</ele><time>2026-04-25T11:39:13.733Z</time></trkpt><trkpt lat="42.4118963" lon="11.1829128"><ele>109.6</ele><time>2026-04-25T11:39:14.729Z</time></trkpt><trkpt lat="42.4119541" lon="11.1828186"><ele>110.2</ele><time>2026-04-25T11:39:15.721Z</time></trkpt><trkpt lat="42.4120117" lon="11.1827232"><ele>110.79999999999998</ele><time>2026-04-25T11:39:16.727Z</time></trkpt><trkpt lat="42.4120611" lon="11.182622"><ele>111.39999999999999</ele><time>2026-04-25T11:39:17.73Z</time></trkpt><trkpt lat="42.4121015" lon="11.1825122"><ele>112.0</ele><time>2026-04-25T11:39:18.723Z</time></trkpt><trkpt lat="42.4121381" lon="11.182381"><ele>107.0</ele><time>2026-04-25T11:39:19.735Z</time></trkpt><trkpt lat="42.4121676" lon="11.1822365"><ele>101.99999999999999</ele><time>2026-04-25T11:39:20.726Z</time></trkpt><trkpt lat="42.4121979" lon="11.1820829"><ele>97.0</ele><time>2026-04-25T11:39:21.719Z</time></trkpt><trkpt lat="42.4122149" lon="11.1819416"><ele>92.0</ele><time>2026-04-25T11:39:22.729Z</time></trkpt><trkpt lat="42.4122259" lon="11.1818225"><ele>87.0</ele><time>2026-04-25T11:39:23.728Z</time></trkpt><trkpt lat="42.4122318" lon="11.1817131"><ele>87.0</ele><time>2026-04-25T11:39:24.723Z</time></trkpt><trkpt lat="42.4122277" lon="11.1816077"><ele>87.0</ele><time>2026-04-25T11:39:25.73Z</time></trkpt><trkpt lat="42.4122076" lon="11.1815056"><ele>87.0</ele><time>2026-04-25T11:39:26.737Z</time></trkpt><trkpt lat="42.4121904" lon="11.1813977"><ele>87.0</ele><time>2026-04-25T11:39:27.724Z</time></trkpt><trkpt lat="42.4121834" lon="11.1812721"><ele>87.0</ele><time>2026-04-25T11:39:28.727Z</time></trkpt><trkpt lat="42.4121901" lon="11.1811532"><ele>87.0</ele><time>2026-04-25T11:39:29.729Z</time></trkpt><trkpt lat="42.4121713" lon="11.1810233"><ele>89.16666666666667</ele><time>2026-04-25T11:39:30.723Z</time></trkpt><trkpt lat="42.4121395" lon="11.1808934"><ele>91.33333333333334</ele><time>2026-04-25T11:39:31.725Z</time></trkpt><trkpt lat="42.4121122" lon="11.1807837"><ele>93.5</ele><time>2026-04-25T11:39:32.73Z</time></trkpt><trkpt lat="42.4120884" lon="11.1807004"><ele>95.66666666666667</ele><time>2026-04-25T11:39:33.735Z</time></trkpt><trkpt lat="42.412081" lon="11.1806151"><ele>97.83333333333334</ele><time>2026-04-25T11:39:34.732Z</time></trkpt><trkpt lat="42.4120874" lon="11.1805179"><ele>100.0</ele><time>2026-04-25T11:39:35.72Z</time></trkpt><trkpt lat="42.4120989" lon="11.1804137"><ele>100.00000000000001</ele><time>2026-04-25T11:39:36.726Z</time></trkpt><trkpt lat="42.4121141" lon="11.1803232"><ele>100.0</ele><time>2026-04-25T11:39:37.734Z</time></trkpt><trkpt lat="42.4121232" lon="11.1802383"><ele>100.0</ele><time>2026-04-25T11:39:38.732Z</time></trkpt><trkpt lat="42.4121528" lon="11.1800817"><ele>100.0</ele><time>2026-04-25T11:39:40.733Z</time></trkpt><trkpt lat="42.4122249" lon="11.1799435"><ele>100.00000000000001</ele><time>2026-04-25T11:39:42.729Z</time></trkpt><trkpt lat="42.4122731" lon="11.1798871"><ele>100.0</ele><time>2026-04-25T11:39:43.723Z</time></trkpt><trkpt lat="42.4123637" lon="11.1798115"><ele>96.83333333333334</ele><time>2026-04-25T11:39:45.726Z</time></trkpt><trkpt lat="42.4124487" lon="11.1797638"><ele>93.66666666666667</ele><time>2026-04-25T11:39:47.729Z</time></trkpt><trkpt lat="42.4125055" lon="11.179697"><ele>90.5</ele><time>2026-04-25T11:39:49.722Z</time></trkpt><trkpt lat="42.4125241" lon="11.1795582"><ele>87.33333333333334</ele><time>2026-04-25T11:39:51.73Z</time></trkpt><trkpt lat="42.4124819" lon="11.1794725"><ele>84.16666666666667</ele><time>2026-04-25T11:39:52.724Z</time></trkpt><trkpt lat="42.4124202" lon="11.1794054"><ele>81.0</ele><time>2026-04-25T11:39:53.729Z</time></trkpt><trkpt lat="42.4123471" lon="11.1793669"><ele>81.0</ele><time>2026-04-25T11:39:54.728Z</time></trkpt><trkpt lat="42.4122586" lon="11.1793359"><ele>81.0</ele><time>2026-04-25T11:39:55.722Z</time></trkpt><trkpt lat="42.4121611" lon="11.1793135"><ele>81.0</ele><time>2026-04-25T11:39:56.723Z</time></trkpt><trkpt lat="42.4120522" lon="11.1793017"><ele>81.0</ele><time>2026-04-25T11:39:57.73Z</time></trkpt><trkpt lat="42.4119596" lon="11.1792998"><ele>81.0</ele><time>2026-04-25T11:39:58.721Z</time></trkpt><trkpt lat="42.411875" lon="11.1793062"><ele>85.19999999999999</ele><time>2026-04-25T11:40:00.731Z</time></trkpt><trkpt lat="42.4118639" lon="11.1791855"><ele>89.39999999999999</ele><time>2026-04-25T11:40:03.728Z</time></trkpt><trkpt lat="42.4119342" lon="11.1790085"><ele>93.6</ele><time>2026-04-25T11:40:05.727Z</time></trkpt><trkpt lat="42.4119972" lon="11.1789065"><ele>97.8</ele><time>2026-04-25T11:40:06.723Z</time></trkpt><trkpt lat="42.4120552" lon="11.1788053"><ele>102.0</ele><time>2026-04-25T11:40:07.727Z</time></trkpt><trkpt lat="42.4121208" lon="11.1787029"><ele>99.5</ele><time>2026-04-25T11:40:08.726Z</time></trkpt><trkpt lat="42.4121881" lon="11.1786143"><ele>97.0</ele><time>2026-04-25T11:40:09.73Z</time></trkpt><trkpt lat="42.4122553" lon="11.1785224"><ele>94.5</ele><time>2026-04-25T11:40:10.73Z</time></trkpt><trkpt lat="42.4123223" lon="11.1784325"><ele>92.0</ele><time>2026-04-25T11:40:11.732Z</time></trkpt><trkpt lat="42.4123788" lon="11.1783445"><ele>89.5</ele><time>2026-04-25T11:40:12.726Z</time></trkpt><trkpt lat="42.4124295" lon="11.17828"><ele>87.0</ele><time>2026-04-25T11:40:13.732Z</time></trkpt><trkpt lat="42.4124725" lon="11.1782164"><ele>90.0</ele><time>2026-04-25T11:40:14.721Z</time></trkpt><trkpt lat="42.4125178" lon="11.1781492"><ele>93.0</ele><time>2026-04-25T11:40:15.721Z</time></trkpt><trkpt lat="42.4126035" lon="11.1780258"><ele>96.0</ele><time>2026-04-25T11:40:17.725Z</time></trkpt><trkpt lat="42.4126745" lon="11.1779173"><ele>99.0</ele><time>2026-04-25T11:40:19.718Z</time></trkpt><trkpt lat="42.4127511" lon="11.1778233"><ele>102.0</ele><time>2026-04-25T11:40:21.726Z</time></trkpt><trkpt lat="42.4128353" lon="11.1777489"><ele>102.0</ele><time>2026-04-25T11:40:23.726Z</time></trkpt><trkpt lat="42.4129386" lon="11.1776508"><ele>102.0</ele><time>2026-04-25T11:40:25.723Z</time></trkpt><trkpt lat="42.4129915" lon="11.1775923"><ele>102.0</ele><time>2026-04-25T11:40:26.725Z</time></trkpt><trkpt lat="42.4130436" lon="11.1775191"><ele>102.0</ele><time>2026-04-25T11:40:27.733Z</time></trkpt><trkpt lat="42.4130832" lon="11.1774363"><ele>102.0</ele><time>2026-04-25T11:40:28.728Z</time></trkpt><trkpt lat="42.41311" lon="11.1773335"><ele>102.0</ele><time>2026-04-25T11:40:29.73Z</time></trkpt><trkpt lat="42.413129" lon="11.1772227"><ele>100.6</ele><time>2026-04-25T11:40:30.721Z</time></trkpt><trkpt lat="42.4130946" lon="11.1771074"><ele>99.19999999999999</ele><time>2026-04-25T11:40:31.727Z</time></trkpt><trkpt lat="42.413019" lon="11.1769895"><ele>97.8</ele><time>2026-04-25T11:40:32.722Z</time></trkpt><trkpt lat="42.4129294" lon="11.1769129"><ele>96.4</ele><time>2026-04-25T11:40:33.723Z</time></trkpt><trkpt lat="42.4128248" lon="11.1768443"><ele>95.0</ele><time>2026-04-25T11:40:34.726Z</time></trkpt><trkpt lat="42.4127012" lon="11.1767733"><ele>95.0</ele><time>2026-04-25T11:40:35.724Z</time></trkpt><trkpt lat="42.4125717" lon="11.1767071"><ele>95.0</ele><time>2026-04-25T11:40:36.722Z</time></trkpt><trkpt lat="42.4124335" lon="11.1766309"><ele>95.0</ele><time>2026-04-25T11:40:37.721Z</time></trkpt><trkpt lat="42.4122961" lon="11.1765441"><ele>95.0</ele><time>2026-04-25T11:40:38.723Z</time></trkpt><trkpt lat="42.4121588" lon="11.1764511"><ele>95.5</ele><time>2026-04-25T11:40:39.729Z</time></trkpt><trkpt lat="42.4120193" lon="11.1763623"><ele>96.0</ele><time>2026-04-25T11:40:40.724Z</time></trkpt><trkpt lat="42.4119092" lon="11.1762959"><ele>96.5</ele><time>2026-04-25T11:40:41.725Z</time></trkpt><trkpt lat="42.411817" lon="11.1762414"><ele>97.0</ele><time>2026-04-25T11:40:42.727Z</time></trkpt><trkpt lat="42.41173" lon="11.1761842"><ele>97.00000000000001</ele><time>2026-04-25T11:40:43.722Z</time></trkpt><trkpt lat="42.4116587" lon="11.1761371"><ele>97.0</ele><time>2026-04-25T11:40:44.725Z</time></trkpt><trkpt lat="42.4115965" lon="11.1761083"><ele>97.0</ele><time>2026-04-25T11:40:45.724Z</time></trkpt><trkpt lat="42.4115251" lon="11.1760814"><ele>97.0</ele><time>2026-04-25T11:40:46.73Z</time></trkpt><trkpt lat="42.4114479" lon="11.1760538"><ele>97.00000000000001</ele><time>2026-04-25T11:40:47.737Z</time></trkpt><trkpt lat="42.411365" lon="11.1760287"><ele>97.0</ele><time>2026-04-25T11:40:48.725Z</time></trkpt><trkpt lat="42.4112767" lon="11.1759868"><ele>99.66666666666667</ele><time>2026-04-25T11:40:49.727Z</time></trkpt><trkpt lat="42.4111885" lon="11.1759578"><ele>102.33333333333334</ele><time>2026-04-25T11:40:50.732Z</time></trkpt><trkpt lat="42.4111146" lon="11.1759209"><ele>105.0</ele><time>2026-04-25T11:40:51.733Z</time></trkpt><trkpt lat="42.4110534" lon="11.1758816"><ele>107.66666666666666</ele><time>2026-04-25T11:40:52.739Z</time></trkpt><trkpt lat="42.4110184" lon="11.1757695"><ele>110.33333333333333</ele><time>2026-04-25T11:40:54.729Z</time></trkpt><trkpt lat="42.4110459" lon="11.1756927"><ele>113.0</ele><time>2026-04-25T11:40:55.717Z</time></trkpt><trkpt lat="42.4111056" lon="11.1756177"><ele>114.0</ele><time>2026-04-25T11:40:56.731Z</time></trkpt><trkpt lat="42.4111747" lon="11.1755325"><ele>115.00000000000001</ele><time>2026-04-25T11:40:57.727Z</time></trkpt><trkpt lat="42.4112576" lon="11.175407"><ele>116.00000000000001</ele><time>2026-04-25T11:40:58.727Z</time></trkpt><trkpt lat="42.4113242" lon="11.1752908"><ele>117.0</ele><time>2026-04-25T11:40:59.725Z</time></trkpt><trkpt lat="42.41139" lon="11.1751903"><ele>118.0</ele><time>2026-04-25T11:41:00.73Z</time></trkpt><trkpt lat="42.4114339" lon="11.175101"><ele>117.00000000000001</ele><time>2026-04-25T11:41:01.721Z</time></trkpt><trkpt lat="42.4114611" lon="11.1750133"><ele>116.0</ele><time>2026-04-25T11:41:02.723Z</time></trkpt><trkpt lat="42.4114592" lon="11.1749188"><ele>115.0</ele><time>2026-04-25T11:41:03.724Z</time></trkpt><trkpt lat="42.4114363" lon="11.1748111"><ele>114.0</ele><time>2026-04-25T11:41:04.729Z</time></trkpt><trkpt lat="42.4114079" lon="11.1747075"><ele>113.00000000000001</ele><time>2026-04-25T11:41:05.726Z</time></trkpt><trkpt lat="42.4113776" lon="11.1746042"><ele>112.0</ele><time>2026-04-25T11:41:06.731Z</time></trkpt><trkpt lat="42.4113812" lon="11.1744826"><ele>112.0</ele><time>2026-04-25T11:41:08.726Z</time></trkpt><trkpt lat="42.4114386" lon="11.174392"><ele>111.99999999999999</ele><time>2026-04-25T11:41:10.732Z</time></trkpt><trkpt lat="42.4115002" lon="11.1743585"><ele>111.99999999999999</ele><time>2026-04-25T11:41:11.723Z</time></trkpt><trkpt lat="42.411573" lon="11.1743187"><ele>112.0</ele><time>2026-04-25T11:41:12.734Z</time></trkpt><trkpt lat="42.4116802" lon="11.1742642"><ele>112.0</ele><time>2026-04-25T11:41:13.72Z</time></trkpt><trkpt lat="42.411796" lon="11.1742165"><ele>112.0</ele><time>2026-04-25T11:41:14.724Z</time></trkpt><trkpt lat="42.4118983" lon="11.174184"><ele>111.99999999999999</ele><time>2026-04-25T11:41:15.721Z</time></trkpt><trkpt lat="42.4119905" lon="11.1741881"><ele>111.99999999999999</ele><time>2026-04-25T11:41:16.731Z</time></trkpt><trkpt lat="42.4120866" lon="11.1742247"><ele>112.0</ele><time>2026-04-25T11:41:17.727Z</time></trkpt><trkpt lat="42.4121973" lon="11.1742942"><ele>112.0</ele><time>2026-04-25T11:41:18.732Z</time></trkpt><trkpt lat="42.4123155" lon="11.1743644"><ele>113.25</ele><time>2026-04-25T11:41:19.729Z</time></trkpt><trkpt lat="42.4124306" lon="11.1744396"><ele>114.5</ele><time>2026-04-25T11:41:20.73Z</time></trkpt><trkpt lat="42.4125408" lon="11.1745179"><ele>115.75</ele><time>2026-04-25T11:41:21.723Z</time></trkpt><trkpt lat="42.4126498" lon="11.1745813"><ele>117.0</ele><time>2026-04-25T11:41:22.731Z</time></trkpt><trkpt lat="42.4127408" lon="11.1746087"><ele>117.0</ele><time>2026-04-25T11:41:23.726Z</time></trkpt><trkpt lat="42.41284" lon="11.1746056"><ele>116.99999999999999</ele><time>2026-04-25T11:41:24.73Z</time></trkpt><trkpt lat="42.4129532" lon="11.1745737"><ele>116.99999999999999</ele><time>2026-04-25T11:41:25.725Z</time></trkpt><trkpt lat="42.4130854" lon="11.1745412"><ele>117.0</ele><time>2026-04-25T11:41:26.726Z</time></trkpt><trkpt lat="42.4131815" lon="11.1745173"><ele>117.0</ele><time>2026-04-25T11:41:27.726Z</time></trkpt><trkpt lat="42.4132452" lon="11.1744891"><ele>114.83333333333333</ele><time>2026-04-25T11:41:28.73Z</time></trkpt><trkpt lat="42.4133002" lon="11.1744372"><ele>112.66666666666666</ele><time>2026-04-25T11:41:29.737Z</time></trkpt><trkpt lat="42.4133437" lon="11.1743702"><ele>110.5</ele><time>2026-04-25T11:41:30.725Z</time></trkpt><trkpt lat="42.4133756" lon="11.1742833"><ele>108.33333333333333</ele><time>2026-04-25T11:41:31.728Z</time></trkpt><trkpt lat="42.4133927" lon="11.1742001"><ele>106.16666666666666</ele><time>2026-04-25T11:41:32.73Z</time></trkpt><trkpt lat="42.4133626" lon="11.1741014"><ele>104.0</ele><time>2026-04-25T11:41:33.729Z</time></trkpt><trkpt lat="42.413303" lon="11.1739642"><ele>104.0</ele><time>2026-04-25T11:41:34.728Z</time></trkpt><trkpt lat="42.4132214" lon="11.17382"><ele>104.0</ele><time>2026-04-25T11:41:35.732Z</time></trkpt><trkpt lat="42.4131364" lon="11.1736769"><ele>104.0</ele><time>2026-04-25T11:41:36.736Z</time></trkpt><trkpt lat="42.4130639" lon="11.1735146"><ele>104.0</ele><time>2026-04-25T11:41:37.725Z</time></trkpt><trkpt lat="42.4129989" lon="11.173326"><ele>112.5</ele><time>2026-04-25T11:41:38.719Z</time></trkpt><trkpt lat="42.4129343" lon="11.1731463"><ele>121.0</ele><time>2026-04-25T11:41:39.732Z</time></trkpt><trkpt lat="42.4128804" lon="11.1729872"><ele>129.5</ele><time>2026-04-25T11:41:40.729Z</time></trkpt><trkpt lat="42.4128506" lon="11.1728511"><ele>138.0</ele><time>2026-04-25T11:41:41.719Z</time></trkpt><trkpt lat="42.4128227" lon="11.1727063"><ele>138.0</ele><time>2026-04-25T11:41:42.722Z</time></trkpt><trkpt lat="42.4128054" lon="11.1725626"><ele>138.0</ele><time>2026-04-25T11:41:43.725Z</time></trkpt><trkpt lat="42.4127914" lon="11.1724097"><ele>138.0</ele><time>2026-04-25T11:41:44.73Z</time></trkpt><trkpt lat="42.412788" lon="11.172276"><ele>138.0</ele><time>2026-04-25T11:41:45.732Z</time></trkpt><trkpt lat="42.4128118" lon="11.1721581"><ele>138.0</ele><time>2026-04-25T11:41:46.728Z</time></trkpt><trkpt lat="42.4128434" lon="11.1720496"><ele>137.0</ele><time>2026-04-25T11:41:47.72Z</time></trkpt><trkpt lat="42.4128826" lon="11.17194"><ele>136.0</ele><time>2026-04-25T11:41:48.737Z</time></trkpt><trkpt lat="42.4129252" lon="11.171829"><ele>135.0</ele><time>2026-04-25T11:41:49.727Z</time></trkpt><trkpt lat="42.4129592" lon="11.1717202"><ele>134.0</ele><time>2026-04-25T11:41:50.725Z</time></trkpt><trkpt lat="42.4129909" lon="11.171623"><ele>133.0</ele><time>2026-04-25T11:41:51.726Z</time></trkpt><trkpt lat="42.4130252" lon="11.1715488"><ele>132.0</ele><time>2026-04-25T11:41:52.728Z</time></trkpt><trkpt lat="42.4130874" lon="11.1715206"><ele>132.0</ele><time>2026-04-25T11:41:53.726Z</time></trkpt><trkpt lat="42.4132266" lon="11.1715279"><ele>132.0</ele><time>2026-04-25T11:41:55.727Z</time></trkpt><trkpt lat="42.4133204" lon="11.1715653"><ele>132.0</ele><time>2026-04-25T11:41:56.722Z</time></trkpt><trkpt lat="42.4134238" lon="11.1716118"><ele>132.0</ele><time>2026-04-25T11:41:57.723Z</time></trkpt><trkpt lat="42.4135211" lon="11.1716578"><ele>132.0</ele><time>2026-04-25T11:41:58.722Z</time></trkpt><trkpt lat="42.4136007" lon="11.1716706"><ele>132.0</ele><time>2026-04-25T11:41:59.726Z</time></trkpt><trkpt lat="42.413667" lon="11.171678"><ele>132.0</ele><time>2026-04-25T11:42:00.736Z</time></trkpt><trkpt lat="42.4137306" lon="11.1716645"><ele>132.0</ele><time>2026-04-25T11:42:01.728Z</time></trkpt><trkpt lat="42.413792" lon="11.1716098"><ele>132.0</ele><time>2026-04-25T11:42:02.732Z</time></trkpt><trkpt lat="42.4138574" lon="11.1715376"><ele>132.0</ele><time>2026-04-25T11:42:03.722Z</time></trkpt><trkpt lat="42.4139294" lon="11.1714431"><ele>132.0</ele><time>2026-04-25T11:42:04.726Z</time></trkpt><trkpt lat="42.4140178" lon="11.1713534"><ele>134.75</ele><time>2026-04-25T11:42:05.729Z</time></trkpt><trkpt lat="42.4141165" lon="11.1712394"><ele>137.5</ele><time>2026-04-25T11:42:06.737Z</time></trkpt><trkpt lat="42.4142089" lon="11.1711219"><ele>140.25</ele><time>2026-04-25T11:42:07.725Z</time></trkpt><trkpt lat="42.4142933" lon="11.1710167"><ele>143.0</ele><time>2026-04-25T11:42:08.724Z</time></trkpt><trkpt lat="42.4143727" lon="11.1709276"><ele>143.0</ele><time>2026-04-25T11:42:09.729Z</time></trkpt><trkpt lat="42.4144678" lon="11.1708559"><ele>143.0</ele><time>2026-04-25T11:42:10.728Z</time></trkpt><trkpt lat="42.4145728" lon="11.1707972"><ele>143.0</ele><time>2026-04-25T11:42:11.727Z</time></trkpt><trkpt lat="42.4146918" lon="11.1707675"><ele>143.0</ele><time>2026-04-25T11:42:12.733Z</time></trkpt><trkpt lat="42.4147909" lon="11.170728"><ele>143.0</ele><time>2026-04-25T11:42:13.724Z</time></trkpt><trkpt lat="42.4148675" lon="11.1706924"><ele>143.33333333333331</ele><time>2026-04-25T11:42:14.736Z</time></trkpt><trkpt lat="42.4149359" lon="11.1706514"><ele>143.66666666666666</ele><time>2026-04-25T11:42:15.732Z</time></trkpt><trkpt lat="42.4150009" lon="11.1705851"><ele>144.0</ele><time>2026-04-25T11:42:16.732Z</time></trkpt><trkpt lat="42.4150666" lon="11.1705064"><ele>144.33333333333334</ele><time>2026-04-25T11:42:17.728Z</time></trkpt><trkpt lat="42.4151193" lon="11.170431"><ele>144.66666666666669</ele><time>2026-04-25T11:42:18.729Z</time></trkpt><trkpt lat="42.4151579" lon="11.1703415"><ele>145.0</ele><time>2026-04-25T11:42:19.724Z</time></trkpt><trkpt lat="42.4151739" lon="11.1702161"><ele>145.0</ele><time>2026-04-25T11:42:20.734Z</time></trkpt><trkpt lat="42.4151833" lon="11.1700816"><ele>145.0</ele><time>2026-04-25T11:42:21.727Z</time></trkpt><trkpt lat="42.4151957" lon="11.1699219"><ele>145.0</ele><time>2026-04-25T11:42:22.728Z</time></trkpt><trkpt lat="42.4152086" lon="11.1697496"><ele>145.0</ele><time>2026-04-25T11:42:23.731Z</time></trkpt><trkpt lat="42.4152181" lon="11.1695964"><ele>146.2</ele><time>2026-04-25T11:42:24.726Z</time></trkpt><trkpt lat="42.4152184" lon="11.1694642"><ele>147.4</ele><time>2026-04-25T11:42:25.733Z</time></trkpt><trkpt lat="42.4152125" lon="11.1693404"><ele>148.6</ele><time>2026-04-25T11:42:26.727Z</time></trkpt><trkpt lat="42.4151922" lon="11.1692111"><ele>149.8</ele><time>2026-04-25T11:42:27.729Z</time></trkpt><trkpt lat="42.4151629" lon="11.1690638"><ele>151.0</ele><time>2026-04-25T11:42:28.726Z</time></trkpt><trkpt lat="42.4151306" lon="11.1688963"><ele>152.4</ele><time>2026-04-25T11:42:29.728Z</time></trkpt><trkpt lat="42.4151025" lon="11.1687459"><ele>153.8</ele><time>2026-04-25T11:42:30.732Z</time></trkpt><trkpt lat="42.4150854" lon="11.1686231"><ele>155.20000000000002</ele><time>2026-04-25T11:42:31.727Z</time></trkpt><trkpt lat="42.4150841" lon="11.1685114"><ele>156.6</ele><time>2026-04-25T11:42:32.731Z</time></trkpt><trkpt lat="42.4151236" lon="11.1683987"><ele>158.0</ele><time>2026-04-25T11:42:33.729Z</time></trkpt><trkpt lat="42.4151727" lon="11.1682699"><ele>160.0</ele><time>2026-04-25T11:42:34.727Z</time></trkpt><trkpt lat="42.4152202" lon="11.1681446"><ele>162.0</ele><time>2026-04-25T11:42:35.73Z</time></trkpt><trkpt lat="42.4152646" lon="11.1680135"><ele>164.0</ele><time>2026-04-25T11:42:36.742Z</time></trkpt><trkpt lat="42.4153088" lon="11.1678848"><ele>166.0</ele><time>2026-04-25T11:42:37.727Z</time></trkpt><trkpt lat="42.4153579" lon="11.1677663"><ele>168.0</ele><time>2026-04-25T11:42:38.725Z</time></trkpt><trkpt lat="42.4154156" lon="11.1676515"><ele>168.0</ele><time>2026-04-25T11:42:39.727Z</time></trkpt><trkpt lat="42.4154623" lon="11.1675304"><ele>168.0</ele><time>2026-04-25T11:42:40.726Z</time></trkpt><trkpt lat="42.4154988" lon="11.1674263"><ele>168.0</ele><time>2026-04-25T11:42:41.729Z</time></trkpt><trkpt lat="42.4155399" lon="11.1673176"><ele>168.0</ele><time>2026-04-25T11:42:42.73Z</time></trkpt><trkpt lat="42.4155858" lon="11.1672011"><ele>168.0</ele><time>2026-04-25T11:42:43.731Z</time></trkpt><trkpt lat="42.4156259" lon="11.1670719"><ele>165.6</ele><time>2026-04-25T11:42:44.729Z</time></trkpt><trkpt lat="42.4156805" lon="11.1669501"><ele>163.20000000000002</ele><time>2026-04-25T11:42:45.732Z</time></trkpt><trkpt lat="42.4157442" lon="11.1668529"><ele>160.8</ele><time>2026-04-25T11:42:46.725Z</time></trkpt><trkpt lat="42.4158129" lon="11.1667638"><ele>158.4</ele><time>2026-04-25T11:42:47.721Z</time></trkpt><trkpt lat="42.4158588" lon="11.1666567"><ele>156.0</ele><time>2026-04-25T11:42:48.726Z</time></trkpt><trkpt lat="42.4158929" lon="11.1665338"><ele>156.2</ele><time>2026-04-25T11:42:49.736Z</time></trkpt><trkpt lat="42.4159167" lon="11.1664131"><ele>156.39999999999998</ele><time>2026-04-25T11:42:50.73Z</time></trkpt><trkpt lat="42.4159289" lon="11.1662808"><ele>156.6</ele><time>2026-04-25T11:42:52.727Z</time></trkpt><trkpt lat="42.4158692" lon="11.1661996"><ele>156.79999999999998</ele><time>2026-04-25T11:42:54.731Z</time></trkpt><trkpt lat="42.4157607" lon="11.1660988"><ele>157.0</ele><time>2026-04-25T11:42:56.728Z</time></trkpt><trkpt lat="42.415661" lon="11.1660202"><ele>157.0</ele><time>2026-04-25T11:42:58.727Z</time></trkpt><trkpt lat="42.4155791" lon="11.166015"><ele>157.0</ele><time>2026-04-25T11:43:00.726Z</time></trkpt><trkpt lat="42.4155067" lon="11.1659898"><ele>157.0</ele><time>2026-04-25T11:43:02.724Z</time></trkpt><trkpt lat="42.4154644" lon="11.1658987"><ele>157.0</ele><time>2026-04-25T11:43:09.724Z</time></trkpt><trkpt lat="42.4153623" lon="11.165777"><ele>157.0</ele><time>2026-04-25T11:43:11.73Z</time></trkpt><trkpt lat="42.4152764" lon="11.1656878"><ele>160.75</ele><time>2026-04-25T11:43:12.729Z</time></trkpt><trkpt lat="42.4151739" lon="11.1655785"><ele>164.5</ele><time>2026-04-25T11:43:13.727Z</time></trkpt><trkpt lat="42.4150813" lon="11.1654666"><ele>168.25</ele><time>2026-04-25T11:43:14.726Z</time></trkpt><trkpt lat="42.4149775" lon="11.1653606"><ele>172.0</ele><time>2026-04-25T11:43:15.736Z</time></trkpt><trkpt lat="42.4148706" lon="11.1652544"><ele>172.0</ele><time>2026-04-25T11:43:16.731Z</time></trkpt><trkpt lat="42.414754" lon="11.1651399"><ele>172.0</ele><time>2026-04-25T11:43:17.727Z</time></trkpt><trkpt lat="42.4146495" lon="11.1650376"><ele>172.0</ele><time>2026-04-25T11:43:18.728Z</time></trkpt><trkpt lat="42.4145617" lon="11.1649544"><ele>172.0</ele><time>2026-04-25T11:43:19.726Z</time></trkpt><trkpt lat="42.4144862" lon="11.1648798"><ele>178.2</ele><time>2026-04-25T11:43:20.73Z</time></trkpt><trkpt lat="42.414425" lon="11.164803"><ele>184.39999999999998</ele><time>2026-04-25T11:43:21.732Z</time></trkpt><trkpt lat="42.414373" lon="11.1646978"><ele>190.60000000000002</ele><time>2026-04-25T11:43:22.732Z</time></trkpt><trkpt lat="42.4143317" lon="11.1645587"><ele>196.8</ele><time>2026-04-25T11:43:23.728Z</time></trkpt><trkpt lat="42.4142747" lon="11.164405"><ele>203.0</ele><time>2026-04-25T11:43:24.726Z</time></trkpt><trkpt lat="42.4142283" lon="11.1642515"><ele>203.0</ele><time>2026-04-25T11:43:25.728Z</time></trkpt><trkpt lat="42.4141869" lon="11.1641291"><ele>203.0</ele><time>2026-04-25T11:43:26.727Z</time></trkpt><trkpt lat="42.4141496" lon="11.1640124"><ele>203.0</ele><time>2026-04-25T11:43:27.724Z</time></trkpt><trkpt lat="42.4141121" lon="11.1638909"><ele>203.0</ele><time>2026-04-25T11:43:28.726Z</time></trkpt><trkpt lat="42.4140995" lon="11.1637456"><ele>203.0</ele><time>2026-04-25T11:43:30.725Z</time></trkpt><trkpt lat="42.4141817" lon="11.1636319"><ele>204.50000000000003</ele><time>2026-04-25T11:43:32.732Z</time></trkpt><trkpt lat="42.4142525" lon="11.1635986"><ele>206.0</ele><time>2026-04-25T11:43:33.729Z</time></trkpt><trkpt lat="42.414321" lon="11.1635988"><ele>207.5</ele><time>2026-04-25T11:43:34.73Z</time></trkpt><trkpt lat="42.414399" lon="11.1636348"><ele>209.0</ele><time>2026-04-25T11:43:35.719Z</time></trkpt><trkpt lat="42.4144837" lon="11.1636848"><ele>210.50000000000003</ele><time>2026-04-25T11:43:36.73Z</time></trkpt><trkpt lat="42.4145979" lon="11.1637593"><ele>212.0</ele><time>2026-04-25T11:43:37.727Z</time></trkpt><trkpt lat="42.4147148" lon="11.1638293"><ele>212.0</ele><time>2026-04-25T11:43:38.733Z</time></trkpt><trkpt lat="42.4148033" lon="11.1638832"><ele>212.0</ele><time>2026-04-25T11:43:39.73Z</time></trkpt><trkpt lat="42.4148841" lon="11.1639105"><ele>212.0</ele><time>2026-04-25T11:43:40.717Z</time></trkpt><trkpt lat="42.4149828" lon="11.1638879"><ele>212.0</ele><time>2026-04-25T11:43:41.728Z</time></trkpt><trkpt lat="42.4150898" lon="11.1638568"><ele>212.0</ele><time>2026-04-25T11:43:42.725Z</time></trkpt><trkpt lat="42.4151754" lon="11.1638339"><ele>212.0</ele><time>2026-04-25T11:43:43.731Z</time></trkpt><trkpt lat="42.4152912" lon="11.1637381"><ele>212.0</ele><time>2026-04-25T11:43:45.727Z</time></trkpt><trkpt lat="42.4153572" lon="11.1636365"><ele>212.0</ele><time>2026-04-25T11:43:46.73Z</time></trkpt><trkpt lat="42.4154338" lon="11.1635428"><ele>212.0</ele><time>2026-04-25T11:43:47.731Z</time></trkpt><trkpt lat="42.4155144" lon="11.1634705"><ele>212.0</ele><time>2026-04-25T11:43:48.73Z</time></trkpt><trkpt lat="42.4155778" lon="11.1634029"><ele>210.85714285714286</ele><time>2026-04-25T11:43:49.733Z</time></trkpt><trkpt lat="42.4156355" lon="11.163324"><ele>209.7142857142857</ele><time>2026-04-25T11:43:50.727Z</time></trkpt><trkpt lat="42.4156885" lon="11.1632553"><ele>208.57142857142856</ele><time>2026-04-25T11:43:51.73Z</time></trkpt><trkpt lat="42.4157074" lon="11.1631733"><ele>207.42857142857144</ele><time>2026-04-25T11:43:52.727Z</time></trkpt><trkpt lat="42.4156922" lon="11.1630875"><ele>206.28571428571428</ele><time>2026-04-25T11:43:53.73Z</time></trkpt><trkpt lat="42.4156591" lon="11.1629962"><ele>205.14285714285714</ele><time>2026-04-25T11:43:54.729Z</time></trkpt><trkpt lat="42.4156293" lon="11.1628935"><ele>204.0</ele><time>2026-04-25T11:43:55.728Z</time></trkpt><trkpt lat="42.4156073" lon="11.162794"><ele>204.0</ele><time>2026-04-25T11:43:56.729Z</time></trkpt><trkpt lat="42.4155957" lon="11.1626836"><ele>204.0</ele><time>2026-04-25T11:43:57.73Z</time></trkpt><trkpt lat="42.4155894" lon="11.162556"><ele>204.0</ele><time>2026-04-25T11:43:58.735Z</time></trkpt><trkpt lat="42.4155926" lon="11.1624261"><ele>204.0</ele><time>2026-04-25T11:43:59.724Z</time></trkpt><trkpt lat="42.4155814" lon="11.1623022"><ele>204.0</ele><time>2026-04-25T11:44:00.732Z</time></trkpt><trkpt lat="42.4155513" lon="11.1622046"><ele>204.0</ele><time>2026-04-25T11:44:01.727Z</time></trkpt><trkpt lat="42.4155034" lon="11.1621236"><ele>208.16666666666666</ele><time>2026-04-25T11:44:02.718Z</time></trkpt><trkpt lat="42.4154573" lon="11.162045"><ele>212.33333333333331</ele><time>2026-04-25T11:44:03.736Z</time></trkpt><trkpt lat="42.4153962" lon="11.1619738"><ele>216.5</ele><time>2026-04-25T11:44:04.73Z</time></trkpt><trkpt lat="42.4153115" lon="11.161833"><ele>220.66666666666666</ele><time>2026-04-25T11:44:06.73Z</time></trkpt><trkpt lat="42.4152627" lon="11.1617701"><ele>224.83333333333331</ele><time>2026-04-25T11:44:07.728Z</time></trkpt><trkpt lat="42.4152076" lon="11.1617049"><ele>229.0</ele><time>2026-04-25T11:44:08.726Z</time></trkpt><trkpt lat="42.4151548" lon="11.1616464"><ele>228.99999999999997</ele><time>2026-04-25T11:44:09.731Z</time></trkpt><trkpt lat="42.4151124" lon="11.1615708"><ele>229.0</ele><time>2026-04-25T11:44:10.721Z</time></trkpt><trkpt lat="42.4150871" lon="11.1614752"><ele>229.0</ele><time>2026-04-25T11:44:11.725Z</time></trkpt><trkpt lat="42.4150727" lon="11.1613568"><ele>229.0</ele><time>2026-04-25T11:44:12.721Z</time></trkpt><trkpt lat="42.4150664" lon="11.1612255"><ele>228.99999999999997</ele><time>2026-04-25T11:44:13.732Z</time></trkpt><trkpt lat="42.4150863" lon="11.1610953"><ele>229.0</ele><time>2026-04-25T11:44:14.724Z</time></trkpt><trkpt lat="42.4151128" lon="11.1609785"><ele>229.79999999999998</ele><time>2026-04-25T11:44:15.725Z</time></trkpt><trkpt lat="42.4151491" lon="11.1608715"><ele>230.59999999999997</ele><time>2026-04-25T11:44:16.721Z</time></trkpt><trkpt lat="42.4151879" lon="11.160755"><ele>231.4</ele><time>2026-04-25T11:44:17.725Z</time></trkpt><trkpt lat="42.4152354" lon="11.1606206"><ele>232.2</ele><time>2026-04-25T11:44:18.726Z</time></trkpt><trkpt lat="42.4152742" lon="11.1604756"><ele>233.0</ele><time>2026-04-25T11:44:19.726Z</time></trkpt><trkpt lat="42.4153169" lon="11.1603411"><ele>233.60000000000002</ele><time>2026-04-25T11:44:20.73Z</time></trkpt><trkpt lat="42.4153657" lon="11.160209"><ele>234.20000000000002</ele><time>2026-04-25T11:44:21.735Z</time></trkpt><trkpt lat="42.4154114" lon="11.1601042"><ele>234.8</ele><time>2026-04-25T11:44:22.725Z</time></trkpt><trkpt lat="42.4154664" lon="11.1600066"><ele>235.4</ele><time>2026-04-25T11:44:23.726Z</time></trkpt><trkpt lat="42.4155349" lon="11.1598905"><ele>236.0</ele><time>2026-04-25T11:44:24.722Z</time></trkpt><trkpt lat="42.4156034" lon="11.1597697"><ele>239.16666666666669</ele><time>2026-04-25T11:44:25.74Z</time></trkpt><trkpt lat="42.4156496" lon="11.1596938"><ele>242.33333333333334</ele><time>2026-04-25T11:44:26.726Z</time></trkpt><trkpt lat="42.4157181" lon="11.1596152"><ele>245.5</ele><time>2026-04-25T11:44:28.726Z</time></trkpt><trkpt lat="42.4157803" lon="11.1595049"><ele>248.66666666666669</ele><time>2026-04-25T11:44:38.735Z</time></trkpt><trkpt lat="42.415797" lon="11.1594214"><ele>251.83333333333334</ele><time>2026-04-25T11:44:39.723Z</time></trkpt><trkpt lat="42.4157518" lon="11.1593189"><ele>255.0</ele><time>2026-04-25T11:44:41.729Z</time></trkpt><trkpt lat="42.415644" lon="11.1592175"><ele>255.0</ele><time>2026-04-25T11:44:43.725Z</time></trkpt><trkpt lat="42.4155628" lon="11.1591665"><ele>255.0</ele><time>2026-04-25T11:44:44.742Z</time></trkpt><trkpt lat="42.4154723" lon="11.1591228"><ele>255.0</ele><time>2026-04-25T11:44:45.722Z</time></trkpt><trkpt lat="42.4153726" lon="11.1590788"><ele>255.0</ele><time>2026-04-25T11:44:46.731Z</time></trkpt><trkpt lat="42.4152775" lon="11.159032"><ele>255.0</ele><time>2026-04-25T11:44:47.733Z</time></trkpt><trkpt lat="42.4151901" lon="11.1589989"><ele>260.5</ele><time>2026-04-25T11:44:48.725Z</time></trkpt><trkpt lat="42.415108" lon="11.1589721"><ele>266.0</ele><time>2026-04-25T11:44:50.729Z</time></trkpt><trkpt lat="42.4150219" lon="11.1589455"><ele>271.5</ele><time>2026-04-25T11:44:54.721Z</time></trkpt><trkpt lat="42.4149502" lon="11.1589484"><ele>277.0</ele><time>2026-04-25T11:44:55.729Z</time></trkpt><trkpt lat="42.4148533" lon="11.1589594"><ele>282.5</ele><time>2026-04-25T11:44:56.726Z</time></trkpt><trkpt lat="42.4147523" lon="11.1589737"><ele>288.0</ele><time>2026-04-25T11:44:57.725Z</time></trkpt><trkpt lat="42.4146755" lon="11.1590056"><ele>287.5</ele><time>2026-04-25T11:44:58.725Z</time></trkpt><trkpt lat="42.4146154" lon="11.1590641"><ele>287.0</ele><time>2026-04-25T11:44:59.727Z</time></trkpt><trkpt lat="42.4145512" lon="11.1591189"><ele>286.5</ele><time>2026-04-25T11:45:00.729Z</time></trkpt><trkpt lat="42.4144837" lon="11.1591823"><ele>286.0</ele><time>2026-04-25T11:45:01.728Z</time></trkpt><trkpt lat="42.4144188" lon="11.1592416"><ele>285.5</ele><time>2026-04-25T11:45:02.731Z</time></trkpt><trkpt lat="42.4143492" lon="11.159291"><ele>285.0</ele><time>2026-04-25T11:45:03.721Z</time></trkpt><trkpt lat="42.4142812" lon="11.1593475"><ele>285.0</ele><time>2026-04-25T11:45:04.73Z</time></trkpt><trkpt lat="42.4142123" lon="11.1594231"><ele>285.0</ele><time>2026-04-25T11:45:05.724Z</time></trkpt><trkpt lat="42.4141425" lon="11.1595233"><ele>285.0</ele><time>2026-04-25T11:45:06.727Z</time></trkpt><trkpt lat="42.4140968" lon="11.1596445"><ele>285.0</ele><time>2026-04-25T11:45:07.722Z</time></trkpt><trkpt lat="42.4140633" lon="11.1597857"><ele>285.0</ele><time>2026-04-25T11:45:08.722Z</time></trkpt><trkpt lat="42.4140293" lon="11.1599343"><ele>282.1666666666667</ele><time>2026-04-25T11:45:09.726Z</time></trkpt><trkpt lat="42.4140009" lon="11.160058"><ele>279.3333333333333</ele><time>2026-04-25T11:45:10.734Z</time></trkpt><trkpt lat="42.4139802" lon="11.1601643"><ele>276.5</ele><time>2026-04-25T11:45:11.725Z</time></trkpt><trkpt lat="42.4139558" lon="11.1602555"><ele>273.66666666666663</ele><time>2026-04-25T11:45:12.721Z</time></trkpt><trkpt lat="42.4139325" lon="11.1603425"><ele>270.8333333333333</ele><time>2026-04-25T11:45:13.727Z</time></trkpt><trkpt lat="42.4139262" lon="11.1604576"><ele>268.0</ele><time>2026-04-25T11:45:15.73Z</time></trkpt><trkpt lat="42.4139884" lon="11.1605075"><ele>268.0</ele><time>2026-04-25T11:45:18.728Z</time></trkpt><trkpt lat="42.4140124" lon="11.1605984"><ele>268.0</ele><time>2026-04-25T11:45:21.728Z</time></trkpt><trkpt lat="42.4139546" lon="11.1605254"><ele>268.0</ele><time>2026-04-25T11:54:10.743Z</time></trkpt><trkpt lat="42.4138588" lon="11.1605316"><ele>268.0</ele><time>2026-04-25T11:54:13.75Z</time></trkpt><trkpt lat="42.413726" lon="11.1605552"><ele>268.0</ele><time>2026-04-25T11:54:15.749Z</time></trkpt><trkpt lat="42.4136419" lon="11.1605348"><ele>272.8</ele><time>2026-04-25T11:54:16.748Z</time></trkpt><trkpt lat="42.4135495" lon="11.1605056"><ele>277.6</ele><time>2026-04-25T11:54:18.742Z</time></trkpt><trkpt lat="42.4135619" lon="11.1603833"><ele>282.4</ele><time>2026-04-25T11:54:20.742Z</time></trkpt><trkpt lat="42.4136237" lon="11.1602685"><ele>287.2</ele><time>2026-04-25T11:54:21.744Z</time></trkpt><trkpt lat="42.4136966" lon="11.1601526"><ele>292.0</ele><time>2026-04-25T11:54:22.739Z</time></trkpt><trkpt lat="42.4137893" lon="11.1598715"><ele>294.6</ele><time>2026-04-25T11:54:24.753Z</time></trkpt><trkpt lat="42.4137794" lon="11.1597385"><ele>297.2</ele><time>2026-04-25T11:54:25.755Z</time></trkpt><trkpt lat="42.4137405" lon="11.159602"><ele>299.8</ele><time>2026-04-25T11:54:26.744Z</time></trkpt><trkpt lat="42.4136995" lon="11.1594503"><ele>302.4</ele><time>2026-04-25T11:54:27.733Z</time></trkpt><trkpt lat="42.4136717" lon="11.1593"><ele>305.0</ele><time>2026-04-25T11:54:28.733Z</time></trkpt><trkpt lat="42.4136754" lon="11.1591553"><ele>304.0</ele><time>2026-04-25T11:54:29.741Z</time></trkpt><trkpt lat="42.4137057" lon="11.1590139"><ele>303.0</ele><time>2026-04-25T11:54:30.742Z</time></trkpt><trkpt lat="42.4137561" lon="11.158854"><ele>302.0</ele><time>2026-04-25T11:54:31.741Z</time></trkpt><trkpt lat="42.4138203" lon="11.1586994"><ele>301.0</ele><time>2026-04-25T11:54:32.751Z</time></trkpt><trkpt lat="42.4138877" lon="11.1585424"><ele>301.0</ele><time>2026-04-25T11:54:33.746Z</time></trkpt><trkpt lat="42.4139539" lon="11.1583831"><ele>301.0</ele><time>2026-04-25T11:54:34.74Z</time></trkpt><trkpt lat="42.4140133" lon="11.1582231"><ele>301.0</ele><time>2026-04-25T11:54:35.752Z</time></trkpt><trkpt lat="42.4140728" lon="11.1580747"><ele>301.0</ele><time>2026-04-25T11:54:36.746Z</time></trkpt><trkpt lat="42.4141386" lon="11.1579366"><ele>304.0</ele><time>2026-04-25T11:54:37.745Z</time></trkpt><trkpt lat="42.4141996" lon="11.1578109"><ele>307.0</ele><time>2026-04-25T11:54:38.751Z</time></trkpt><trkpt lat="42.4142645" lon="11.1577115"><ele>310.0</ele><time>2026-04-25T11:54:39.733Z</time></trkpt><trkpt lat="42.414349" lon="11.1576442"><ele>313.0</ele><time>2026-04-25T11:54:40.736Z</time></trkpt><trkpt lat="42.414462" lon="11.1576162"><ele>316.0</ele><time>2026-04-25T11:54:41.725Z</time></trkpt><trkpt lat="42.4145816" lon="11.1576064"><ele>315.25</ele><time>2026-04-25T11:54:42.736Z</time></trkpt><trkpt lat="42.4147001" lon="11.1576123"><ele>314.5</ele><time>2026-04-25T11:54:43.737Z</time></trkpt><trkpt lat="42.4148253" lon="11.1576241"><ele>313.75</ele><time>2026-04-25T11:54:44.741Z</time></trkpt><trkpt lat="42.4149457" lon="11.1576344"><ele>313.0</ele><time>2026-04-25T11:54:45.744Z</time></trkpt><trkpt lat="42.415073" lon="11.1576339"><ele>313.0</ele><time>2026-04-25T11:54:46.739Z</time></trkpt><trkpt lat="42.415208" lon="11.1576116"><ele>313.0</ele><time>2026-04-25T11:54:47.742Z</time></trkpt><trkpt lat="42.4153524" lon="11.1575726"><ele>313.0</ele><time>2026-04-25T11:54:48.746Z</time></trkpt><trkpt lat="42.4154922" lon="11.1575239"><ele>313.0</ele><time>2026-04-25T11:54:49.74Z</time></trkpt><trkpt lat="42.4156435" lon="11.157475"><ele>313.25</ele><time>2026-04-25T11:54:50.731Z</time></trkpt><trkpt lat="42.4157963" lon="11.1574393"><ele>313.5</ele><time>2026-04-25T11:54:51.737Z</time></trkpt><trkpt lat="42.4159397" lon="11.1573946"><ele>313.75</ele><time>2026-04-25T11:54:52.741Z</time></trkpt><trkpt lat="42.4160643" lon="11.1573262"><ele>314.0</ele><time>2026-04-25T11:54:53.736Z</time></trkpt><trkpt lat="42.4161738" lon="11.1572579"><ele>317.0</ele><time>2026-04-25T11:54:54.744Z</time></trkpt><trkpt lat="42.4162801" lon="11.1571624"><ele>320.0</ele><time>2026-04-25T11:54:55.753Z</time></trkpt><trkpt lat="42.4163718" lon="11.1570234"><ele>323.0</ele><time>2026-04-25T11:54:56.728Z</time></trkpt><trkpt lat="42.4164646" lon="11.1568838"><ele>326.0</ele><time>2026-04-25T11:54:57.732Z</time></trkpt><trkpt lat="42.4165557" lon="11.1567545"><ele>326.0</ele><time>2026-04-25T11:54:58.753Z</time></trkpt><trkpt lat="42.4166479" lon="11.1566197"><ele>326.0</ele><time>2026-04-25T11:54:59.743Z</time></trkpt><trkpt lat="42.4167172" lon="11.1565077"><ele>326.0</ele><time>2026-04-25T11:55:00.758Z</time></trkpt><trkpt lat="42.4167635" lon="11.1564017"><ele>326.0</ele><time>2026-04-25T11:55:01.74Z</time></trkpt><trkpt lat="42.4167931" lon="11.1562601"><ele>326.0</ele><time>2026-04-25T11:55:02.746Z</time></trkpt><trkpt lat="42.4168106" lon="11.1561121"><ele>328.5</ele><time>2026-04-25T11:55:03.745Z</time></trkpt><trkpt lat="42.4168322" lon="11.1559554"><ele>331.0</ele><time>2026-04-25T11:55:04.735Z</time></trkpt><trkpt lat="42.4168598" lon="11.155782"><ele>333.5</ele><time>2026-04-25T11:55:05.738Z</time></trkpt><trkpt lat="42.4168896" lon="11.1556071"><ele>336.0</ele><time>2026-04-25T11:55:06.736Z</time></trkpt><trkpt lat="42.4169163" lon="11.155453"><ele>337.0</ele><time>2026-04-25T11:55:07.74Z</time></trkpt><trkpt lat="42.4169315" lon="11.1553232"><ele>338.0</ele><time>2026-04-25T11:55:08.745Z</time></trkpt><trkpt lat="42.4169406" lon="11.1552168"><ele>339.0</ele><time>2026-04-25T11:55:09.744Z</time></trkpt><trkpt lat="42.4169069" lon="11.1550879"><ele>340.0</ele><time>2026-04-25T11:55:11.748Z</time></trkpt><trkpt lat="42.4168136" lon="11.1550615"><ele>341.0</ele><time>2026-04-25T11:55:13.743Z</time></trkpt><trkpt lat="42.4167153" lon="11.155163"><ele>341.0</ele><time>2026-04-25T11:55:15.741Z</time></trkpt><trkpt lat="42.4166606" lon="11.1552253"><ele>341.0</ele><time>2026-04-25T11:55:16.735Z</time></trkpt><trkpt lat="42.4166038" lon="11.1552827"><ele>341.0</ele><time>2026-04-25T11:55:17.756Z</time></trkpt><trkpt lat="42.416554" lon="11.1553365"><ele>341.0</ele><time>2026-04-25T11:55:18.744Z</time></trkpt><trkpt lat="42.4164686" lon="11.1554428"><ele>341.0</ele><time>2026-04-25T11:55:20.744Z</time></trkpt><trkpt lat="42.4163735" lon="11.1555451"><ele>341.0</ele><time>2026-04-25T11:55:22.749Z</time></trkpt><trkpt lat="42.4163026" lon="11.1556241"><ele>343.0</ele><time>2026-04-25T11:55:24.745Z</time></trkpt><trkpt lat="42.4162467" lon="11.1557014"><ele>345.0</ele><time>2026-04-25T11:55:26.741Z</time></trkpt><trkpt lat="42.4161577" lon="11.155809"><ele>347.0</ele><time>2026-04-25T11:55:28.744Z</time></trkpt><trkpt lat="42.4160914" lon="11.1558766"><ele>349.0</ele><time>2026-04-25T11:55:29.755Z</time></trkpt><trkpt lat="42.4160137" lon="11.1559715"><ele>351.0</ele><time>2026-04-25T11:55:30.75Z</time></trkpt><trkpt lat="42.4159272" lon="11.1560847"><ele>351.0</ele><time>2026-04-25T11:55:31.75Z</time></trkpt><trkpt lat="42.4158349" lon="11.1561934"><ele>351.0</ele><time>2026-04-25T11:55:32.742Z</time></trkpt><trkpt lat="42.4157473" lon="11.1562986"><ele>351.0</ele><time>2026-04-25T11:55:33.743Z</time></trkpt><trkpt lat="42.4156656" lon="11.1563983"><ele>351.0</ele><time>2026-04-25T11:55:34.747Z</time></trkpt><trkpt lat="42.4155883" lon="11.1564821"><ele>351.0</ele><time>2026-04-25T11:55:35.744Z</time></trkpt><trkpt lat="42.4155215" lon="11.1565327"><ele>351.0</ele><time>2026-04-25T11:55:36.733Z</time></trkpt><trkpt lat="42.4154202" lon="11.1565157"><ele>351.0</ele><time>2026-04-25T11:55:38.741Z</time></trkpt><trkpt lat="42.4154185" lon="11.1563638"><ele>351.0</ele><time>2026-04-25T11:55:40.726Z</time></trkpt><trkpt lat="42.4154461" lon="11.1562544"><ele>351.0</ele><time>2026-04-25T11:55:41.753Z</time></trkpt><trkpt lat="42.4154875" lon="11.1561297"><ele>351.0</ele><time>2026-04-25T11:55:42.744Z</time></trkpt><trkpt lat="42.4155288" lon="11.1559856"><ele>351.0</ele><time>2026-04-25T11:55:43.74Z</time></trkpt><trkpt lat="42.4155721" lon="11.1558325"><ele>351.0</ele><time>2026-04-25T11:55:44.734Z</time></trkpt><trkpt lat="42.4156154" lon="11.1556701"><ele>351.0</ele><time>2026-04-25T11:55:45.742Z</time></trkpt><trkpt lat="42.4156554" lon="11.155494"><ele>351.0</ele><time>2026-04-25T11:55:46.738Z</time></trkpt><trkpt lat="42.4156892" lon="11.1553203"><ele>353.0</ele><time>2026-04-25T11:55:47.737Z</time></trkpt><trkpt lat="42.4157264" lon="11.1551381"><ele>355.0</ele><time>2026-04-25T11:55:48.75Z</time></trkpt><trkpt lat="42.415766" lon="11.1549659"><ele>357.0</ele><time>2026-04-25T11:55:49.74Z</time></trkpt><trkpt lat="42.4157899" lon="11.1548076"><ele>359.0</ele><time>2026-04-25T11:55:50.746Z</time></trkpt><trkpt lat="42.4157855" lon="11.1546276"><ele>359.5</ele><time>2026-04-25T11:55:51.753Z</time></trkpt><trkpt lat="42.4157461" lon="11.1544302"><ele>360.0</ele><time>2026-04-25T11:55:52.735Z</time></trkpt><trkpt lat="42.4156764" lon="11.1542527"><ele>360.5</ele><time>2026-04-25T11:55:53.727Z</time></trkpt><trkpt lat="42.4156036" lon="11.1540897"><ele>361.0</ele><time>2026-04-25T11:55:54.746Z</time></trkpt><trkpt lat="42.4155275" lon="11.1539322"><ele>363.8</ele><time>2026-04-25T11:55:55.734Z</time></trkpt><trkpt lat="42.4154542" lon="11.1537716"><ele>366.6</ele><time>2026-04-25T11:55:56.733Z</time></trkpt><trkpt lat="42.4154039" lon="11.1536377"><ele>369.4</ele><time>2026-04-25T11:55:57.736Z</time></trkpt><trkpt lat="42.4153558" lon="11.153562"><ele>372.2</ele><time>2026-04-25T11:55:58.739Z</time></trkpt><trkpt lat="42.4152649" lon="11.1535366"><ele>375.0</ele><time>2026-04-25T11:56:00.737Z</time></trkpt><trkpt lat="42.4152483" lon="11.1536918"><ele>375.0</ele><time>2026-04-25T11:56:02.741Z</time></trkpt><trkpt lat="42.4152936" lon="11.1537986"><ele>375.0</ele><time>2026-04-25T11:56:03.737Z</time></trkpt><trkpt lat="42.4153452" lon="11.1539306"><ele>375.0</ele><time>2026-04-25T11:56:04.739Z</time></trkpt><trkpt lat="42.4153815" lon="11.1540704"><ele>375.0</ele><time>2026-04-25T11:56:05.749Z</time></trkpt><trkpt lat="42.4153812" lon="11.1542254"><ele>375.0</ele><time>2026-04-25T11:56:06.743Z</time></trkpt><trkpt lat="42.4153666" lon="11.1543658"><ele>377.0</ele><time>2026-04-25T11:56:07.737Z</time></trkpt><trkpt lat="42.4153223" lon="11.1545114"><ele>379.0</ele><time>2026-04-25T11:56:08.736Z</time></trkpt><trkpt lat="42.4152406" lon="11.1546371"><ele>381.0</ele><time>2026-04-25T11:56:09.745Z</time></trkpt><trkpt lat="42.4151435" lon="11.1547641"><ele>383.0</ele><time>2026-04-25T11:56:10.746Z</time></trkpt><trkpt lat="42.4150493" lon="11.1548942"><ele>383.0</ele><time>2026-04-25T11:56:11.753Z</time></trkpt><trkpt lat="42.4149703" lon="11.1550105"><ele>383.0</ele><time>2026-04-25T11:56:12.739Z</time></trkpt><trkpt lat="42.4149216" lon="11.1550817"><ele>383.0</ele><time>2026-04-25T11:56:13.749Z</time></trkpt><trkpt lat="42.4148336" lon="11.1550677"><ele>383.0</ele><time>2026-04-25T11:56:15.732Z</time></trkpt><trkpt lat="42.4148311" lon="11.1549242"><ele>383.0</ele><time>2026-04-25T11:56:17.751Z</time></trkpt><trkpt lat="42.4148584" lon="11.1548091"><ele>383.2</ele><time>2026-04-25T11:56:18.736Z</time></trkpt><trkpt lat="42.4148716" lon="11.1546734"><ele>383.4</ele><time>2026-04-25T11:56:19.747Z</time></trkpt><trkpt lat="42.4148555" lon="11.154522"><ele>383.59999999999997</ele><time>2026-04-25T11:56:20.742Z</time></trkpt><trkpt lat="42.4148111" lon="11.1543889"><ele>383.79999999999995</ele><time>2026-04-25T11:56:21.743Z</time></trkpt><trkpt lat="42.4147472" lon="11.1542415"><ele>384.0</ele><time>2026-04-25T11:56:22.764Z</time></trkpt><trkpt lat="42.4146835" lon="11.1540798"><ele>386.6</ele><time>2026-04-25T11:56:23.748Z</time></trkpt><trkpt lat="42.4146316" lon="11.1539114"><ele>389.2</ele><time>2026-04-25T11:56:24.74Z</time></trkpt><trkpt lat="42.4145916" lon="11.1537595"><ele>391.8</ele><time>2026-04-25T11:56:25.743Z</time></trkpt><trkpt lat="42.4145522" lon="11.1536491"><ele>394.40000000000003</ele><time>2026-04-25T11:56:26.738Z</time></trkpt><trkpt lat="42.4144832" lon="11.1535559"><ele>397.0</ele><time>2026-04-25T11:56:27.735Z</time></trkpt><trkpt lat="42.4143813" lon="11.153481"><ele>397.0</ele><time>2026-04-25T11:56:28.741Z</time></trkpt><trkpt lat="42.414252" lon="11.153419"><ele>397.0</ele><time>2026-04-25T11:56:29.752Z</time></trkpt><trkpt lat="42.4141058" lon="11.1533543"><ele>397.0</ele><time>2026-04-25T11:56:30.741Z</time></trkpt><trkpt lat="42.4139763" lon="11.1532795"><ele>397.0</ele><time>2026-04-25T11:56:31.739Z</time></trkpt><trkpt lat="42.4138621" lon="11.1531881"><ele>399.75</ele><time>2026-04-25T11:56:32.736Z</time></trkpt><trkpt lat="42.4137557" lon="11.1530619"><ele>402.5</ele><time>2026-04-25T11:56:33.738Z</time></trkpt><trkpt lat="42.4136453" lon="11.152909"><ele>405.25</ele><time>2026-04-25T11:56:34.747Z</time></trkpt><trkpt lat="42.4135404" lon="11.1527862"><ele>408.0</ele><time>2026-04-25T11:56:35.74Z</time></trkpt><trkpt lat="42.4134574" lon="11.1526991"><ele>408.0</ele><time>2026-04-25T11:56:36.75Z</time></trkpt><trkpt lat="42.4133953" lon="11.1526412"><ele>408.0</ele><time>2026-04-25T11:56:37.741Z</time></trkpt><trkpt lat="42.4132851" lon="11.1526673"><ele>408.0</ele><time>2026-04-25T11:56:39.729Z</time></trkpt><trkpt lat="42.4132629" lon="11.1527524"><ele>408.0</ele><time>2026-04-25T11:56:40.75Z</time></trkpt><trkpt lat="42.4132788" lon="11.152883"><ele>408.0</ele><time>2026-04-25T11:56:41.74Z</time></trkpt><trkpt lat="42.4133036" lon="11.1530162"><ele>408.0</ele><time>2026-04-25T11:56:42.737Z</time></trkpt><trkpt lat="42.4133026" lon="11.153172"><ele>408.0</ele><time>2026-04-25T11:56:43.732Z</time></trkpt><trkpt lat="42.4132678" lon="11.1533448"><ele>408.0</ele><time>2026-04-25T11:56:44.742Z</time></trkpt><trkpt lat="42.4131936" lon="11.1535082"><ele>408.0</ele><time>2026-04-25T11:56:45.743Z</time></trkpt><trkpt lat="42.4131052" lon="11.1536713"><ele>410.0</ele><time>2026-04-25T11:56:46.742Z</time></trkpt><trkpt lat="42.4130076" lon="11.1538288"><ele>412.0</ele><time>2026-04-25T11:56:47.743Z</time></trkpt><trkpt lat="42.412908" lon="11.1539939"><ele>414.0</ele><time>2026-04-25T11:56:48.732Z</time></trkpt><trkpt lat="42.4128305" lon="11.1541706"><ele>417.6</ele><time>2026-04-25T11:56:49.749Z</time></trkpt><trkpt lat="42.4127864" lon="11.1543565"><ele>421.2</ele><time>2026-04-25T11:56:50.74Z</time></trkpt><trkpt lat="42.4127653" lon="11.1545158"><ele>424.80000000000007</ele><time>2026-04-25T11:56:51.762Z</time></trkpt><trkpt lat="42.4127167" lon="11.1546409"><ele>428.40000000000003</ele><time>2026-04-25T11:56:52.739Z</time></trkpt><trkpt lat="42.4126556" lon="11.1547026"><ele>432.0</ele><time>2026-04-25T11:56:53.743Z</time></trkpt><trkpt lat="42.4125922" lon="11.1547273"><ele>432.0</ele><time>2026-04-25T11:56:54.747Z</time></trkpt><trkpt lat="42.4125082" lon="11.1546477"><ele>432.0</ele><time>2026-04-25T11:56:56.729Z</time></trkpt><trkpt lat="42.4125241" lon="11.1544608"><ele>432.0</ele><time>2026-04-25T11:56:58.725Z</time></trkpt><trkpt lat="42.4125485" lon="11.1543332"><ele>432.0</ele><time>2026-04-25T11:56:59.74Z</time></trkpt><trkpt lat="42.4125567" lon="11.1541753"><ele>431.5</ele><time>2026-04-25T11:57:00.749Z</time></trkpt><trkpt lat="42.4125044" lon="11.1540035"><ele>431.0</ele><time>2026-04-25T11:57:01.74Z</time></trkpt><trkpt lat="42.4124176" lon="11.1538281"><ele>430.5</ele><time>2026-04-25T11:57:02.735Z</time></trkpt><trkpt lat="42.4123434" lon="11.1536512"><ele>430.0</ele><time>2026-04-25T11:57:03.743Z</time></trkpt><trkpt lat="42.4122734" lon="11.1534674"><ele>430.0</ele><time>2026-04-25T11:57:04.748Z</time></trkpt><trkpt lat="42.4122169" lon="11.1532664"><ele>430.0</ele><time>2026-04-25T11:57:05.735Z</time></trkpt><trkpt lat="42.4121532" lon="11.1530759"><ele>430.0</ele><time>2026-04-25T11:57:06.749Z</time></trkpt><trkpt lat="42.412104" lon="11.1529047"><ele>430.0</ele><time>2026-04-25T11:57:07.745Z</time></trkpt><trkpt lat="42.412072" lon="11.1527669"><ele>432.2</ele><time>2026-04-25T11:57:08.745Z</time></trkpt><trkpt lat="42.4120329" lon="11.1526517"><ele>434.4</ele><time>2026-04-25T11:57:09.731Z</time></trkpt><trkpt lat="42.4119654" lon="11.1525709"><ele>436.6</ele><time>2026-04-25T11:57:10.741Z</time></trkpt><trkpt lat="42.4118697" lon="11.1525215"><ele>438.8</ele><time>2026-04-25T11:57:11.738Z</time></trkpt><trkpt lat="42.4117584" lon="11.1525147"><ele>441.0</ele><time>2026-04-25T11:57:12.737Z</time></trkpt><trkpt lat="42.4116465" lon="11.1525681"><ele>441.0</ele><time>2026-04-25T11:57:13.736Z</time></trkpt><trkpt lat="42.4115282" lon="11.1526313"><ele>441.0</ele><time>2026-04-25T11:57:14.738Z</time></trkpt><trkpt lat="42.4113947" lon="11.1526744"><ele>441.0</ele><time>2026-04-25T11:57:15.753Z</time></trkpt><trkpt lat="42.4112619" lon="11.1527138"><ele>441.0</ele><time>2026-04-25T11:57:16.738Z</time></trkpt><trkpt lat="42.4111239" lon="11.1527568"><ele>443.4</ele><time>2026-04-25T11:57:17.733Z</time></trkpt><trkpt lat="42.4110007" lon="11.1527937"><ele>445.8</ele><time>2026-04-25T11:57:18.761Z</time></trkpt><trkpt lat="42.4109005" lon="11.1528043"><ele>448.19999999999993</ele><time>2026-04-25T11:57:19.751Z</time></trkpt><trkpt lat="42.4108214" lon="11.1527667"><ele>450.59999999999997</ele><time>2026-04-25T11:57:20.742Z</time></trkpt><trkpt lat="42.4107559" lon="11.1526868"><ele>453.0</ele><time>2026-04-25T11:57:21.754Z</time></trkpt><trkpt lat="42.4106996" lon="11.1525806"><ele>453.0</ele><time>2026-04-25T11:57:22.75Z</time></trkpt><trkpt lat="42.4106403" lon="11.1524293"><ele>453.0</ele><time>2026-04-25T11:57:23.729Z</time></trkpt><trkpt lat="42.4105688" lon="11.1522917"><ele>453.0</ele><time>2026-04-25T11:57:24.742Z</time></trkpt><trkpt lat="42.4104974" lon="11.1521819"><ele>453.0</ele><time>2026-04-25T11:57:25.733Z</time></trkpt><trkpt lat="42.410391" lon="11.1521002"><ele>451.75</ele><time>2026-04-25T11:57:26.75Z</time></trkpt><trkpt lat="42.4102673" lon="11.1520798"><ele>450.5</ele><time>2026-04-25T11:57:27.742Z</time></trkpt><trkpt lat="42.4101362" lon="11.1520949"><ele>449.25</ele><time>2026-04-25T11:57:28.747Z</time></trkpt><trkpt lat="42.4099917" lon="11.152129"><ele>448.0</ele><time>2026-04-25T11:57:29.744Z</time></trkpt><trkpt lat="42.4098345" lon="11.1521679"><ele>448.0</ele><time>2026-04-25T11:57:30.734Z</time></trkpt><trkpt lat="42.4096858" lon="11.1522116"><ele>448.0</ele><time>2026-04-25T11:57:31.733Z</time></trkpt><trkpt lat="42.4095442" lon="11.1522567"><ele>448.0</ele><time>2026-04-25T11:57:32.748Z</time></trkpt><trkpt lat="42.4094196" lon="11.1522992"><ele>448.0</ele><time>2026-04-25T11:57:33.745Z</time></trkpt><trkpt lat="42.4093027" lon="11.1523712"><ele>452.5</ele><time>2026-04-25T11:57:34.742Z</time></trkpt><trkpt lat="42.4091943" lon="11.1524702"><ele>457.0</ele><time>2026-04-25T11:57:35.741Z</time></trkpt><trkpt lat="42.4090961" lon="11.1525986"><ele>461.5</ele><time>2026-04-25T11:57:36.748Z</time></trkpt><trkpt lat="42.4089795" lon="11.1527143"><ele>466.0</ele><time>2026-04-25T11:57:37.768Z</time></trkpt><trkpt lat="42.4088412" lon="11.1527922"><ele>466.0</ele><time>2026-04-25T11:57:38.751Z</time></trkpt><trkpt lat="42.4086897" lon="11.1528475"><ele>466.0</ele><time>2026-04-25T11:57:39.725Z</time></trkpt><trkpt lat="42.4085381" lon="11.152881"><ele>466.0</ele><time>2026-04-25T11:57:40.747Z</time></trkpt><trkpt lat="42.408389" lon="11.1529033"><ele>466.0</ele><time>2026-04-25T11:57:41.738Z</time></trkpt><trkpt lat="42.4082427" lon="11.1529278"><ele>466.0</ele><time>2026-04-25T11:57:42.73Z</time></trkpt><trkpt lat="42.4081011" lon="11.1529582"><ele>466.0</ele><time>2026-04-25T11:57:43.757Z</time></trkpt><trkpt lat="42.4079718" lon="11.1529986"><ele>466.0</ele><time>2026-04-25T11:57:44.739Z</time></trkpt><trkpt lat="42.4078535" lon="11.153035"><ele>467.6</ele><time>2026-04-25T11:57:45.734Z</time></trkpt><trkpt lat="42.4077446" lon="11.15306"><ele>469.20000000000005</ele><time>2026-04-25T11:57:46.745Z</time></trkpt><trkpt lat="42.407636" lon="11.153065"><ele>470.79999999999995</ele><time>2026-04-25T11:57:47.744Z</time></trkpt><trkpt lat="42.4075341" lon="11.1530537"><ele>472.4</ele><time>2026-04-25T11:57:48.753Z</time></trkpt><trkpt lat="42.4074463" lon="11.1530387"><ele>474.0</ele><time>2026-04-25T11:57:49.735Z</time></trkpt><trkpt lat="42.407379" lon="11.1530403"><ele>474.0</ele><time>2026-04-25T11:57:50.736Z</time></trkpt><trkpt lat="42.4072896" lon="11.1531471"><ele>474.0</ele><time>2026-04-25T11:57:52.753Z</time></trkpt><trkpt lat="42.4072703" lon="11.1532578"><ele>474.0</ele><time>2026-04-25T11:57:53.755Z</time></trkpt><trkpt lat="42.4072753" lon="11.153392"><ele>474.0</ele><time>2026-04-25T11:57:54.741Z</time></trkpt><trkpt lat="42.4072933" lon="11.1535196"><ele>474.0</ele><time>2026-04-25T11:57:55.747Z</time></trkpt><trkpt lat="42.4072982" lon="11.1536601"><ele>477.5</ele><time>2026-04-25T11:57:56.754Z</time></trkpt><trkpt lat="42.4073221" lon="11.1538127"><ele>481.0</ele><time>2026-04-25T11:57:57.74Z</time></trkpt><trkpt lat="42.4073804" lon="11.1539768"><ele>484.5</ele><time>2026-04-25T11:57:58.755Z</time></trkpt><trkpt lat="42.407452" lon="11.1541288"><ele>488.0</ele><time>2026-04-25T11:57:59.744Z</time></trkpt><trkpt lat="42.4075052" lon="11.1542821"><ele>488.25</ele><time>2026-04-25T11:58:00.744Z</time></trkpt><trkpt lat="42.407526" lon="11.1544435"><ele>488.5</ele><time>2026-04-25T11:58:01.743Z</time></trkpt><trkpt lat="42.4075092" lon="11.1546266"><ele>488.75</ele><time>2026-04-25T11:58:02.745Z</time></trkpt><trkpt lat="42.4074815" lon="11.1548282"><ele>489.0</ele><time>2026-04-25T11:58:03.771Z</time></trkpt><trkpt lat="42.4074463" lon="11.1550266"><ele>489.0</ele><time>2026-04-25T11:58:04.765Z</time></trkpt><trkpt lat="42.4074148" lon="11.1552059"><ele>489.0</ele><time>2026-04-25T11:58:05.737Z</time></trkpt><trkpt lat="42.4073846" lon="11.1553576"><ele>489.0</ele><time>2026-04-25T11:58:06.741Z</time></trkpt><trkpt lat="42.4073435" lon="11.1554986"><ele>489.0</ele><time>2026-04-25T11:58:07.738Z</time></trkpt><trkpt lat="42.4072869" lon="11.1556439"><ele>488.75</ele><time>2026-04-25T11:58:08.736Z</time></trkpt><trkpt lat="42.4072034" lon="11.155799"><ele>488.5</ele><time>2026-04-25T11:58:09.747Z</time></trkpt><trkpt lat="42.4071098" lon="11.1559585"><ele>488.25</ele><time>2026-04-25T11:58:10.74Z</time></trkpt><trkpt lat="42.4070322" lon="11.1561258"><ele>488.0</ele><time>2026-04-25T11:58:11.745Z</time></trkpt><trkpt lat="42.4069554" lon="11.1562895"><ele>488.0</ele><time>2026-04-25T11:58:12.724Z</time></trkpt><trkpt lat="42.4068753" lon="11.1564478"><ele>488.0</ele><time>2026-04-25T11:58:13.752Z</time></trkpt><trkpt lat="42.406801" lon="11.156593"><ele>488.0</ele><time>2026-04-25T11:58:14.726Z</time></trkpt><trkpt lat="42.4067211" lon="11.1567145"><ele>488.0</ele><time>2026-04-25T11:58:15.75Z</time></trkpt><trkpt lat="42.4066372" lon="11.1568029"><ele>488.5</ele><time>2026-04-25T11:58:16.747Z</time></trkpt><trkpt lat="42.40654" lon="11.156875"><ele>489.0</ele><time>2026-04-25T11:58:17.737Z</time></trkpt><trkpt lat="42.4064291" lon="11.1569429"><ele>489.5</ele><time>2026-04-25T11:58:18.736Z</time></trkpt><trkpt lat="42.406315" lon="11.15701"><ele>490.0</ele><time>2026-04-25T11:58:19.741Z</time></trkpt><trkpt lat="42.4062015" lon="11.1570807"><ele>490.5</ele><time>2026-04-25T11:58:20.736Z</time></trkpt><trkpt lat="42.4060809" lon="11.157157"><ele>491.0</ele><time>2026-04-25T11:58:21.744Z</time></trkpt><trkpt lat="42.405958" lon="11.1572411"><ele>491.5</ele><time>2026-04-25T11:58:22.748Z</time></trkpt><trkpt lat="42.4058319" lon="11.1573322"><ele>492.0</ele><time>2026-04-25T11:58:23.747Z</time></trkpt><trkpt lat="42.4057122" lon="11.1574469"><ele>492.0</ele><time>2026-04-25T11:58:24.732Z</time></trkpt><trkpt lat="42.405604" lon="11.1575818"><ele>492.0</ele><time>2026-04-25T11:58:25.743Z</time></trkpt><trkpt lat="42.4055011" lon="11.1577045"><ele>492.0</ele><time>2026-04-25T11:58:26.755Z</time></trkpt><trkpt lat="42.4054035" lon="11.1578073"><ele>492.0</ele><time>2026-04-25T11:58:27.74Z</time></trkpt><trkpt lat="42.4053215" lon="11.1579009"><ele>494.0</ele><time>2026-04-25T11:58:28.74Z</time></trkpt><trkpt lat="42.4052387" lon="11.1579905"><ele>496.00000000000006</ele><time>2026-04-25T11:58:29.724Z</time></trkpt><trkpt lat="42.4051622" lon="11.1580779"><ele>498.00000000000006</ele><time>2026-04-25T11:58:30.748Z</time></trkpt><trkpt lat="42.405098" lon="11.158162"><ele>500.0</ele><time>2026-04-25T11:58:31.764Z</time></trkpt><trkpt lat="42.4050414" lon="11.1582423"><ele>502.0</ele><time>2026-04-25T11:58:32.754Z</time></trkpt><trkpt lat="42.4049885" lon="11.158328"><ele>502.0</ele><time>2026-04-25T11:58:33.748Z</time></trkpt><trkpt lat="42.4049339" lon="11.1584259"><ele>502.00000000000006</ele><time>2026-04-25T11:58:34.739Z</time></trkpt><trkpt lat="42.4048743" lon="11.1585384"><ele>502.00000000000006</ele><time>2026-04-25T11:58:35.735Z</time></trkpt><trkpt lat="42.4048091" lon="11.1586701"><ele>502.0</ele><time>2026-04-25T11:58:36.75Z</time></trkpt><trkpt lat="42.4047329" lon="11.1587973"><ele>502.0</ele><time>2026-04-25T11:58:37.733Z</time></trkpt><trkpt lat="42.4046575" lon="11.1589101"><ele>505.20000000000005</ele><time>2026-04-25T11:58:38.748Z</time></trkpt><trkpt lat="42.4045737" lon="11.1590138"><ele>508.40000000000003</ele><time>2026-04-25T11:58:39.763Z</time></trkpt><trkpt lat="42.4045045" lon="11.159118"><ele>511.59999999999997</ele><time>2026-04-25T11:58:40.752Z</time></trkpt><trkpt lat="42.4044472" lon="11.1592304"><ele>514.8</ele><time>2026-04-25T11:58:41.74Z</time></trkpt><trkpt lat="42.4044315" lon="11.1593577"><ele>518.0</ele><time>2026-04-25T11:58:42.763Z</time></trkpt><trkpt lat="42.4044415" lon="11.1594898"><ele>518.0</ele><time>2026-04-25T11:58:43.74Z</time></trkpt><trkpt lat="42.4044892" lon="11.159626"><ele>518.0</ele><time>2026-04-25T11:58:44.738Z</time></trkpt><trkpt lat="42.4045461" lon="11.1597403"><ele>518.0</ele><time>2026-04-25T11:58:45.734Z</time></trkpt><trkpt lat="42.4045796" lon="11.1598354"><ele>518.0</ele><time>2026-04-25T11:58:46.753Z</time></trkpt><trkpt lat="42.4045967" lon="11.1599203"><ele>518.0</ele><time>2026-04-25T11:58:47.755Z</time></trkpt><trkpt lat="42.4046013" lon="11.160015"><ele>518.0</ele><time>2026-04-25T11:58:48.736Z</time></trkpt><trkpt lat="42.4045923" lon="11.1601226"><ele>516.8</ele><time>2026-04-25T11:58:49.738Z</time></trkpt><trkpt lat="42.404556" lon="11.1602327"><ele>515.5999999999999</ele><time>2026-04-25T11:58:50.747Z</time></trkpt><trkpt lat="42.4044983" lon="11.1603203"><ele>514.4000000000001</ele><time>2026-04-25T11:58:51.739Z</time></trkpt><trkpt lat="42.4044163" lon="11.1603715"><ele>513.2</ele><time>2026-04-25T11:58:52.742Z</time></trkpt><trkpt lat="42.4043058" lon="11.1604078"><ele>512.0</ele><time>2026-04-25T11:58:53.756Z</time></trkpt><trkpt lat="42.404188" lon="11.1604233"><ele>512.0</ele><time>2026-04-25T11:58:54.759Z</time></trkpt><trkpt lat="42.4040471" lon="11.1604234"><ele>512.0</ele><time>2026-04-25T11:58:55.729Z</time></trkpt><trkpt lat="42.4039039" lon="11.1604193"><ele>512.0</ele><time>2026-04-25T11:58:56.748Z</time></trkpt><trkpt lat="42.4037499" lon="11.1604384"><ele>512.0</ele><time>2026-04-25T11:58:57.749Z</time></trkpt><trkpt lat="42.4036044" lon="11.1604819"><ele>512.75</ele><time>2026-04-25T11:58:58.751Z</time></trkpt><trkpt lat="42.4034713" lon="11.1605128"><ele>513.5</ele><time>2026-04-25T11:58:59.742Z</time></trkpt><trkpt lat="42.4033338" lon="11.1605223"><ele>514.25</ele><time>2026-04-25T11:59:00.745Z</time></trkpt><trkpt lat="42.403191" lon="11.1605027"><ele>515.0</ele><time>2026-04-25T11:59:01.752Z</time></trkpt><trkpt lat="42.4030535" lon="11.1604628"><ele>512.8</ele><time>2026-04-25T11:59:02.743Z</time></trkpt><trkpt lat="42.4029372" lon="11.1604353"><ele>510.6</ele><time>2026-04-25T11:59:03.747Z</time></trkpt><trkpt lat="42.4028362" lon="11.1604058"><ele>508.4</ele><time>2026-04-25T11:59:04.75Z</time></trkpt><trkpt lat="42.4027476" lon="11.1603846"><ele>506.2</ele><time>2026-04-25T11:59:05.75Z</time></trkpt><trkpt lat="42.4026762" lon="11.160382"><ele>504.0</ele><time>2026-04-25T11:59:06.73Z</time></trkpt><trkpt lat="42.4026026" lon="11.1603555"><ele>504.0</ele><time>2026-04-25T11:59:08.744Z</time></trkpt><trkpt lat="42.4025791" lon="11.160262"><ele>504.0</ele><time>2026-04-25T11:59:11.749Z</time></trkpt><trkpt lat="42.4026835" lon="11.160198"><ele>504.0</ele><time>2026-04-25T12:00:16.809Z</time></trkpt><trkpt lat="42.4027944" lon="11.1601226"><ele>504.0</ele><time>2026-04-25T12:00:18.729Z</time></trkpt><trkpt lat="42.4028537" lon="11.1600589"><ele>504.0</ele><time>2026-04-25T12:00:19.741Z</time></trkpt><trkpt lat="42.4029194" lon="11.1599789"><ele>504.0</ele><time>2026-04-25T12:00:20.732Z</time></trkpt><trkpt lat="42.4029733" lon="11.1599224"><ele>504.0</ele><time>2026-04-25T12:00:21.725Z</time></trkpt><trkpt lat="42.403076" lon="11.1598353"><ele>504.0</ele><time>2026-04-25T12:00:23.745Z</time></trkpt><trkpt lat="42.4031649" lon="11.159734"><ele>504.0</ele><time>2026-04-25T12:00:25.734Z</time></trkpt><trkpt lat="42.4032069" lon="11.1596096"><ele>504.0</ele><time>2026-04-25T12:00:27.723Z</time></trkpt><trkpt lat="42.4032623" lon="11.1595179"><ele>507.3333333333333</ele><time>2026-04-25T12:00:29.75Z</time></trkpt><trkpt lat="42.4033177" lon="11.1594628"><ele>510.66666666666663</ele><time>2026-04-25T12:00:31.733Z</time></trkpt><trkpt lat="42.4033771" lon="11.1593805"><ele>514.0</ele><time>2026-04-25T12:00:35.728Z</time></trkpt><trkpt lat="42.4034361" lon="11.1592905"><ele>517.3333333333333</ele><time>2026-04-25T12:00:37.73Z</time></trkpt><trkpt lat="42.4034456" lon="11.1591505"><ele>520.6666666666666</ele><time>2026-04-25T12:00:39.731Z</time></trkpt><trkpt lat="42.4034408" lon="11.1590558"><ele>524.0</ele><time>2026-04-25T12:00:40.726Z</time></trkpt><trkpt lat="42.4034329" lon="11.1589517"><ele>524.6666666666666</ele><time>2026-04-25T12:00:41.745Z</time></trkpt><trkpt lat="42.4034174" lon="11.1588595"><ele>525.3333333333333</ele><time>2026-04-25T12:00:42.74Z</time></trkpt><trkpt lat="42.4034099" lon="11.1587391"><ele>526.0</ele><time>2026-04-25T12:00:44.735Z</time></trkpt><trkpt lat="42.4033955" lon="11.1586408"><ele>526.6666666666666</ele><time>2026-04-25T12:01:00.744Z</time></trkpt><trkpt lat="42.403384" lon="11.1585223"><ele>527.3333333333334</ele><time>2026-04-25T12:01:02.736Z</time></trkpt><trkpt lat="42.4033669" lon="11.1584104"><ele>528.0</ele><time>2026-04-25T12:01:04.786Z</time></trkpt><trkpt lat="42.4033582" lon="11.1583182"><ele>528.0</ele><time>2026-04-25T12:01:06.747Z</time></trkpt><trkpt lat="42.403329" lon="11.1582313"><ele>528.0</ele><time>2026-04-25T12:01:09.739Z</time></trkpt><trkpt lat="42.4033058" lon="11.1581428"><ele>528.0</ele><time>2026-04-25T12:01:11.749Z</time></trkpt><trkpt lat="42.4032731" lon="11.1580067"><ele>528.0</ele><time>2026-04-25T12:01:13.74Z</time></trkpt><trkpt lat="42.4032384" lon="11.1578644"><ele>528.0</ele><time>2026-04-25T12:01:15.753Z</time></trkpt><trkpt lat="42.4032072" lon="11.1577249"><ele>527.1999999999999</ele><time>2026-04-25T12:01:17.752Z</time></trkpt><trkpt lat="42.4031701" lon="11.1575945"><ele>526.4</ele><time>2026-04-25T12:01:19.747Z</time></trkpt><trkpt lat="42.403127" lon="11.1574563"><ele>525.5999999999999</ele><time>2026-04-25T12:01:21.747Z</time></trkpt><trkpt lat="42.4030804" lon="11.157322"><ele>524.8</ele><time>2026-04-25T12:01:23.739Z</time></trkpt><trkpt lat="42.4030288" lon="11.157173"><ele>524.0</ele><time>2026-04-25T12:01:25.742Z</time></trkpt><trkpt lat="42.4029724" lon="11.1570185"><ele>520.0</ele><time>2026-04-25T12:01:27.734Z</time></trkpt><trkpt lat="42.4029354" lon="11.1568801"><ele>516.0</ele><time>2026-04-25T12:01:29.733Z</time></trkpt><trkpt lat="42.4028808" lon="11.1567556"><ele>512.0</ele><time>2026-04-25T12:01:31.743Z</time></trkpt><trkpt lat="42.4028268" lon="11.1566618"><ele>508.0</ele><time>2026-04-25T12:01:33.737Z</time></trkpt><trkpt lat="42.4027606" lon="11.1565687"><ele>504.0</ele><time>2026-04-25T12:01:35.759Z</time></trkpt><trkpt lat="42.4027001" lon="11.1564599"><ele>503.6</ele><time>2026-04-25T12:01:37.732Z</time></trkpt><trkpt lat="42.4026547" lon="11.1563342"><ele>503.2</ele><time>2026-04-25T12:01:39.764Z</time></trkpt><trkpt lat="42.4025975" lon="11.1562187"><ele>502.80000000000007</ele><time>2026-04-25T12:01:41.738Z</time></trkpt><trkpt lat="42.4025284" lon="11.1561018"><ele>502.40000000000003</ele><time>2026-04-25T12:01:43.733Z</time></trkpt><trkpt lat="42.4024659" lon="11.1559928"><ele>502.0</ele><time>2026-04-25T12:01:45.738Z</time></trkpt><trkpt lat="42.4024317" lon="11.1558885"><ele>502.00000000000006</ele><time>2026-04-25T12:01:47.742Z</time></trkpt><trkpt lat="42.4023994" lon="11.1557924"><ele>502.0</ele><time>2026-04-25T12:01:49.772Z</time></trkpt><trkpt lat="42.402341" lon="11.1557224"><ele>502.0</ele><time>2026-04-25T12:01:51.748Z</time></trkpt><trkpt lat="42.4022821" lon="11.1556638"><ele>502.0</ele><time>2026-04-25T12:01:54.734Z</time></trkpt><trkpt lat="42.4022503" lon="11.1555839"><ele>502.00000000000006</ele><time>2026-04-25T12:01:56.742Z</time></trkpt><trkpt lat="42.402178" lon="11.1555375"><ele>502.0</ele><time>2026-04-25T12:01:59.653Z</time></trkpt><trkpt lat="42.4021165" lon="11.1554406"><ele>497.40000000000003</ele><time>2026-04-25T12:02:01.752Z</time></trkpt><trkpt lat="42.4021087" lon="11.1553534"><ele>492.80000000000007</ele><time>2026-04-25T12:02:02.738Z</time></trkpt><trkpt lat="42.402078" lon="11.1552104"><ele>488.2</ele><time>2026-04-25T12:02:04.742Z</time></trkpt><trkpt lat="42.4020419" lon="11.1550739"><ele>483.6</ele><time>2026-04-25T12:02:06.745Z</time></trkpt><trkpt lat="42.4020151" lon="11.1549951"><ele>479.0</ele><time>2026-04-25T12:02:07.751Z</time></trkpt><trkpt lat="42.4019663" lon="11.1548564"><ele>478.16666666666663</ele><time>2026-04-25T12:02:09.736Z</time></trkpt><trkpt lat="42.4019255" lon="11.1547582"><ele>477.3333333333333</ele><time>2026-04-25T12:02:11.754Z</time></trkpt><trkpt lat="42.4019093" lon="11.1546505"><ele>476.5</ele><time>2026-04-25T12:02:13.744Z</time></trkpt><trkpt lat="42.4018831" lon="11.154541"><ele>475.66666666666663</ele><time>2026-04-25T12:02:15.746Z</time></trkpt><trkpt lat="42.4018924" lon="11.1544339"><ele>474.8333333333333</ele><time>2026-04-25T12:02:17.733Z</time></trkpt><trkpt lat="42.4019062" lon="11.1542997"><ele>474.0</ele><time>2026-04-25T12:02:19.731Z</time></trkpt><trkpt lat="42.4019227" lon="11.1541607"><ele>474.0</ele><time>2026-04-25T12:02:21.745Z</time></trkpt><trkpt lat="42.4019261" lon="11.154049"><ele>474.0</ele><time>2026-04-25T12:02:23.764Z</time></trkpt><trkpt lat="42.4019356" lon="11.153926"><ele>474.0</ele><time>2026-04-25T12:02:25.739Z</time></trkpt><trkpt lat="42.4019396" lon="11.1538345"><ele>474.0</ele><time>2026-04-25T12:02:26.764Z</time></trkpt><trkpt lat="42.4019187" lon="11.1537444"><ele>474.0</ele><time>2026-04-25T12:02:28.733Z</time></trkpt><trkpt lat="42.4019004" lon="11.1536368"><ele>474.0</ele><time>2026-04-25T12:02:31.725Z</time></trkpt><trkpt lat="42.4018624" lon="11.1535574"><ele>472.5</ele><time>2026-04-25T12:02:33.688Z</time></trkpt><trkpt lat="42.401781" lon="11.1535221"><ele>471.0</ele><time>2026-04-25T12:02:35.738Z</time></trkpt><trkpt lat="42.4017387" lon="11.1534253"><ele>469.5</ele><time>2026-04-25T12:02:38.754Z</time></trkpt><trkpt lat="42.4017496" lon="11.1533332"><ele>468.0</ele><time>2026-04-25T12:02:41.73Z</time></trkpt><trkpt lat="42.4017786" lon="11.1532339"><ele>466.5</ele><time>2026-04-25T12:02:45.817Z</time></trkpt><trkpt lat="42.4017194" lon="11.1532047"><ele>465.0</ele><time>2026-04-25T12:02:48.714Z</time></trkpt><trkpt lat="42.4016422" lon="11.1531564"><ele>462.3333333333333</ele><time>2026-04-25T12:02:51.734Z</time></trkpt><trkpt lat="42.4016213" lon="11.1530757"><ele>459.66666666666663</ele><time>2026-04-25T12:02:54.696Z</time></trkpt><trkpt lat="42.4016701" lon="11.1529769"><ele>457.0</ele><time>2026-04-25T12:02:57.737Z</time></trkpt><trkpt lat="42.4015983" lon="11.1528951"><ele>454.3333333333333</ele><time>2026-04-25T12:03:00.737Z</time></trkpt><trkpt lat="42.4015167" lon="11.1528864"><ele>451.66666666666663</ele><time>2026-04-25T12:03:03.751Z</time></trkpt><trkpt lat="42.4014604" lon="11.1528132"><ele>449.0</ele><time>2026-04-25T12:03:06.748Z</time></trkpt><trkpt lat="42.4014719" lon="11.1527062"><ele>448.99999999999994</ele><time>2026-04-25T12:03:08.758Z</time></trkpt><trkpt lat="42.4014563" lon="11.1526205"><ele>449.0</ele><time>2026-04-25T12:03:10.746Z</time></trkpt><trkpt lat="42.4013805" lon="11.1525552"><ele>449.0</ele><time>2026-04-25T12:03:12.733Z</time></trkpt><trkpt lat="42.401323" lon="11.1525066"><ele>449.0</ele><time>2026-04-25T12:03:14.755Z</time></trkpt><trkpt lat="42.4012788" lon="11.1524327"><ele>448.99999999999994</ele><time>2026-04-25T12:03:16.735Z</time></trkpt><trkpt lat="42.4012355" lon="11.1523398"><ele>449.0</ele><time>2026-04-25T12:03:18.718Z</time></trkpt><trkpt lat="42.4012052" lon="11.1522246"><ele>447.85714285714283</ele><time>2026-04-25T12:03:20.735Z</time></trkpt><trkpt lat="42.4011709" lon="11.1521414"><ele>446.71428571428567</ele><time>2026-04-25T12:03:22.735Z</time></trkpt><trkpt lat="42.4011295" lon="11.1520504"><ele>445.57142857142856</ele><time>2026-04-25T12:03:24.739Z</time></trkpt><trkpt lat="42.4010716" lon="11.1519472"><ele>444.42857142857144</ele><time>2026-04-25T12:03:26.736Z</time></trkpt><trkpt lat="42.4010222" lon="11.1518928"><ele>443.2857142857143</ele><time>2026-04-25T12:03:29.735Z</time></trkpt><trkpt lat="42.4010477" lon="11.1518118"><ele>442.1428571428571</ele><time>2026-04-25T12:04:32.751Z</time></trkpt><trkpt lat="42.4011178" lon="11.1517767"><ele>441.0</ele><time>2026-04-25T12:04:36.777Z</time></trkpt><trkpt lat="42.401176" lon="11.1517404"><ele>441.0</ele><time>2026-04-25T12:04:42.682Z</time></trkpt><trkpt lat="42.4012465" lon="11.1516995"><ele>441.0</ele><time>2026-04-25T12:04:46.733Z</time></trkpt><trkpt lat="42.4013116" lon="11.1516796"><ele>441.0</ele><time>2026-04-25T12:04:49.759Z</time></trkpt><trkpt lat="42.4013583" lon="11.1516136"><ele>441.0</ele><time>2026-04-25T12:04:53.686Z</time></trkpt><trkpt lat="42.40138" lon="11.1515274"><ele>441.0</ele><time>2026-04-25T12:04:56.74Z</time></trkpt><trkpt lat="42.4014416" lon="11.1514911"><ele>441.0</ele><time>2026-04-25T12:05:01.733Z</time></trkpt><trkpt lat="42.4015013" lon="11.1515385"><ele>441.0</ele><time>2026-04-25T12:05:04.723Z</time></trkpt><trkpt lat="42.4015834" lon="11.1515587"><ele>437.6666666666667</ele><time>2026-04-25T12:05:07.745Z</time></trkpt><trkpt lat="42.4016449" lon="11.1515368"><ele>434.33333333333337</ele><time>2026-04-25T12:05:17.73Z</time></trkpt><trkpt lat="42.4017055" lon="11.1514374"><ele>431.0</ele><time>2026-04-25T12:05:20.76Z</time></trkpt><trkpt lat="42.4017833" lon="11.1514305"><ele>427.6666666666667</ele><time>2026-04-25T12:05:24.748Z</time></trkpt><trkpt lat="42.4018709" lon="11.1514379"><ele>424.33333333333337</ele><time>2026-04-25T12:05:27.734Z</time></trkpt><trkpt lat="42.4019419" lon="11.1514175"><ele>421.0</ele><time>2026-04-25T12:05:30.736Z</time></trkpt><trkpt lat="42.4020148" lon="11.1514038"><ele>421.00000000000006</ele><time>2026-04-25T12:05:33.737Z</time></trkpt><trkpt lat="42.4021058" lon="11.1514264"><ele>421.0</ele><time>2026-04-25T12:05:36.74Z</time></trkpt><trkpt lat="42.4021813" lon="11.1514096"><ele>421.0</ele><time>2026-04-25T12:05:39.733Z</time></trkpt><trkpt lat="42.4022625" lon="11.1514069"><ele>421.0</ele><time>2026-04-25T12:05:54.739Z</time></trkpt><trkpt lat="42.4023173" lon="11.1513508"><ele>421.00000000000006</ele><time>2026-04-25T12:05:57.734Z</time></trkpt><trkpt lat="42.4023949" lon="11.1512861"><ele>421.0</ele><time>2026-04-25T12:06:00.728Z</time></trkpt><trkpt lat="42.4024552" lon="11.1512414"><ele>416.1666666666667</ele><time>2026-04-25T12:06:02.756Z</time></trkpt><trkpt lat="42.4025214" lon="11.1512118"><ele>411.33333333333337</ele><time>2026-04-25T12:06:04.739Z</time></trkpt><trkpt lat="42.4025886" lon="11.1511701"><ele>406.5</ele><time>2026-04-25T12:06:06.728Z</time></trkpt><trkpt lat="42.402658" lon="11.1511497"><ele>401.66666666666663</ele><time>2026-04-25T12:06:08.74Z</time></trkpt><trkpt lat="42.4027493" lon="11.1511135"><ele>396.8333333333333</ele><time>2026-04-25T12:06:10.729Z</time></trkpt><trkpt lat="42.4028321" lon="11.1510744"><ele>392.0</ele><time>2026-04-25T12:06:12.733Z</time></trkpt><trkpt lat="42.4029063" lon="11.1510422"><ele>392.0</ele><time>2026-04-25T12:06:14.741Z</time></trkpt><trkpt lat="42.4029808" lon="11.1510217"><ele>392.0</ele><time>2026-04-25T12:06:16.734Z</time></trkpt><trkpt lat="42.4030649" lon="11.1510231"><ele>392.0</ele><time>2026-04-25T12:06:18.736Z</time></trkpt><trkpt lat="42.4031219" lon="11.1510625"><ele>392.0</ele><time>2026-04-25T12:06:19.734Z</time></trkpt><trkpt lat="42.4031724" lon="11.1511413"><ele>392.0</ele><time>2026-04-25T12:06:21.737Z</time></trkpt><trkpt lat="42.4032391" lon="11.1512006"><ele>392.0</ele><time>2026-04-25T12:06:24.742Z</time></trkpt><trkpt lat="42.4032918" lon="11.1512493"><ele>392.0</ele><time>2026-04-25T12:06:26.739Z</time></trkpt><trkpt lat="42.4033504" lon="11.1513173"><ele>390.16666666666663</ele><time>2026-04-25T12:06:28.724Z</time></trkpt><trkpt lat="42.4034018" lon="11.1514011"><ele>388.3333333333333</ele><time>2026-04-25T12:06:30.727Z</time></trkpt><trkpt lat="42.4034513" lon="11.1514772"><ele>386.5</ele><time>2026-04-25T12:06:32.734Z</time></trkpt><trkpt lat="42.403489" lon="11.1515799"><ele>384.66666666666663</ele><time>2026-04-25T12:06:34.741Z</time></trkpt><trkpt lat="42.4035313" lon="11.1517274"><ele>382.8333333333333</ele><time>2026-04-25T12:06:36.732Z</time></trkpt><trkpt lat="42.4035473" lon="11.151819"><ele>381.0</ele><time>2026-04-25T12:06:38.727Z</time></trkpt><trkpt lat="42.4035661" lon="11.151927"><ele>384.1666666666667</ele><time>2026-04-25T12:06:41.737Z</time></trkpt><trkpt lat="42.4035825" lon="11.1520178"><ele>387.33333333333337</ele><time>2026-04-25T12:06:43.737Z</time></trkpt><trkpt lat="42.4036447" lon="11.152086"><ele>390.5</ele><time>2026-04-25T12:06:47.742Z</time></trkpt><trkpt lat="42.4037184" lon="11.1520951"><ele>393.6666666666667</ele><time>2026-04-25T12:06:49.736Z</time></trkpt><trkpt lat="42.4038161" lon="11.1521119"><ele>396.83333333333337</ele><time>2026-04-25T12:06:52.727Z</time></trkpt><trkpt lat="42.4039115" lon="11.1520972"><ele>400.0</ele><time>2026-04-25T12:06:54.732Z</time></trkpt><trkpt lat="42.4039942" lon="11.1520505"><ele>400.0</ele><time>2026-04-25T12:06:56.738Z</time></trkpt><trkpt lat="42.4040541" lon="11.151955"><ele>400.0</ele><time>2026-04-25T12:06:58.728Z</time></trkpt><trkpt lat="42.404084" lon="11.1518121"><ele>400.0</ele><time>2026-04-25T12:07:00.73Z</time></trkpt><trkpt lat="42.4041266" lon="11.1516792"><ele>400.0</ele><time>2026-04-25T12:07:02.74Z</time></trkpt><trkpt lat="42.4041823" lon="11.1515463"><ele>400.0</ele><time>2026-04-25T12:07:04.73Z</time></trkpt><trkpt lat="42.4041947" lon="11.1514116"><ele>397.33333333333337</ele><time>2026-04-25T12:07:06.723Z</time></trkpt><trkpt lat="42.4042221" lon="11.1512967"><ele>394.6666666666667</ele><time>2026-04-25T12:07:08.726Z</time></trkpt><trkpt lat="42.4042467" lon="11.1512126"><ele>392.0</ele><time>2026-04-25T12:07:11.738Z</time></trkpt><trkpt lat="42.4042858" lon="11.1511125"><ele>389.33333333333337</ele><time>2026-04-25T12:07:14.723Z</time></trkpt><trkpt lat="42.4043227" lon="11.1510073"><ele>386.6666666666667</ele><time>2026-04-25T12:07:16.739Z</time></trkpt><trkpt lat="42.4043735" lon="11.1509375"><ele>384.0</ele><time>2026-04-25T12:07:18.751Z</time></trkpt><trkpt lat="42.4044179" lon="11.1508518"><ele>384.0</ele><time>2026-04-25T12:07:20.734Z</time></trkpt><trkpt lat="42.4044727" lon="11.1507735"><ele>384.0</ele><time>2026-04-25T12:07:22.735Z</time></trkpt><trkpt lat="42.4045573" lon="11.1506895"><ele>384.0</ele><time>2026-04-25T12:12:24.738Z</time></trkpt><trkpt lat="42.4046354" lon="11.1506172"><ele>384.0</ele><time>2026-04-25T12:12:26.735Z</time></trkpt><trkpt lat="42.4047048" lon="11.1505807"><ele>384.0</ele><time>2026-04-25T12:12:28.779Z</time></trkpt><trkpt lat="42.4048133" lon="11.1505335"><ele>385.4</ele><time>2026-04-25T12:12:30.742Z</time></trkpt><trkpt lat="42.4049252" lon="11.1505003"><ele>386.79999999999995</ele><time>2026-04-25T12:12:32.722Z</time></trkpt><trkpt lat="42.4050256" lon="11.1504884"><ele>388.20000000000005</ele><time>2026-04-25T12:12:34.732Z</time></trkpt><trkpt lat="42.4051059" lon="11.1504849"><ele>389.6</ele><time>2026-04-25T12:12:36.747Z</time></trkpt><trkpt lat="42.4051757" lon="11.1504588"><ele>391.0</ele><time>2026-04-25T12:12:38.724Z</time></trkpt><trkpt lat="42.4052723" lon="11.1504418"><ele>391.0</ele><time>2026-04-25T12:12:40.734Z</time></trkpt><trkpt lat="42.405363" lon="11.1504046"><ele>391.0</ele><time>2026-04-25T12:12:43.746Z</time></trkpt><trkpt lat="42.4054277" lon="11.1503401"><ele>391.0</ele><time>2026-04-25T12:12:45.74Z</time></trkpt><trkpt lat="42.4054523" lon="11.1502445"><ele>391.0</ele><time>2026-04-25T12:12:49.733Z</time></trkpt><trkpt lat="42.4054667" lon="11.1501464"><ele>391.0</ele><time>2026-04-25T12:12:51.739Z</time></trkpt><trkpt lat="42.4055137" lon="11.1499568"><ele>393.83333333333337</ele><time>2026-04-25T12:12:53.743Z</time></trkpt><trkpt lat="42.405546" lon="11.1498324"><ele>396.6666666666667</ele><time>2026-04-25T12:12:54.732Z</time></trkpt><trkpt lat="42.4055709" lon="11.1497109"><ele>399.5</ele><time>2026-04-25T12:12:55.734Z</time></trkpt><trkpt lat="42.4055912" lon="11.1495929"><ele>402.33333333333337</ele><time>2026-04-25T12:12:56.732Z</time></trkpt><trkpt lat="42.4056162" lon="11.1494856"><ele>405.1666666666667</ele><time>2026-04-25T12:12:57.735Z</time></trkpt><trkpt lat="42.4056479" lon="11.1493975"><ele>408.0</ele><time>2026-04-25T12:12:58.728Z</time></trkpt><trkpt lat="42.4056855" lon="11.1493259"><ele>408.0</ele><time>2026-04-25T12:12:59.735Z</time></trkpt><trkpt lat="42.40576" lon="11.1492952"><ele>408.0</ele><time>2026-04-25T12:13:02.738Z</time></trkpt><trkpt lat="42.4057481" lon="11.1494027"><ele>408.0</ele><time>2026-04-25T12:13:05.743Z</time></trkpt><trkpt lat="42.4057166" lon="11.149512"><ele>408.0</ele><time>2026-04-25T12:13:07.741Z</time></trkpt><trkpt lat="42.405695" lon="11.1496835"><ele>408.0</ele><time>2026-04-25T12:13:09.751Z</time></trkpt><trkpt lat="42.4056992" lon="11.1498021"><ele>411.0</ele><time>2026-04-25T12:13:10.737Z</time></trkpt><trkpt lat="42.4057076" lon="11.1499421"><ele>414.0</ele><time>2026-04-25T12:13:11.745Z</time></trkpt><trkpt lat="42.4057192" lon="11.1501015"><ele>417.0</ele><time>2026-04-25T12:13:12.778Z</time></trkpt><trkpt lat="42.4057263" lon="11.1502626"><ele>420.0</ele><time>2026-04-25T12:13:13.756Z</time></trkpt><trkpt lat="42.405735" lon="11.1504138"><ele>420.0</ele><time>2026-04-25T12:13:14.75Z</time></trkpt><trkpt lat="42.405743" lon="11.150537"><ele>420.0</ele><time>2026-04-25T12:13:15.741Z</time></trkpt><trkpt lat="42.4057445" lon="11.1506354"><ele>420.0</ele><time>2026-04-25T12:13:16.729Z</time></trkpt><trkpt lat="42.4057047" lon="11.1507962"><ele>420.0</ele><time>2026-04-25T12:13:18.756Z</time></trkpt><trkpt lat="42.4056401" lon="11.1508714"><ele>420.0</ele><time>2026-04-25T12:13:19.745Z</time></trkpt><trkpt lat="42.4055548" lon="11.1509239"><ele>418.0</ele><time>2026-04-25T12:13:20.73Z</time></trkpt><trkpt lat="42.4054607" lon="11.150989"><ele>416.0</ele><time>2026-04-25T12:13:21.736Z</time></trkpt><trkpt lat="42.4053589" lon="11.1510484"><ele>414.0</ele><time>2026-04-25T12:13:22.731Z</time></trkpt><trkpt lat="42.4052751" lon="11.1511087"><ele>412.0</ele><time>2026-04-25T12:13:23.763Z</time></trkpt><trkpt lat="42.4051926" lon="11.1511694"><ele>410.0</ele><time>2026-04-25T12:13:24.733Z</time></trkpt><trkpt lat="42.4051125" lon="11.1512344"><ele>409.99999999999994</ele><time>2026-04-25T12:13:25.738Z</time></trkpt><trkpt lat="42.4050485" lon="11.1513049"><ele>410.0</ele><time>2026-04-25T12:13:26.736Z</time></trkpt><trkpt lat="42.4049927" lon="11.1513934"><ele>410.0</ele><time>2026-04-25T12:13:27.743Z</time></trkpt><trkpt lat="42.4049492" lon="11.1514913"><ele>410.0</ele><time>2026-04-25T12:13:28.732Z</time></trkpt><trkpt lat="42.4049178" lon="11.1515917"><ele>409.99999999999994</ele><time>2026-04-25T12:13:29.735Z</time></trkpt><trkpt lat="42.4049063" lon="11.1516904"><ele>410.0</ele><time>2026-04-25T12:13:30.722Z</time></trkpt><trkpt lat="42.4049027" lon="11.1518121"><ele>414.8</ele><time>2026-04-25T12:13:31.735Z</time></trkpt><trkpt lat="42.4048901" lon="11.1519546"><ele>419.6</ele><time>2026-04-25T12:13:32.735Z</time></trkpt><trkpt lat="42.4048719" lon="11.1520907"><ele>424.4</ele><time>2026-04-25T12:13:33.742Z</time></trkpt><trkpt lat="42.4048486" lon="11.1522206"><ele>429.2</ele><time>2026-04-25T12:13:34.753Z</time></trkpt><trkpt lat="42.404835" lon="11.1523399"><ele>434.0</ele><time>2026-04-25T12:13:35.737Z</time></trkpt><trkpt lat="42.4048286" lon="11.1524358"><ele>436.0</ele><time>2026-04-25T12:13:36.731Z</time></trkpt><trkpt lat="42.4048376" lon="11.1525718"><ele>438.0</ele><time>2026-04-25T12:13:38.74Z</time></trkpt><trkpt lat="42.4048736" lon="11.1526517"><ele>440.0</ele><time>2026-04-25T12:13:39.74Z</time></trkpt><trkpt lat="42.40497" lon="11.1527428"><ele>442.0</ele><time>2026-04-25T12:13:41.737Z</time></trkpt><trkpt lat="42.4051074" lon="11.1528134"><ele>444.0</ele><time>2026-04-25T12:13:43.731Z</time></trkpt><trkpt lat="42.4052018" lon="11.1528608"><ele>444.0</ele><time>2026-04-25T12:13:44.739Z</time></trkpt><trkpt lat="42.4053002" lon="11.1529133"><ele>444.0</ele><time>2026-04-25T12:13:45.743Z</time></trkpt><trkpt lat="42.4053991" lon="11.1529718"><ele>444.0</ele><time>2026-04-25T12:13:46.747Z</time></trkpt><trkpt lat="42.4054947" lon="11.153038"><ele>444.0</ele><time>2026-04-25T12:13:47.74Z</time></trkpt><trkpt lat="42.4055931" lon="11.1531027"><ele>444.0</ele><time>2026-04-25T12:13:48.741Z</time></trkpt><trkpt lat="42.4057036" lon="11.1531577"><ele>446.6666666666667</ele><time>2026-04-25T12:13:49.734Z</time></trkpt><trkpt lat="42.4057948" lon="11.1532036"><ele>449.33333333333337</ele><time>2026-04-25T12:13:50.738Z</time></trkpt><trkpt lat="42.4058747" lon="11.1532475"><ele>452.0</ele><time>2026-04-25T12:13:51.733Z</time></trkpt><trkpt lat="42.4059585" lon="11.1532886"><ele>454.6666666666667</ele><time>2026-04-25T12:13:52.74Z</time></trkpt><trkpt lat="42.4060328" lon="11.1533336"><ele>457.33333333333337</ele><time>2026-04-25T12:13:53.74Z</time></trkpt><trkpt lat="42.4060984" lon="11.1534039"><ele>460.0</ele><time>2026-04-25T12:13:54.737Z</time></trkpt><trkpt lat="42.4061577" lon="11.1534892"><ele>460.00000000000006</ele><time>2026-04-25T12:13:55.756Z</time></trkpt><trkpt lat="42.4062058" lon="11.1535798"><ele>460.0</ele><time>2026-04-25T12:13:56.744Z</time></trkpt><trkpt lat="42.4062456" lon="11.1536647"><ele>460.0</ele><time>2026-04-25T12:13:57.73Z</time></trkpt><trkpt lat="42.4062749" lon="11.1537428"><ele>460.0</ele><time>2026-04-25T12:13:59.739Z</time></trkpt><trkpt lat="42.4063298" lon="11.1536468"><ele>460.00000000000006</ele><time>2026-04-25T12:14:02.746Z</time></trkpt><trkpt lat="42.4062855" lon="11.153507"><ele>460.0</ele><time>2026-04-25T12:14:04.757Z</time></trkpt><trkpt lat="42.4062454" lon="11.1534119"><ele>460.00000000000006</ele><time>2026-04-25T12:14:05.725Z</time></trkpt><trkpt lat="42.4062047" lon="11.153314"><ele>460.0</ele><time>2026-04-25T12:14:07.759Z</time></trkpt><trkpt lat="42.4062843" lon="11.1533172"><ele>460.0</ele><time>2026-04-25T12:14:15.742Z</time></trkpt><trkpt lat="42.4063159" lon="11.1533936"><ele>460.0</ele><time>2026-04-25T12:14:16.734Z</time></trkpt><trkpt lat="42.40636" lon="11.1534912"><ele>460.00000000000006</ele><time>2026-04-25T12:14:17.733Z</time></trkpt><trkpt lat="42.4064219" lon="11.1535911"><ele>460.0</ele><time>2026-04-25T12:14:18.752Z</time></trkpt><trkpt lat="42.4064972" lon="11.1536981"><ele>464.0</ele><time>2026-04-25T12:14:19.739Z</time></trkpt><trkpt lat="42.4065786" lon="11.153812"><ele>468.0</ele><time>2026-04-25T12:14:20.736Z</time></trkpt><trkpt lat="42.4066672" lon="11.1539288"><ele>472.0</ele><time>2026-04-25T12:14:21.739Z</time></trkpt><trkpt lat="42.4067614" lon="11.1540601"><ele>476.0</ele><time>2026-04-25T12:14:22.744Z</time></trkpt><trkpt lat="42.4068379" lon="11.1542065"><ele>476.0</ele><time>2026-04-25T12:14:23.744Z</time></trkpt><trkpt lat="42.4068917" lon="11.1543606"><ele>476.0</ele><time>2026-04-25T12:14:24.726Z</time></trkpt><trkpt lat="42.4069392" lon="11.1545145"><ele>476.0</ele><time>2026-04-25T12:14:25.738Z</time></trkpt><trkpt lat="42.4069833" lon="11.1546815"><ele>476.0</ele><time>2026-04-25T12:14:26.742Z</time></trkpt><trkpt lat="42.4070289" lon="11.1548478"><ele>477.20000000000005</ele><time>2026-04-25T12:14:27.729Z</time></trkpt><trkpt lat="42.4070714" lon="11.1549905"><ele>478.40000000000003</ele><time>2026-04-25T12:14:28.73Z</time></trkpt><trkpt lat="42.4071089" lon="11.1551176"><ele>479.6</ele><time>2026-04-25T12:14:29.749Z</time></trkpt><trkpt lat="42.4071401" lon="11.1552312"><ele>480.8</ele><time>2026-04-25T12:14:30.747Z</time></trkpt><trkpt lat="42.4071734" lon="11.1553314"><ele>482.0</ele><time>2026-04-25T12:14:31.735Z</time></trkpt><trkpt lat="42.4072111" lon="11.1554243"><ele>482.49999999999994</ele><time>2026-04-25T12:14:32.728Z</time></trkpt><trkpt lat="42.407245" lon="11.1555103"><ele>483.0</ele><time>2026-04-25T12:14:33.738Z</time></trkpt><trkpt lat="42.4072863" lon="11.1555796"><ele>483.5</ele><time>2026-04-25T12:14:35.75Z</time></trkpt><trkpt lat="42.4072615" lon="11.1556623"><ele>484.0</ele><time>2026-04-25T12:14:38.731Z</time></trkpt><trkpt lat="42.4071876" lon="11.1557928"><ele>484.49999999999994</ele><time>2026-04-25T12:14:40.756Z</time></trkpt><trkpt lat="42.4071435" lon="11.155881"><ele>485.0</ele><time>2026-04-25T12:14:41.756Z</time></trkpt><trkpt lat="42.4070956" lon="11.1559741"><ele>485.75</ele><time>2026-04-25T12:14:42.746Z</time></trkpt><trkpt lat="42.4070417" lon="11.1560801"><ele>486.5</ele><time>2026-04-25T12:14:43.736Z</time></trkpt><trkpt lat="42.4069866" lon="11.1562001"><ele>487.25</ele><time>2026-04-25T12:14:44.743Z</time></trkpt><trkpt lat="42.4069178" lon="11.1563445"><ele>488.0</ele><time>2026-04-25T12:14:45.733Z</time></trkpt><trkpt lat="42.4068447" lon="11.156496"><ele>488.5</ele><time>2026-04-25T12:14:46.735Z</time></trkpt><trkpt lat="42.4067738" lon="11.1566342"><ele>489.0</ele><time>2026-04-25T12:14:47.74Z</time></trkpt><trkpt lat="42.4066918" lon="11.1567581"><ele>489.5</ele><time>2026-04-25T12:14:48.75Z</time></trkpt><trkpt lat="42.4065929" lon="11.156858"><ele>490.0</ele><time>2026-04-25T12:14:49.736Z</time></trkpt><trkpt lat="42.4064727" lon="11.1569323"><ele>490.0</ele><time>2026-04-25T12:14:50.741Z</time></trkpt><trkpt lat="42.4063384" lon="11.1570004"><ele>490.0</ele><time>2026-04-25T12:14:51.758Z</time></trkpt><trkpt lat="42.4061983" lon="11.1570679"><ele>490.0</ele><time>2026-04-25T12:14:52.732Z</time></trkpt><trkpt lat="42.4060609" lon="11.1571436"><ele>490.0</ele><time>2026-04-25T12:14:53.734Z</time></trkpt><trkpt lat="42.4059303" lon="11.1572297"><ele>490.5</ele><time>2026-04-25T12:14:54.74Z</time></trkpt><trkpt lat="42.4058091" lon="11.1573334"><ele>491.0</ele><time>2026-04-25T12:14:55.743Z</time></trkpt><trkpt lat="42.4056958" lon="11.1574545"><ele>491.5</ele><time>2026-04-25T12:14:56.743Z</time></trkpt><trkpt lat="42.4055838" lon="11.1575924"><ele>492.0</ele><time>2026-04-25T12:14:57.741Z</time></trkpt><trkpt lat="42.4054697" lon="11.1577307"><ele>494.5</ele><time>2026-04-25T12:14:58.747Z</time></trkpt><trkpt lat="42.4053574" lon="11.1578622"><ele>497.0</ele><time>2026-04-25T12:14:59.736Z</time></trkpt><trkpt lat="42.4052531" lon="11.1579839"><ele>499.5</ele><time>2026-04-25T12:15:00.744Z</time></trkpt><trkpt lat="42.405157" lon="11.1580998"><ele>502.0</ele><time>2026-04-25T12:15:01.748Z</time></trkpt><trkpt lat="42.4050687" lon="11.1582194"><ele>502.0</ele><time>2026-04-25T12:15:02.736Z</time></trkpt><trkpt lat="42.4049826" lon="11.158344"><ele>502.0</ele><time>2026-04-25T12:15:03.751Z</time></trkpt><trkpt lat="42.4049036" lon="11.1584766"><ele>502.0</ele><time>2026-04-25T12:15:04.745Z</time></trkpt><trkpt lat="42.4048259" lon="11.158612"><ele>502.0</ele><time>2026-04-25T12:15:05.736Z</time></trkpt><trkpt lat="42.4047516" lon="11.158751"><ele>502.0</ele><time>2026-04-25T12:15:06.732Z</time></trkpt><trkpt lat="42.4046674" lon="11.1588874"><ele>502.0</ele><time>2026-04-25T12:15:07.742Z</time></trkpt><trkpt lat="42.4045806" lon="11.1590125"><ele>502.0</ele><time>2026-04-25T12:15:08.732Z</time></trkpt><trkpt lat="42.4045009" lon="11.1591301"><ele>502.0</ele><time>2026-04-25T12:15:09.754Z</time></trkpt><trkpt lat="42.4044448" lon="11.1592532"><ele>504.0</ele><time>2026-04-25T12:15:10.746Z</time></trkpt><trkpt lat="42.4044239" lon="11.1593912"><ele>506.00000000000006</ele><time>2026-04-25T12:15:11.738Z</time></trkpt><trkpt lat="42.4044437" lon="11.1595419"><ele>508.00000000000006</ele><time>2026-04-25T12:15:12.745Z</time></trkpt><trkpt lat="42.404493" lon="11.1596913"><ele>510.0</ele><time>2026-04-25T12:15:13.746Z</time></trkpt><trkpt lat="42.4045468" lon="11.1598201"><ele>512.0</ele><time>2026-04-25T12:15:14.73Z</time></trkpt><trkpt lat="42.4045857" lon="11.159926"><ele>512.0</ele><time>2026-04-25T12:15:15.752Z</time></trkpt><trkpt lat="42.4046003" lon="11.1600213"><ele>512.0</ele><time>2026-04-25T12:15:16.756Z</time></trkpt><trkpt lat="42.4045915" lon="11.1601364"><ele>512.0</ele><time>2026-04-25T12:15:17.75Z</time></trkpt><trkpt lat="42.4045528" lon="11.160255"><ele>512.0</ele><time>2026-04-25T12:15:18.766Z</time></trkpt><trkpt lat="42.4044852" lon="11.16035"><ele>512.0</ele><time>2026-04-25T12:15:19.743Z</time></trkpt><trkpt lat="42.4043941" lon="11.1604122"><ele>512.0</ele><time>2026-04-25T12:15:20.748Z</time></trkpt><trkpt lat="42.4042905" lon="11.1604397"><ele>512.0</ele><time>2026-04-25T12:15:21.757Z</time></trkpt><trkpt lat="42.4041807" lon="11.1604425"><ele>512.0</ele><time>2026-04-25T12:15:22.752Z</time></trkpt><trkpt lat="42.4040635" lon="11.1604289"><ele>512.0</ele><time>2026-04-25T12:15:23.731Z</time></trkpt><trkpt lat="42.4039326" lon="11.1604171"><ele>512.75</ele><time>2026-04-25T12:15:24.738Z</time></trkpt><trkpt lat="42.4038005" lon="11.1604222"><ele>513.5</ele><time>2026-04-25T12:15:25.766Z</time></trkpt><trkpt lat="42.4036811" lon="11.1604502"><ele>514.25</ele><time>2026-04-25T12:15:26.743Z</time></trkpt><trkpt lat="42.4035644" lon="11.1604914"><ele>515.0</ele><time>2026-04-25T12:15:27.727Z</time></trkpt><trkpt lat="42.4034426" lon="11.160517"><ele>515.0</ele><time>2026-04-25T12:15:28.734Z</time></trkpt><trkpt lat="42.4033121" lon="11.1605142"><ele>515.0</ele><time>2026-04-25T12:15:29.737Z</time></trkpt><trkpt lat="42.4031825" lon="11.1604883"><ele>515.0</ele><time>2026-04-25T12:15:30.74Z</time></trkpt><trkpt lat="42.4030537" lon="11.1604478"><ele>515.0</ele><time>2026-04-25T12:15:31.754Z</time></trkpt><trkpt lat="42.4029243" lon="11.1604042"><ele>512.25</ele><time>2026-04-25T12:15:32.743Z</time></trkpt><trkpt lat="42.402798" lon="11.1603813"><ele>509.5</ele><time>2026-04-25T12:15:33.75Z</time></trkpt><trkpt lat="42.4026777" lon="11.1603796"><ele>506.75</ele><time>2026-04-25T12:15:34.757Z</time></trkpt><trkpt lat="42.4025722" lon="11.1604118"><ele>504.0</ele><time>2026-04-25T12:15:35.737Z</time></trkpt><trkpt lat="42.4024771" lon="11.1604831"><ele>504.0</ele><time>2026-04-25T12:15:36.741Z</time></trkpt><trkpt lat="42.4023892" lon="11.1605948"><ele>504.0</ele><time>2026-04-25T12:15:37.751Z</time></trkpt><trkpt lat="42.4023158" lon="11.1607397"><ele>504.0</ele><time>2026-04-25T12:15:38.727Z</time></trkpt><trkpt lat="42.4022287" lon="11.1609091"><ele>504.0</ele><time>2026-04-25T12:15:39.739Z</time></trkpt><trkpt lat="42.4021345" lon="11.1610734"><ele>502.75</ele><time>2026-04-25T12:15:40.75Z</time></trkpt><trkpt lat="42.4020352" lon="11.1611908"><ele>501.5</ele><time>2026-04-25T12:15:41.755Z</time></trkpt><trkpt lat="42.4019233" lon="11.161251"><ele>500.25</ele><time>2026-04-25T12:15:42.742Z</time></trkpt><trkpt lat="42.4017976" lon="11.1612666"><ele>499.0</ele><time>2026-04-25T12:15:43.77Z</time></trkpt><trkpt lat="42.4016966" lon="11.1612325"><ele>499.0</ele><time>2026-04-25T12:15:44.737Z</time></trkpt><trkpt lat="42.4016257" lon="11.1612266"><ele>499.0</ele><time>2026-04-25T12:15:45.767Z</time></trkpt><trkpt lat="42.4015899" lon="11.1613449"><ele>499.0</ele><time>2026-04-25T12:15:47.744Z</time></trkpt><trkpt lat="42.4017146" lon="11.1614764"><ele>499.0</ele><time>2026-04-25T12:15:49.746Z</time></trkpt><trkpt lat="42.4018159" lon="11.1615609"><ele>499.0</ele><time>2026-04-25T12:15:50.745Z</time></trkpt><trkpt lat="42.4019238" lon="11.1616792"><ele>504.6666666666667</ele><time>2026-04-25T12:15:51.737Z</time></trkpt><trkpt lat="42.4020214" lon="11.1618396"><ele>510.33333333333337</ele><time>2026-04-25T12:15:52.74Z</time></trkpt><trkpt lat="42.4020895" lon="11.1620251"><ele>516.0</ele><time>2026-04-25T12:15:53.74Z</time></trkpt><trkpt lat="42.4021516" lon="11.1622406"><ele>515.3333333333334</ele><time>2026-04-25T12:15:54.739Z</time></trkpt><trkpt lat="42.4022151" lon="11.1624657"><ele>514.6666666666667</ele><time>2026-04-25T12:15:55.731Z</time></trkpt><trkpt lat="42.4023003" lon="11.1626522"><ele>514.0</ele><time>2026-04-25T12:15:56.724Z</time></trkpt><trkpt lat="42.4023789" lon="11.1627785"><ele>514.0</ele><time>2026-04-25T12:15:57.758Z</time></trkpt><trkpt lat="42.4024288" lon="11.1628801"><ele>514.0</ele><time>2026-04-25T12:15:58.738Z</time></trkpt><trkpt lat="42.4024227" lon="11.1630041"><ele>514.0</ele><time>2026-04-25T12:16:00.73Z</time></trkpt><trkpt lat="42.4023576" lon="11.1630189"><ele>514.0</ele><time>2026-04-25T12:16:01.75Z</time></trkpt><trkpt lat="42.402271" lon="11.1629638"><ele>514.0</ele><time>2026-04-25T12:16:02.759Z</time></trkpt><trkpt lat="42.4021863" lon="11.1628632"><ele>517.5</ele><time>2026-04-25T12:16:03.731Z</time></trkpt><trkpt lat="42.4021038" lon="11.1627477"><ele>521.0</ele><time>2026-04-25T12:16:04.722Z</time></trkpt><trkpt lat="42.4020025" lon="11.1626175"><ele>524.5</ele><time>2026-04-25T12:16:05.733Z</time></trkpt><trkpt lat="42.4018915" lon="11.1625236"><ele>528.0</ele><time>2026-04-25T12:16:06.721Z</time></trkpt><trkpt lat="42.401789" lon="11.1624706"><ele>528.0</ele><time>2026-04-25T12:16:07.728Z</time></trkpt><trkpt lat="42.4016668" lon="11.1624508"><ele>528.0</ele><time>2026-04-25T12:16:08.729Z</time></trkpt><trkpt lat="42.4015295" lon="11.1624831"><ele>528.0</ele><time>2026-04-25T12:16:09.735Z</time></trkpt><trkpt lat="42.4014022" lon="11.1625524"><ele>528.0</ele><time>2026-04-25T12:16:10.742Z</time></trkpt><trkpt lat="42.4012654" lon="11.1626291"><ele>528.25</ele><time>2026-04-25T12:16:11.756Z</time></trkpt><trkpt lat="42.4011293" lon="11.1626834"><ele>528.5</ele><time>2026-04-25T12:16:12.734Z</time></trkpt><trkpt lat="42.4010019" lon="11.1627346"><ele>528.75</ele><time>2026-04-25T12:16:13.788Z</time></trkpt><trkpt lat="42.400883" lon="11.1628383"><ele>529.0</ele><time>2026-04-25T12:16:14.728Z</time></trkpt><trkpt lat="42.40075" lon="11.1629714"><ele>529.0</ele><time>2026-04-25T12:16:15.738Z</time></trkpt><trkpt lat="42.4006078" lon="11.1630907"><ele>529.0</ele><time>2026-04-25T12:16:16.725Z</time></trkpt><trkpt lat="42.4004766" lon="11.1631954"><ele>529.0</ele><time>2026-04-25T12:16:17.725Z</time></trkpt><trkpt lat="42.4003781" lon="11.1632833"><ele>529.0</ele><time>2026-04-25T12:16:18.736Z</time></trkpt><trkpt lat="42.4002382" lon="11.1633169"><ele>531.6666666666667</ele><time>2026-04-25T12:16:19.741Z</time></trkpt><trkpt lat="42.400074" lon="11.1633375"><ele>534.3333333333334</ele><time>2026-04-25T12:16:20.727Z</time></trkpt><trkpt lat="42.3999021" lon="11.1633801"><ele>537.0</ele><time>2026-04-25T12:16:21.75Z</time></trkpt><trkpt lat="42.3997388" lon="11.1634076"><ele>537.5</ele><time>2026-04-25T12:16:22.752Z</time></trkpt><trkpt lat="42.3995973" lon="11.1634144"><ele>538.0</ele><time>2026-04-25T12:16:23.739Z</time></trkpt><trkpt lat="42.399479" lon="11.1634343"><ele>538.5</ele><time>2026-04-25T12:16:24.744Z</time></trkpt><trkpt lat="42.3993567" lon="11.16353"><ele>539.0</ele><time>2026-04-25T12:16:25.738Z</time></trkpt><trkpt lat="42.399212" lon="11.1636322"><ele>539.0</ele><time>2026-04-25T12:16:26.734Z</time></trkpt><trkpt lat="42.3990268" lon="11.1636695"><ele>539.0</ele><time>2026-04-25T12:16:27.738Z</time></trkpt><trkpt lat="42.3988517" lon="11.1636482"><ele>539.0</ele><time>2026-04-25T12:16:28.734Z</time></trkpt><trkpt lat="42.3986828" lon="11.1636001"><ele>540.0</ele><time>2026-04-25T12:16:29.733Z</time></trkpt><trkpt lat="42.3985608" lon="11.1635787"><ele>541.0</ele><time>2026-04-25T12:16:30.741Z</time></trkpt><trkpt lat="42.3984502" lon="11.1635912"><ele>542.0</ele><time>2026-04-25T12:16:31.743Z</time></trkpt><trkpt lat="42.3983211" lon="11.1636399"><ele>543.0</ele><time>2026-04-25T12:16:32.743Z</time></trkpt><trkpt lat="42.3981689" lon="11.1637239"><ele>543.0</ele><time>2026-04-25T12:16:33.742Z</time></trkpt><trkpt lat="42.3980167" lon="11.1637833"><ele>543.0</ele><time>2026-04-25T12:16:34.748Z</time></trkpt><trkpt lat="42.397903" lon="11.163836"><ele>543.0</ele><time>2026-04-25T12:16:35.744Z</time></trkpt><trkpt lat="42.3978308" lon="11.1638725"><ele>543.0</ele><time>2026-04-25T12:16:36.744Z</time></trkpt><trkpt lat="42.397762" lon="11.1638607"><ele>543.0</ele><time>2026-04-25T12:16:37.748Z</time></trkpt><trkpt lat="42.3976754" lon="11.1637748"><ele>544.6666666666666</ele><time>2026-04-25T12:16:38.739Z</time></trkpt><trkpt lat="42.3975714" lon="11.16367"><ele>546.3333333333333</ele><time>2026-04-25T12:16:39.737Z</time></trkpt><trkpt lat="42.3974445" lon="11.1635252"><ele>548.0</ele><time>2026-04-25T12:16:40.737Z</time></trkpt><trkpt lat="42.3972838" lon="11.1633605"><ele>545.0</ele><time>2026-04-25T12:16:41.733Z</time></trkpt><trkpt lat="42.3971348" lon="11.163203"><ele>542.0</ele><time>2026-04-25T12:16:42.737Z</time></trkpt><trkpt lat="42.3969981" lon="11.1630742"><ele>539.0</ele><time>2026-04-25T12:16:43.76Z</time></trkpt><trkpt lat="42.3968772" lon="11.1629883"><ele>539.0</ele><time>2026-04-25T12:16:44.75Z</time></trkpt><trkpt lat="42.3967662" lon="11.1629316"><ele>539.0</ele><time>2026-04-25T12:16:45.741Z</time></trkpt><trkpt lat="42.3966668" lon="11.1629115"><ele>539.0</ele><time>2026-04-25T12:16:46.738Z</time></trkpt><trkpt lat="42.3965586" lon="11.1629554"><ele>539.0</ele><time>2026-04-25T12:16:47.741Z</time></trkpt><trkpt lat="42.3964209" lon="11.1630465"><ele>535.6666666666666</ele><time>2026-04-25T12:16:48.757Z</time></trkpt><trkpt lat="42.3962496" lon="11.1631725"><ele>532.3333333333334</ele><time>2026-04-25T12:16:49.757Z</time></trkpt><trkpt lat="42.3960562" lon="11.1633083"><ele>529.0</ele><time>2026-04-25T12:16:50.751Z</time></trkpt><trkpt lat="42.3958678" lon="11.1634182"><ele>534.25</ele><time>2026-04-25T12:16:51.739Z</time></trkpt><trkpt lat="42.3957322" lon="11.1635008"><ele>539.5</ele><time>2026-04-25T12:16:52.744Z</time></trkpt><trkpt lat="42.3956224" lon="11.1635868"><ele>544.75</ele><time>2026-04-25T12:16:53.737Z</time></trkpt><trkpt lat="42.3955054" lon="11.1636523"><ele>550.0</ele><time>2026-04-25T12:16:54.765Z</time></trkpt><trkpt lat="42.3953682" lon="11.1636543"><ele>550.0</ele><time>2026-04-25T12:16:55.736Z</time></trkpt><trkpt lat="42.3951986" lon="11.163588"><ele>550.0</ele><time>2026-04-25T12:16:56.754Z</time></trkpt><trkpt lat="42.3950358" lon="11.1635109"><ele>550.0</ele><time>2026-04-25T12:16:57.741Z</time></trkpt><trkpt lat="42.3948879" lon="11.1634597"><ele>550.0</ele><time>2026-04-25T12:16:58.743Z</time></trkpt><trkpt lat="42.3947517" lon="11.1634266"><ele>550.0</ele><time>2026-04-25T12:16:59.741Z</time></trkpt><trkpt lat="42.3946131" lon="11.163401"><ele>550.0</ele><time>2026-04-25T12:17:00.735Z</time></trkpt><trkpt lat="42.3944703" lon="11.1633854"><ele>550.0</ele><time>2026-04-25T12:17:01.741Z</time></trkpt><trkpt lat="42.3943205" lon="11.1633781"><ele>550.75</ele><time>2026-04-25T12:17:02.737Z</time></trkpt><trkpt lat="42.3941805" lon="11.163377"><ele>551.5</ele><time>2026-04-25T12:17:03.732Z</time></trkpt><trkpt lat="42.3940519" lon="11.1633716"><ele>552.25</ele><time>2026-04-25T12:17:04.742Z</time></trkpt><trkpt lat="42.3939285" lon="11.1633652"><ele>553.0</ele><time>2026-04-25T12:17:05.74Z</time></trkpt><trkpt lat="42.3938111" lon="11.1633703"><ele>553.0</ele><time>2026-04-25T12:17:06.74Z</time></trkpt><trkpt lat="42.3937064" lon="11.1633957"><ele>553.0</ele><time>2026-04-25T12:17:07.751Z</time></trkpt><trkpt lat="42.3936205" lon="11.1634399"><ele>553.0</ele><time>2026-04-25T12:17:08.737Z</time></trkpt><trkpt lat="42.3935679" lon="11.1634909"><ele>553.0</ele><time>2026-04-25T12:17:09.752Z</time></trkpt><trkpt lat="42.393518" lon="11.1635558"><ele>553.0</ele><time>2026-04-25T12:17:10.732Z</time></trkpt><trkpt lat="42.3934641" lon="11.1636521"><ele>553.0</ele><time>2026-04-25T12:17:12.743Z</time></trkpt></trkseg><trkseg><trkpt lat="42.3965561" lon="11.17015"><ele>426.0</ele><time>2026-04-25T12:48:55.474Z</time></trkpt><trkpt lat="42.3965797" lon="11.1700706"><ele>426.0</ele><time>2026-04-25T12:49:01.477Z</time></trkpt><trkpt lat="42.396566" lon="11.1699666"><ele>426.0</ele><time>2026-04-25T12:49:05.467Z</time></trkpt><trkpt lat="42.3965286" lon="11.1698679"><ele>426.0</ele><time>2026-04-25T12:49:08.476Z</time></trkpt><trkpt lat="42.3964449" lon="11.1699049"><ele>426.0</ele><time>2026-04-25T12:49:12.481Z</time></trkpt><trkpt lat="42.3963691" lon="11.1699685"><ele>426.0</ele><time>2026-04-25T12:49:15.478Z</time></trkpt><trkpt lat="42.3962787" lon="11.1700111"><ele>429.3333333333333</ele><time>2026-04-25T12:49:17.481Z</time></trkpt><trkpt lat="42.3962325" lon="11.17009"><ele>432.66666666666663</ele><time>2026-04-25T12:49:19.478Z</time></trkpt><trkpt lat="42.3961868" lon="11.1701546"><ele>436.0</ele><time>2026-04-25T12:49:21.478Z</time></trkpt><trkpt lat="42.3961208" lon="11.1702144"><ele>439.3333333333333</ele><time>2026-04-25T12:49:23.474Z</time></trkpt><trkpt lat="42.3959914" lon="11.1702402"><ele>442.66666666666663</ele><time>2026-04-25T12:49:25.473Z</time></trkpt><trkpt lat="42.3959143" lon="11.1702484"><ele>446.0</ele><time>2026-04-25T12:49:26.474Z</time></trkpt><trkpt lat="42.3958332" lon="11.1702437"><ele>446.0</ele><time>2026-04-25T12:49:27.477Z</time></trkpt><trkpt lat="42.3957533" lon="11.1702308"><ele>446.0</ele><time>2026-04-25T12:49:28.478Z</time></trkpt><trkpt lat="42.3956773" lon="11.1701909"><ele>446.0</ele><time>2026-04-25T12:49:29.478Z</time></trkpt><trkpt lat="42.3956063" lon="11.1701568"><ele>446.0</ele><time>2026-04-25T12:49:30.483Z</time></trkpt><trkpt lat="42.395482" lon="11.170128"><ele>446.0</ele><time>2026-04-25T12:49:32.481Z</time></trkpt><trkpt lat="42.3953412" lon="11.1701056"><ele>446.99999999999994</ele><time>2026-04-25T12:49:34.481Z</time></trkpt><trkpt lat="42.3952679" lon="11.1700932"><ele>448.0</ele><time>2026-04-25T12:49:35.48Z</time></trkpt><trkpt lat="42.3951895" lon="11.1700743"><ele>449.0</ele><time>2026-04-25T12:49:36.468Z</time></trkpt><trkpt lat="42.3951002" lon="11.1700383"><ele>450.0</ele><time>2026-04-25T12:49:37.474Z</time></trkpt><trkpt lat="42.3950077" lon="11.1700014"><ele>450.99999999999994</ele><time>2026-04-25T12:49:38.472Z</time></trkpt><trkpt lat="42.3949213" lon="11.1699626"><ele>452.0</ele><time>2026-04-25T12:49:39.483Z</time></trkpt><trkpt lat="42.3948374" lon="11.1699248"><ele>451.99999999999994</ele><time>2026-04-25T12:49:40.484Z</time></trkpt><trkpt lat="42.3947596" lon="11.1698989"><ele>452.0</ele><time>2026-04-25T12:49:41.478Z</time></trkpt><trkpt lat="42.394679" lon="11.1698893"><ele>452.0</ele><time>2026-04-25T12:49:42.476Z</time></trkpt><trkpt lat="42.3946062" lon="11.1698846"><ele>452.0</ele><time>2026-04-25T12:49:43.49Z</time></trkpt><trkpt lat="42.3945411" lon="11.1698886"><ele>451.99999999999994</ele><time>2026-04-25T12:49:44.48Z</time></trkpt><trkpt lat="42.3944572" lon="11.1699598"><ele>452.0</ele><time>2026-04-25T12:49:46.475Z</time></trkpt><trkpt lat="42.3943726" lon="11.1700165"><ele>453.16666666666663</ele><time>2026-04-25T12:50:19.47Z</time></trkpt><trkpt lat="42.3942588" lon="11.1700402"><ele>454.3333333333333</ele><time>2026-04-25T12:50:21.467Z</time></trkpt><trkpt lat="42.3941846" lon="11.1700436"><ele>455.5</ele><time>2026-04-25T12:50:22.473Z</time></trkpt><trkpt lat="42.3940967" lon="11.17005"><ele>456.66666666666663</ele><time>2026-04-25T12:50:23.468Z</time></trkpt><trkpt lat="42.3940143" lon="11.1700504"><ele>457.8333333333333</ele><time>2026-04-25T12:50:24.471Z</time></trkpt><trkpt lat="42.3939309" lon="11.1700652"><ele>459.0</ele><time>2026-04-25T12:50:25.485Z</time></trkpt><trkpt lat="42.3938423" lon="11.1700938"><ele>461.2</ele><time>2026-04-25T12:50:26.473Z</time></trkpt><trkpt lat="42.3937418" lon="11.1701321"><ele>463.4</ele><time>2026-04-25T12:50:27.475Z</time></trkpt><trkpt lat="42.3936425" lon="11.1701972"><ele>465.6</ele><time>2026-04-25T12:50:28.479Z</time></trkpt><trkpt lat="42.3935454" lon="11.1702531"><ele>467.8</ele><time>2026-04-25T12:50:29.476Z</time></trkpt><trkpt lat="42.3934486" lon="11.1703028"><ele>470.0</ele><time>2026-04-25T12:50:30.47Z</time></trkpt><trkpt lat="42.3933659" lon="11.1703462"><ele>469.99999999999994</ele><time>2026-04-25T12:50:31.485Z</time></trkpt><trkpt lat="42.3932872" lon="11.1703921"><ele>470.0</ele><time>2026-04-25T12:50:32.472Z</time></trkpt><trkpt lat="42.3932095" lon="11.1704339"><ele>470.0</ele><time>2026-04-25T12:50:33.475Z</time></trkpt><trkpt lat="42.3931217" lon="11.1704771"><ele>470.0</ele><time>2026-04-25T12:50:34.479Z</time></trkpt><trkpt lat="42.3930433" lon="11.1705197"><ele>469.99999999999994</ele><time>2026-04-25T12:50:35.469Z</time></trkpt><trkpt lat="42.3929644" lon="11.1705465"><ele>470.0</ele><time>2026-04-25T12:50:36.473Z</time></trkpt><trkpt lat="42.3928631" lon="11.1705824"><ele>470.4</ele><time>2026-04-25T12:50:37.477Z</time></trkpt><trkpt lat="42.392748" lon="11.1706247"><ele>470.8</ele><time>2026-04-25T12:50:38.47Z</time></trkpt><trkpt lat="42.3926489" lon="11.1706387"><ele>471.20000000000005</ele><time>2026-04-25T12:50:39.47Z</time></trkpt><trkpt lat="42.3925534" lon="11.1706296"><ele>471.6</ele><time>2026-04-25T12:50:40.475Z</time></trkpt><trkpt lat="42.3924743" lon="11.1706143"><ele>472.0</ele><time>2026-04-25T12:50:41.479Z</time></trkpt><trkpt lat="42.3923945" lon="11.1706204"><ele>472.00000000000006</ele><time>2026-04-25T12:50:42.483Z</time></trkpt><trkpt lat="42.3923007" lon="11.1706219"><ele>472.0</ele><time>2026-04-25T12:50:43.481Z</time></trkpt><trkpt lat="42.3922124" lon="11.1706245"><ele>472.0</ele><time>2026-04-25T12:50:44.473Z</time></trkpt><trkpt lat="42.3921247" lon="11.170623"><ele>472.0</ele><time>2026-04-25T12:50:45.481Z</time></trkpt><trkpt lat="42.3920417" lon="11.1706084"><ele>472.00000000000006</ele><time>2026-04-25T12:50:46.483Z</time></trkpt><trkpt lat="42.391956" lon="11.1705756"><ele>472.0</ele><time>2026-04-25T12:50:47.472Z</time></trkpt><trkpt lat="42.3918685" lon="11.1705427"><ele>473.50000000000006</ele><time>2026-04-25T12:50:48.48Z</time></trkpt><trkpt lat="42.3917936" lon="11.1705185"><ele>475.0</ele><time>2026-04-25T12:50:49.482Z</time></trkpt><trkpt lat="42.391723" lon="11.1705082"><ele>476.5</ele><time>2026-04-25T12:50:50.482Z</time></trkpt><trkpt lat="42.3916496" lon="11.1705139"><ele>478.0</ele><time>2026-04-25T12:50:51.473Z</time></trkpt><trkpt lat="42.3915735" lon="11.1705266"><ele>479.50000000000006</ele><time>2026-04-25T12:50:52.477Z</time></trkpt><trkpt lat="42.3914767" lon="11.1705674"><ele>481.0</ele><time>2026-04-25T12:50:53.496Z</time></trkpt><trkpt lat="42.3913767" lon="11.1706251"><ele>480.0</ele><time>2026-04-25T12:50:54.476Z</time></trkpt><trkpt lat="42.3912703" lon="11.1706921"><ele>479.0</ele><time>2026-04-25T12:50:55.486Z</time></trkpt><trkpt lat="42.3911601" lon="11.170757"><ele>478.0</ele><time>2026-04-25T12:50:56.476Z</time></trkpt><trkpt lat="42.3910644" lon="11.1708229"><ele>477.0</ele><time>2026-04-25T12:50:57.477Z</time></trkpt><trkpt lat="42.3909785" lon="11.1708814"><ele>476.0</ele><time>2026-04-25T12:50:58.478Z</time></trkpt><trkpt lat="42.3908987" lon="11.1709212"><ele>476.0</ele><time>2026-04-25T12:50:59.473Z</time></trkpt><trkpt lat="42.3908207" lon="11.1709427"><ele>476.0</ele><time>2026-04-25T12:51:00.473Z</time></trkpt><trkpt lat="42.3907257" lon="11.1709654"><ele>476.0</ele><time>2026-04-25T12:51:01.484Z</time></trkpt><trkpt lat="42.390612" lon="11.1709804"><ele>476.0</ele><time>2026-04-25T12:51:02.481Z</time></trkpt><trkpt lat="42.3904854" lon="11.171007"><ele>476.0</ele><time>2026-04-25T12:51:03.474Z</time></trkpt><trkpt lat="42.3903628" lon="11.1710546"><ele>478.4</ele><time>2026-04-25T12:51:04.481Z</time></trkpt><trkpt lat="42.3902564" lon="11.1711113"><ele>480.8</ele><time>2026-04-25T12:51:05.479Z</time></trkpt><trkpt lat="42.390155" lon="11.1711795"><ele>483.19999999999993</ele><time>2026-04-25T12:51:06.478Z</time></trkpt><trkpt lat="42.3900553" lon="11.1712424"><ele>485.59999999999997</ele><time>2026-04-25T12:51:07.469Z</time></trkpt><trkpt lat="42.3899604" lon="11.1713011"><ele>488.0</ele><time>2026-04-25T12:51:08.472Z</time></trkpt><trkpt lat="42.3898698" lon="11.1713563"><ele>488.0</ele><time>2026-04-25T12:51:09.475Z</time></trkpt><trkpt lat="42.3897731" lon="11.1713898"><ele>487.99999999999994</ele><time>2026-04-25T12:51:10.493Z</time></trkpt><trkpt lat="42.3896864" lon="11.1714232"><ele>487.99999999999994</ele><time>2026-04-25T12:51:11.48Z</time></trkpt><trkpt lat="42.3896078" lon="11.1714642"><ele>488.0</ele><time>2026-04-25T12:51:12.478Z</time></trkpt><trkpt lat="42.3895158" lon="11.1715093"><ele>488.0</ele><time>2026-04-25T12:51:13.475Z</time></trkpt><trkpt lat="42.3894246" lon="11.1715376"><ele>486.8333333333333</ele><time>2026-04-25T12:51:14.475Z</time></trkpt><trkpt lat="42.3893521" lon="11.1715627"><ele>485.66666666666663</ele><time>2026-04-25T12:51:15.476Z</time></trkpt><trkpt lat="42.3892847" lon="11.171578"><ele>484.5</ele><time>2026-04-25T12:51:17.473Z</time></trkpt><trkpt lat="42.3893543" lon="11.1715945"><ele>483.33333333333337</ele><time>2026-04-25T12:51:54.485Z</time></trkpt><trkpt lat="42.389455" lon="11.1715536"><ele>482.1666666666667</ele><time>2026-04-25T12:51:56.473Z</time></trkpt><trkpt lat="42.3895217" lon="11.1715203"><ele>481.0</ele><time>2026-04-25T12:51:57.476Z</time></trkpt><trkpt lat="42.3895944" lon="11.171481"><ele>482.1666666666667</ele><time>2026-04-25T12:51:58.477Z</time></trkpt><trkpt lat="42.3896733" lon="11.1714426"><ele>483.33333333333337</ele><time>2026-04-25T12:51:59.478Z</time></trkpt><trkpt lat="42.3897503" lon="11.1714031"><ele>484.5</ele><time>2026-04-25T12:52:00.477Z</time></trkpt><trkpt lat="42.3898302" lon="11.1713635"><ele>485.66666666666663</ele><time>2026-04-25T12:52:01.471Z</time></trkpt><trkpt lat="42.3899069" lon="11.1713196"><ele>486.8333333333333</ele><time>2026-04-25T12:52:02.482Z</time></trkpt><trkpt lat="42.3899818" lon="11.1712726"><ele>488.0</ele><time>2026-04-25T12:52:03.472Z</time></trkpt><trkpt lat="42.3900471" lon="11.1712328"><ele>488.0</ele><time>2026-04-25T12:52:04.479Z</time></trkpt><trkpt lat="42.3901534" lon="11.1711536"><ele>487.99999999999994</ele><time>2026-04-25T12:52:06.477Z</time></trkpt><trkpt lat="42.3902468" lon="11.1710872"><ele>487.99999999999994</ele><time>2026-04-25T12:52:08.468Z</time></trkpt><trkpt lat="42.3903283" lon="11.1710521"><ele>488.0</ele><time>2026-04-25T12:52:11.473Z</time></trkpt><trkpt lat="42.3904504" lon="11.1710104"><ele>488.0</ele><time>2026-04-25T12:52:13.474Z</time></trkpt><trkpt lat="42.3905228" lon="11.1709892"><ele>485.99999999999994</ele><time>2026-04-25T12:52:14.479Z</time></trkpt><trkpt lat="42.3906006" lon="11.1709646"><ele>484.0</ele><time>2026-04-25T12:52:15.473Z</time></trkpt><trkpt lat="42.3906673" lon="11.17095"><ele>482.0</ele><time>2026-04-25T12:52:16.479Z</time></trkpt><trkpt lat="42.390782" lon="11.170955"><ele>480.0</ele><time>2026-04-25T12:52:18.479Z</time></trkpt><trkpt lat="42.3908947" lon="11.1709168"><ele>477.99999999999994</ele><time>2026-04-25T12:52:20.485Z</time></trkpt><trkpt lat="42.3909555" lon="11.170892"><ele>476.0</ele><time>2026-04-25T12:52:21.473Z</time></trkpt><trkpt lat="42.3910747" lon="11.1708043"><ele>475.99999999999994</ele><time>2026-04-25T12:52:23.474Z</time></trkpt><trkpt lat="42.3911532" lon="11.1707448"><ele>476.0</ele><time>2026-04-25T12:52:24.475Z</time></trkpt><trkpt lat="42.3912383" lon="11.1706807"><ele>476.0</ele><time>2026-04-25T12:52:25.477Z</time></trkpt><trkpt lat="42.3913246" lon="11.1706162"><ele>476.0</ele><time>2026-04-25T12:52:26.477Z</time></trkpt><trkpt lat="42.3913924" lon="11.1705723"><ele>475.99999999999994</ele><time>2026-04-25T12:52:27.478Z</time></trkpt><trkpt lat="42.3914687" lon="11.1705339"><ele>476.0</ele><time>2026-04-25T12:52:28.48Z</time></trkpt><trkpt lat="42.3915394" lon="11.1705016"><ele>476.8333333333333</ele><time>2026-04-25T12:52:29.477Z</time></trkpt><trkpt lat="42.3916327" lon="11.1704914"><ele>477.66666666666663</ele><time>2026-04-25T12:52:30.472Z</time></trkpt><trkpt lat="42.3917228" lon="11.1705058"><ele>478.5</ele><time>2026-04-25T12:52:31.482Z</time></trkpt><trkpt lat="42.3918008" lon="11.1705361"><ele>479.33333333333337</ele><time>2026-04-25T12:52:32.484Z</time></trkpt><trkpt lat="42.3918847" lon="11.1705546"><ele>480.1666666666667</ele><time>2026-04-25T12:52:33.479Z</time></trkpt><trkpt lat="42.3919779" lon="11.1705795"><ele>481.0</ele><time>2026-04-25T12:52:34.475Z</time></trkpt><trkpt lat="42.3920733" lon="11.1706001"><ele>481.00000000000006</ele><time>2026-04-25T12:52:35.47Z</time></trkpt><trkpt lat="42.392154" lon="11.1706165"><ele>481.0</ele><time>2026-04-25T12:52:36.477Z</time></trkpt><trkpt lat="42.3922323" lon="11.1706201"><ele>481.0</ele><time>2026-04-25T12:52:37.471Z</time></trkpt><trkpt lat="42.392314" lon="11.1706194"><ele>481.0</ele><time>2026-04-25T12:52:38.485Z</time></trkpt><trkpt lat="42.3923952" lon="11.1706225"><ele>481.00000000000006</ele><time>2026-04-25T12:52:39.475Z</time></trkpt><trkpt lat="42.3924772" lon="11.1706221"><ele>481.0</ele><time>2026-04-25T12:52:40.478Z</time></trkpt><trkpt lat="42.392557" lon="11.1706257"><ele>479.50000000000006</ele><time>2026-04-25T12:52:41.478Z</time></trkpt><trkpt lat="42.3926272" lon="11.170638"><ele>478.0</ele><time>2026-04-25T12:52:42.473Z</time></trkpt><trkpt lat="42.3926967" lon="11.1706414"><ele>476.5</ele><time>2026-04-25T12:52:43.479Z</time></trkpt><trkpt lat="42.3927712" lon="11.1706278"><ele>475.0</ele><time>2026-04-25T12:52:44.472Z</time></trkpt><trkpt lat="42.3928427" lon="11.1705981"><ele>473.50000000000006</ele><time>2026-04-25T12:52:45.482Z</time></trkpt><trkpt lat="42.3929106" lon="11.1705706"><ele>472.0</ele><time>2026-04-25T12:52:46.48Z</time></trkpt><trkpt lat="42.3930155" lon="11.1705419"><ele>471.6</ele><time>2026-04-25T12:52:48.473Z</time></trkpt><trkpt lat="42.3931138" lon="11.1705205"><ele>471.20000000000005</ele><time>2026-04-25T12:52:50.48Z</time></trkpt><trkpt lat="42.3932166" lon="11.1704877"><ele>470.8</ele><time>2026-04-25T12:52:52.481Z</time></trkpt><trkpt lat="42.3933194" lon="11.1704355"><ele>470.4</ele><time>2026-04-25T12:52:54.48Z</time></trkpt><trkpt lat="42.3934045" lon="11.170383"><ele>470.0</ele><time>2026-04-25T12:52:56.479Z</time></trkpt><trkpt lat="42.3934829" lon="11.1703336"><ele>469.99999999999994</ele><time>2026-04-25T12:53:29.48Z</time></trkpt><trkpt lat="42.3936016" lon="11.1702596"><ele>470.0</ele><time>2026-04-25T12:53:31.469Z</time></trkpt><trkpt lat="42.3936566" lon="11.1702133"><ele>470.0</ele><time>2026-04-25T12:53:32.484Z</time></trkpt><trkpt lat="42.3937141" lon="11.1701733"><ele>470.0</ele><time>2026-04-25T12:53:33.474Z</time></trkpt><trkpt lat="42.3937787" lon="11.1701383"><ele>469.99999999999994</ele><time>2026-04-25T12:53:34.483Z</time></trkpt><trkpt lat="42.3938456" lon="11.170114"><ele>470.0</ele><time>2026-04-25T12:53:35.474Z</time></trkpt><trkpt lat="42.3939186" lon="11.1700972"><ele>468.16666666666663</ele><time>2026-04-25T12:53:36.481Z</time></trkpt><trkpt lat="42.3939943" lon="11.1700942"><ele>466.3333333333333</ele><time>2026-04-25T12:53:37.477Z</time></trkpt><trkpt lat="42.3940691" lon="11.1700981"><ele>464.5</ele><time>2026-04-25T12:53:38.479Z</time></trkpt><trkpt lat="42.394148" lon="11.1700978"><ele>462.66666666666663</ele><time>2026-04-25T12:53:39.473Z</time></trkpt><trkpt lat="42.394229" lon="11.1700794"><ele>460.8333333333333</ele><time>2026-04-25T12:53:40.481Z</time></trkpt><trkpt lat="42.3943023" lon="11.1700562"><ele>459.0</ele><time>2026-04-25T12:53:41.477Z</time></trkpt><trkpt lat="42.3943763" lon="11.1700302"><ele>459.0</ele><time>2026-04-25T12:53:42.482Z</time></trkpt><trkpt lat="42.3944479" lon="11.1700049"><ele>459.0</ele><time>2026-04-25T12:53:43.466Z</time></trkpt><trkpt lat="42.3945195" lon="11.1699825"><ele>459.0</ele><time>2026-04-25T12:53:44.472Z</time></trkpt><trkpt lat="42.3945833" lon="11.1699757"><ele>459.0</ele><time>2026-04-25T12:53:45.481Z</time></trkpt><trkpt lat="42.3946466" lon="11.1699617"><ele>459.0</ele><time>2026-04-25T12:53:46.484Z</time></trkpt><trkpt lat="42.3947724" lon="11.1699806"><ele>459.0</ele><time>2026-04-25T12:53:48.467Z</time></trkpt><trkpt lat="42.3948502" lon="11.1700081"><ele>457.8333333333333</ele><time>2026-04-25T12:53:49.476Z</time></trkpt><trkpt lat="42.3949318" lon="11.1700485"><ele>456.66666666666663</ele><time>2026-04-25T12:53:50.47Z</time></trkpt><trkpt lat="42.3950159" lon="11.1700962"><ele>455.5</ele><time>2026-04-25T12:53:51.476Z</time></trkpt><trkpt lat="42.3950975" lon="11.1701284"><ele>454.3333333333333</ele><time>2026-04-25T12:53:52.476Z</time></trkpt><trkpt lat="42.3951704" lon="11.1701524"><ele>453.16666666666663</ele><time>2026-04-25T12:53:53.475Z</time></trkpt><trkpt lat="42.3952452" lon="11.1701684"><ele>452.0</ele><time>2026-04-25T12:53:54.481Z</time></trkpt><trkpt lat="42.3953189" lon="11.1701798"><ele>451.99999999999994</ele><time>2026-04-25T12:53:55.478Z</time></trkpt><trkpt lat="42.3953982" lon="11.1701828"><ele>452.0</ele><time>2026-04-25T12:53:56.474Z</time></trkpt><trkpt lat="42.3954698" lon="11.1701827"><ele>452.0</ele><time>2026-04-25T12:53:57.479Z</time></trkpt><trkpt lat="42.3955334" lon="11.1701969"><ele>452.0</ele><time>2026-04-25T12:53:58.48Z</time></trkpt><trkpt lat="42.3956471" lon="11.1702528"><ele>451.99999999999994</ele><time>2026-04-25T12:54:00.483Z</time></trkpt><trkpt lat="42.3957075" lon="11.1702879"><ele>452.0</ele><time>2026-04-25T12:54:01.478Z</time></trkpt><trkpt lat="42.395774" lon="11.1703063"><ele>451.14285714285717</ele><time>2026-04-25T12:54:02.471Z</time></trkpt><trkpt lat="42.3958453" lon="11.1703081"><ele>450.2857142857143</ele><time>2026-04-25T12:54:03.486Z</time></trkpt><trkpt lat="42.3959107" lon="11.1703067"><ele>449.42857142857144</ele><time>2026-04-25T12:54:04.471Z</time></trkpt><trkpt lat="42.3960071" lon="11.1703001"><ele>448.57142857142856</ele><time>2026-04-25T12:54:06.472Z</time></trkpt><trkpt lat="42.3960691" lon="11.1702835"><ele>447.71428571428567</ele><time>2026-04-25T12:54:08.478Z</time></trkpt><trkpt lat="42.3961352" lon="11.170244"><ele>446.85714285714283</ele><time>2026-04-25T12:54:10.478Z</time></trkpt><trkpt lat="42.3961879" lon="11.1701777"><ele>446.0</ele><time>2026-04-25T12:54:12.479Z</time></trkpt><trkpt lat="42.396246" lon="11.1701059"><ele>445.99999999999994</ele><time>2026-04-25T12:54:14.479Z</time></trkpt><trkpt lat="42.3963098" lon="11.1700461"><ele>446.0</ele><time>2026-04-25T12:54:16.481Z</time></trkpt><trkpt lat="42.396384" lon="11.1699995"><ele>446.0</ele><time>2026-04-25T12:54:18.473Z</time></trkpt><trkpt lat="42.3964271" lon="11.1699219"><ele>446.0</ele><time>2026-04-25T12:54:21.477Z</time></trkpt><trkpt lat="42.3964711" lon="11.1698383"><ele>445.99999999999994</ele><time>2026-04-25T12:54:25.473Z</time></trkpt><trkpt lat="42.3965288" lon="11.1699044"><ele>446.0</ele><time>2026-04-25T12:54:28.474Z</time></trkpt><trkpt lat="42.3965285" lon="11.1700411"><ele>442.66666666666663</ele><time>2026-04-25T12:54:30.477Z</time></trkpt><trkpt lat="42.3965254" lon="11.1701506"><ele>439.3333333333333</ele><time>2026-04-25T12:54:31.477Z</time></trkpt><trkpt lat="42.3965212" lon="11.1702692"><ele>436.0</ele><time>2026-04-25T12:54:32.472Z</time></trkpt><trkpt lat="42.3965082" lon="11.1703703"><ele>432.66666666666663</ele><time>2026-04-25T12:54:33.472Z</time></trkpt><trkpt lat="42.3964829" lon="11.1704679"><ele>429.3333333333333</ele><time>2026-04-25T12:54:34.488Z</time></trkpt><trkpt lat="42.3964568" lon="11.1705551"><ele>426.0</ele><time>2026-04-25T12:54:35.478Z</time></trkpt><trkpt lat="42.3964291" lon="11.1706413"><ele>426.1666666666667</ele><time>2026-04-25T12:54:36.48Z</time></trkpt><trkpt lat="42.3964041" lon="11.1707304"><ele>426.33333333333337</ele><time>2026-04-25T12:54:37.478Z</time></trkpt><trkpt lat="42.3963712" lon="11.1708222"><ele>426.5</ele><time>2026-04-25T12:54:38.481Z</time></trkpt><trkpt lat="42.3963298" lon="11.1709025"><ele>426.6666666666667</ele><time>2026-04-25T12:54:39.484Z</time></trkpt><trkpt lat="42.3962865" lon="11.1709763"><ele>426.83333333333337</ele><time>2026-04-25T12:54:40.475Z</time></trkpt><trkpt lat="42.3962395" lon="11.1710396"><ele>427.0</ele><time>2026-04-25T12:54:41.482Z</time></trkpt><trkpt lat="42.3961476" lon="11.1711023"><ele>427.0</ele><time>2026-04-25T12:54:43.478Z</time></trkpt><trkpt lat="42.3960822" lon="11.1711293"><ele>427.00000000000006</ele><time>2026-04-25T12:54:46.485Z</time></trkpt><trkpt lat="42.3959871" lon="11.1711509"><ele>427.00000000000006</ele><time>2026-04-25T12:55:02.479Z</time></trkpt><trkpt lat="42.3958732" lon="11.1711998"><ele>427.0</ele><time>2026-04-25T12:55:04.475Z</time></trkpt><trkpt lat="42.3957903" lon="11.1712574"><ele>427.0</ele><time>2026-04-25T12:55:06.49Z</time></trkpt><trkpt lat="42.3958837" lon="11.1712227"><ele>427.0</ele><time>2026-04-25T12:55:19.479Z</time></trkpt><trkpt lat="42.3959687" lon="11.1712077"><ele>427.00000000000006</ele><time>2026-04-25T12:55:20.476Z</time></trkpt><trkpt lat="42.3960556" lon="11.1711757"><ele>427.00000000000006</ele><time>2026-04-25T12:55:21.482Z</time></trkpt><trkpt lat="42.3961343" lon="11.1711281"><ele>427.0</ele><time>2026-04-25T12:55:22.479Z</time></trkpt><trkpt lat="42.3962077" lon="11.1710505"><ele>427.0</ele><time>2026-04-25T12:55:23.48Z</time></trkpt><trkpt lat="42.3962807" lon="11.1709666"><ele>426.8</ele><time>2026-04-25T12:55:24.48Z</time></trkpt><trkpt lat="42.3963394" lon="11.1708757"><ele>426.6</ele><time>2026-04-25T12:55:25.476Z</time></trkpt><trkpt lat="42.3963955" lon="11.1707846"><ele>426.40000000000003</ele><time>2026-04-25T12:55:26.474Z</time></trkpt><trkpt lat="42.3964441" lon="11.1706787"><ele>426.20000000000005</ele><time>2026-04-25T12:55:27.473Z</time></trkpt><trkpt lat="42.3964759" lon="11.1705667"><ele>426.0</ele><time>2026-04-25T12:55:28.485Z</time></trkpt><trkpt lat="42.396493" lon="11.1704396"><ele>426.0</ele><time>2026-04-25T12:55:29.477Z</time></trkpt><trkpt lat="42.3965104" lon="11.1703219"><ele>426.0</ele><time>2026-04-25T12:55:30.478Z</time></trkpt><trkpt lat="42.3965318" lon="11.1702319"><ele>426.0</ele><time>2026-04-25T12:55:31.482Z</time></trkpt><trkpt lat="42.3965619" lon="11.1701148"><ele>426.0</ele><time>2026-04-25T12:55:33.482Z</time></trkpt><trkpt lat="42.3965715" lon="11.1700165"><ele>426.0</ele><time>2026-04-25T12:55:35.481Z</time></trkpt><trkpt lat="42.3965505" lon="11.1698817"><ele>426.0</ele><time>2026-04-25T12:55:37.475Z</time></trkpt><trkpt lat="42.3964795" lon="11.1698322"><ele>426.0</ele><time>2026-04-25T12:55:40.476Z</time></trkpt><trkpt lat="42.3964634" lon="11.1699259"><ele>426.0</ele><time>2026-04-25T12:55:43.48Z</time></trkpt><trkpt lat="42.3963948" lon="11.1699856"><ele>426.0</ele><time>2026-04-25T12:55:46.471Z</time></trkpt><trkpt lat="42.3963318" lon="11.1699962"><ele>426.0</ele><time>2026-04-25T12:56:06.48Z</time></trkpt><trkpt lat="42.3964233" lon="11.1699974"><ele>426.0</ele><time>2026-04-25T12:56:40.485Z</time></trkpt><trkpt lat="42.3964414" lon="11.1698959"><ele>426.0</ele><time>2026-04-25T12:58:48.472Z</time></trkpt><trkpt lat="42.3964983" lon="11.1698315"><ele>426.0</ele><time>2026-04-25T12:58:52.476Z</time></trkpt><trkpt lat="42.3965394" lon="11.169927"><ele>426.0</ele><time>2026-04-25T12:58:55.486Z</time></trkpt><trkpt lat="42.3965434" lon="11.1700356"><ele>426.0</ele><time>2026-04-25T12:58:56.472Z</time></trkpt><trkpt lat="42.3965429" lon="11.1701454"><ele>426.0</ele><time>2026-04-25T12:58:57.475Z</time></trkpt><trkpt lat="42.3965339" lon="11.1702429"><ele>426.0</ele><time>2026-04-25T12:58:58.481Z</time></trkpt><trkpt lat="42.3965121" lon="11.1703495"><ele>426.0</ele><time>2026-04-25T12:58:59.474Z</time></trkpt><trkpt lat="42.3964857" lon="11.1704591"><ele>426.0</ele><time>2026-04-25T12:59:00.474Z</time></trkpt><trkpt lat="42.3964557" lon="11.17057"><ele>426.0</ele><time>2026-04-25T12:59:01.481Z</time></trkpt><trkpt lat="42.3964186" lon="11.1706868"><ele>426.0</ele><time>2026-04-25T12:59:02.482Z</time></trkpt><trkpt lat="42.3963742" lon="11.1707774"><ele>426.0</ele><time>2026-04-25T12:59:03.473Z</time></trkpt><trkpt lat="42.396327" lon="11.1708617"><ele>426.0</ele><time>2026-04-25T12:59:04.478Z</time></trkpt><trkpt lat="42.3962772" lon="11.170935"><ele>426.0</ele><time>2026-04-25T12:59:05.477Z</time></trkpt><trkpt lat="42.3962117" lon="11.170996"><ele>426.20000000000005</ele><time>2026-04-25T12:59:06.478Z</time></trkpt><trkpt lat="42.3961373" lon="11.1710427"><ele>426.40000000000003</ele><time>2026-04-25T12:59:07.478Z</time></trkpt><trkpt lat="42.3960397" lon="11.1710789"><ele>426.6</ele><time>2026-04-25T12:59:08.477Z</time></trkpt><trkpt lat="42.3959349" lon="11.171126"><ele>426.8</ele><time>2026-04-25T12:59:09.475Z</time></trkpt><trkpt lat="42.395848" lon="11.1711644"><ele>427.0</ele><time>2026-04-25T12:59:10.486Z</time></trkpt><trkpt lat="42.3957795" lon="11.1712147"><ele>427.0</ele><time>2026-04-25T12:59:11.473Z</time></trkpt><trkpt lat="42.3957337" lon="11.1712981"><ele>427.00000000000006</ele><time>2026-04-25T12:59:12.48Z</time></trkpt><trkpt lat="42.3956537" lon="11.1714306"><ele>427.00000000000006</ele><time>2026-04-25T12:59:14.476Z</time></trkpt><trkpt lat="42.395529" lon="11.171489"><ele>427.0</ele><time>2026-04-25T12:59:16.477Z</time></trkpt><trkpt lat="42.3954535" lon="11.1715052"><ele>427.0</ele><time>2026-04-25T12:59:17.471Z</time></trkpt><trkpt lat="42.395384" lon="11.1715229"><ele>426.20000000000005</ele><time>2026-04-25T12:59:18.469Z</time></trkpt><trkpt lat="42.3953502" lon="11.171646"><ele>425.40000000000003</ele><time>2026-04-25T12:59:20.477Z</time></trkpt><trkpt lat="42.3953748" lon="11.1718128"><ele>424.6</ele><time>2026-04-25T12:59:22.477Z</time></trkpt><trkpt lat="42.3954096" lon="11.1718915"><ele>423.79999999999995</ele><time>2026-04-25T12:59:23.481Z</time></trkpt><trkpt lat="42.3954837" lon="11.1719839"><ele>423.0</ele><time>2026-04-25T12:59:24.476Z</time></trkpt><trkpt lat="42.3955944" lon="11.1720854"><ele>421.5</ele><time>2026-04-25T12:59:25.482Z</time></trkpt><trkpt lat="42.3956909" lon="11.1721864"><ele>420.0</ele><time>2026-04-25T12:59:26.477Z</time></trkpt><trkpt lat="42.3957732" lon="11.1722641"><ele>418.5</ele><time>2026-04-25T12:59:27.48Z</time></trkpt><trkpt lat="42.3958398" lon="11.1723269"><ele>417.0</ele><time>2026-04-25T12:59:28.478Z</time></trkpt><trkpt lat="42.3958953" lon="11.1723977"><ele>415.5</ele><time>2026-04-25T12:59:29.476Z</time></trkpt><trkpt lat="42.3959401" lon="11.1724671"><ele>414.0</ele><time>2026-04-25T12:59:30.484Z</time></trkpt><trkpt lat="42.3959729" lon="11.1725831"><ele>413.0</ele><time>2026-04-25T12:59:31.479Z</time></trkpt><trkpt lat="42.3960003" lon="11.172702"><ele>412.0</ele><time>2026-04-25T12:59:32.476Z</time></trkpt><trkpt lat="42.3960157" lon="11.172829"><ele>411.0</ele><time>2026-04-25T12:59:33.477Z</time></trkpt><trkpt lat="42.3960256" lon="11.1729602"><ele>410.0</ele><time>2026-04-25T12:59:34.476Z</time></trkpt><trkpt lat="42.3960133" lon="11.1730815"><ele>409.0</ele><time>2026-04-25T12:59:35.482Z</time></trkpt><trkpt lat="42.3959915" lon="11.1732142"><ele>407.75</ele><time>2026-04-25T12:59:36.479Z</time></trkpt><trkpt lat="42.395956" lon="11.1733852"><ele>406.5</ele><time>2026-04-25T12:59:37.472Z</time></trkpt><trkpt lat="42.3959288" lon="11.1735864"><ele>405.25</ele><time>2026-04-25T12:59:38.481Z</time></trkpt><trkpt lat="42.3959056" lon="11.1737672"><ele>404.0</ele><time>2026-04-25T12:59:39.474Z</time></trkpt><trkpt lat="42.3958944" lon="11.1739446"><ele>401.25</ele><time>2026-04-25T12:59:40.472Z</time></trkpt><trkpt lat="42.3958904" lon="11.174106"><ele>398.5</ele><time>2026-04-25T12:59:41.477Z</time></trkpt><trkpt lat="42.3958841" lon="11.1742481"><ele>395.75</ele><time>2026-04-25T12:59:42.472Z</time></trkpt><trkpt lat="42.3958634" lon="11.1744089"><ele>393.0</ele><time>2026-04-25T12:59:43.476Z</time></trkpt><trkpt lat="42.3958427" lon="11.1745514"><ele>393.0</ele><time>2026-04-25T12:59:44.471Z</time></trkpt><trkpt lat="42.3958146" lon="11.1746889"><ele>393.0</ele><time>2026-04-25T12:59:45.479Z</time></trkpt><trkpt lat="42.3957863" lon="11.1748213"><ele>393.0</ele><time>2026-04-25T12:59:46.471Z</time></trkpt><trkpt lat="42.3957672" lon="11.1749484"><ele>393.0</ele><time>2026-04-25T12:59:47.484Z</time></trkpt><trkpt lat="42.3957439" lon="11.1750779"><ele>393.0</ele><time>2026-04-25T12:59:48.475Z</time></trkpt><trkpt lat="42.3957207" lon="11.1751989"><ele>390.6666666666667</ele><time>2026-04-25T12:59:49.479Z</time></trkpt><trkpt lat="42.3957143" lon="11.1753272"><ele>388.3333333333333</ele><time>2026-04-25T12:59:50.473Z</time></trkpt><trkpt lat="42.3957191" lon="11.1754642"><ele>386.0</ele><time>2026-04-25T12:59:51.473Z</time></trkpt><trkpt lat="42.3957222" lon="11.1755926"><ele>383.66666666666663</ele><time>2026-04-25T12:59:52.476Z</time></trkpt><trkpt lat="42.3957277" lon="11.1757036"><ele>381.3333333333333</ele><time>2026-04-25T12:59:53.476Z</time></trkpt><trkpt lat="42.3957247" lon="11.1757939"><ele>379.0</ele><time>2026-04-25T12:59:54.48Z</time></trkpt><trkpt lat="42.3957159" lon="11.1758814"><ele>377.3333333333333</ele><time>2026-04-25T12:59:55.483Z</time></trkpt><trkpt lat="42.3957095" lon="11.1759675"><ele>375.66666666666663</ele><time>2026-04-25T12:59:56.479Z</time></trkpt><trkpt lat="42.3956905" lon="11.1760507"><ele>374.0</ele><time>2026-04-25T12:59:57.482Z</time></trkpt><trkpt lat="42.3956172" lon="11.1761925"><ele>372.3333333333333</ele><time>2026-04-25T12:59:59.476Z</time></trkpt><trkpt lat="42.3955654" lon="11.1762538"><ele>370.6666666666667</ele><time>2026-04-25T13:00:00.478Z</time></trkpt><trkpt lat="42.3955077" lon="11.1763074"><ele>369.0</ele><time>2026-04-25T13:00:01.48Z</time></trkpt><trkpt lat="42.3954463" lon="11.1763447"><ele>368.2</ele><time>2026-04-25T13:00:02.482Z</time></trkpt><trkpt lat="42.3953259" lon="11.1763618"><ele>367.4</ele><time>2026-04-25T13:00:04.48Z</time></trkpt><trkpt lat="42.395257" lon="11.1763414"><ele>366.6</ele><time>2026-04-25T13:00:05.472Z</time></trkpt><trkpt lat="42.3951764" lon="11.176297"><ele>365.8</ele><time>2026-04-25T13:00:06.47Z</time></trkpt><trkpt lat="42.395077" lon="11.1762547"><ele>365.0</ele><time>2026-04-25T13:00:07.476Z</time></trkpt><trkpt lat="42.3949589" lon="11.1762161"><ele>365.0</ele><time>2026-04-25T13:00:08.479Z</time></trkpt><trkpt lat="42.3948462" lon="11.1761701"><ele>365.0</ele><time>2026-04-25T13:00:09.475Z</time></trkpt><trkpt lat="42.3947412" lon="11.176122"><ele>365.0</ele><time>2026-04-25T13:00:10.482Z</time></trkpt><trkpt lat="42.3946419" lon="11.1760735"><ele>365.0</ele><time>2026-04-25T13:00:11.482Z</time></trkpt><trkpt lat="42.3945513" lon="11.1760299"><ele>365.0</ele><time>2026-04-25T13:00:12.474Z</time></trkpt><trkpt lat="42.3944753" lon="11.1760003"><ele>362.83333333333337</ele><time>2026-04-25T13:00:13.484Z</time></trkpt><trkpt lat="42.3944017" lon="11.175958"><ele>360.6666666666667</ele><time>2026-04-25T13:00:14.475Z</time></trkpt><trkpt lat="42.3943295" lon="11.1759103"><ele>358.5</ele><time>2026-04-25T13:00:15.475Z</time></trkpt><trkpt lat="42.3942587" lon="11.1758616"><ele>356.3333333333333</ele><time>2026-04-25T13:00:16.481Z</time></trkpt><trkpt lat="42.3941898" lon="11.1758298"><ele>354.16666666666663</ele><time>2026-04-25T13:00:17.478Z</time></trkpt><trkpt lat="42.3941216" lon="11.1758217"><ele>352.0</ele><time>2026-04-25T13:00:18.477Z</time></trkpt><trkpt lat="42.3940486" lon="11.1758398"><ele>352.0</ele><time>2026-04-25T13:00:19.476Z</time></trkpt><trkpt lat="42.3939591" lon="11.1758588"><ele>352.0</ele><time>2026-04-25T13:00:20.47Z</time></trkpt><trkpt lat="42.3938805" lon="11.1758804"><ele>352.0</ele><time>2026-04-25T13:00:21.47Z</time></trkpt><trkpt lat="42.3938021" lon="11.1758962"><ele>352.0</ele><time>2026-04-25T13:00:22.474Z</time></trkpt><trkpt lat="42.393725" lon="11.1759051"><ele>352.0</ele><time>2026-04-25T13:00:23.478Z</time></trkpt><trkpt lat="42.3936566" lon="11.1759036"><ele>352.0</ele><time>2026-04-25T13:00:24.477Z</time></trkpt><trkpt lat="42.3935949" lon="11.175925"><ele>352.6</ele><time>2026-04-25T13:00:25.475Z</time></trkpt><trkpt lat="42.3935519" lon="11.1760724"><ele>353.20000000000005</ele><time>2026-04-25T13:00:27.473Z</time></trkpt><trkpt lat="42.3935457" lon="11.1761978"><ele>353.8</ele><time>2026-04-25T13:00:28.475Z</time></trkpt><trkpt lat="42.3935231" lon="11.1763393"><ele>354.4</ele><time>2026-04-25T13:00:29.478Z</time></trkpt><trkpt lat="42.3934876" lon="11.1764771"><ele>355.0</ele><time>2026-04-25T13:00:30.484Z</time></trkpt><trkpt lat="42.3934422" lon="11.1766143"><ele>350.0</ele><time>2026-04-25T13:00:31.471Z</time></trkpt><trkpt lat="42.3933985" lon="11.176769"><ele>345.0</ele><time>2026-04-25T13:00:32.478Z</time></trkpt><trkpt lat="42.3933448" lon="11.1769323"><ele>340.0</ele><time>2026-04-25T13:00:33.473Z</time></trkpt><trkpt lat="42.3932973" lon="11.1770657"><ele>335.0</ele><time>2026-04-25T13:00:34.484Z</time></trkpt><trkpt lat="42.3932501" lon="11.1771891"><ele>335.0</ele><time>2026-04-25T13:00:35.474Z</time></trkpt><trkpt lat="42.393204" lon="11.1773105"><ele>335.0</ele><time>2026-04-25T13:00:36.475Z</time></trkpt><trkpt lat="42.393153" lon="11.1774385"><ele>335.0</ele><time>2026-04-25T13:00:37.483Z</time></trkpt><trkpt lat="42.393105" lon="11.1776001"><ele>335.0</ele><time>2026-04-25T13:00:38.472Z</time></trkpt><trkpt lat="42.3930537" lon="11.1777798"><ele>336.5</ele><time>2026-04-25T13:00:39.477Z</time></trkpt><trkpt lat="42.3929984" lon="11.1779446"><ele>338.0</ele><time>2026-04-25T13:00:40.478Z</time></trkpt><trkpt lat="42.3929324" lon="11.1781103"><ele>339.5</ele><time>2026-04-25T13:00:41.476Z</time></trkpt><trkpt lat="42.3928685" lon="11.1782676"><ele>341.0</ele><time>2026-04-25T13:00:42.478Z</time></trkpt><trkpt lat="42.3928096" lon="11.1784059"><ele>335.2</ele><time>2026-04-25T13:00:43.473Z</time></trkpt><trkpt lat="42.3927583" lon="11.1785245"><ele>329.40000000000003</ele><time>2026-04-25T13:00:44.472Z</time></trkpt><trkpt lat="42.3927093" lon="11.1786099"><ele>323.6</ele><time>2026-04-25T13:00:45.475Z</time></trkpt><trkpt lat="42.392662" lon="11.1786954"><ele>317.8</ele><time>2026-04-25T13:00:46.468Z</time></trkpt><trkpt lat="42.3925871" lon="11.1787728"><ele>312.0</ele><time>2026-04-25T13:00:47.476Z</time></trkpt><trkpt lat="42.3924758" lon="11.1788324"><ele>312.0</ele><time>2026-04-25T13:00:48.481Z</time></trkpt><trkpt lat="42.3923488" lon="11.17888"><ele>312.0</ele><time>2026-04-25T13:00:49.466Z</time></trkpt><trkpt lat="42.3922203" lon="11.1789245"><ele>312.0</ele><time>2026-04-25T13:00:50.478Z</time></trkpt><trkpt lat="42.392111" lon="11.1789614"><ele>312.0</ele><time>2026-04-25T13:00:51.469Z</time></trkpt><trkpt lat="42.3920152" lon="11.1789882"><ele>311.1666666666667</ele><time>2026-04-25T13:00:52.477Z</time></trkpt><trkpt lat="42.3919483" lon="11.1790179"><ele>310.3333333333333</ele><time>2026-04-25T13:00:53.472Z</time></trkpt><trkpt lat="42.3919034" lon="11.1791003"><ele>309.5</ele><time>2026-04-25T13:00:55.469Z</time></trkpt><trkpt lat="42.3919168" lon="11.1791853"><ele>308.66666666666663</ele><time>2026-04-25T13:00:56.475Z</time></trkpt><trkpt lat="42.3919209" lon="11.1793044"><ele>307.8333333333333</ele><time>2026-04-25T13:00:57.47Z</time></trkpt><trkpt lat="42.3919353" lon="11.1794431"><ele>307.0</ele><time>2026-04-25T13:00:58.484Z</time></trkpt><trkpt lat="42.3919545" lon="11.1795869"><ele>307.0</ele><time>2026-04-25T13:00:59.481Z</time></trkpt><trkpt lat="42.3919904" lon="11.1797222"><ele>307.0</ele><time>2026-04-25T13:01:00.477Z</time></trkpt><trkpt lat="42.3920263" lon="11.1798422"><ele>307.0</ele><time>2026-04-25T13:01:01.48Z</time></trkpt><trkpt lat="42.3920471" lon="11.1799598"><ele>307.0</ele><time>2026-04-25T13:01:02.472Z</time></trkpt><trkpt lat="42.3920505" lon="11.1801021"><ele>307.0</ele><time>2026-04-25T13:01:03.482Z</time></trkpt><trkpt lat="42.3920456" lon="11.1802405"><ele>305.3333333333333</ele><time>2026-04-25T13:01:04.47Z</time></trkpt><trkpt lat="42.3920355" lon="11.1803616"><ele>303.66666666666663</ele><time>2026-04-25T13:01:05.482Z</time></trkpt><trkpt lat="42.3920199" lon="11.1804693"><ele>302.0</ele><time>2026-04-25T13:01:06.479Z</time></trkpt><trkpt lat="42.3919901" lon="11.1805656"><ele>300.3333333333333</ele><time>2026-04-25T13:01:07.477Z</time></trkpt><trkpt lat="42.3919563" lon="11.1806586"><ele>298.6666666666667</ele><time>2026-04-25T13:01:08.478Z</time></trkpt><trkpt lat="42.3918977" lon="11.1807713"><ele>297.0</ele><time>2026-04-25T13:01:09.486Z</time></trkpt><trkpt lat="42.3918321" lon="11.1808776"><ele>294.3333333333333</ele><time>2026-04-25T13:01:10.47Z</time></trkpt><trkpt lat="42.3917888" lon="11.1809723"><ele>291.6666666666667</ele><time>2026-04-25T13:01:11.479Z</time></trkpt><trkpt lat="42.3917688" lon="11.1810571"><ele>289.0</ele><time>2026-04-25T13:01:12.479Z</time></trkpt><trkpt lat="42.3917762" lon="11.181162"><ele>286.33333333333337</ele><time>2026-04-25T13:01:13.47Z</time></trkpt><trkpt lat="42.3918107" lon="11.1812624"><ele>283.6666666666667</ele><time>2026-04-25T13:01:14.475Z</time></trkpt><trkpt lat="42.3918836" lon="11.1813714"><ele>281.0</ele><time>2026-04-25T13:01:15.474Z</time></trkpt><trkpt lat="42.3919677" lon="11.1814731"><ele>277.8</ele><time>2026-04-25T13:01:16.476Z</time></trkpt><trkpt lat="42.3920547" lon="11.1815572"><ele>274.6</ele><time>2026-04-25T13:01:17.469Z</time></trkpt><trkpt lat="42.3921366" lon="11.1816286"><ele>271.4</ele><time>2026-04-25T13:01:18.473Z</time></trkpt><trkpt lat="42.3922148" lon="11.1817515"><ele>268.2</ele><time>2026-04-25T13:01:20.473Z</time></trkpt><trkpt lat="42.3922263" lon="11.181838"><ele>265.0</ele><time>2026-04-25T13:01:21.469Z</time></trkpt><trkpt lat="42.3922055" lon="11.1819255"><ele>265.0</ele><time>2026-04-25T13:01:22.47Z</time></trkpt><trkpt lat="42.392162" lon="11.1820141"><ele>265.0</ele><time>2026-04-25T13:01:23.482Z</time></trkpt><trkpt lat="42.3921006" lon="11.1820874"><ele>265.0</ele><time>2026-04-25T13:01:24.485Z</time></trkpt><trkpt lat="42.3920268" lon="11.1821392"><ele>265.0</ele><time>2026-04-25T13:01:25.469Z</time></trkpt><trkpt lat="42.3919412" lon="11.1821833"><ele>265.0</ele><time>2026-04-25T13:01:26.478Z</time></trkpt><trkpt lat="42.3918358" lon="11.182214"><ele>265.0</ele><time>2026-04-25T13:01:27.484Z</time></trkpt><trkpt lat="42.3917227" lon="11.1822373"><ele>265.0</ele><time>2026-04-25T13:01:28.48Z</time></trkpt><trkpt lat="42.3916202" lon="11.1822457"><ele>265.0</ele><time>2026-04-25T13:01:29.477Z</time></trkpt><trkpt lat="42.3915287" lon="11.1822637"><ele>265.0</ele><time>2026-04-25T13:01:30.474Z</time></trkpt><trkpt lat="42.3914431" lon="11.1822888"><ele>265.0</ele><time>2026-04-25T13:01:31.476Z</time></trkpt><trkpt lat="42.3913774" lon="11.1823278"><ele>265.0</ele><time>2026-04-25T13:01:32.477Z</time></trkpt><trkpt lat="42.3912808" lon="11.1824321"><ele>264.0</ele><time>2026-04-25T13:01:34.477Z</time></trkpt><trkpt lat="42.3912444" lon="11.1825228"><ele>263.0</ele><time>2026-04-25T13:01:35.477Z</time></trkpt><trkpt lat="42.391217" lon="11.1826508"><ele>262.0</ele><time>2026-04-25T13:01:36.475Z</time></trkpt><trkpt lat="42.3911805" lon="11.1827892"><ele>261.0</ele><time>2026-04-25T13:01:37.473Z</time></trkpt><trkpt lat="42.3911441" lon="11.1829397"><ele>260.0</ele><time>2026-04-25T13:01:38.478Z</time></trkpt><trkpt lat="42.3911124" lon="11.1830861"><ele>255.8</ele><time>2026-04-25T13:01:39.475Z</time></trkpt><trkpt lat="42.3910836" lon="11.1832271"><ele>251.6</ele><time>2026-04-25T13:01:40.482Z</time></trkpt><trkpt lat="42.3910612" lon="11.1833585"><ele>247.39999999999998</ele><time>2026-04-25T13:01:41.474Z</time></trkpt><trkpt lat="42.391036" lon="11.1834804"><ele>243.2</ele><time>2026-04-25T13:01:42.48Z</time></trkpt><trkpt lat="42.3910101" lon="11.1835872"><ele>239.0</ele><time>2026-04-25T13:01:43.472Z</time></trkpt><trkpt lat="42.3909719" lon="11.1836764"><ele>239.00000000000003</ele><time>2026-04-25T13:01:44.478Z</time></trkpt><trkpt lat="42.3909159" lon="11.1837684"><ele>239.0</ele><time>2026-04-25T13:01:45.476Z</time></trkpt><trkpt lat="42.3908474" lon="11.1838465"><ele>239.0</ele><time>2026-04-25T13:01:46.473Z</time></trkpt><trkpt lat="42.3907832" lon="11.1839229"><ele>239.0</ele><time>2026-04-25T13:01:47.478Z</time></trkpt><trkpt lat="42.3907231" lon="11.1839821"><ele>239.00000000000003</ele><time>2026-04-25T13:01:48.473Z</time></trkpt><trkpt lat="42.3906507" lon="11.1840215"><ele>239.0</ele><time>2026-04-25T13:01:49.475Z</time></trkpt><trkpt lat="42.3905555" lon="11.1840846"><ele>238.39999999999998</ele><time>2026-04-25T13:01:50.472Z</time></trkpt><trkpt lat="42.3904652" lon="11.184171"><ele>237.79999999999998</ele><time>2026-04-25T13:01:51.47Z</time></trkpt><trkpt lat="42.3903829" lon="11.1842394"><ele>237.20000000000002</ele><time>2026-04-25T13:01:52.469Z</time></trkpt><trkpt lat="42.390321" lon="11.1843058"><ele>236.60000000000002</ele><time>2026-04-25T13:01:53.487Z</time></trkpt><trkpt lat="42.3902707" lon="11.1843988"><ele>236.0</ele><time>2026-04-25T13:01:54.472Z</time></trkpt><trkpt lat="42.3902408" lon="11.1845078"><ele>236.0</ele><time>2026-04-25T13:01:55.472Z</time></trkpt><trkpt lat="42.3902328" lon="11.1846277"><ele>236.00000000000003</ele><time>2026-04-25T13:01:56.491Z</time></trkpt><trkpt lat="42.3902375" lon="11.1847481"><ele>236.00000000000003</ele><time>2026-04-25T13:01:57.479Z</time></trkpt><trkpt lat="42.3902762" lon="11.1848735"><ele>236.0</ele><time>2026-04-25T13:01:58.473Z</time></trkpt><trkpt lat="42.3903273" lon="11.185004"><ele>236.0</ele><time>2026-04-25T13:01:59.468Z</time></trkpt><trkpt lat="42.3903973" lon="11.1851451"><ele>233.0</ele><time>2026-04-25T13:02:00.482Z</time></trkpt><trkpt lat="42.3904543" lon="11.1852931"><ele>230.00000000000003</ele><time>2026-04-25T13:02:01.473Z</time></trkpt><trkpt lat="42.3904812" lon="11.1854195"><ele>227.00000000000003</ele><time>2026-04-25T13:02:02.478Z</time></trkpt><trkpt lat="42.3905177" lon="11.1855513"><ele>224.0</ele><time>2026-04-25T13:02:03.48Z</time></trkpt><trkpt lat="42.3905448" lon="11.1857076"><ele>221.0</ele><time>2026-04-25T13:02:04.472Z</time></trkpt><trkpt lat="42.3905579" lon="11.1858616"><ele>214.8</ele><time>2026-04-25T13:02:05.47Z</time></trkpt><trkpt lat="42.3905718" lon="11.1860167"><ele>208.60000000000002</ele><time>2026-04-25T13:02:06.48Z</time></trkpt><trkpt lat="42.3905861" lon="11.186129"><ele>202.4</ele><time>2026-04-25T13:02:07.477Z</time></trkpt><trkpt lat="42.3906449" lon="11.186274"><ele>196.2</ele><time>2026-04-25T13:02:09.483Z</time></trkpt><trkpt lat="42.3907009" lon="11.1863539"><ele>190.0</ele><time>2026-04-25T13:02:10.475Z</time></trkpt><trkpt lat="42.3907508" lon="11.1864175"><ele>188.83333333333334</ele><time>2026-04-25T13:02:11.474Z</time></trkpt><trkpt lat="42.3907508" lon="11.1865482"><ele>187.66666666666669</ele><time>2026-04-25T13:02:13.476Z</time></trkpt><trkpt lat="42.3906822" lon="11.1866277"><ele>186.5</ele><time>2026-04-25T13:02:14.473Z</time></trkpt><trkpt lat="42.3906015" lon="11.1867003"><ele>185.33333333333334</ele><time>2026-04-25T13:02:15.483Z</time></trkpt><trkpt lat="42.3905293" lon="11.1867625"><ele>184.16666666666666</ele><time>2026-04-25T13:02:16.475Z</time></trkpt><trkpt lat="42.3904599" lon="11.1868061"><ele>183.0</ele><time>2026-04-25T13:02:17.477Z</time></trkpt><trkpt lat="42.3903759" lon="11.1868306"><ele>183.0</ele><time>2026-04-25T13:02:18.474Z</time></trkpt><trkpt lat="42.3902954" lon="11.1868459"><ele>183.0</ele><time>2026-04-25T13:02:19.483Z</time></trkpt><trkpt lat="42.3902229" lon="11.1869001"><ele>183.0</ele><time>2026-04-25T13:02:20.476Z</time></trkpt><trkpt lat="42.3901396" lon="11.1869895"><ele>183.0</ele><time>2026-04-25T13:02:21.477Z</time></trkpt><trkpt lat="42.3900677" lon="11.1870625"><ele>183.0</ele><time>2026-04-25T13:02:22.471Z</time></trkpt><trkpt lat="42.3899829" lon="11.1871025"><ele>183.0</ele><time>2026-04-25T13:02:23.473Z</time></trkpt><trkpt lat="42.38989" lon="11.1871183"><ele>183.0</ele><time>2026-04-25T13:02:24.483Z</time></trkpt><trkpt lat="42.3898135" lon="11.187117"><ele>183.0</ele><time>2026-04-25T13:02:25.485Z</time></trkpt><trkpt lat="42.3897466" lon="11.187196"><ele>183.0</ele><time>2026-04-25T13:02:27.475Z</time></trkpt><trkpt lat="42.3897734" lon="11.1872833"><ele>183.0</ele><time>2026-04-25T13:02:29.475Z</time></trkpt><trkpt lat="42.3899369" lon="11.1872906"><ele>183.0</ele><time>2026-04-25T13:02:31.475Z</time></trkpt><trkpt lat="42.3900528" lon="11.187293"><ele>183.0</ele><time>2026-04-25T13:02:32.475Z</time></trkpt><trkpt lat="42.3901733" lon="11.1872988"><ele>183.0</ele><time>2026-04-25T13:02:33.47Z</time></trkpt><trkpt lat="42.3902865" lon="11.1873081"><ele>183.0</ele><time>2026-04-25T13:02:34.473Z</time></trkpt><trkpt lat="42.3903771" lon="11.1873141"><ele>183.0</ele><time>2026-04-25T13:02:35.487Z</time></trkpt><trkpt lat="42.390473" lon="11.1873391"><ele>178.4</ele><time>2026-04-25T13:02:36.474Z</time></trkpt><trkpt lat="42.3905685" lon="11.1873853"><ele>173.8</ele><time>2026-04-25T13:02:37.472Z</time></trkpt><trkpt lat="42.3906555" lon="11.1874386"><ele>169.2</ele><time>2026-04-25T13:02:38.489Z</time></trkpt><trkpt lat="42.390732" lon="11.1874902"><ele>164.6</ele><time>2026-04-25T13:02:39.472Z</time></trkpt><trkpt lat="42.3908235" lon="11.1875623"><ele>160.0</ele><time>2026-04-25T13:02:41.482Z</time></trkpt><trkpt lat="42.3909038" lon="11.1874984"><ele>160.0</ele><time>2026-04-25T13:02:44.478Z</time></trkpt><trkpt lat="42.3909597" lon="11.1873461"><ele>160.0</ele><time>2026-04-25T13:02:46.477Z</time></trkpt><trkpt lat="42.3909845" lon="11.1872541"><ele>160.0</ele><time>2026-04-25T13:02:47.474Z</time></trkpt><trkpt lat="42.3910138" lon="11.1871353"><ele>160.0</ele><time>2026-04-25T13:02:48.478Z</time></trkpt><trkpt lat="42.3910529" lon="11.1870005"><ele>160.0</ele><time>2026-04-25T13:02:49.476Z</time></trkpt><trkpt lat="42.3910974" lon="11.1868792"><ele>161.6</ele><time>2026-04-25T13:02:50.479Z</time></trkpt><trkpt lat="42.3911468" lon="11.1867704"><ele>163.2</ele><time>2026-04-25T13:02:51.475Z</time></trkpt><trkpt lat="42.3912022" lon="11.1866715"><ele>164.8</ele><time>2026-04-25T13:02:52.482Z</time></trkpt><trkpt lat="42.3912614" lon="11.1865806"><ele>166.4</ele><time>2026-04-25T13:02:53.477Z</time></trkpt><trkpt lat="42.3913282" lon="11.186493"><ele>168.0</ele><time>2026-04-25T13:02:54.482Z</time></trkpt><trkpt lat="42.391397" lon="11.1864075"><ele>168.0</ele><time>2026-04-25T13:02:55.476Z</time></trkpt><trkpt lat="42.3914641" lon="11.1863034"><ele>168.0</ele><time>2026-04-25T13:02:56.485Z</time></trkpt><trkpt lat="42.3915264" lon="11.1861968"><ele>168.0</ele><time>2026-04-25T13:02:57.48Z</time></trkpt><trkpt lat="42.3915794" lon="11.1860922"><ele>168.0</ele><time>2026-04-25T13:02:58.472Z</time></trkpt><trkpt lat="42.3916278" lon="11.1859969"><ele>168.0</ele><time>2026-04-25T13:02:59.476Z</time></trkpt><trkpt lat="42.3916777" lon="11.1859242"><ele>168.0</ele><time>2026-04-25T13:03:00.484Z</time></trkpt><trkpt lat="42.3917457" lon="11.1858802"><ele>168.0</ele><time>2026-04-25T13:03:01.48Z</time></trkpt><trkpt lat="42.3918256" lon="11.1858563"><ele>168.0</ele><time>2026-04-25T13:03:02.468Z</time></trkpt><trkpt lat="42.3919157" lon="11.1857966"><ele>168.0</ele><time>2026-04-25T13:03:03.473Z</time></trkpt><trkpt lat="42.3920101" lon="11.185721"><ele>168.0</ele><time>2026-04-25T13:03:04.482Z</time></trkpt><trkpt lat="42.3920941" lon="11.185636"><ele>166.5</ele><time>2026-04-25T13:03:05.475Z</time></trkpt><trkpt lat="42.3921692" lon="11.1855497"><ele>165.0</ele><time>2026-04-25T13:03:06.483Z</time></trkpt><trkpt lat="42.3922339" lon="11.1854525"><ele>163.5</ele><time>2026-04-25T13:03:07.48Z</time></trkpt><trkpt lat="42.3922789" lon="11.1853508"><ele>162.0</ele><time>2026-04-25T13:03:08.47Z</time></trkpt><trkpt lat="42.3923169" lon="11.1852796"><ele>160.5</ele><time>2026-04-25T13:03:09.478Z</time></trkpt><trkpt lat="42.3923936" lon="11.1852535"><ele>159.0</ele><time>2026-04-25T13:03:11.481Z</time></trkpt><trkpt lat="42.3924327" lon="11.1853354"><ele>159.0</ele><time>2026-04-25T13:03:13.475Z</time></trkpt><trkpt lat="42.392379" lon="11.1855153"><ele>159.0</ele><time>2026-04-25T13:03:15.475Z</time></trkpt><trkpt lat="42.3923381" lon="11.1856407"><ele>159.0</ele><time>2026-04-25T13:03:16.478Z</time></trkpt><trkpt lat="42.3922697" lon="11.1858009"><ele>159.0</ele><time>2026-04-25T13:03:17.472Z</time></trkpt><trkpt lat="42.3922218" lon="11.1859776"><ele>156.66666666666666</ele><time>2026-04-25T13:03:18.478Z</time></trkpt><trkpt lat="42.3921731" lon="11.186168"><ele>154.33333333333331</ele><time>2026-04-25T13:03:19.477Z</time></trkpt><trkpt lat="42.392123" lon="11.1863621"><ele>152.0</ele><time>2026-04-25T13:03:20.477Z</time></trkpt><trkpt lat="42.3920696" lon="11.1865611"><ele>152.0</ele><time>2026-04-25T13:03:21.476Z</time></trkpt><trkpt lat="42.3920208" lon="11.1867554"><ele>152.0</ele><time>2026-04-25T13:03:22.474Z</time></trkpt><trkpt lat="42.3919655" lon="11.186952"><ele>152.0</ele><time>2026-04-25T13:03:23.472Z</time></trkpt><trkpt lat="42.3919114" lon="11.187141"><ele>152.0</ele><time>2026-04-25T13:03:24.473Z</time></trkpt><trkpt lat="42.3918545" lon="11.187327"><ele>152.0</ele><time>2026-04-25T13:03:25.474Z</time></trkpt><trkpt lat="42.3918074" lon="11.1875005"><ele>152.0</ele><time>2026-04-25T13:03:26.475Z</time></trkpt><trkpt lat="42.3917781" lon="11.1876481"><ele>152.0</ele><time>2026-04-25T13:03:27.471Z</time></trkpt><trkpt lat="42.3917666" lon="11.1877564"><ele>149.79999999999998</ele><time>2026-04-25T13:03:28.478Z</time></trkpt><trkpt lat="42.39176" lon="11.1878556"><ele>147.6</ele><time>2026-04-25T13:03:29.468Z</time></trkpt><trkpt lat="42.3917656" lon="11.1879621"><ele>145.39999999999998</ele><time>2026-04-25T13:03:30.471Z</time></trkpt><trkpt lat="42.3917969" lon="11.1880949"><ele>143.2</ele><time>2026-04-25T13:03:31.474Z</time></trkpt><trkpt lat="42.3918702" lon="11.1882496"><ele>141.0</ele><time>2026-04-25T13:03:32.477Z</time></trkpt><trkpt lat="42.3919556" lon="11.1884182"><ele>140.5</ele><time>2026-04-25T13:03:33.474Z</time></trkpt><trkpt lat="42.3920411" lon="11.1885839"><ele>140.0</ele><time>2026-04-25T13:03:34.481Z</time></trkpt><trkpt lat="42.3921199" lon="11.1887378"><ele>139.5</ele><time>2026-04-25T13:03:35.479Z</time></trkpt><trkpt lat="42.3921972" lon="11.1888911"><ele>139.0</ele><time>2026-04-25T13:03:36.481Z</time></trkpt><trkpt lat="42.3922791" lon="11.189054"><ele>132.75</ele><time>2026-04-25T13:03:37.471Z</time></trkpt><trkpt lat="42.3923636" lon="11.1892277"><ele>126.5</ele><time>2026-04-25T13:03:38.476Z</time></trkpt><trkpt lat="42.3924411" lon="11.1894026"><ele>120.25</ele><time>2026-04-25T13:03:39.474Z</time></trkpt><trkpt lat="42.392512" lon="11.1895613"><ele>114.0</ele><time>2026-04-25T13:03:40.477Z</time></trkpt><trkpt lat="42.3925794" lon="11.1897087"><ele>114.0</ele><time>2026-04-25T13:03:41.471Z</time></trkpt><trkpt lat="42.3926452" lon="11.1898448"><ele>114.0</ele><time>2026-04-25T13:03:42.476Z</time></trkpt><trkpt lat="42.392697" lon="11.189968"><ele>114.0</ele><time>2026-04-25T13:03:43.476Z</time></trkpt><trkpt lat="42.3927483" lon="11.1900676"><ele>114.0</ele><time>2026-04-25T13:03:44.478Z</time></trkpt><trkpt lat="42.3928114" lon="11.1901592"><ele>114.0</ele><time>2026-04-25T13:03:45.472Z</time></trkpt><trkpt lat="42.3928868" lon="11.1902343"><ele>114.0</ele><time>2026-04-25T13:03:46.472Z</time></trkpt><trkpt lat="42.392947" lon="11.190305"><ele>114.0</ele><time>2026-04-25T13:03:47.474Z</time></trkpt><trkpt lat="42.3930005" lon="11.1903903"><ele>114.0</ele><time>2026-04-25T13:03:48.476Z</time></trkpt><trkpt lat="42.3930531" lon="11.1905023"><ele>114.0</ele><time>2026-04-25T13:03:49.471Z</time></trkpt><trkpt lat="42.3931012" lon="11.1906398"><ele>114.0</ele><time>2026-04-25T13:03:50.473Z</time></trkpt><trkpt lat="42.3931465" lon="11.1907809"><ele>110.0</ele><time>2026-04-25T13:03:51.477Z</time></trkpt><trkpt lat="42.3931848" lon="11.1909282"><ele>106.0</ele><time>2026-04-25T13:03:52.479Z</time></trkpt><trkpt lat="42.3932207" lon="11.191038"><ele>102.0</ele><time>2026-04-25T13:03:53.472Z</time></trkpt><trkpt lat="42.3932514" lon="11.1911129"><ele>98.0</ele><time>2026-04-25T13:03:54.479Z</time></trkpt><trkpt lat="42.3933086" lon="11.1912267"><ele>94.0</ele><time>2026-04-25T13:03:56.479Z</time></trkpt><trkpt lat="42.3933592" lon="11.1912811"><ele>90.0</ele><time>2026-04-25T13:03:57.482Z</time></trkpt><trkpt lat="42.3934156" lon="11.1913485"><ele>90.0</ele><time>2026-04-25T13:03:58.476Z</time></trkpt><trkpt lat="42.3934648" lon="11.1914485"><ele>90.0</ele><time>2026-04-25T13:03:59.482Z</time></trkpt><trkpt lat="42.3935079" lon="11.1915838"><ele>90.0</ele><time>2026-04-25T13:04:00.473Z</time></trkpt><trkpt lat="42.3935405" lon="11.1917179"><ele>90.0</ele><time>2026-04-25T13:04:01.469Z</time></trkpt><trkpt lat="42.3935612" lon="11.1918267"><ele>90.0</ele><time>2026-04-25T13:04:02.485Z</time></trkpt><trkpt lat="42.3935852" lon="11.191906"><ele>90.0</ele><time>2026-04-25T13:04:03.476Z</time></trkpt><trkpt lat="42.3936021" lon="11.1919922"><ele>89.33333333333333</ele><time>2026-04-25T13:04:04.47Z</time></trkpt><trkpt lat="42.3935666" lon="11.1921418"><ele>88.66666666666667</ele><time>2026-04-25T13:04:06.486Z</time></trkpt><trkpt lat="42.3935115" lon="11.1921937"><ele>88.0</ele><time>2026-04-25T13:04:07.473Z</time></trkpt><trkpt lat="42.3934493" lon="11.1922443"><ele>87.33333333333334</ele><time>2026-04-25T13:04:08.477Z</time></trkpt><trkpt lat="42.3933735" lon="11.192268"><ele>86.66666666666667</ele><time>2026-04-25T13:04:09.481Z</time></trkpt><trkpt lat="42.3933007" lon="11.1922784"><ele>86.0</ele><time>2026-04-25T13:04:10.473Z</time></trkpt><trkpt lat="42.3931915" lon="11.1923083"><ele>83.8</ele><time>2026-04-25T13:04:12.484Z</time></trkpt><trkpt lat="42.3931681" lon="11.1923957"><ele>81.6</ele><time>2026-04-25T13:04:13.479Z</time></trkpt><trkpt lat="42.3931612" lon="11.1925599"><ele>79.4</ele><time>2026-04-25T13:04:14.473Z</time></trkpt><trkpt lat="42.3931387" lon="11.1927445"><ele>77.2</ele><time>2026-04-25T13:04:15.47Z</time></trkpt><trkpt lat="42.3931115" lon="11.1929006"><ele>75.0</ele><time>2026-04-25T13:04:16.473Z</time></trkpt><trkpt lat="42.3931011" lon="11.1930233"><ele>75.0</ele><time>2026-04-25T13:04:17.475Z</time></trkpt><trkpt lat="42.393082" lon="11.1931155"><ele>75.0</ele><time>2026-04-25T13:04:18.481Z</time></trkpt><trkpt lat="42.393011" lon="11.1932299"><ele>75.0</ele><time>2026-04-25T13:04:20.482Z</time></trkpt><trkpt lat="42.3928746" lon="11.1931901"><ele>75.0</ele><time>2026-04-25T13:04:22.48Z</time></trkpt><trkpt lat="42.3927904" lon="11.1931131"><ele>75.0</ele><time>2026-04-25T13:04:23.479Z</time></trkpt><trkpt lat="42.3927088" lon="11.1930381"><ele>75.16666666666667</ele><time>2026-04-25T13:04:24.477Z</time></trkpt><trkpt lat="42.3926384" lon="11.1929972"><ele>75.33333333333333</ele><time>2026-04-25T13:04:25.483Z</time></trkpt><trkpt lat="42.3925859" lon="11.1930598"><ele>75.5</ele><time>2026-04-25T13:04:27.491Z</time></trkpt><trkpt lat="42.3926094" lon="11.1931792"><ele>75.66666666666666</ele><time>2026-04-25T13:04:29.478Z</time></trkpt><trkpt lat="42.3926752" lon="11.1932854"><ele>75.83333333333333</ele><time>2026-04-25T13:04:30.47Z</time></trkpt><trkpt lat="42.3927436" lon="11.1934"><ele>76.0</ele><time>2026-04-25T13:04:31.472Z</time></trkpt><trkpt lat="42.3928184" lon="11.1935481"><ele>72.5</ele><time>2026-04-25T13:04:32.478Z</time></trkpt><trkpt lat="42.3928937" lon="11.1937021"><ele>69.0</ele><time>2026-04-25T13:04:33.473Z</time></trkpt><trkpt lat="42.3929793" lon="11.1938791"><ele>65.5</ele><time>2026-04-25T13:04:34.477Z</time></trkpt><trkpt lat="42.3930685" lon="11.194051"><ele>62.0</ele><time>2026-04-25T13:04:35.48Z</time></trkpt><trkpt lat="42.3931489" lon="11.1941966"><ele>59.400000000000006</ele><time>2026-04-25T13:04:36.472Z</time></trkpt><trkpt lat="42.3932076" lon="11.1943086"><ele>56.800000000000004</ele><time>2026-04-25T13:04:37.478Z</time></trkpt><trkpt lat="42.3932547" lon="11.1943992"><ele>54.2</ele><time>2026-04-25T13:04:38.473Z</time></trkpt><trkpt lat="42.3932948" lon="11.1945297"><ele>51.6</ele><time>2026-04-25T13:04:40.483Z</time></trkpt><trkpt lat="42.3932398" lon="11.1946536"><ele>49.0</ele><time>2026-04-25T13:04:42.481Z</time></trkpt><trkpt lat="42.3931604" lon="11.1947243"><ele>49.0</ele><time>2026-04-25T13:04:43.476Z</time></trkpt><trkpt lat="42.3930774" lon="11.1947929"><ele>49.0</ele><time>2026-04-25T13:04:44.479Z</time></trkpt><trkpt lat="42.392992" lon="11.1948705"><ele>49.0</ele><time>2026-04-25T13:04:45.478Z</time></trkpt><trkpt lat="42.3928897" lon="11.1949526"><ele>49.0</ele><time>2026-04-25T13:04:46.478Z</time></trkpt><trkpt lat="42.3927821" lon="11.1950413"><ele>49.0</ele><time>2026-04-25T13:04:47.474Z</time></trkpt><trkpt lat="42.3926822" lon="11.1951397"><ele>48.0</ele><time>2026-04-25T13:04:48.478Z</time></trkpt><trkpt lat="42.3925929" lon="11.1952216"><ele>47.0</ele><time>2026-04-25T13:04:49.477Z</time></trkpt><trkpt lat="42.3925157" lon="11.1952953"><ele>46.0</ele><time>2026-04-25T13:04:50.485Z</time></trkpt><trkpt lat="42.3924486" lon="11.1953734"><ele>45.0</ele><time>2026-04-25T13:04:51.48Z</time></trkpt><trkpt lat="42.3923942" lon="11.1954654"><ele>44.0</ele><time>2026-04-25T13:04:52.482Z</time></trkpt><trkpt lat="42.3923514" lon="11.1955699"><ele>44.2</ele><time>2026-04-25T13:04:53.477Z</time></trkpt><trkpt lat="42.392304" lon="11.1956795"><ele>44.400000000000006</ele><time>2026-04-25T13:04:54.475Z</time></trkpt><trkpt lat="42.3922514" lon="11.1957848"><ele>44.6</ele><time>2026-04-25T13:04:55.474Z</time></trkpt><trkpt lat="42.3921952" lon="11.1958871"><ele>44.8</ele><time>2026-04-25T13:04:56.494Z</time></trkpt><trkpt lat="42.3921457" lon="11.1959749"><ele>45.0</ele><time>2026-04-25T13:04:57.477Z</time></trkpt><trkpt lat="42.3920891" lon="11.1960927"><ele>45.0</ele><time>2026-04-25T13:04:59.481Z</time></trkpt><trkpt lat="42.3920015" lon="11.1961138"><ele>45.0</ele><time>2026-04-25T13:05:06.478Z</time></trkpt><trkpt lat="42.3919263" lon="11.1961016"><ele>45.0</ele><time>2026-04-25T13:05:07.481Z</time></trkpt><trkpt lat="42.3918421" lon="11.1960653"><ele>45.0</ele><time>2026-04-25T13:05:08.477Z</time></trkpt><trkpt lat="42.3917536" lon="11.1960199"><ele>45.0</ele><time>2026-04-25T13:05:09.474Z</time></trkpt><trkpt lat="42.3916461" lon="11.195974"><ele>45.0</ele><time>2026-04-25T13:05:10.482Z</time></trkpt><trkpt lat="42.3915325" lon="11.1958921"><ele>45.0</ele><time>2026-04-25T13:05:11.477Z</time></trkpt><trkpt lat="42.3914133" lon="11.1957931"><ele>45.0</ele><time>2026-04-25T13:05:12.48Z</time></trkpt><trkpt lat="42.3912988" lon="11.1956785"><ele>45.0</ele><time>2026-04-25T13:05:13.478Z</time></trkpt><trkpt lat="42.3911873" lon="11.1955303"><ele>46.5</ele><time>2026-04-25T13:05:14.467Z</time></trkpt><trkpt lat="42.3910861" lon="11.1953942"><ele>48.0</ele><time>2026-04-25T13:05:15.479Z</time></trkpt><trkpt lat="42.3909816" lon="11.195249"><ele>49.5</ele><time>2026-04-25T13:05:16.476Z</time></trkpt><trkpt lat="42.390879" lon="11.1951072"><ele>51.0</ele><time>2026-04-25T13:05:17.475Z</time></trkpt><trkpt lat="42.3907764" lon="11.1949598"><ele>51.0</ele><time>2026-04-25T13:05:18.487Z</time></trkpt><trkpt lat="42.390676" lon="11.1948076"><ele>51.0</ele><time>2026-04-25T13:05:19.481Z</time></trkpt><trkpt lat="42.3905691" lon="11.194666"><ele>51.0</ele><time>2026-04-25T13:05:20.475Z</time></trkpt><trkpt lat="42.3904562" lon="11.1945335"><ele>53.0</ele><time>2026-04-25T13:05:21.476Z</time></trkpt><trkpt lat="42.3903415" lon="11.194424"><ele>55.0</ele><time>2026-04-25T13:05:22.482Z</time></trkpt><trkpt lat="42.390218" lon="11.1943567"><ele>57.0</ele><time>2026-04-25T13:05:23.476Z</time></trkpt><trkpt lat="42.3900754" lon="11.1943188"><ele>59.0</ele><time>2026-04-25T13:05:24.482Z</time></trkpt><trkpt lat="42.3899286" lon="11.1942811"><ele>59.0</ele><time>2026-04-25T13:05:25.471Z</time></trkpt><trkpt lat="42.3897851" lon="11.1942515"><ele>59.0</ele><time>2026-04-25T13:05:26.476Z</time></trkpt><trkpt lat="42.3896453" lon="11.1942239"><ele>59.0</ele><time>2026-04-25T13:05:27.483Z</time></trkpt><trkpt lat="42.3894974" lon="11.1941936"><ele>59.0</ele><time>2026-04-25T13:05:28.474Z</time></trkpt><trkpt lat="42.3893491" lon="11.1941598"><ele>61.66666666666667</ele><time>2026-04-25T13:05:29.474Z</time></trkpt><trkpt lat="42.3892002" lon="11.1941243"><ele>64.33333333333333</ele><time>2026-04-25T13:05:30.478Z</time></trkpt><trkpt lat="42.3890452" lon="11.194091"><ele>67.0</ele><time>2026-04-25T13:05:31.484Z</time></trkpt><trkpt lat="42.3889026" lon="11.194052"><ele>68.75</ele><time>2026-04-25T13:05:32.485Z</time></trkpt><trkpt lat="42.3887638" lon="11.1940202"><ele>70.5</ele><time>2026-04-25T13:05:33.482Z</time></trkpt><trkpt lat="42.3886302" lon="11.1939992"><ele>72.25</ele><time>2026-04-25T13:05:34.484Z</time></trkpt><trkpt lat="42.388499" lon="11.1939919"><ele>74.0</ele><time>2026-04-25T13:05:35.475Z</time></trkpt><trkpt lat="42.3883675" lon="11.1939898"><ele>76.75</ele><time>2026-04-25T13:05:36.475Z</time></trkpt><trkpt lat="42.3882404" lon="11.1939889"><ele>79.5</ele><time>2026-04-25T13:05:37.474Z</time></trkpt><trkpt lat="42.3881133" lon="11.1939852"><ele>82.25</ele><time>2026-04-25T13:05:38.48Z</time></trkpt><trkpt lat="42.3879904" lon="11.193981"><ele>85.0</ele><time>2026-04-25T13:05:39.481Z</time></trkpt><trkpt lat="42.3878696" lon="11.1939676"><ele>86.25</ele><time>2026-04-25T13:05:40.474Z</time></trkpt><trkpt lat="42.3877526" lon="11.1939238"><ele>87.5</ele><time>2026-04-25T13:05:41.474Z</time></trkpt><trkpt lat="42.3876373" lon="11.1938605"><ele>88.75</ele><time>2026-04-25T13:05:42.474Z</time></trkpt><trkpt lat="42.3875311" lon="11.1937704"><ele>90.0</ele><time>2026-04-25T13:05:43.48Z</time></trkpt><trkpt lat="42.3874329" lon="11.1936651"><ele>90.0</ele><time>2026-04-25T13:05:44.482Z</time></trkpt><trkpt lat="42.3873363" lon="11.1935573"><ele>90.0</ele><time>2026-04-25T13:05:45.474Z</time></trkpt><trkpt lat="42.3872415" lon="11.1934638"><ele>90.0</ele><time>2026-04-25T13:05:46.471Z</time></trkpt><trkpt lat="42.3871474" lon="11.1933806"><ele>90.0</ele><time>2026-04-25T13:05:47.479Z</time></trkpt><trkpt lat="42.3870607" lon="11.1933336"><ele>90.0</ele><time>2026-04-25T13:05:48.486Z</time></trkpt><trkpt lat="42.3869751" lon="11.193314"><ele>90.8</ele><time>2026-04-25T13:05:49.477Z</time></trkpt><trkpt lat="42.3868934" lon="11.1933542"><ele>91.6</ele><time>2026-04-25T13:05:50.481Z</time></trkpt><trkpt lat="42.3868116" lon="11.1934587"><ele>92.4</ele><time>2026-04-25T13:05:51.484Z</time></trkpt><trkpt lat="42.3867192" lon="11.1935468"><ele>93.2</ele><time>2026-04-25T13:05:52.476Z</time></trkpt><trkpt lat="42.386607" lon="11.1936022"><ele>94.0</ele><time>2026-04-25T13:05:53.474Z</time></trkpt><trkpt lat="42.3864763" lon="11.1936318"><ele>97.0</ele><time>2026-04-25T13:05:54.478Z</time></trkpt><trkpt lat="42.3863366" lon="11.1936527"><ele>100.0</ele><time>2026-04-25T13:05:55.474Z</time></trkpt><trkpt lat="42.3862001" lon="11.1936904"><ele>103.0</ele><time>2026-04-25T13:05:56.477Z</time></trkpt><trkpt lat="42.386048" lon="11.1937174"><ele>106.0</ele><time>2026-04-25T13:05:57.474Z</time></trkpt><trkpt lat="42.3858953" lon="11.1937378"><ele>106.0</ele><time>2026-04-25T13:05:58.475Z</time></trkpt><trkpt lat="42.3857431" lon="11.1937566"><ele>106.0</ele><time>2026-04-25T13:05:59.479Z</time></trkpt><trkpt lat="42.3855853" lon="11.1937464"><ele>106.0</ele><time>2026-04-25T13:06:00.478Z</time></trkpt><trkpt lat="42.3854265" lon="11.1937052"><ele>106.75</ele><time>2026-04-25T13:06:01.469Z</time></trkpt><trkpt lat="42.3852819" lon="11.1936587"><ele>107.5</ele><time>2026-04-25T13:06:02.475Z</time></trkpt><trkpt lat="42.3851468" lon="11.1936002"><ele>108.25</ele><time>2026-04-25T13:06:03.477Z</time></trkpt><trkpt lat="42.3850314" lon="11.1935505"><ele>109.0</ele><time>2026-04-25T13:06:04.481Z</time></trkpt><trkpt lat="42.384931" lon="11.1935138"><ele>109.00000000000001</ele><time>2026-04-25T13:06:05.469Z</time></trkpt><trkpt lat="42.3848423" lon="11.1934963"><ele>109.0</ele><time>2026-04-25T13:06:06.473Z</time></trkpt><trkpt lat="42.3847591" lon="11.1935128"><ele>109.0</ele><time>2026-04-25T13:06:07.475Z</time></trkpt><trkpt lat="42.3846892" lon="11.193557"><ele>109.0</ele><time>2026-04-25T13:06:08.466Z</time></trkpt><trkpt lat="42.3846279" lon="11.1936434"><ele>109.00000000000001</ele><time>2026-04-25T13:06:09.469Z</time></trkpt><trkpt lat="42.3845839" lon="11.1937686"><ele>109.0</ele><time>2026-04-25T13:06:10.475Z</time></trkpt><trkpt lat="42.3845659" lon="11.1939085"><ele>107.50000000000001</ele><time>2026-04-25T13:06:11.472Z</time></trkpt><trkpt lat="42.3845579" lon="11.1940381"><ele>106.0</ele><time>2026-04-25T13:06:12.477Z</time></trkpt><trkpt lat="42.384567" lon="11.1941532"><ele>104.5</ele><time>2026-04-25T13:06:13.475Z</time></trkpt><trkpt lat="42.3845807" lon="11.1942585"><ele>103.0</ele><time>2026-04-25T13:06:14.478Z</time></trkpt><trkpt lat="42.3845955" lon="11.1943977"><ele>101.50000000000001</ele><time>2026-04-25T13:06:16.466Z</time></trkpt><trkpt lat="42.3846508" lon="11.1944662"><ele>100.0</ele><time>2026-04-25T13:06:40.484Z</time></trkpt><trkpt lat="42.384675" lon="11.194365"><ele>100.0</ele><time>2026-04-25T13:06:43.476Z</time></trkpt><trkpt lat="42.3846386" lon="11.1941961"><ele>100.0</ele><time>2026-04-25T13:06:45.474Z</time></trkpt><trkpt lat="42.3846114" lon="11.1940864"><ele>100.0</ele><time>2026-04-25T13:06:46.481Z</time></trkpt><trkpt lat="42.3846061" lon="11.1939545"><ele>100.0</ele><time>2026-04-25T13:06:47.488Z</time></trkpt><trkpt lat="42.3846262" lon="11.1938188"><ele>100.0</ele><time>2026-04-25T13:06:48.486Z</time></trkpt><trkpt lat="42.3846609" lon="11.1936761"><ele>101.8</ele><time>2026-04-25T13:06:49.478Z</time></trkpt><trkpt lat="42.3847204" lon="11.1935755"><ele>103.6</ele><time>2026-04-25T13:06:50.485Z</time></trkpt><trkpt lat="42.384792" lon="11.1935097"><ele>105.4</ele><time>2026-04-25T13:06:51.476Z</time></trkpt><trkpt lat="42.3848869" lon="11.1934993"><ele>107.2</ele><time>2026-04-25T13:06:52.479Z</time></trkpt><trkpt lat="42.3850044" lon="11.1935341"><ele>109.0</ele><time>2026-04-25T13:06:53.476Z</time></trkpt><trkpt lat="42.3851355" lon="11.1935956"><ele>109.0</ele><time>2026-04-25T13:06:54.477Z</time></trkpt><trkpt lat="42.3852727" lon="11.1936534"><ele>109.0</ele><time>2026-04-25T13:06:55.473Z</time></trkpt><trkpt lat="42.3854132" lon="11.1937029"><ele>109.0</ele><time>2026-04-25T13:06:56.5Z</time></trkpt><trkpt lat="42.3855527" lon="11.193749"><ele>109.0</ele><time>2026-04-25T13:06:57.476Z</time></trkpt><trkpt lat="42.3856937" lon="11.1937753"><ele>108.0</ele><time>2026-04-25T13:06:58.482Z</time></trkpt><trkpt lat="42.3858411" lon="11.1937796"><ele>107.0</ele><time>2026-04-25T13:06:59.472Z</time></trkpt><trkpt lat="42.3859955" lon="11.1937642"><ele>106.0</ele><time>2026-04-25T13:07:00.479Z</time></trkpt><trkpt lat="42.3861615" lon="11.1937399"><ele>106.0</ele><time>2026-04-25T13:07:01.475Z</time></trkpt><trkpt lat="42.3863257" lon="11.1937034"><ele>106.0</ele><time>2026-04-25T13:07:02.48Z</time></trkpt><trkpt lat="42.386477" lon="11.1936739"><ele>106.0</ele><time>2026-04-25T13:07:03.477Z</time></trkpt><trkpt lat="42.3866146" lon="11.1936377"><ele>103.6</ele><time>2026-04-25T13:07:04.478Z</time></trkpt><trkpt lat="42.3867396" lon="11.193571"><ele>101.19999999999999</ele><time>2026-04-25T13:07:05.478Z</time></trkpt><trkpt lat="42.3868437" lon="11.1934807"><ele>98.80000000000001</ele><time>2026-04-25T13:07:06.476Z</time></trkpt><trkpt lat="42.3869351" lon="11.1934121"><ele>96.4</ele><time>2026-04-25T13:07:07.476Z</time></trkpt><trkpt lat="42.3870157" lon="11.1933814"><ele>94.0</ele><time>2026-04-25T13:07:08.481Z</time></trkpt><trkpt lat="42.3871006" lon="11.1933934"><ele>93.0</ele><time>2026-04-25T13:07:09.474Z</time></trkpt><trkpt lat="42.3871979" lon="11.1934517"><ele>92.0</ele><time>2026-04-25T13:07:10.469Z</time></trkpt><trkpt lat="42.3872862" lon="11.193531"><ele>91.0</ele><time>2026-04-25T13:07:11.479Z</time></trkpt><trkpt lat="42.3873861" lon="11.1936336"><ele>90.0</ele><time>2026-04-25T13:07:12.476Z</time></trkpt><trkpt lat="42.3874958" lon="11.193748"><ele>90.0</ele><time>2026-04-25T13:07:13.477Z</time></trkpt><trkpt lat="42.3875969" lon="11.1938496"><ele>90.0</ele><time>2026-04-25T13:07:14.477Z</time></trkpt><trkpt lat="42.3877049" lon="11.1939322"><ele>90.0</ele><time>2026-04-25T13:07:15.474Z</time></trkpt><trkpt lat="42.3878326" lon="11.1939755"><ele>90.0</ele><time>2026-04-25T13:07:16.476Z</time></trkpt><trkpt lat="42.3879828" lon="11.1939934"><ele>88.33333333333333</ele><time>2026-04-25T13:07:17.475Z</time></trkpt><trkpt lat="42.3881332" lon="11.1940024"><ele>86.66666666666666</ele><time>2026-04-25T13:07:18.478Z</time></trkpt><trkpt lat="42.3882916" lon="11.1940042"><ele>85.0</ele><time>2026-04-25T13:07:19.475Z</time></trkpt><trkpt lat="42.3884493" lon="11.1940158"><ele>81.33333333333333</ele><time>2026-04-25T13:07:20.474Z</time></trkpt><trkpt lat="42.3886104" lon="11.1940294"><ele>77.66666666666667</ele><time>2026-04-25T13:07:21.482Z</time></trkpt><trkpt lat="42.3887663" lon="11.1940407"><ele>74.0</ele><time>2026-04-25T13:07:22.479Z</time></trkpt><trkpt lat="42.3889213" lon="11.1940773"><ele>71.66666666666667</ele><time>2026-04-25T13:07:23.475Z</time></trkpt><trkpt lat="42.3890777" lon="11.1941114"><ele>69.33333333333333</ele><time>2026-04-25T13:07:24.484Z</time></trkpt><trkpt lat="42.3892323" lon="11.1941505"><ele>67.0</ele><time>2026-04-25T13:07:25.488Z</time></trkpt><trkpt lat="42.3893804" lon="11.1941903"><ele>67.0</ele><time>2026-04-25T13:07:26.474Z</time></trkpt><trkpt lat="42.3895279" lon="11.194211"><ele>67.0</ele><time>2026-04-25T13:07:27.475Z</time></trkpt><trkpt lat="42.3896762" lon="11.1942353"><ele>67.0</ele><time>2026-04-25T13:07:28.484Z</time></trkpt><trkpt lat="42.3898194" lon="11.194265"><ele>67.0</ele><time>2026-04-25T13:07:29.479Z</time></trkpt><trkpt lat="42.3899655" lon="11.1942978"><ele>65.0</ele><time>2026-04-25T13:07:30.473Z</time></trkpt><trkpt lat="42.3901064" lon="11.1943288"><ele>63.0</ele><time>2026-04-25T13:07:31.482Z</time></trkpt><trkpt lat="42.3902441" lon="11.1943812"><ele>61.0</ele><time>2026-04-25T13:07:32.488Z</time></trkpt><trkpt lat="42.390378" lon="11.1944753"><ele>59.0</ele><time>2026-04-25T13:07:33.475Z</time></trkpt><trkpt lat="42.3905095" lon="11.1946074"><ele>56.333333333333336</ele><time>2026-04-25T13:07:34.483Z</time></trkpt><trkpt lat="42.3906288" lon="11.1947815"><ele>53.66666666666667</ele><time>2026-04-25T13:07:35.472Z</time></trkpt><trkpt lat="42.3907494" lon="11.1949611"><ele>51.0</ele><time>2026-04-25T13:07:36.48Z</time></trkpt><trkpt lat="42.3908647" lon="11.1951172"><ele>51.0</ele><time>2026-04-25T13:07:37.474Z</time></trkpt><trkpt lat="42.3909769" lon="11.1952678"><ele>51.0</ele><time>2026-04-25T13:07:38.475Z</time></trkpt><trkpt lat="42.3910897" lon="11.1954156"><ele>51.0</ele><time>2026-04-25T13:07:39.474Z</time></trkpt><trkpt lat="42.3912004" lon="11.1955616"><ele>51.25</ele><time>2026-04-25T13:07:40.482Z</time></trkpt><trkpt lat="42.3913139" lon="11.1956946"><ele>51.5</ele><time>2026-04-25T13:07:41.473Z</time></trkpt><trkpt lat="42.3914257" lon="11.195813"><ele>51.75</ele><time>2026-04-25T13:07:42.486Z</time></trkpt><trkpt lat="42.3915476" lon="11.1959073"><ele>52.0</ele><time>2026-04-25T13:07:43.481Z</time></trkpt><trkpt lat="42.3916881" lon="11.195992"><ele>49.666666666666664</ele><time>2026-04-25T13:07:44.484Z</time></trkpt><trkpt lat="42.3918379" lon="11.1960641"><ele>47.33333333333333</ele><time>2026-04-25T13:07:45.481Z</time></trkpt><trkpt lat="42.391987" lon="11.1961262"><ele>45.0</ele><time>2026-04-25T13:07:46.479Z</time></trkpt><trkpt lat="42.3921414" lon="11.1961863"><ele>43.75</ele><time>2026-04-25T13:07:47.485Z</time></trkpt><trkpt lat="42.3922891" lon="11.1962389"><ele>42.5</ele><time>2026-04-25T13:07:48.474Z</time></trkpt><trkpt lat="42.3924296" lon="11.1962935"><ele>41.25</ele><time>2026-04-25T13:07:49.481Z</time></trkpt><trkpt lat="42.3925666" lon="11.1963577"><ele>40.0</ele><time>2026-04-25T13:07:50.491Z</time></trkpt><trkpt lat="42.3926962" lon="11.1964277"><ele>39.25</ele><time>2026-04-25T13:07:51.484Z</time></trkpt><trkpt lat="42.3928251" lon="11.1965154"><ele>38.5</ele><time>2026-04-25T13:07:52.482Z</time></trkpt><trkpt lat="42.3929481" lon="11.1966146"><ele>37.75</ele><time>2026-04-25T13:07:53.478Z</time></trkpt><trkpt lat="42.3930603" lon="11.1967219"><ele>37.0</ele><time>2026-04-25T13:07:54.485Z</time></trkpt><trkpt lat="42.3931726" lon="11.1968459"><ele>37.0</ele><time>2026-04-25T13:07:55.476Z</time></trkpt><trkpt lat="42.3932748" lon="11.1970021"><ele>37.0</ele><time>2026-04-25T13:07:56.48Z</time></trkpt><trkpt lat="42.3933811" lon="11.1971546"><ele>37.0</ele><time>2026-04-25T13:07:57.485Z</time></trkpt><trkpt lat="42.393492" lon="11.1973224"><ele>39.333333333333336</ele><time>2026-04-25T13:07:58.485Z</time></trkpt><trkpt lat="42.3936089" lon="11.1974939"><ele>41.666666666666664</ele><time>2026-04-25T13:07:59.478Z</time></trkpt><trkpt lat="42.3937125" lon="11.1976583"><ele>44.0</ele><time>2026-04-25T13:08:00.487Z</time></trkpt><trkpt lat="42.3938162" lon="11.1978063"><ele>39.33333333333333</ele><time>2026-04-25T13:08:01.477Z</time></trkpt><trkpt lat="42.3939215" lon="11.1979255"><ele>34.666666666666664</ele><time>2026-04-25T13:08:02.469Z</time></trkpt><trkpt lat="42.3940585" lon="11.1980198"><ele>30.0</ele><time>2026-04-25T13:08:03.47Z</time></trkpt><trkpt lat="42.3942149" lon="11.1981039"><ele>32.0</ele><time>2026-04-25T13:08:04.48Z</time></trkpt><trkpt lat="42.3943755" lon="11.1981707"><ele>34.0</ele><time>2026-04-25T13:08:05.479Z</time></trkpt><trkpt lat="42.3945439" lon="11.1982127"><ele>36.0</ele><time>2026-04-25T13:08:06.472Z</time></trkpt><trkpt lat="42.3946957" lon="11.1982185"><ele>36.0</ele><time>2026-04-25T13:08:07.478Z</time></trkpt><trkpt lat="42.3948369" lon="11.198218"><ele>36.0</ele><time>2026-04-25T13:08:08.48Z</time></trkpt><trkpt lat="42.3949658" lon="11.1982407"><ele>36.0</ele><time>2026-04-25T13:08:09.481Z</time></trkpt><trkpt lat="42.3950946" lon="11.1982971"><ele>36.0</ele><time>2026-04-25T13:08:10.477Z</time></trkpt><trkpt lat="42.3952218" lon="11.1983815"><ele>36.0</ele><time>2026-04-25T13:08:11.478Z</time></trkpt><trkpt lat="42.395346" lon="11.1984872"><ele>36.0</ele><time>2026-04-25T13:08:12.475Z</time></trkpt><trkpt lat="42.3954527" lon="11.1986149"><ele>36.0</ele><time>2026-04-25T13:08:13.482Z</time></trkpt><trkpt lat="42.395539" lon="11.1987983"><ele>34.0</ele><time>2026-04-25T13:08:14.485Z</time></trkpt><trkpt lat="42.3956163" lon="11.1989903"><ele>32.0</ele><time>2026-04-25T13:08:15.476Z</time></trkpt><trkpt lat="42.3956725" lon="11.199189"><ele>30.0</ele><time>2026-04-25T13:08:16.481Z</time></trkpt><trkpt lat="42.3957195" lon="11.199353"><ele>28.0</ele><time>2026-04-25T13:08:17.483Z</time></trkpt><trkpt lat="42.3957771" lon="11.1994804"><ele>28.0</ele><time>2026-04-25T13:08:18.477Z</time></trkpt><trkpt lat="42.3958686" lon="11.1995937"><ele>28.0</ele><time>2026-04-25T13:08:19.477Z</time></trkpt><trkpt lat="42.3959735" lon="11.1997082"><ele>28.0</ele><time>2026-04-25T13:08:20.479Z</time></trkpt><trkpt lat="42.3960767" lon="11.1998351"><ele>28.0</ele><time>2026-04-25T13:08:21.47Z</time></trkpt><trkpt lat="42.3961672" lon="11.1999512"><ele>29.0</ele><time>2026-04-25T13:08:22.473Z</time></trkpt><trkpt lat="42.3962453" lon="11.2000543"><ele>29.999999999999996</ele><time>2026-04-25T13:08:23.479Z</time></trkpt><trkpt lat="42.3963255" lon="11.2001481"><ele>30.999999999999996</ele><time>2026-04-25T13:08:24.475Z</time></trkpt><trkpt lat="42.3963925" lon="11.2002402"><ele>32.0</ele><time>2026-04-25T13:08:25.476Z</time></trkpt><trkpt lat="42.3964446" lon="11.2003346"><ele>33.0</ele><time>2026-04-25T13:08:26.47Z</time></trkpt><trkpt lat="42.3964732" lon="11.2004218"><ele>29.5</ele><time>2026-04-25T13:08:27.481Z</time></trkpt><trkpt lat="42.3965388" lon="11.2005189"><ele>26.0</ele><time>2026-04-25T13:08:29.476Z</time></trkpt><trkpt lat="42.3966836" lon="11.2005175"><ele>22.5</ele><time>2026-04-25T13:08:31.486Z</time></trkpt><trkpt lat="42.3967824" lon="11.2004811"><ele>19.0</ele><time>2026-04-25T13:08:32.479Z</time></trkpt><trkpt lat="42.3968922" lon="11.2004292"><ele>19.0</ele><time>2026-04-25T13:08:33.472Z</time></trkpt><trkpt lat="42.397028" lon="11.2003796"><ele>19.0</ele><time>2026-04-25T13:08:34.477Z</time></trkpt><trkpt lat="42.3971678" lon="11.2003412"><ele>19.0</ele><time>2026-04-25T13:08:35.476Z</time></trkpt><trkpt lat="42.3973122" lon="11.2003035"><ele>19.0</ele><time>2026-04-25T13:08:36.477Z</time></trkpt><trkpt lat="42.3974554" lon="11.2002568"><ele>18.0</ele><time>2026-04-25T13:08:37.481Z</time></trkpt><trkpt lat="42.3975871" lon="11.2002197"><ele>17.0</ele><time>2026-04-25T13:08:38.477Z</time></trkpt><trkpt lat="42.3977034" lon="11.2001795"><ele>16.0</ele><time>2026-04-25T13:08:39.482Z</time></trkpt><trkpt lat="42.3978082" lon="11.2001459"><ele>15.0</ele><time>2026-04-25T13:08:40.48Z</time></trkpt><trkpt lat="42.397905" lon="11.2001064"><ele>15.0</ele><time>2026-04-25T13:08:41.481Z</time></trkpt><trkpt lat="42.3979838" lon="11.2000772"><ele>15.0</ele><time>2026-04-25T13:08:42.474Z</time></trkpt><trkpt lat="42.3980623" lon="11.2000591"><ele>15.0</ele><time>2026-04-25T13:08:44.483Z</time></trkpt><trkpt lat="42.3981614" lon="11.2000195"><ele>15.0</ele><time>2026-04-25T13:10:38.478Z</time></trkpt><trkpt lat="42.3982909" lon="11.1999706"><ele>15.0</ele><time>2026-04-25T13:10:40.471Z</time></trkpt><trkpt lat="42.3983732" lon="11.1999294"><ele>15.0</ele><time>2026-04-25T13:10:41.472Z</time></trkpt><trkpt lat="42.3984634" lon="11.1998768"><ele>15.0</ele><time>2026-04-25T13:10:42.47Z</time></trkpt><trkpt lat="42.398542" lon="11.1998362"><ele>15.0</ele><time>2026-04-25T13:10:43.481Z</time></trkpt><trkpt lat="42.3986142" lon="11.1998197"><ele>15.0</ele><time>2026-04-25T13:10:44.48Z</time></trkpt><trkpt lat="42.398687" lon="11.1998103"><ele>15.0</ele><time>2026-04-25T13:10:45.484Z</time></trkpt><trkpt lat="42.3987619" lon="11.1997828"><ele>15.0</ele><time>2026-04-25T13:10:46.476Z</time></trkpt><trkpt lat="42.3988381" lon="11.1997626"><ele>15.166666666666666</ele><time>2026-04-25T13:10:47.475Z</time></trkpt><trkpt lat="42.3989141" lon="11.1997325"><ele>15.333333333333332</ele><time>2026-04-25T13:10:48.48Z</time></trkpt><trkpt lat="42.3989943" lon="11.1997076"><ele>15.5</ele><time>2026-04-25T13:10:49.477Z</time></trkpt><trkpt lat="42.3990746" lon="11.19969"><ele>15.666666666666666</ele><time>2026-04-25T13:10:50.488Z</time></trkpt><trkpt lat="42.3991609" lon="11.199658"><ele>15.833333333333332</ele><time>2026-04-25T13:10:51.482Z</time></trkpt><trkpt lat="42.3992359" lon="11.199621"><ele>16.0</ele><time>2026-04-25T13:10:52.482Z</time></trkpt><trkpt lat="42.3992954" lon="11.1995576"><ele>15.999999999999998</ele><time>2026-04-25T13:10:53.484Z</time></trkpt><trkpt lat="42.3993472" lon="11.1994805"><ele>16.0</ele><time>2026-04-25T13:10:54.48Z</time></trkpt><trkpt lat="42.3993904" lon="11.1993795"><ele>16.0</ele><time>2026-04-25T13:10:55.484Z</time></trkpt><trkpt lat="42.3994495" lon="11.1992778"><ele>16.0</ele><time>2026-04-25T13:10:56.482Z</time></trkpt><trkpt lat="42.3995271" lon="11.1992048"><ele>15.999999999999998</ele><time>2026-04-25T13:10:57.479Z</time></trkpt><trkpt lat="42.3996047" lon="11.1991291"><ele>16.0</ele><time>2026-04-25T13:10:58.479Z</time></trkpt><trkpt lat="42.3996734" lon="11.1990526"><ele>15.8</ele><time>2026-04-25T13:10:59.483Z</time></trkpt><trkpt lat="42.3997344" lon="11.1989553"><ele>15.600000000000001</ele><time>2026-04-25T13:11:00.486Z</time></trkpt><trkpt lat="42.3997909" lon="11.1988515"><ele>15.4</ele><time>2026-04-25T13:11:01.483Z</time></trkpt><trkpt lat="42.3998509" lon="11.1987653"><ele>15.2</ele><time>2026-04-25T13:11:02.474Z</time></trkpt><trkpt lat="42.3999131" lon="11.1987107"><ele>15.0</ele><time>2026-04-25T13:11:03.48Z</time></trkpt><trkpt lat="42.4175731" lon="11.2039439"><ele>1.0</ele><time>2026-04-25T13:13:22.529Z</time></trkpt><trkpt lat="42.4254876" lon="11.1978093"><ele>1.0</ele><time>2026-04-25T13:14:35.613Z</time></trkpt><trkpt lat="42.4264984" lon="11.1969451"><ele>-2.0</ele><time>2026-04-25T13:14:44.229Z</time></trkpt><trkpt lat="42.4282547" lon="11.1968296"><ele>4.0</ele><time>2026-04-25T13:14:52.884Z</time></trkpt><trkpt lat="42.4282411" lon="11.1807464"><ele>0.0</ele><time>2026-04-25T13:15:53.586Z</time></trkpt><trkpt lat="42.4298803" lon="11.1657515"><ele>2.0</ele><time>2026-04-25T13:16:50.744Z</time></trkpt><trkpt lat="42.4312139" lon="11.1610508"><ele>1.0</ele><time>2026-04-25T13:17:56.649Z</time></trkpt><trkpt lat="42.4334488" lon="11.1584511"><ele>14.0</ele><time>2026-04-25T13:18:05.235Z</time></trkpt><trkpt lat="42.4344648" lon="11.1444138"><ele>14.0</ele><time>2026-04-25T13:19:00.998Z</time></trkpt><trkpt lat="42.4344967" lon="11.1443108"><ele>14.0</ele><time>2026-04-25T13:19:11.769Z</time></trkpt><trkpt lat="42.4334289" lon="11.1453408"><ele>0.0</ele><time>2026-04-25T13:19:33.962Z</time></trkpt><trkpt lat="42.4338461" lon="11.1422256"><ele>11.0</ele><time>2026-04-25T13:21:34.379Z</time></trkpt><trkpt lat="42.4321259" lon="11.1397958"><ele>16.0</ele><time>2026-04-25T13:25:59.949Z</time></trkpt><trkpt lat="42.4309591" lon="11.138933"><ele>30.0</ele><time>2026-04-25T13:27:08.236Z</time></trkpt><trkpt lat="42.4306583" lon="11.1377647"><ele>17.0</ele><time>2026-04-25T13:27:18.091Z</time></trkpt><trkpt lat="42.4299167" lon="11.1382915"><ele>19.0</ele><time>2026-04-25T13:27:27.001Z</time></trkpt><trkpt lat="42.429587" lon="11.1384787"><ele>21.0</ele><time>2026-04-25T13:27:37.904Z</time></trkpt><trkpt lat="42.4258933" lon="11.134447"><ele>30.0</ele><time>2026-04-25T13:28:22.266Z</time></trkpt><trkpt lat="42.430625" lon="11.1380434"><ele>126.0</ele><time>2026-04-25T13:29:16.696Z</time></trkpt><trkpt lat="42.4220474" lon="11.1283645"><ele>126.0</ele><time>2026-04-25T13:29:49.81Z</time></trkpt><trkpt lat="42.4221003" lon="11.1284215"><ele>126.0</ele><time>2026-04-25T13:30:19.816Z</time></trkpt><trkpt lat="42.4221909" lon="11.1284413"><ele>126.0</ele><time>2026-04-25T13:30:21.811Z</time></trkpt><trkpt lat="42.4222755" lon="11.1284975"><ele>126.0</ele><time>2026-04-25T13:30:22.829Z</time></trkpt><trkpt lat="42.4223432" lon="11.1285622"><ele>126.0</ele><time>2026-04-25T13:30:23.83Z</time></trkpt><trkpt lat="42.4224088" lon="11.1286448"><ele>126.0</ele><time>2026-04-25T13:30:24.808Z</time></trkpt><trkpt lat="42.4224711" lon="11.128754"><ele>123.8</ele><time>2026-04-25T13:30:25.809Z</time></trkpt><trkpt lat="42.4225305" lon="11.128859"><ele>121.6</ele><time>2026-04-25T13:30:26.839Z</time></trkpt><trkpt lat="42.422591" lon="11.1289393"><ele>119.4</ele><time>2026-04-25T13:30:27.809Z</time></trkpt><trkpt lat="42.4226657" lon="11.1290129"><ele>117.2</ele><time>2026-04-25T13:30:28.818Z</time></trkpt><trkpt lat="42.4227657" lon="11.1290954"><ele>115.0</ele><time>2026-04-25T13:30:29.823Z</time></trkpt><trkpt lat="42.4228664" lon="11.1291781"><ele>115.0</ele><time>2026-04-25T13:30:30.818Z</time></trkpt><trkpt lat="42.4229633" lon="11.129229"><ele>115.0</ele><time>2026-04-25T13:30:31.826Z</time></trkpt><trkpt lat="42.4230731" lon="11.1292495"><ele>115.0</ele><time>2026-04-25T13:30:32.823Z</time></trkpt><trkpt lat="42.4231865" lon="11.1292581"><ele>115.0</ele><time>2026-04-25T13:30:33.819Z</time></trkpt><trkpt lat="42.4232891" lon="11.1292568"><ele>115.0</ele><time>2026-04-25T13:30:34.821Z</time></trkpt><trkpt lat="42.4233827" lon="11.1292383"><ele>117.16666666666667</ele><time>2026-04-25T13:30:35.822Z</time></trkpt><trkpt lat="42.4234686" lon="11.1292203"><ele>119.33333333333334</ele><time>2026-04-25T13:30:36.824Z</time></trkpt><trkpt lat="42.4235348" lon="11.1291874"><ele>121.5</ele><time>2026-04-25T13:30:37.813Z</time></trkpt><trkpt lat="42.4236017" lon="11.1291397"><ele>123.66666666666666</ele><time>2026-04-25T13:30:38.84Z</time></trkpt><trkpt lat="42.4236749" lon="11.1290672"><ele>125.83333333333333</ele><time>2026-04-25T13:30:39.826Z</time></trkpt><trkpt lat="42.4237491" lon="11.1289873"><ele>128.0</ele><time>2026-04-25T13:30:40.808Z</time></trkpt><trkpt lat="42.4238328" lon="11.1289128"><ele>134.0</ele><time>2026-04-25T13:30:41.808Z</time></trkpt><trkpt lat="42.4239137" lon="11.1288595"><ele>140.0</ele><time>2026-04-25T13:30:42.815Z</time></trkpt><trkpt lat="42.4239863" lon="11.1288289"><ele>146.0</ele><time>2026-04-25T13:30:43.828Z</time></trkpt><trkpt lat="42.4240875" lon="11.1287922"><ele>152.0</ele><time>2026-04-25T13:30:44.821Z</time></trkpt><trkpt lat="42.4241941" lon="11.1287819"><ele>158.0</ele><time>2026-04-25T13:30:45.824Z</time></trkpt><trkpt lat="42.4242849" lon="11.1287791"><ele>158.0</ele><time>2026-04-25T13:30:46.82Z</time></trkpt><trkpt lat="42.4243595" lon="11.1287913"><ele>158.0</ele><time>2026-04-25T13:30:47.845Z</time></trkpt><trkpt lat="42.4244385" lon="11.1288077"><ele>158.0</ele><time>2026-04-25T13:30:48.823Z</time></trkpt><trkpt lat="42.4245377" lon="11.1288549"><ele>158.0</ele><time>2026-04-25T13:30:49.816Z</time></trkpt><trkpt lat="42.424654" lon="11.1289149"><ele>158.0</ele><time>2026-04-25T13:30:50.829Z</time></trkpt><trkpt lat="42.4247576" lon="11.1289778"><ele>160.0</ele><time>2026-04-25T13:30:51.814Z</time></trkpt><trkpt lat="42.4248444" lon="11.129028"><ele>162.0</ele><time>2026-04-25T13:30:52.819Z</time></trkpt><trkpt lat="42.4249216" lon="11.1290625"><ele>164.0</ele><time>2026-04-25T13:30:53.813Z</time></trkpt><trkpt lat="42.4249992" lon="11.1290698"><ele>166.0</ele><time>2026-04-25T13:30:54.813Z</time></trkpt><trkpt lat="42.425079" lon="11.1290566"><ele>168.0</ele><time>2026-04-25T13:30:55.816Z</time></trkpt><trkpt lat="42.4251673" lon="11.1290475"><ele>170.0</ele><time>2026-04-25T13:30:56.816Z</time></trkpt><trkpt lat="42.4252577" lon="11.1290309"><ele>170.0</ele><time>2026-04-25T13:30:57.823Z</time></trkpt><trkpt lat="42.425364" lon="11.1289931"><ele>170.0</ele><time>2026-04-25T13:30:58.815Z</time></trkpt><trkpt lat="42.4254808" lon="11.1289453"><ele>170.0</ele><time>2026-04-25T13:30:59.813Z</time></trkpt><trkpt lat="42.4255771" lon="11.128906"><ele>170.0</ele><time>2026-04-25T13:31:00.816Z</time></trkpt><trkpt lat="42.4256566" lon="11.1288688"><ele>170.0</ele><time>2026-04-25T13:31:01.817Z</time></trkpt><trkpt lat="42.4257458" lon="11.12884"><ele>169.2</ele><time>2026-04-25T13:31:02.835Z</time></trkpt><trkpt lat="42.4258382" lon="11.1288302"><ele>168.4</ele><time>2026-04-25T13:31:03.816Z</time></trkpt><trkpt lat="42.4259354" lon="11.1288306"><ele>167.60000000000002</ele><time>2026-04-25T13:31:04.816Z</time></trkpt><trkpt lat="42.4260262" lon="11.128844"><ele>166.8</ele><time>2026-04-25T13:31:05.814Z</time></trkpt><trkpt lat="42.4261175" lon="11.1288582"><ele>166.0</ele><time>2026-04-25T13:31:06.814Z</time></trkpt><trkpt lat="42.4262155" lon="11.1288991"><ele>166.0</ele><time>2026-04-25T13:31:07.816Z</time></trkpt><trkpt lat="42.4263065" lon="11.1289548"><ele>166.0</ele><time>2026-04-25T13:31:08.82Z</time></trkpt><trkpt lat="42.4263852" lon="11.1290137"><ele>166.0</ele><time>2026-04-25T13:31:09.821Z</time></trkpt><trkpt lat="42.4264533" lon="11.1290756"><ele>166.0</ele><time>2026-04-25T13:31:10.814Z</time></trkpt><trkpt lat="42.4265435" lon="11.1291567"><ele>166.0</ele><time>2026-04-25T13:31:12.817Z</time></trkpt><trkpt lat="42.4265712" lon="11.1292343"><ele>166.0</ele><time>2026-04-25T13:31:14.811Z</time></trkpt><trkpt lat="42.4265735" lon="11.1293792"><ele>164.0</ele><time>2026-04-25T13:31:17.827Z</time></trkpt><trkpt lat="42.4265777" lon="11.1294726"><ele>162.0</ele><time>2026-04-25T13:31:18.821Z</time></trkpt><trkpt lat="42.4265799" lon="11.1295924"><ele>160.0</ele><time>2026-04-25T13:31:19.821Z</time></trkpt><trkpt lat="42.426579" lon="11.1297684"><ele>158.0</ele><time>2026-04-25T13:31:20.816Z</time></trkpt><trkpt lat="42.4265829" lon="11.129934"><ele>156.0</ele><time>2026-04-25T13:31:21.818Z</time></trkpt><trkpt lat="42.4265978" lon="11.1300576"><ele>156.0</ele><time>2026-04-25T13:31:22.82Z</time></trkpt><trkpt lat="42.4266098" lon="11.1301629"><ele>156.0</ele><time>2026-04-25T13:31:23.823Z</time></trkpt><trkpt lat="42.4266418" lon="11.1302645"><ele>156.0</ele><time>2026-04-25T13:31:24.826Z</time></trkpt><trkpt lat="42.4267013" lon="11.1303535"><ele>156.0</ele><time>2026-04-25T13:31:25.824Z</time></trkpt><trkpt lat="42.4267981" lon="11.1304406"><ele>156.0</ele><time>2026-04-25T13:31:26.825Z</time></trkpt><trkpt lat="42.4269163" lon="11.1305361"><ele>156.0</ele><time>2026-04-25T13:31:27.823Z</time></trkpt><trkpt lat="42.4270219" lon="11.1306176"><ele>156.0</ele><time>2026-04-25T13:31:28.827Z</time></trkpt><trkpt lat="42.4271229" lon="11.1306707"><ele>156.0</ele><time>2026-04-25T13:31:29.838Z</time></trkpt><trkpt lat="42.4272441" lon="11.130731"><ele>156.0</ele><time>2026-04-25T13:31:30.819Z</time></trkpt><trkpt lat="42.4273926" lon="11.1307813"><ele>159.66666666666666</ele><time>2026-04-25T13:31:31.82Z</time></trkpt><trkpt lat="42.4275608" lon="11.1308329"><ele>163.33333333333331</ele><time>2026-04-25T13:31:32.816Z</time></trkpt><trkpt lat="42.4277248" lon="11.1308884"><ele>167.0</ele><time>2026-04-25T13:31:33.824Z</time></trkpt><trkpt lat="42.4278855" lon="11.1309526"><ele>167.6</ele><time>2026-04-25T13:31:34.819Z</time></trkpt><trkpt lat="42.4280221" lon="11.1309992"><ele>168.2</ele><time>2026-04-25T13:31:35.818Z</time></trkpt><trkpt lat="42.4281209" lon="11.1310334"><ele>168.8</ele><time>2026-04-25T13:31:36.811Z</time></trkpt><trkpt lat="42.4282065" lon="11.1310569"><ele>169.4</ele><time>2026-04-25T13:31:37.816Z</time></trkpt><trkpt lat="42.4282964" lon="11.131056"><ele>170.0</ele><time>2026-04-25T13:31:38.827Z</time></trkpt><trkpt lat="42.4283965" lon="11.1310378"><ele>170.0</ele><time>2026-04-25T13:31:39.825Z</time></trkpt><trkpt lat="42.4284847" lon="11.1310253"><ele>170.0</ele><time>2026-04-25T13:31:40.824Z</time></trkpt><trkpt lat="42.4285554" lon="11.1310463"><ele>170.0</ele><time>2026-04-25T13:31:41.842Z</time></trkpt><trkpt lat="42.4286287" lon="11.1310878"><ele>170.0</ele><time>2026-04-25T13:31:42.818Z</time></trkpt><trkpt lat="42.4286966" lon="11.131151"><ele>170.0</ele><time>2026-04-25T13:31:43.823Z</time></trkpt><trkpt lat="42.4287588" lon="11.1312299"><ele>170.0</ele><time>2026-04-25T13:31:44.818Z</time></trkpt><trkpt lat="42.4288263" lon="11.1313093"><ele>169.6</ele><time>2026-04-25T13:31:45.827Z</time></trkpt><trkpt lat="42.4288914" lon="11.1313946"><ele>169.2</ele><time>2026-04-25T13:31:46.824Z</time></trkpt><trkpt lat="42.4289576" lon="11.1314791"><ele>168.8</ele><time>2026-04-25T13:31:47.822Z</time></trkpt><trkpt lat="42.4290242" lon="11.1315596"><ele>168.4</ele><time>2026-04-25T13:31:48.817Z</time></trkpt><trkpt lat="42.4290948" lon="11.1316417"><ele>168.0</ele><time>2026-04-25T13:31:49.828Z</time></trkpt><trkpt lat="42.429172" lon="11.1317237"><ele>170.0</ele><time>2026-04-25T13:31:50.824Z</time></trkpt><trkpt lat="42.4292506" lon="11.1318121"><ele>172.0</ele><time>2026-04-25T13:31:51.815Z</time></trkpt><trkpt lat="42.4293257" lon="11.1319071"><ele>174.0</ele><time>2026-04-25T13:31:52.823Z</time></trkpt><trkpt lat="42.4294218" lon="11.132024"><ele>176.0</ele><time>2026-04-25T13:31:53.825Z</time></trkpt><trkpt lat="42.4295252" lon="11.1321463"><ele>176.0</ele><time>2026-04-25T13:31:54.828Z</time></trkpt><trkpt lat="42.4296155" lon="11.1322514"><ele>176.0</ele><time>2026-04-25T13:31:55.83Z</time></trkpt><trkpt lat="42.4296931" lon="11.1323493"><ele>176.0</ele><time>2026-04-25T13:31:56.818Z</time></trkpt><trkpt lat="42.4297645" lon="11.1324359"><ele>176.0</ele><time>2026-04-25T13:31:57.82Z</time></trkpt><trkpt lat="42.4298191" lon="11.1325132"><ele>176.0</ele><time>2026-04-25T13:31:58.826Z</time></trkpt><trkpt lat="42.429869" lon="11.13257"><ele>182.0</ele><time>2026-04-25T13:31:59.823Z</time></trkpt><trkpt lat="42.429942" lon="11.132654"><ele>182.0</ele><time>2026-04-25T13:32:01.827Z</time></trkpt><trkpt lat="42.4300585" lon="11.1327047"><ele>182.0</ele><time>2026-04-25T13:40:57.817Z</time></trkpt></trkseg><trkseg><trkpt lat="42.4304783" lon="11.1328115"><ele>180.0</ele><time>2026-04-25T14:04:20.049Z</time></trkpt><trkpt lat="42.4304918" lon="11.1326843"><ele>180.0</ele><time>2026-04-25T14:04:23.05Z</time></trkpt><trkpt lat="42.4304936" lon="11.1325836"><ele>180.0</ele><time>2026-04-25T14:04:25.052Z</time></trkpt><trkpt lat="42.4304938" lon="11.1324763"><ele>180.0</ele><time>2026-04-25T14:04:27.051Z</time></trkpt><trkpt lat="42.4304305" lon="11.1324465"><ele>180.0</ele><time>2026-04-25T14:04:31.052Z</time></trkpt><trkpt lat="42.4304391" lon="11.1325654"><ele>180.0</ele><time>2026-04-25T14:04:34.045Z</time></trkpt><trkpt lat="42.4304426" lon="11.1326621"><ele>180.33333333333334</ele><time>2026-04-25T14:04:36.025Z</time></trkpt><trkpt lat="42.4304387" lon="11.1327721"><ele>180.66666666666666</ele><time>2026-04-25T14:04:38.05Z</time></trkpt><trkpt lat="42.4304079" lon="11.1328569"><ele>181.0</ele><time>2026-04-25T14:04:41.042Z</time></trkpt><trkpt lat="42.430459" lon="11.1327712"><ele>181.33333333333331</ele><time>2026-04-25T14:04:45.043Z</time></trkpt><trkpt lat="42.4303914" lon="11.1327598"><ele>181.66666666666666</ele><time>2026-04-25T14:04:52.047Z</time></trkpt><trkpt lat="42.43032" lon="11.1327228"><ele>182.0</ele><time>2026-04-25T14:07:37.045Z</time></trkpt><trkpt lat="42.4302004" lon="11.132728"><ele>182.0</ele><time>2026-04-25T14:08:05.042Z</time></trkpt><trkpt lat="42.430128" lon="11.1327484"><ele>182.0</ele><time>2026-04-25T14:08:07.95Z</time></trkpt><trkpt lat="42.4300673" lon="11.1327161"><ele>182.0</ele><time>2026-04-25T14:08:13.044Z</time></trkpt><trkpt lat="42.4300053" lon="11.1327"><ele>182.0</ele><time>2026-04-25T14:08:19.051Z</time></trkpt><trkpt lat="42.4299271" lon="11.1326527"><ele>182.0</ele><time>2026-04-25T14:08:25.05Z</time></trkpt><trkpt lat="42.4298804" lon="11.1325944"><ele>182.0</ele><time>2026-04-25T14:08:26.051Z</time></trkpt><trkpt lat="42.4298247" lon="11.1325105"><ele>182.0</ele><time>2026-04-25T14:08:27.052Z</time></trkpt><trkpt lat="42.4297654" lon="11.1324445"><ele>181.0</ele><time>2026-04-25T14:08:28.045Z</time></trkpt><trkpt lat="42.4297095" lon="11.1323819"><ele>180.0</ele><time>2026-04-25T14:08:29.05Z</time></trkpt><trkpt lat="42.4296573" lon="11.1323285"><ele>179.0</ele><time>2026-04-25T14:08:30.046Z</time></trkpt><trkpt lat="42.4295883" lon="11.1322469"><ele>178.0</ele><time>2026-04-25T14:08:32.053Z</time></trkpt><trkpt lat="42.429535" lon="11.1321858"><ele>177.0</ele><time>2026-04-25T14:08:34.047Z</time></trkpt><trkpt lat="42.4294581" lon="11.1321029"><ele>176.0</ele><time>2026-04-25T14:08:36.051Z</time></trkpt><trkpt lat="42.4293861" lon="11.1320162"><ele>176.0</ele><time>2026-04-25T14:08:38.05Z</time></trkpt><trkpt lat="42.4293234" lon="11.1319202"><ele>176.0</ele><time>2026-04-25T14:08:40.046Z</time></trkpt><trkpt lat="42.4292462" lon="11.1318234"><ele>176.0</ele><time>2026-04-25T14:08:42.062Z</time></trkpt><trkpt lat="42.4291571" lon="11.1317299"><ele>176.0</ele><time>2026-04-25T14:08:44.05Z</time></trkpt><trkpt lat="42.4290696" lon="11.1316219"><ele>176.0</ele><time>2026-04-25T14:08:46.059Z</time></trkpt><trkpt lat="42.428985" lon="11.1315216"><ele>174.8</ele><time>2026-04-25T14:08:48.051Z</time></trkpt><trkpt lat="42.4289023" lon="11.1314216"><ele>173.60000000000002</ele><time>2026-04-25T14:08:50.057Z</time></trkpt><trkpt lat="42.4288297" lon="11.1313263"><ele>172.4</ele><time>2026-04-25T14:08:52.058Z</time></trkpt><trkpt lat="42.4287533" lon="11.1312317"><ele>171.2</ele><time>2026-04-25T14:08:54.045Z</time></trkpt><trkpt lat="42.4286839" lon="11.1311565"><ele>170.0</ele><time>2026-04-25T14:08:56.047Z</time></trkpt><trkpt lat="42.428612" lon="11.1310828"><ele>170.0</ele><time>2026-04-25T14:08:58.043Z</time></trkpt><trkpt lat="42.4285171" lon="11.1310258"><ele>170.0</ele><time>2026-04-25T14:09:00.045Z</time></trkpt><trkpt lat="42.4284026" lon="11.1310217"><ele>170.0</ele><time>2026-04-25T14:09:02.047Z</time></trkpt><trkpt lat="42.4283374" lon="11.1310393"><ele>170.0</ele><time>2026-04-25T14:09:03.055Z</time></trkpt><trkpt lat="42.4282694" lon="11.1310544"><ele>170.0</ele><time>2026-04-25T14:09:04.058Z</time></trkpt><trkpt lat="42.4281588" lon="11.1310519"><ele>170.0</ele><time>2026-04-25T14:09:06.048Z</time></trkpt><trkpt lat="42.4280627" lon="11.1310289"><ele>170.0</ele><time>2026-04-25T14:09:08.051Z</time></trkpt><trkpt lat="42.4279949" lon="11.1309994"><ele>170.0</ele><time>2026-04-25T14:09:09.047Z</time></trkpt><trkpt lat="42.4279219" lon="11.1309735"><ele>170.0</ele><time>2026-04-25T14:09:10.042Z</time></trkpt><trkpt lat="42.4278409" lon="11.1309439"><ele>170.0</ele><time>2026-04-25T14:09:11.044Z</time></trkpt><trkpt lat="42.4277573" lon="11.1309098"><ele>170.0</ele><time>2026-04-25T14:09:12.046Z</time></trkpt><trkpt lat="42.4276685" lon="11.1308759"><ele>170.33333333333331</ele><time>2026-04-25T14:09:13.049Z</time></trkpt><trkpt lat="42.4275898" lon="11.1308484"><ele>170.66666666666666</ele><time>2026-04-25T14:09:14.044Z</time></trkpt><trkpt lat="42.4275059" lon="11.1308195"><ele>171.0</ele><time>2026-04-25T14:09:15.054Z</time></trkpt><trkpt lat="42.427419" lon="11.1307895"><ele>171.33333333333334</ele><time>2026-04-25T14:09:16.051Z</time></trkpt><trkpt lat="42.4273287" lon="11.1307579"><ele>171.66666666666669</ele><time>2026-04-25T14:09:17.048Z</time></trkpt><trkpt lat="42.4272446" lon="11.1307267"><ele>172.0</ele><time>2026-04-25T14:09:18.049Z</time></trkpt><trkpt lat="42.4271661" lon="11.1306991"><ele>169.33333333333334</ele><time>2026-04-25T14:09:19.053Z</time></trkpt><trkpt lat="42.4270913" lon="11.1306664"><ele>166.66666666666669</ele><time>2026-04-25T14:09:20.049Z</time></trkpt><trkpt lat="42.4270146" lon="11.1306214"><ele>164.0</ele><time>2026-04-25T14:09:21.049Z</time></trkpt><trkpt lat="42.4269372" lon="11.1305705"><ele>161.33333333333334</ele><time>2026-04-25T14:09:22.047Z</time></trkpt><trkpt lat="42.4268686" lon="11.130516"><ele>158.66666666666666</ele><time>2026-04-25T14:09:23.051Z</time></trkpt><trkpt lat="42.4268007" lon="11.13046"><ele>156.0</ele><time>2026-04-25T14:09:24.051Z</time></trkpt><trkpt lat="42.4267384" lon="11.1304012"><ele>156.0</ele><time>2026-04-25T14:09:25.049Z</time></trkpt><trkpt lat="42.4266504" lon="11.1302994"><ele>156.0</ele><time>2026-04-25T14:09:27.044Z</time></trkpt><trkpt lat="42.4265897" lon="11.1301505"><ele>156.0</ele><time>2026-04-25T14:09:29.047Z</time></trkpt><trkpt lat="42.4265757" lon="11.1300496"><ele>156.0</ele><time>2026-04-25T14:09:30.048Z</time></trkpt><trkpt lat="42.4265704" lon="11.1299531"><ele>156.0</ele><time>2026-04-25T14:09:31.049Z</time></trkpt><trkpt lat="42.4265731" lon="11.1298434"><ele>155.83333333333334</ele><time>2026-04-25T14:09:32.05Z</time></trkpt><trkpt lat="42.4265735" lon="11.1297259"><ele>155.66666666666666</ele><time>2026-04-25T14:09:33.051Z</time></trkpt><trkpt lat="42.426572" lon="11.1296028"><ele>155.5</ele><time>2026-04-25T14:09:34.046Z</time></trkpt><trkpt lat="42.4265711" lon="11.1295014"><ele>155.33333333333331</ele><time>2026-04-25T14:09:35.04Z</time></trkpt><trkpt lat="42.4265662" lon="11.1293657"><ele>155.16666666666666</ele><time>2026-04-25T14:09:37.053Z</time></trkpt><trkpt lat="42.4265654" lon="11.1292677"><ele>155.0</ele><time>2026-04-25T14:09:39.055Z</time></trkpt><trkpt lat="42.4266388" lon="11.1292152"><ele>155.0</ele><time>2026-04-25T14:09:43.049Z</time></trkpt><trkpt lat="42.4267024" lon="11.1292374"><ele>155.0</ele><time>2026-04-25T14:09:45.048Z</time></trkpt><trkpt lat="42.4267772" lon="11.1292653"><ele>155.0</ele><time>2026-04-25T14:09:47.05Z</time></trkpt><trkpt lat="42.426858" lon="11.1292744"><ele>155.0</ele><time>2026-04-25T14:09:52.05Z</time></trkpt><trkpt lat="42.4269758" lon="11.1292955"><ele>155.0</ele><time>2026-04-25T14:09:54.049Z</time></trkpt><trkpt lat="42.4270812" lon="11.1293148"><ele>155.0</ele><time>2026-04-25T14:09:55.049Z</time></trkpt><trkpt lat="42.4271855" lon="11.1293262"><ele>155.0</ele><time>2026-04-25T14:09:56.059Z</time></trkpt><trkpt lat="42.4272881" lon="11.1293335"><ele>155.0</ele><time>2026-04-25T14:09:57.048Z</time></trkpt><trkpt lat="42.4273822" lon="11.1293304"><ele>155.0</ele><time>2026-04-25T14:09:58.049Z</time></trkpt><trkpt lat="42.4274651" lon="11.1293207"><ele>155.0</ele><time>2026-04-25T14:09:59.053Z</time></trkpt><trkpt lat="42.4275376" lon="11.1293043"><ele>155.0</ele><time>2026-04-25T14:10:00.047Z</time></trkpt><trkpt lat="42.4276051" lon="11.12928"><ele>155.0</ele><time>2026-04-25T14:10:01.054Z</time></trkpt><trkpt lat="42.4277144" lon="11.1292123"><ele>155.0</ele><time>2026-04-25T14:10:03.05Z</time></trkpt><trkpt lat="42.4277961" lon="11.1290773"><ele>155.0</ele><time>2026-04-25T14:10:05.054Z</time></trkpt><trkpt lat="42.4278401" lon="11.1289833"><ele>155.0</ele><time>2026-04-25T14:10:06.049Z</time></trkpt><trkpt lat="42.4278745" lon="11.1288602"><ele>152.6</ele><time>2026-04-25T14:10:07.053Z</time></trkpt><trkpt lat="42.4279099" lon="11.1287335"><ele>150.2</ele><time>2026-04-25T14:10:08.05Z</time></trkpt><trkpt lat="42.4279396" lon="11.1286112"><ele>147.8</ele><time>2026-04-25T14:10:09.055Z</time></trkpt><trkpt lat="42.4279639" lon="11.1284871"><ele>145.4</ele><time>2026-04-25T14:10:10.055Z</time></trkpt><trkpt lat="42.4279825" lon="11.1283485"><ele>143.0</ele><time>2026-04-25T14:10:11.044Z</time></trkpt><trkpt lat="42.4279962" lon="11.1282129"><ele>140.4</ele><time>2026-04-25T14:10:12.046Z</time></trkpt><trkpt lat="42.4280047" lon="11.1281075"><ele>137.8</ele><time>2026-04-25T14:10:13.042Z</time></trkpt><trkpt lat="42.4280128" lon="11.1280118"><ele>135.2</ele><time>2026-04-25T14:10:14.044Z</time></trkpt><trkpt lat="42.4280103" lon="11.1278743"><ele>132.6</ele><time>2026-04-25T14:10:16.049Z</time></trkpt><trkpt lat="42.427946" lon="11.1277781"><ele>130.0</ele><time>2026-04-25T14:10:18.046Z</time></trkpt><trkpt lat="42.4279656" lon="11.1276343"><ele>129.83333333333334</ele><time>2026-04-25T14:10:20.054Z</time></trkpt><trkpt lat="42.428016" lon="11.1275364"><ele>129.66666666666669</ele><time>2026-04-25T14:10:21.062Z</time></trkpt><trkpt lat="42.4280768" lon="11.127453"><ele>129.5</ele><time>2026-04-25T14:10:22.055Z</time></trkpt><trkpt lat="42.4281315" lon="11.1273873"><ele>129.33333333333334</ele><time>2026-04-25T14:10:23.05Z</time></trkpt><trkpt lat="42.4282057" lon="11.1273259"><ele>129.16666666666666</ele><time>2026-04-25T14:10:24.044Z</time></trkpt><trkpt lat="42.4282888" lon="11.1272684"><ele>129.0</ele><time>2026-04-25T14:10:25.047Z</time></trkpt><trkpt lat="42.4283753" lon="11.1272254"><ele>126.80000000000001</ele><time>2026-04-25T14:10:26.051Z</time></trkpt><trkpt lat="42.4284604" lon="11.1271801"><ele>124.60000000000001</ele><time>2026-04-25T14:10:27.048Z</time></trkpt><trkpt lat="42.4285426" lon="11.1271398"><ele>122.4</ele><time>2026-04-25T14:10:28.055Z</time></trkpt><trkpt lat="42.4286348" lon="11.127104"><ele>120.2</ele><time>2026-04-25T14:10:29.038Z</time></trkpt><trkpt lat="42.4287289" lon="11.1270817"><ele>118.0</ele><time>2026-04-25T14:10:30.042Z</time></trkpt><trkpt lat="42.428816" lon="11.1270556"><ele>116.16666666666667</ele><time>2026-04-25T14:10:31.053Z</time></trkpt><trkpt lat="42.4289006" lon="11.1270271"><ele>114.33333333333334</ele><time>2026-04-25T14:10:32.041Z</time></trkpt><trkpt lat="42.4289731" lon="11.1269995"><ele>112.5</ele><time>2026-04-25T14:10:33.046Z</time></trkpt><trkpt lat="42.4290457" lon="11.1269732"><ele>110.66666666666666</ele><time>2026-04-25T14:10:34.05Z</time></trkpt><trkpt lat="42.4291612" lon="11.1269738"><ele>108.83333333333333</ele><time>2026-04-25T14:10:36.052Z</time></trkpt><trkpt lat="42.4292193" lon="11.1269294"><ele>107.0</ele><time>2026-04-25T14:10:39.045Z</time></trkpt><trkpt lat="42.4291617" lon="11.126873"><ele>107.0</ele><time>2026-04-25T14:10:41.044Z</time></trkpt><trkpt lat="42.4291027" lon="11.1268237"><ele>106.99999999999999</ele><time>2026-04-25T14:10:43.045Z</time></trkpt><trkpt lat="42.4291801" lon="11.1267453"><ele>106.99999999999999</ele><time>2026-04-25T14:10:46.049Z</time></trkpt><trkpt lat="42.4292717" lon="11.126685"><ele>107.0</ele><time>2026-04-25T14:10:48.053Z</time></trkpt><trkpt lat="42.429349" lon="11.1266113"><ele>107.0</ele><time>2026-04-25T14:10:50.048Z</time></trkpt><trkpt lat="42.4294254" lon="11.1265043"><ele>107.19999999999999</ele><time>2026-04-25T14:10:52.046Z</time></trkpt><trkpt lat="42.4294916" lon="11.1263632"><ele>107.39999999999999</ele><time>2026-04-25T14:10:54.044Z</time></trkpt><trkpt lat="42.4295354" lon="11.1263009"><ele>107.60000000000001</ele><time>2026-04-25T14:10:55.047Z</time></trkpt><trkpt lat="42.4296344" lon="11.1262128"><ele>107.80000000000001</ele><time>2026-04-25T14:10:57.049Z</time></trkpt><trkpt lat="42.4296927" lon="11.1261612"><ele>108.0</ele><time>2026-04-25T14:10:58.052Z</time></trkpt><trkpt lat="42.4297586" lon="11.1260996"><ele>103.0</ele><time>2026-04-25T14:10:59.044Z</time></trkpt><trkpt lat="42.4298292" lon="11.1260286"><ele>98.00000000000001</ele><time>2026-04-25T14:11:00.042Z</time></trkpt><trkpt lat="42.4299067" lon="11.1259471"><ele>93.0</ele><time>2026-04-25T14:11:01.049Z</time></trkpt><trkpt lat="42.4299873" lon="11.1258737"><ele>88.0</ele><time>2026-04-25T14:11:02.053Z</time></trkpt><trkpt lat="42.4300888" lon="11.1257965"><ele>83.0</ele><time>2026-04-25T14:11:03.047Z</time></trkpt><trkpt lat="42.4302141" lon="11.1257157"><ele>79.5</ele><time>2026-04-25T14:11:04.058Z</time></trkpt><trkpt lat="42.4303332" lon="11.1256323"><ele>76.0</ele><time>2026-04-25T14:11:05.041Z</time></trkpt><trkpt lat="42.4304361" lon="11.1255556"><ele>72.5</ele><time>2026-04-25T14:11:06.038Z</time></trkpt><trkpt lat="42.4305299" lon="11.1254824"><ele>69.0</ele><time>2026-04-25T14:11:07.045Z</time></trkpt><trkpt lat="42.4306157" lon="11.1254039"><ele>66.5</ele><time>2026-04-25T14:11:08.055Z</time></trkpt><trkpt lat="42.4307057" lon="11.125318"><ele>64.0</ele><time>2026-04-25T14:11:09.055Z</time></trkpt><trkpt lat="42.4307888" lon="11.1252122"><ele>61.5</ele><time>2026-04-25T14:11:10.054Z</time></trkpt><trkpt lat="42.4308721" lon="11.1250889"><ele>59.0</ele><time>2026-04-25T14:11:11.043Z</time></trkpt><trkpt lat="42.4309471" lon="11.124972"><ele>54.16666666666667</ele><time>2026-04-25T14:11:12.051Z</time></trkpt><trkpt lat="42.4310072" lon="11.1248835"><ele>49.333333333333336</ele><time>2026-04-25T14:11:13.047Z</time></trkpt><trkpt lat="42.4310597" lon="11.1247957"><ele>44.5</ele><time>2026-04-25T14:11:14.054Z</time></trkpt><trkpt lat="42.4311187" lon="11.1247153"><ele>39.66666666666667</ele><time>2026-04-25T14:11:15.043Z</time></trkpt><trkpt lat="42.4311793" lon="11.1246473"><ele>34.833333333333336</ele><time>2026-04-25T14:11:16.042Z</time></trkpt><trkpt lat="42.4312367" lon="11.1245942"><ele>30.0</ele><time>2026-04-25T14:11:17.044Z</time></trkpt><trkpt lat="42.4313028" lon="11.1245701"><ele>28.8</ele><time>2026-04-25T14:11:18.05Z</time></trkpt><trkpt lat="42.4314013" lon="11.1245735"><ele>27.6</ele><time>2026-04-25T14:11:19.04Z</time></trkpt><trkpt lat="42.4315065" lon="11.1246002"><ele>26.4</ele><time>2026-04-25T14:11:20.048Z</time></trkpt><trkpt lat="42.4316" lon="11.1246178"><ele>25.2</ele><time>2026-04-25T14:11:21.046Z</time></trkpt><trkpt lat="42.4316986" lon="11.1246393"><ele>24.0</ele><time>2026-04-25T14:11:22.052Z</time></trkpt><trkpt lat="42.431786" lon="11.1246705"><ele>24.0</ele><time>2026-04-25T14:11:23.047Z</time></trkpt><trkpt lat="42.4318699" lon="11.1247208"><ele>24.0</ele><time>2026-04-25T14:11:24.051Z</time></trkpt><trkpt lat="42.4319521" lon="11.1247907"><ele>24.0</ele><time>2026-04-25T14:11:25.054Z</time></trkpt><trkpt lat="42.4320145" lon="11.1248527"><ele>24.0</ele><time>2026-04-25T14:11:26.041Z</time></trkpt><trkpt lat="42.4320723" lon="11.1249259"><ele>24.0</ele><time>2026-04-25T14:11:27.051Z</time></trkpt><trkpt lat="42.4321346" lon="11.1250172"><ele>24.0</ele><time>2026-04-25T14:11:28.045Z</time></trkpt><trkpt lat="42.4321916" lon="11.1251091"><ele>26.2</ele><time>2026-04-25T14:11:29.043Z</time></trkpt><trkpt lat="42.4322559" lon="11.1252044"><ele>28.4</ele><time>2026-04-25T14:11:30.061Z</time></trkpt><trkpt lat="42.4323271" lon="11.1253048"><ele>30.6</ele><time>2026-04-25T14:11:31.054Z</time></trkpt><trkpt lat="42.4323897" lon="11.1254103"><ele>32.8</ele><time>2026-04-25T14:11:32.044Z</time></trkpt><trkpt lat="42.432445" lon="11.1255111"><ele>35.0</ele><time>2026-04-25T14:11:33.049Z</time></trkpt><trkpt lat="42.4324914" lon="11.125594"><ele>35.0</ele><time>2026-04-25T14:11:34.042Z</time></trkpt><trkpt lat="42.4325211" lon="11.1256741"><ele>35.0</ele><time>2026-04-25T14:11:35.063Z</time></trkpt><trkpt lat="42.4326213" lon="11.1256573"><ele>35.0</ele><time>2026-04-25T14:11:38.044Z</time></trkpt><trkpt lat="42.4326796" lon="11.1255838"><ele>35.0</ele><time>2026-04-25T14:11:39.042Z</time></trkpt><trkpt lat="42.4327353" lon="11.1254893"><ele>35.0</ele><time>2026-04-25T14:11:40.046Z</time></trkpt><trkpt lat="42.4327953" lon="11.125397"><ele>35.0</ele><time>2026-04-25T14:11:41.046Z</time></trkpt><trkpt lat="42.4328784" lon="11.1253217"><ele>33.25</ele><time>2026-04-25T14:11:42.046Z</time></trkpt><trkpt lat="42.4329927" lon="11.1252458"><ele>31.5</ele><time>2026-04-25T14:11:43.05Z</time></trkpt><trkpt lat="42.4331057" lon="11.1251702"><ele>29.75</ele><time>2026-04-25T14:11:44.047Z</time></trkpt><trkpt lat="42.4332015" lon="11.1251025"><ele>28.0</ele><time>2026-04-25T14:11:45.053Z</time></trkpt><trkpt lat="42.4332948" lon="11.1250324"><ele>28.0</ele><time>2026-04-25T14:11:46.041Z</time></trkpt><trkpt lat="42.4333933" lon="11.1249562"><ele>27.999999999999996</ele><time>2026-04-25T14:11:47.051Z</time></trkpt><trkpt lat="42.4334967" lon="11.1248944"><ele>27.999999999999996</ele><time>2026-04-25T14:11:48.044Z</time></trkpt><trkpt lat="42.4335956" lon="11.1248221"><ele>28.0</ele><time>2026-04-25T14:11:49.041Z</time></trkpt><trkpt lat="42.4336879" lon="11.1247643"><ele>28.0</ele><time>2026-04-25T14:11:50.04Z</time></trkpt><trkpt lat="42.4337793" lon="11.1247171"><ele>23.599999999999998</ele><time>2026-04-25T14:11:51.055Z</time></trkpt><trkpt lat="42.4338641" lon="11.1246726"><ele>19.199999999999996</ele><time>2026-04-25T14:11:52.043Z</time></trkpt><trkpt lat="42.4339443" lon="11.1246349"><ele>14.799999999999999</ele><time>2026-04-25T14:11:53.045Z</time></trkpt><trkpt lat="42.4340451" lon="11.1246024"><ele>10.399999999999999</ele><time>2026-04-25T14:11:55.051Z</time></trkpt><trkpt lat="42.4341294" lon="11.1245574"><ele>6.0</ele><time>2026-04-25T14:11:57.051Z</time></trkpt><trkpt lat="42.4342209" lon="11.1245362"><ele>6.0</ele><time>2026-04-25T14:11:59.042Z</time></trkpt><trkpt lat="42.4343299" lon="11.1245457"><ele>6.0</ele><time>2026-04-25T14:12:01.065Z</time></trkpt><trkpt lat="42.4344344" lon="11.1245855"><ele>6.0</ele><time>2026-04-25T14:12:03.044Z</time></trkpt><trkpt lat="42.4344948" lon="11.1246258"><ele>6.0</ele><time>2026-04-25T14:12:04.047Z</time></trkpt><trkpt lat="42.4345578" lon="11.1246593"><ele>6.0</ele><time>2026-04-25T14:12:05.048Z</time></trkpt><trkpt lat="42.434655" lon="11.1247136"><ele>6.0</ele><time>2026-04-25T14:12:07.051Z</time></trkpt><trkpt lat="42.4347218" lon="11.1247492"><ele>6.0</ele><time>2026-04-25T14:12:09.05Z</time></trkpt><trkpt lat="42.4346844" lon="11.1246158"><ele>6.0</ele><time>2026-04-25T14:12:41.05Z</time></trkpt><trkpt lat="42.4346296" lon="11.1245152"><ele>6.0</ele><time>2026-04-25T14:12:42.041Z</time></trkpt><trkpt lat="42.4345525" lon="11.1244092"><ele>6.0</ele><time>2026-04-25T14:12:43.046Z</time></trkpt><trkpt lat="42.4344698" lon="11.1243068"><ele>6.0</ele><time>2026-04-25T14:12:44.054Z</time></trkpt><trkpt lat="42.4344011" lon="11.1242039"><ele>6.0</ele><time>2026-04-25T14:12:45.045Z</time></trkpt><trkpt lat="42.434338" lon="11.1241141"><ele>6.0</ele><time>2026-04-25T14:12:46.045Z</time></trkpt><trkpt lat="42.434287" lon="11.1240188"><ele>6.0</ele><time>2026-04-25T14:12:47.05Z</time></trkpt><trkpt lat="42.4342435" lon="11.1239263"><ele>6.0</ele><time>2026-04-25T14:12:48.047Z</time></trkpt><trkpt lat="42.4342172" lon="11.1238307"><ele>6.0</ele><time>2026-04-25T14:12:49.049Z</time></trkpt><trkpt lat="42.434224" lon="11.123706"><ele>6.0</ele><time>2026-04-25T14:12:50.045Z</time></trkpt><trkpt lat="42.4342461" lon="11.1235312"><ele>6.0</ele><time>2026-04-25T14:12:51.047Z</time></trkpt><trkpt lat="42.4342707" lon="11.1233424"><ele>6.0</ele><time>2026-04-25T14:12:52.049Z</time></trkpt><trkpt lat="42.4342913" lon="11.1231655"><ele>6.0</ele><time>2026-04-25T14:12:53.054Z</time></trkpt><trkpt lat="42.4343044" lon="11.1230155"><ele>6.0</ele><time>2026-04-25T14:12:54.051Z</time></trkpt><trkpt lat="42.4343292" lon="11.1228756"><ele>6.0</ele><time>2026-04-25T14:12:55.052Z</time></trkpt><trkpt lat="42.4343608" lon="11.1227358"><ele>6.0</ele><time>2026-04-25T14:12:56.051Z</time></trkpt><trkpt lat="42.4344157" lon="11.1225918"><ele>6.0</ele><time>2026-04-25T14:12:57.056Z</time></trkpt><trkpt lat="42.434493" lon="11.122454"><ele>5.2</ele><time>2026-04-25T14:12:58.052Z</time></trkpt><trkpt lat="42.4345803" lon="11.1223489"><ele>4.3999999999999995</ele><time>2026-04-25T14:12:59.045Z</time></trkpt><trkpt lat="42.4346622" lon="11.122267"><ele>3.6</ele><time>2026-04-25T14:13:00.046Z</time></trkpt><trkpt lat="42.4347393" lon="11.1221839"><ele>2.8</ele><time>2026-04-25T14:13:01.048Z</time></trkpt><trkpt lat="42.434809" lon="11.122111"><ele>2.0</ele><time>2026-04-25T14:13:02.048Z</time></trkpt><trkpt lat="42.4348766" lon="11.1220518"><ele>2.0</ele><time>2026-04-25T14:13:03.052Z</time></trkpt><trkpt lat="42.4349416" lon="11.1219984"><ele>2.0</ele><time>2026-04-25T14:13:04.042Z</time></trkpt><trkpt lat="42.435008" lon="11.1218648"><ele>2.0</ele><time>2026-04-25T14:13:06.045Z</time></trkpt><trkpt lat="42.4350305" lon="11.121755"><ele>2.0</ele><time>2026-04-25T14:13:07.049Z</time></trkpt><trkpt lat="42.4350723" lon="11.1216336"><ele>2.0</ele><time>2026-04-25T14:13:08.052Z</time></trkpt><trkpt lat="42.4351287" lon="11.1214954"><ele>3.0</ele><time>2026-04-25T14:13:09.045Z</time></trkpt><trkpt lat="42.43519" lon="11.1213525"><ele>4.0</ele><time>2026-04-25T14:13:10.044Z</time></trkpt><trkpt lat="42.4352387" lon="11.1212412"><ele>4.999999999999999</ele><time>2026-04-25T14:13:11.044Z</time></trkpt><trkpt lat="42.4352702" lon="11.1211569"><ele>6.0</ele><time>2026-04-25T14:13:12.054Z</time></trkpt><trkpt lat="42.4353012" lon="11.121034"><ele>7.0</ele><time>2026-04-25T14:13:14.054Z</time></trkpt><trkpt lat="42.4352482" lon="11.1209575"><ele>7.0</ele><time>2026-04-25T14:13:16.04Z</time></trkpt><trkpt lat="42.4351947" lon="11.1209059"><ele>7.0</ele><time>2026-04-25T14:13:17.046Z</time></trkpt><trkpt lat="42.4350913" lon="11.1208926"><ele>7.0</ele><time>2026-04-25T14:13:19.044Z</time></trkpt><trkpt lat="42.4350235" lon="11.1209905"><ele>7.0</ele><time>2026-04-25T14:13:21.053Z</time></trkpt><trkpt lat="42.434985" lon="11.1210826"><ele>7.0</ele><time>2026-04-25T14:13:23.049Z</time></trkpt><trkpt lat="42.434985" lon="11.1210826"><ele>7.0</ele><time>2026-04-25T14:13:23.049Z</time></trkpt><trkpt lat="42.434985" lon="11.1210826"><ele>7.0</ele><time>2026-04-25T14:13:23.049Z</time></trkpt></trkseg></trk></gpx>